<?xml version="1.0" encoding="UTF-8" standalone="no" ?>
<gpx xmlns="http://www.topografix.com/GPX/1/1" xmlns:xsi="http://www.w3.org/2001/XMLSchema-instance" xsi:schemaLocation="http://www.topografix.com/GPX/1/1 http://www.topografix.com/GPX/1/1/gpx.xsd" version="1.1" creator="VisuGPX - https://www.visugpx.com">
  <metadata>
    <name>TOUR ETANG DE BAGES</name>
  </metadata>
  <trk>
    <name><![CDATA[2019-12-30 12:57:40]]></name>
    <trkseg>
      <trkpt lat="43.15267" lon="2.99736">
        <ele>11.66</ele>
        <time>2019-12-30T07:58:18Z</time>
      </trkpt>
      <trkpt lat="43.15267" lon="2.99735">
        <ele>11.67</ele>
        <time>2019-12-30T07:58:19Z</time>
      </trkpt>
      <trkpt lat="43.15267" lon="2.99733">
        <ele>11.71</ele>
        <time>2019-12-30T07:58:20Z</time>
      </trkpt>
      <trkpt lat="43.15267" lon="2.99731">
        <ele>11.53</ele>
        <time>2019-12-30T07:58:21Z</time>
      </trkpt>
      <trkpt lat="43.15267" lon="2.99728">
        <ele>11.58</ele>
        <time>2019-12-30T07:58:38Z</time>
      </trkpt>
      <trkpt lat="43.15266" lon="2.99722">
        <ele>10.75</ele>
        <time>2019-12-30T07:59:08Z</time>
      </trkpt>
      <trkpt lat="43.15266" lon="2.99719">
        <ele>11.35</ele>
        <time>2019-12-30T07:59:09Z</time>
      </trkpt>
      <trkpt lat="43.15265" lon="2.99716">
        <ele>10.98</ele>
        <time>2019-12-30T07:59:10Z</time>
      </trkpt>
      <trkpt lat="43.15252" lon="2.99675">
        <ele>7.03</ele>
        <time>2019-12-30T07:59:21Z</time>
      </trkpt>
      <trkpt lat="43.15247" lon="2.99662">
        <ele>4.8</ele>
        <time>2019-12-30T07:59:24Z</time>
      </trkpt>
      <trkpt lat="43.15239" lon="2.9965">
        <ele>2.8</ele>
        <time>2019-12-30T07:59:27Z</time>
      </trkpt>
      <trkpt lat="43.15208" lon="2.99623">
        <ele>-0.47</ele>
        <time>2019-12-30T07:59:36Z</time>
      </trkpt>
      <trkpt lat="43.15203" lon="2.99618">
        <ele>-1.55</ele>
        <time>2019-12-30T07:59:38Z</time>
      </trkpt>
      <trkpt lat="43.15203" lon="2.99615">
        <ele>-1.88</ele>
        <time>2019-12-30T07:59:39Z</time>
      </trkpt>
      <trkpt lat="43.15203" lon="2.99612">
        <ele>-1.81</ele>
        <time>2019-12-30T07:59:40Z</time>
      </trkpt>
      <trkpt lat="43.15204" lon="2.99609">
        <ele>-2.12</ele>
        <time>2019-12-30T07:59:41Z</time>
      </trkpt>
      <trkpt lat="43.15204" lon="2.99605">
        <ele>-2.19</ele>
        <time>2019-12-30T07:59:42Z</time>
      </trkpt>
      <trkpt lat="43.15203" lon="2.99563">
        <ele>-1.88</ele>
        <time>2019-12-30T07:59:55Z</time>
      </trkpt>
      <trkpt lat="43.15204" lon="2.99561">
        <ele>-1.91</ele>
        <time>2019-12-30T07:59:56Z</time>
      </trkpt>
      <trkpt lat="43.15205" lon="2.99559">
        <ele>-1.99</ele>
        <time>2019-12-30T07:59:57Z</time>
      </trkpt>
      <trkpt lat="43.15206" lon="2.99558">
        <ele>-2.24</ele>
        <time>2019-12-30T07:59:58Z</time>
      </trkpt>
      <trkpt lat="43.15208" lon="2.99556">
        <ele>-1.68</ele>
        <time>2019-12-30T07:59:59Z</time>
      </trkpt>
      <trkpt lat="43.1521" lon="2.99554">
        <ele>-1.94</ele>
        <time>2019-12-30T08:00:00Z</time>
      </trkpt>
      <trkpt lat="43.15212" lon="2.99552">
        <ele>-2.07</ele>
        <time>2019-12-30T08:00:01Z</time>
      </trkpt>
      <trkpt lat="43.15245" lon="2.99515">
        <ele>-2.22</ele>
        <time>2019-12-30T08:00:15Z</time>
      </trkpt>
      <trkpt lat="43.15257" lon="2.99494">
        <ele>-1.85</ele>
        <time>2019-12-30T08:00:20Z</time>
      </trkpt>
      <trkpt lat="43.15258" lon="2.99489">
        <ele>-2.38</ele>
        <time>2019-12-30T08:00:21Z</time>
      </trkpt>
      <trkpt lat="43.15258" lon="2.99478">
        <ele>-2.05</ele>
        <time>2019-12-30T08:00:23Z</time>
      </trkpt>
      <trkpt lat="43.15258" lon="2.99472">
        <ele>-2.08</ele>
        <time>2019-12-30T08:00:24Z</time>
      </trkpt>
      <trkpt lat="43.15256" lon="2.99455">
        <ele>-2.16</ele>
        <time>2019-12-30T08:00:27Z</time>
      </trkpt>
      <trkpt lat="43.15256" lon="2.99449">
        <ele>-2.56</ele>
        <time>2019-12-30T08:00:28Z</time>
      </trkpt>
      <trkpt lat="43.15251" lon="2.99398">
        <ele>-1.75</ele>
        <time>2019-12-30T08:00:38Z</time>
      </trkpt>
      <trkpt lat="43.15248" lon="2.99347">
        <ele>-2.42</ele>
        <time>2019-12-30T08:00:50Z</time>
      </trkpt>
      <trkpt lat="43.15239" lon="2.99303">
        <ele>-2.32</ele>
        <time>2019-12-30T08:01:00Z</time>
      </trkpt>
      <trkpt lat="43.15235" lon="2.99295">
        <ele>-2.62</ele>
        <time>2019-12-30T08:01:02Z</time>
      </trkpt>
      <trkpt lat="43.15235" lon="2.99291">
        <ele>-2.41</ele>
        <time>2019-12-30T08:01:03Z</time>
      </trkpt>
      <trkpt lat="43.15235" lon="2.99286">
        <ele>-2.38</ele>
        <time>2019-12-30T08:01:04Z</time>
      </trkpt>
      <trkpt lat="43.15234" lon="2.99281">
        <ele>-2.2</ele>
        <time>2019-12-30T08:01:05Z</time>
      </trkpt>
      <trkpt lat="43.15233" lon="2.99276">
        <ele>-2.16</ele>
        <time>2019-12-30T08:01:06Z</time>
      </trkpt>
      <trkpt lat="43.15232" lon="2.99271">
        <ele>-2.25</ele>
        <time>2019-12-30T08:01:07Z</time>
      </trkpt>
      <trkpt lat="43.15233" lon="2.99261">
        <ele>-2.31</ele>
        <time>2019-12-30T08:01:09Z</time>
      </trkpt>
      <trkpt lat="43.15234" lon="2.99257">
        <ele>-1.97</ele>
        <time>2019-12-30T08:01:10Z</time>
      </trkpt>
      <trkpt lat="43.15234" lon="2.99254">
        <ele>-2.2</ele>
        <time>2019-12-30T08:01:11Z</time>
      </trkpt>
      <trkpt lat="43.15234" lon="2.99251">
        <ele>-2.56</ele>
        <time>2019-12-30T08:01:24Z</time>
      </trkpt>
      <trkpt lat="43.15232" lon="2.99236">
        <ele>-2.67</ele>
        <time>2019-12-30T08:01:39Z</time>
      </trkpt>
      <trkpt lat="43.15219" lon="2.99204">
        <ele>-2.55</ele>
        <time>2019-12-30T08:01:51Z</time>
      </trkpt>
      <trkpt lat="43.15194" lon="2.99171">
        <ele>-2.3</ele>
        <time>2019-12-30T08:02:03Z</time>
      </trkpt>
      <trkpt lat="43.15183" lon="2.9915">
        <ele>-2.7</ele>
        <time>2019-12-30T08:02:13Z</time>
      </trkpt>
      <trkpt lat="43.15182" lon="2.99148">
        <ele>-2.5</ele>
        <time>2019-12-30T08:02:14Z</time>
      </trkpt>
      <trkpt lat="43.15161" lon="2.99118">
        <ele>-1.95</ele>
        <time>2019-12-30T08:02:25Z</time>
      </trkpt>
      <trkpt lat="43.15135" lon="2.99079">
        <ele>-2.25</ele>
        <time>2019-12-30T08:02:37Z</time>
      </trkpt>
      <trkpt lat="43.15115" lon="2.99053">
        <ele>-1.97</ele>
        <time>2019-12-30T08:02:46Z</time>
      </trkpt>
      <trkpt lat="43.15113" lon="2.99052">
        <ele>-2.36</ele>
        <time>2019-12-30T08:02:47Z</time>
      </trkpt>
      <trkpt lat="43.15112" lon="2.9905">
        <ele>-2.68</ele>
        <time>2019-12-30T08:02:48Z</time>
      </trkpt>
      <trkpt lat="43.15095" lon="2.9902">
        <ele>-2.1</ele>
        <time>2019-12-30T08:03:00Z</time>
      </trkpt>
      <trkpt lat="43.15065" lon="2.9898">
        <ele>-2.2</ele>
        <time>2019-12-30T08:03:12Z</time>
      </trkpt>
      <trkpt lat="43.15063" lon="2.98977">
        <ele>-2.18</ele>
        <time>2019-12-30T08:03:13Z</time>
      </trkpt>
      <trkpt lat="43.15062" lon="2.98973">
        <ele>-2.11</ele>
        <time>2019-12-30T08:03:14Z</time>
      </trkpt>
      <trkpt lat="43.15061" lon="2.98969">
        <ele>-1.96</ele>
        <time>2019-12-30T08:03:15Z</time>
      </trkpt>
      <trkpt lat="43.15059" lon="2.98966">
        <ele>-1.82</ele>
        <time>2019-12-30T08:03:16Z</time>
      </trkpt>
      <trkpt lat="43.15058" lon="2.98964">
        <ele>-2.07</ele>
        <time>2019-12-30T08:03:17Z</time>
      </trkpt>
      <trkpt lat="43.15056" lon="2.98962">
        <ele>-2.09</ele>
        <time>2019-12-30T08:03:18Z</time>
      </trkpt>
      <trkpt lat="43.15054" lon="2.9896">
        <ele>-2.54</ele>
        <time>2019-12-30T08:03:19Z</time>
      </trkpt>
      <trkpt lat="43.15053" lon="2.98958">
        <ele>-2.45</ele>
        <time>2019-12-30T08:03:20Z</time>
      </trkpt>
      <trkpt lat="43.15052" lon="2.98956">
        <ele>-2.41</ele>
        <time>2019-12-30T08:03:21Z</time>
      </trkpt>
      <trkpt lat="43.15051" lon="2.98954">
        <ele>-2.24</ele>
        <time>2019-12-30T08:03:22Z</time>
      </trkpt>
      <trkpt lat="43.1505" lon="2.98952">
        <ele>-2.39</ele>
        <time>2019-12-30T08:03:23Z</time>
      </trkpt>
      <trkpt lat="43.1505" lon="2.98949">
        <ele>-2.61</ele>
        <time>2019-12-30T08:03:24Z</time>
      </trkpt>
      <trkpt lat="43.15049" lon="2.98947">
        <ele>-2.55</ele>
        <time>2019-12-30T08:03:25Z</time>
      </trkpt>
      <trkpt lat="43.15047" lon="2.98945">
        <ele>-2.13</ele>
        <time>2019-12-30T08:03:26Z</time>
      </trkpt>
      <trkpt lat="43.15046" lon="2.98942">
        <ele>-2.34</ele>
        <time>2019-12-30T08:03:27Z</time>
      </trkpt>
      <trkpt lat="43.15044" lon="2.98939">
        <ele>-2.21</ele>
        <time>2019-12-30T08:03:28Z</time>
      </trkpt>
      <trkpt lat="43.15026" lon="2.98906">
        <ele>-3.12</ele>
        <time>2019-12-30T08:03:41Z</time>
      </trkpt>
      <trkpt lat="43.15019" lon="2.98891">
        <ele>-2.8</ele>
        <time>2019-12-30T08:03:53Z</time>
      </trkpt>
      <trkpt lat="43.15015" lon="2.98879">
        <ele>-2.04</ele>
        <time>2019-12-30T08:04:05Z</time>
      </trkpt>
      <trkpt lat="43.15009" lon="2.98862">
        <ele>-1.97</ele>
        <time>2019-12-30T08:04:14Z</time>
      </trkpt>
      <trkpt lat="43.15009" lon="2.98859">
        <ele>-2.01</ele>
        <time>2019-12-30T08:04:15Z</time>
      </trkpt>
      <trkpt lat="43.15011" lon="2.98857">
        <ele>-1.91</ele>
        <time>2019-12-30T08:04:16Z</time>
      </trkpt>
      <trkpt lat="43.15012" lon="2.98855">
        <ele>-2.14</ele>
        <time>2019-12-30T08:04:17Z</time>
      </trkpt>
      <trkpt lat="43.15012" lon="2.98853">
        <ele>-1.69</ele>
        <time>2019-12-30T08:04:18Z</time>
      </trkpt>
      <trkpt lat="43.15014" lon="2.98851">
        <ele>-1.69</ele>
        <time>2019-12-30T08:04:19Z</time>
      </trkpt>
      <trkpt lat="43.15015" lon="2.98849">
        <ele>-1.68</ele>
        <time>2019-12-30T08:04:20Z</time>
      </trkpt>
      <trkpt lat="43.15024" lon="2.9884">
        <ele>-2.56</ele>
        <time>2019-12-30T08:04:25Z</time>
      </trkpt>
      <trkpt lat="43.15025" lon="2.98837">
        <ele>-2.46</ele>
        <time>2019-12-30T08:04:26Z</time>
      </trkpt>
      <trkpt lat="43.15025" lon="2.98834">
        <ele>-1.75</ele>
        <time>2019-12-30T08:04:36Z</time>
      </trkpt>
      <trkpt lat="43.15024" lon="2.98833">
        <ele>-2.21</ele>
        <time>2019-12-30T08:04:51Z</time>
      </trkpt>
      <trkpt lat="43.15024" lon="2.98831">
        <ele>-2.39</ele>
        <time>2019-12-30T08:04:52Z</time>
      </trkpt>
      <trkpt lat="43.15023" lon="2.98828">
        <ele>-2.06</ele>
        <time>2019-12-30T08:04:53Z</time>
      </trkpt>
      <trkpt lat="43.15022" lon="2.98826">
        <ele>-2.28</ele>
        <time>2019-12-30T08:04:54Z</time>
      </trkpt>
      <trkpt lat="43.15021" lon="2.98823">
        <ele>-2.54</ele>
        <time>2019-12-30T08:04:55Z</time>
      </trkpt>
      <trkpt lat="43.15021" lon="2.9882">
        <ele>-2.6</ele>
        <time>2019-12-30T08:04:56Z</time>
      </trkpt>
      <trkpt lat="43.1502" lon="2.98816">
        <ele>-2.47</ele>
        <time>2019-12-30T08:04:57Z</time>
      </trkpt>
      <trkpt lat="43.15018" lon="2.9881">
        <ele>-2.54</ele>
        <time>2019-12-30T08:04:59Z</time>
      </trkpt>
      <trkpt lat="43.15016" lon="2.98808">
        <ele>-2.34</ele>
        <time>2019-12-30T08:05:00Z</time>
      </trkpt>
      <trkpt lat="43.15015" lon="2.98807">
        <ele>-2.97</ele>
        <time>2019-12-30T08:05:01Z</time>
      </trkpt>
      <trkpt lat="43.15013" lon="2.98806">
        <ele>-2.49</ele>
        <time>2019-12-30T08:05:02Z</time>
      </trkpt>
      <trkpt lat="43.15012" lon="2.98806">
        <ele>-2.36</ele>
        <time>2019-12-30T08:05:03Z</time>
      </trkpt>
      <trkpt lat="43.1501" lon="2.98805">
        <ele>-2.68</ele>
        <time>2019-12-30T08:05:16Z</time>
      </trkpt>
      <trkpt lat="43.15004" lon="2.988">
        <ele>-2.73</ele>
        <time>2019-12-30T08:05:29Z</time>
      </trkpt>
      <trkpt lat="43.15" lon="2.9879">
        <ele>-2.46</ele>
        <time>2019-12-30T08:05:43Z</time>
      </trkpt>
      <trkpt lat="43.14998" lon="2.98783">
        <ele>-2.23</ele>
        <time>2019-12-30T08:05:50Z</time>
      </trkpt>
      <trkpt lat="43.14997" lon="2.98781">
        <ele>-2.4</ele>
        <time>2019-12-30T08:05:51Z</time>
      </trkpt>
      <trkpt lat="43.14996" lon="2.98779">
        <ele>-2.19</ele>
        <time>2019-12-30T08:05:52Z</time>
      </trkpt>
      <trkpt lat="43.14977" lon="2.98753">
        <ele>-2</ele>
        <time>2019-12-30T08:06:02Z</time>
      </trkpt>
      <trkpt lat="43.14948" lon="2.98717">
        <ele>-2.24</ele>
        <time>2019-12-30T08:06:14Z</time>
      </trkpt>
      <trkpt lat="43.14946" lon="2.98713">
        <ele>-2.48</ele>
        <time>2019-12-30T08:06:18Z</time>
      </trkpt>
      <trkpt lat="43.14939" lon="2.98705">
        <ele>-2.94</ele>
        <time>2019-12-30T08:06:34Z</time>
      </trkpt>
      <trkpt lat="43.14934" lon="2.98702">
        <ele>-2.22</ele>
        <time>2019-12-30T08:06:39Z</time>
      </trkpt>
      <trkpt lat="43.14933" lon="2.98702">
        <ele>-2.38</ele>
        <time>2019-12-30T08:06:40Z</time>
      </trkpt>
      <trkpt lat="43.14931" lon="2.98701">
        <ele>-2.43</ele>
        <time>2019-12-30T08:06:41Z</time>
      </trkpt>
      <trkpt lat="43.14919" lon="2.98692">
        <ele>-2.26</ele>
        <time>2019-12-30T08:06:49Z</time>
      </trkpt>
      <trkpt lat="43.1491" lon="2.98682">
        <ele>-2.12</ele>
        <time>2019-12-30T08:06:50Z</time>
      </trkpt>
      <trkpt lat="43.14895" lon="2.98654">
        <ele>-2.58</ele>
        <time>2019-12-30T08:06:53Z</time>
      </trkpt>
      <trkpt lat="43.14885" lon="2.9864">
        <ele>-1.32</ele>
        <time>2019-12-30T08:08:37Z</time>
      </trkpt>
      <trkpt lat="43.14841" lon="2.98612">
        <ele>-1.57</ele>
        <time>2019-12-30T08:08:51Z</time>
      </trkpt>
      <trkpt lat="43.14801" lon="2.98594">
        <ele>-1.46</ele>
        <time>2019-12-30T08:09:04Z</time>
      </trkpt>
      <trkpt lat="43.1479" lon="2.98589">
        <ele>-1.78</ele>
        <time>2019-12-30T08:09:12Z</time>
      </trkpt>
      <trkpt lat="43.14789" lon="2.98588">
        <ele>-1.78</ele>
        <time>2019-12-30T08:09:13Z</time>
      </trkpt>
      <trkpt lat="43.14788" lon="2.98587">
        <ele>-1.39</ele>
        <time>2019-12-30T08:09:14Z</time>
      </trkpt>
      <trkpt lat="43.14784" lon="2.98585">
        <ele>-1.19</ele>
        <time>2019-12-30T08:09:17Z</time>
      </trkpt>
      <trkpt lat="43.14783" lon="2.98584">
        <ele>-1.5</ele>
        <time>2019-12-30T08:09:18Z</time>
      </trkpt>
      <trkpt lat="43.14782" lon="2.98583">
        <ele>-1.47</ele>
        <time>2019-12-30T08:09:19Z</time>
      </trkpt>
      <trkpt lat="43.1478" lon="2.98583">
        <ele>-1.25</ele>
        <time>2019-12-30T08:09:20Z</time>
      </trkpt>
      <trkpt lat="43.14778" lon="2.98582">
        <ele>-1.15</ele>
        <time>2019-12-30T08:09:21Z</time>
      </trkpt>
      <trkpt lat="43.14738" lon="2.98565">
        <ele>-0.16</ele>
        <time>2019-12-30T08:09:38Z</time>
      </trkpt>
      <trkpt lat="43.1472" lon="2.98532">
        <ele>1.85</ele>
        <time>2019-12-30T08:09:49Z</time>
      </trkpt>
      <trkpt lat="43.14703" lon="2.98486">
        <ele>3.78</ele>
        <time>2019-12-30T08:10:02Z</time>
      </trkpt>
      <trkpt lat="43.1468" lon="2.98424">
        <ele>5.23</ele>
        <time>2019-12-30T08:10:18Z</time>
      </trkpt>
      <trkpt lat="43.14671" lon="2.98406">
        <ele>6.11</ele>
        <time>2019-12-30T08:10:24Z</time>
      </trkpt>
      <trkpt lat="43.14668" lon="2.98405">
        <ele>6.42</ele>
        <time>2019-12-30T08:10:25Z</time>
      </trkpt>
      <trkpt lat="43.14666" lon="2.98406">
        <ele>6.25</ele>
        <time>2019-12-30T08:10:26Z</time>
      </trkpt>
      <trkpt lat="43.14642" lon="2.9842">
        <ele>7.63</ele>
        <time>2019-12-30T08:10:34Z</time>
      </trkpt>
      <trkpt lat="43.14604" lon="2.98421">
        <ele>9.72</ele>
        <time>2019-12-30T08:10:47Z</time>
      </trkpt>
      <trkpt lat="43.14578" lon="2.98415">
        <ele>7.13</ele>
        <time>2019-12-30T08:10:54Z</time>
      </trkpt>
      <trkpt lat="43.14573" lon="2.98415">
        <ele>7.06</ele>
        <time>2019-12-30T08:10:55Z</time>
      </trkpt>
      <trkpt lat="43.1455" lon="2.98413">
        <ele>5.06</ele>
        <time>2019-12-30T08:10:59Z</time>
      </trkpt>
      <trkpt lat="43.14518" lon="2.98415">
        <ele>3.34</ele>
        <time>2019-12-30T08:11:04Z</time>
      </trkpt>
      <trkpt lat="43.14512" lon="2.98413">
        <ele>3.02</ele>
        <time>2019-12-30T08:11:05Z</time>
      </trkpt>
      <trkpt lat="43.14506" lon="2.9841">
        <ele>2.98</ele>
        <time>2019-12-30T08:11:06Z</time>
      </trkpt>
      <trkpt lat="43.14501" lon="2.98407">
        <ele>2.44</ele>
        <time>2019-12-30T08:11:07Z</time>
      </trkpt>
      <trkpt lat="43.14497" lon="2.98404">
        <ele>1.91</ele>
        <time>2019-12-30T08:11:08Z</time>
      </trkpt>
      <trkpt lat="43.14494" lon="2.98401">
        <ele>1.75</ele>
        <time>2019-12-30T08:11:09Z</time>
      </trkpt>
      <trkpt lat="43.14462" lon="2.98379">
        <ele>1.97</ele>
        <time>2019-12-30T08:11:22Z</time>
      </trkpt>
      <trkpt lat="43.14434" lon="2.98358">
        <ele>2.68</ele>
        <time>2019-12-30T08:11:32Z</time>
      </trkpt>
      <trkpt lat="43.14431" lon="2.98359">
        <ele>2.32</ele>
        <time>2019-12-30T08:11:33Z</time>
      </trkpt>
      <trkpt lat="43.14427" lon="2.98359">
        <ele>2.43</ele>
        <time>2019-12-30T08:11:34Z</time>
      </trkpt>
      <trkpt lat="43.14424" lon="2.98358">
        <ele>2.82</ele>
        <time>2019-12-30T08:11:35Z</time>
      </trkpt>
      <trkpt lat="43.1442" lon="2.98357">
        <ele>2.7</ele>
        <time>2019-12-30T08:11:36Z</time>
      </trkpt>
      <trkpt lat="43.1439" lon="2.9835">
        <ele>1.97</ele>
        <time>2019-12-30T08:11:47Z</time>
      </trkpt>
      <trkpt lat="43.14388" lon="2.98348">
        <ele>1.87</ele>
        <time>2019-12-30T08:11:48Z</time>
      </trkpt>
      <trkpt lat="43.14383" lon="2.98343">
        <ele>1.75</ele>
        <time>2019-12-30T08:11:50Z</time>
      </trkpt>
      <trkpt lat="43.14379" lon="2.98341">
        <ele>1.84</ele>
        <time>2019-12-30T08:11:51Z</time>
      </trkpt>
      <trkpt lat="43.14375" lon="2.9834">
        <ele>1.35</ele>
        <time>2019-12-30T08:11:52Z</time>
      </trkpt>
      <trkpt lat="43.14307" lon="2.98314">
        <ele>1.96</ele>
        <time>2019-12-30T08:12:07Z</time>
      </trkpt>
      <trkpt lat="43.14163" lon="2.98176">
        <ele>2.2</ele>
      </trkpt>
      <trkpt lat="43.14034" lon="2.98055">
        <ele>1.2</ele>
      </trkpt>
      <trkpt lat="43.13942" lon="2.97976">
        <ele>1.8</ele>
      </trkpt>
      <trkpt lat="43.1391" lon="2.97956">
        <ele>1.6</ele>
      </trkpt>
      <trkpt lat="43.13877" lon="2.97952">
        <ele>1.8</ele>
      </trkpt>
      <trkpt lat="43.13842" lon="2.97965">
        <ele>0.54</ele>
        <time>2019-12-30T08:19:38Z</time>
      </trkpt>
      <trkpt lat="43.13833" lon="2.97972">
        <ele>0.74</ele>
        <time>2019-12-30T08:19:40Z</time>
      </trkpt>
      <trkpt lat="43.13829" lon="2.97977">
        <ele>0.63</ele>
        <time>2019-12-30T08:19:41Z</time>
      </trkpt>
      <trkpt lat="43.13825" lon="2.97982">
        <ele>0.29</ele>
        <time>2019-12-30T08:19:42Z</time>
      </trkpt>
      <trkpt lat="43.13821" lon="2.97987">
        <ele>0.37</ele>
        <time>2019-12-30T08:19:43Z</time>
      </trkpt>
      <trkpt lat="43.13818" lon="2.97993">
        <ele>-0.12</ele>
        <time>2019-12-30T08:19:44Z</time>
      </trkpt>
      <trkpt lat="43.13815" lon="2.97999">
        <ele>0.15</ele>
        <time>2019-12-30T08:19:45Z</time>
      </trkpt>
      <trkpt lat="43.13812" lon="2.98005">
        <ele>0.32</ele>
        <time>2019-12-30T08:19:46Z</time>
      </trkpt>
      <trkpt lat="43.13809" lon="2.98012">
        <ele>0.74</ele>
        <time>2019-12-30T08:19:47Z</time>
      </trkpt>
      <trkpt lat="43.13793" lon="2.9806">
        <ele>0.51</ele>
        <time>2019-12-30T08:19:54Z</time>
      </trkpt>
      <trkpt lat="43.13768" lon="2.98099">
        <ele>0.6</ele>
        <time>2019-12-30T08:20:01Z</time>
      </trkpt>
      <trkpt lat="43.13763" lon="2.98102">
        <ele>0.45</ele>
        <time>2019-12-30T08:20:02Z</time>
      </trkpt>
      <trkpt lat="43.13688" lon="2.98154">
        <ele>0.76</ele>
        <time>2019-12-30T08:20:17Z</time>
      </trkpt>
      <trkpt lat="43.13637" lon="2.9823">
        <ele>3.24</ele>
        <time>2019-12-30T08:20:31Z</time>
      </trkpt>
      <trkpt lat="43.13634" lon="2.98235">
        <ele>3.33</ele>
        <time>2019-12-30T08:20:32Z</time>
      </trkpt>
      <trkpt lat="43.13568" lon="2.98325">
        <ele>0.67</ele>
        <time>2019-12-30T08:20:47Z</time>
      </trkpt>
      <trkpt lat="43.13486" lon="2.98431">
        <ele>0.8</ele>
        <time>2019-12-30T08:21:04Z</time>
      </trkpt>
      <trkpt lat="43.13391" lon="2.98524">
        <ele>0.46</ele>
        <time>2019-12-30T08:21:22Z</time>
      </trkpt>
      <trkpt lat="43.1334" lon="2.98589">
        <ele>0.7</ele>
        <time>2019-12-30T08:21:33Z</time>
      </trkpt>
      <trkpt lat="43.13335" lon="2.98594">
        <ele>1.35</ele>
        <time>2019-12-30T08:21:34Z</time>
      </trkpt>
      <trkpt lat="43.1333" lon="2.98598">
        <ele>0.92</ele>
        <time>2019-12-30T08:21:35Z</time>
      </trkpt>
      <trkpt lat="43.13324" lon="2.98601">
        <ele>0.58</ele>
        <time>2019-12-30T08:21:36Z</time>
      </trkpt>
      <trkpt lat="43.13318" lon="2.98604">
        <ele>0.44</ele>
        <time>2019-12-30T08:21:37Z</time>
      </trkpt>
      <trkpt lat="43.13312" lon="2.98606">
        <ele>0.5</ele>
        <time>2019-12-30T08:21:38Z</time>
      </trkpt>
      <trkpt lat="43.13306" lon="2.98607">
        <ele>0.44</ele>
        <time>2019-12-30T08:21:39Z</time>
      </trkpt>
      <trkpt lat="43.13228" lon="2.98602">
        <ele>0.76</ele>
        <time>2019-12-30T08:21:51Z</time>
      </trkpt>
      <trkpt lat="43.13123" lon="2.98562">
        <ele>0.37</ele>
        <time>2019-12-30T08:22:08Z</time>
      </trkpt>
      <trkpt lat="43.13041" lon="2.98577">
        <ele>0.43</ele>
        <time>2019-12-30T08:22:21Z</time>
      </trkpt>
      <trkpt lat="43.1292" lon="2.9864">
        <ele>0.52</ele>
        <time>2019-12-30T08:22:41Z</time>
      </trkpt>
      <trkpt lat="43.1284" lon="2.98684">
        <ele>-0.4</ele>
        <time>2019-12-30T08:22:54Z</time>
      </trkpt>
      <trkpt lat="43.12834" lon="2.98686">
        <ele>0.11</ele>
        <time>2019-12-30T08:22:55Z</time>
      </trkpt>
      <trkpt lat="43.12827" lon="2.98687">
        <ele>0.08</ele>
        <time>2019-12-30T08:22:56Z</time>
      </trkpt>
      <trkpt lat="43.12714" lon="2.98695">
        <ele>-0.66</ele>
        <time>2019-12-30T08:23:13Z</time>
      </trkpt>
      <trkpt lat="43.12708" lon="2.98695">
        <ele>-0.02</ele>
        <time>2019-12-30T08:23:14Z</time>
      </trkpt>
      <trkpt lat="43.12642" lon="2.9869">
        <ele>-0.69</ele>
        <time>2019-12-30T08:23:25Z</time>
      </trkpt>
      <trkpt lat="43.12636" lon="2.98692">
        <ele>-0.2</ele>
        <time>2019-12-30T08:23:26Z</time>
      </trkpt>
      <trkpt lat="43.1263" lon="2.98693">
        <ele>-0.09</ele>
        <time>2019-12-30T08:23:27Z</time>
      </trkpt>
      <trkpt lat="43.12542" lon="2.98716">
        <ele>-0.83</ele>
        <time>2019-12-30T08:23:42Z</time>
      </trkpt>
      <trkpt lat="43.12448" lon="2.98774">
        <ele>-0.44</ele>
        <time>2019-12-30T08:23:59Z</time>
      </trkpt>
      <trkpt lat="43.12439" lon="2.98783">
        <ele>0.25</ele>
        <time>2019-12-30T08:24:01Z</time>
      </trkpt>
      <trkpt lat="43.12435" lon="2.98788">
        <ele>0.15</ele>
        <time>2019-12-30T08:24:02Z</time>
      </trkpt>
      <trkpt lat="43.12432" lon="2.98794">
        <ele>0.41</ele>
        <time>2019-12-30T08:24:03Z</time>
      </trkpt>
      <trkpt lat="43.12429" lon="2.988">
        <ele>0.06</ele>
        <time>2019-12-30T08:24:04Z</time>
      </trkpt>
      <trkpt lat="43.12426" lon="2.98806">
        <ele>0.18</ele>
        <time>2019-12-30T08:24:05Z</time>
      </trkpt>
      <trkpt lat="43.12424" lon="2.98813">
        <ele>0.1</ele>
        <time>2019-12-30T08:24:06Z</time>
      </trkpt>
      <trkpt lat="43.1242" lon="2.98824">
        <ele>0.38</ele>
        <time>2019-12-30T08:24:08Z</time>
      </trkpt>
      <trkpt lat="43.12419" lon="2.9883">
        <ele>0.17</ele>
        <time>2019-12-30T08:24:09Z</time>
      </trkpt>
      <trkpt lat="43.12417" lon="2.989">
        <ele>-0.64</ele>
        <time>2019-12-30T08:24:22Z</time>
      </trkpt>
      <trkpt lat="43.12422" lon="2.98952">
        <ele>-1.36</ele>
        <time>2019-12-30T08:24:34Z</time>
      </trkpt>
      <trkpt lat="43.12441" lon="2.99005">
        <ele>-0.82</ele>
        <time>2019-12-30T08:25:09Z</time>
      </trkpt>
      <trkpt lat="43.12448" lon="2.99021">
        <ele>-0.21</ele>
        <time>2019-12-30T08:25:12Z</time>
      </trkpt>
      <trkpt lat="43.1245" lon="2.99026">
        <ele>-0.16</ele>
        <time>2019-12-30T08:25:13Z</time>
      </trkpt>
      <trkpt lat="43.12477" lon="2.99096">
        <ele>-0.12</ele>
        <time>2019-12-30T08:25:26Z</time>
      </trkpt>
      <trkpt lat="43.12478" lon="2.99102">
        <ele>-0.49</ele>
        <time>2019-12-30T08:25:27Z</time>
      </trkpt>
      <trkpt lat="43.1248" lon="2.99121">
        <ele>-0.95</ele>
        <time>2019-12-30T08:25:30Z</time>
      </trkpt>
      <trkpt lat="43.1248" lon="2.99128">
        <ele>-0.91</ele>
        <time>2019-12-30T08:25:31Z</time>
      </trkpt>
      <trkpt lat="43.12478" lon="2.99254">
        <ele>-0.6</ele>
        <time>2019-12-30T08:25:50Z</time>
      </trkpt>
      <trkpt lat="43.12493" lon="2.99343">
        <ele>-1.07</ele>
        <time>2019-12-30T08:26:03Z</time>
      </trkpt>
      <trkpt lat="43.12499" lon="2.99355">
        <ele>-1.09</ele>
        <time>2019-12-30T08:26:05Z</time>
      </trkpt>
      <trkpt lat="43.12503" lon="2.99361">
        <ele>-0.98</ele>
        <time>2019-12-30T08:26:06Z</time>
      </trkpt>
      <trkpt lat="43.12506" lon="2.99367">
        <ele>-0.88</ele>
        <time>2019-12-30T08:26:07Z</time>
      </trkpt>
      <trkpt lat="43.12508" lon="2.99374">
        <ele>-1.07</ele>
        <time>2019-12-30T08:26:08Z</time>
      </trkpt>
      <trkpt lat="43.12509" lon="2.99381">
        <ele>-1.08</ele>
        <time>2019-12-30T08:26:09Z</time>
      </trkpt>
      <trkpt lat="43.12511" lon="2.99388">
        <ele>-1</ele>
        <time>2019-12-30T08:26:10Z</time>
      </trkpt>
      <trkpt lat="43.12513" lon="2.99394">
        <ele>-0.95</ele>
        <time>2019-12-30T08:26:11Z</time>
      </trkpt>
      <trkpt lat="43.12515" lon="2.994">
        <ele>-0.69</ele>
        <time>2019-12-30T08:26:12Z</time>
      </trkpt>
      <trkpt lat="43.12517" lon="2.99407">
        <ele>-0.93</ele>
        <time>2019-12-30T08:26:13Z</time>
      </trkpt>
      <trkpt lat="43.12517" lon="2.99413">
        <ele>-1.28</ele>
        <time>2019-12-30T08:26:14Z</time>
      </trkpt>
      <trkpt lat="43.12517" lon="2.9942">
        <ele>-0.78</ele>
        <time>2019-12-30T08:26:15Z</time>
      </trkpt>
      <trkpt lat="43.12516" lon="2.99426">
        <ele>-0.95</ele>
        <time>2019-12-30T08:26:16Z</time>
      </trkpt>
      <trkpt lat="43.12514" lon="2.99438">
        <ele>-0.49</ele>
        <time>2019-12-30T08:26:18Z</time>
      </trkpt>
      <trkpt lat="43.12511" lon="2.99443">
        <ele>-0.78</ele>
        <time>2019-12-30T08:26:19Z</time>
      </trkpt>
      <trkpt lat="43.12508" lon="2.99448">
        <ele>-0.53</ele>
        <time>2019-12-30T08:26:20Z</time>
      </trkpt>
      <trkpt lat="43.12503" lon="2.9945">
        <ele>-0.64</ele>
        <time>2019-12-30T08:26:21Z</time>
      </trkpt>
      <trkpt lat="43.12498" lon="2.99452">
        <ele>-0.75</ele>
        <time>2019-12-30T08:26:22Z</time>
      </trkpt>
      <trkpt lat="43.12493" lon="2.99453">
        <ele>-0.78</ele>
        <time>2019-12-30T08:26:23Z</time>
      </trkpt>
      <trkpt lat="43.12488" lon="2.99453">
        <ele>-0.6</ele>
        <time>2019-12-30T08:26:24Z</time>
      </trkpt>
      <trkpt lat="43.12468" lon="2.99451">
        <ele>-0.6</ele>
        <time>2019-12-30T08:26:28Z</time>
      </trkpt>
      <trkpt lat="43.12458" lon="2.99448">
        <ele>-1.11</ele>
        <time>2019-12-30T08:26:30Z</time>
      </trkpt>
      <trkpt lat="43.12453" lon="2.99446">
        <ele>-0.86</ele>
        <time>2019-12-30T08:26:31Z</time>
      </trkpt>
      <trkpt lat="43.12436" lon="2.99437">
        <ele>-1.01</ele>
        <time>2019-12-30T08:26:35Z</time>
      </trkpt>
      <trkpt lat="43.12432" lon="2.99434">
        <ele>-0.77</ele>
        <time>2019-12-30T08:26:36Z</time>
      </trkpt>
      <trkpt lat="43.12425" lon="2.99428">
        <ele>-0.98</ele>
        <time>2019-12-30T08:26:38Z</time>
      </trkpt>
      <trkpt lat="43.12403" lon="2.9941">
        <ele>-0.61</ele>
        <time>2019-12-30T08:26:44Z</time>
      </trkpt>
      <trkpt lat="43.12401" lon="2.9941">
        <ele>-1.21</ele>
        <time>2019-12-30T08:26:45Z</time>
      </trkpt>
      <trkpt lat="43.124" lon="2.9941">
        <ele>-1.05</ele>
        <time>2019-12-30T08:26:46Z</time>
      </trkpt>
      <trkpt lat="43.12398" lon="2.99416">
        <ele>-1.29</ele>
        <time>2019-12-30T08:26:48Z</time>
      </trkpt>
      <trkpt lat="43.12373" lon="2.99429">
        <ele>-1.39</ele>
        <time>2019-12-30T08:26:57Z</time>
      </trkpt>
      <trkpt lat="43.12371" lon="2.9943">
        <ele>-1.78</ele>
        <time>2019-12-30T08:26:58Z</time>
      </trkpt>
      <trkpt lat="43.1237" lon="2.99432">
        <ele>-1.38</ele>
        <time>2019-12-30T08:26:59Z</time>
      </trkpt>
      <trkpt lat="43.12367" lon="2.99433">
        <ele>-1.28</ele>
        <time>2019-12-30T08:27:01Z</time>
      </trkpt>
      <trkpt lat="43.12334" lon="2.99413">
        <ele>-1.2</ele>
        <time>2019-12-30T08:27:11Z</time>
      </trkpt>
      <trkpt lat="43.12317" lon="2.99393">
        <ele>-1.55</ele>
        <time>2019-12-30T08:27:16Z</time>
      </trkpt>
      <trkpt lat="43.12315" lon="2.99389">
        <ele>-1.45</ele>
        <time>2019-12-30T08:27:17Z</time>
      </trkpt>
      <trkpt lat="43.12312" lon="2.99384">
        <ele>-1.41</ele>
        <time>2019-12-30T08:27:18Z</time>
      </trkpt>
      <trkpt lat="43.12311" lon="2.99379">
        <ele>-1.33</ele>
        <time>2019-12-30T08:27:19Z</time>
      </trkpt>
      <trkpt lat="43.12309" lon="2.99373">
        <ele>-1.5</ele>
        <time>2019-12-30T08:27:20Z</time>
      </trkpt>
      <trkpt lat="43.12292" lon="2.99337">
        <ele>-1.74</ele>
        <time>2019-12-30T08:27:27Z</time>
      </trkpt>
      <trkpt lat="43.12279" lon="2.99318">
        <ele>-1.27</ele>
        <time>2019-12-30T08:27:32Z</time>
      </trkpt>
      <trkpt lat="43.12275" lon="2.99317">
        <ele>-0.97</ele>
        <time>2019-12-30T08:27:33Z</time>
      </trkpt>
      <trkpt lat="43.12253" lon="2.99284">
        <ele>-0.91</ele>
        <time>2019-12-30T08:27:43Z</time>
      </trkpt>
      <trkpt lat="43.1224" lon="2.99234">
        <ele>-1.37</ele>
        <time>2019-12-30T08:27:54Z</time>
      </trkpt>
      <trkpt lat="43.12212" lon="2.99181">
        <ele>-0.77</ele>
        <time>2019-12-30T08:28:06Z</time>
      </trkpt>
      <trkpt lat="43.1221" lon="2.99177">
        <ele>-0.72</ele>
        <time>2019-12-30T08:28:07Z</time>
      </trkpt>
      <trkpt lat="43.12207" lon="2.99173">
        <ele>-1.14</ele>
        <time>2019-12-30T08:28:08Z</time>
      </trkpt>
      <trkpt lat="43.12186" lon="2.99141">
        <ele>-0.63</ele>
        <time>2019-12-30T08:28:17Z</time>
      </trkpt>
      <trkpt lat="43.12175" lon="2.9913">
        <ele>-0.99</ele>
        <time>2019-12-30T08:28:20Z</time>
      </trkpt>
      <trkpt lat="43.12171" lon="2.99127">
        <ele>-0.95</ele>
        <time>2019-12-30T08:28:21Z</time>
      </trkpt>
      <trkpt lat="43.12157" lon="2.99113">
        <ele>-1.67</ele>
        <time>2019-12-30T08:28:25Z</time>
      </trkpt>
      <trkpt lat="43.12126" lon="2.99074">
        <ele>-1.04</ele>
        <time>2019-12-30T08:28:38Z</time>
      </trkpt>
      <trkpt lat="43.12117" lon="2.99069">
        <ele>-0.81</ele>
        <time>2019-12-30T08:28:42Z</time>
      </trkpt>
      <trkpt lat="43.12115" lon="2.99066">
        <ele>-1.03</ele>
        <time>2019-12-30T08:28:43Z</time>
      </trkpt>
      <trkpt lat="43.12114" lon="2.99062">
        <ele>-1</ele>
        <time>2019-12-30T08:28:44Z</time>
      </trkpt>
      <trkpt lat="43.12113" lon="2.99059">
        <ele>-1.02</ele>
        <time>2019-12-30T08:28:45Z</time>
      </trkpt>
      <trkpt lat="43.12112" lon="2.99055">
        <ele>-1.05</ele>
        <time>2019-12-30T08:28:46Z</time>
      </trkpt>
      <trkpt lat="43.12111" lon="2.99052">
        <ele>-0.95</ele>
        <time>2019-12-30T08:28:47Z</time>
      </trkpt>
      <trkpt lat="43.12109" lon="2.9905">
        <ele>-1.12</ele>
        <time>2019-12-30T08:28:48Z</time>
      </trkpt>
      <trkpt lat="43.12106" lon="2.99048">
        <ele>-0.88</ele>
        <time>2019-12-30T08:28:49Z</time>
      </trkpt>
      <trkpt lat="43.12104" lon="2.99046">
        <ele>-0.92</ele>
        <time>2019-12-30T08:28:50Z</time>
      </trkpt>
      <trkpt lat="43.12102" lon="2.99043">
        <ele>-0.7</ele>
        <time>2019-12-30T08:28:51Z</time>
      </trkpt>
      <trkpt lat="43.12101" lon="2.99039">
        <ele>-0.82</ele>
        <time>2019-12-30T08:28:52Z</time>
      </trkpt>
      <trkpt lat="43.12099" lon="2.99034">
        <ele>-1.06</ele>
        <time>2019-12-30T08:28:53Z</time>
      </trkpt>
      <trkpt lat="43.12096" lon="2.9903">
        <ele>-1.36</ele>
        <time>2019-12-30T08:28:54Z</time>
      </trkpt>
      <trkpt lat="43.12093" lon="2.99026">
        <ele>-1.21</ele>
        <time>2019-12-30T08:28:55Z</time>
      </trkpt>
      <trkpt lat="43.12062" lon="2.9899">
        <ele>-1.38</ele>
        <time>2019-12-30T08:29:04Z</time>
      </trkpt>
      <trkpt lat="43.12024" lon="2.98957">
        <ele>-0.72</ele>
        <time>2019-12-30T08:29:13Z</time>
      </trkpt>
      <trkpt lat="43.11974" lon="2.98914">
        <ele>-0.82</ele>
        <time>2019-12-30T08:29:24Z</time>
      </trkpt>
      <trkpt lat="43.11948" lon="2.98902">
        <ele>-1.05</ele>
        <time>2019-12-30T08:29:29Z</time>
      </trkpt>
      <trkpt lat="43.11942" lon="2.98902">
        <ele>-1.3</ele>
        <time>2019-12-30T08:29:30Z</time>
      </trkpt>
      <trkpt lat="43.11905" lon="2.98897">
        <ele>-1.13</ele>
        <time>2019-12-30T08:29:37Z</time>
      </trkpt>
      <trkpt lat="43.119" lon="2.98895">
        <ele>-1.14</ele>
        <time>2019-12-30T08:29:38Z</time>
      </trkpt>
      <trkpt lat="43.11875" lon="2.98881">
        <ele>-0.94</ele>
        <time>2019-12-30T08:29:43Z</time>
      </trkpt>
      <trkpt lat="43.11866" lon="2.98872">
        <ele>-1.24</ele>
        <time>2019-12-30T08:29:45Z</time>
      </trkpt>
      <trkpt lat="43.11862" lon="2.98867">
        <ele>-1.07</ele>
        <time>2019-12-30T08:29:46Z</time>
      </trkpt>
      <trkpt lat="43.11859" lon="2.98861">
        <ele>-1.67</ele>
        <time>2019-12-30T08:29:47Z</time>
      </trkpt>
      <trkpt lat="43.11856" lon="2.98855">
        <ele>-1.49</ele>
        <time>2019-12-30T08:29:48Z</time>
      </trkpt>
      <trkpt lat="43.11854" lon="2.98849">
        <ele>-0.92</ele>
        <time>2019-12-30T08:29:49Z</time>
      </trkpt>
      <trkpt lat="43.11842" lon="2.98824">
        <ele>-1.08</ele>
        <time>2019-12-30T08:29:53Z</time>
      </trkpt>
      <trkpt lat="43.11831" lon="2.98808">
        <ele>-0.95</ele>
        <time>2019-12-30T08:29:56Z</time>
      </trkpt>
      <trkpt lat="43.11823" lon="2.98799">
        <ele>-0.75</ele>
        <time>2019-12-30T08:29:58Z</time>
      </trkpt>
      <trkpt lat="43.11819" lon="2.98794">
        <ele>-0.69</ele>
        <time>2019-12-30T08:29:59Z</time>
      </trkpt>
      <trkpt lat="43.11814" lon="2.9879">
        <ele>-0.51</ele>
        <time>2019-12-30T08:30:00Z</time>
      </trkpt>
      <trkpt lat="43.1181" lon="2.98786">
        <ele>-0.97</ele>
        <time>2019-12-30T08:30:01Z</time>
      </trkpt>
      <trkpt lat="43.11805" lon="2.98781">
        <ele>-0.44</ele>
        <time>2019-12-30T08:30:02Z</time>
      </trkpt>
      <trkpt lat="43.118" lon="2.98777">
        <ele>-0.7</ele>
        <time>2019-12-30T08:30:03Z</time>
      </trkpt>
      <trkpt lat="43.11796" lon="2.98773">
        <ele>-0.4</ele>
        <time>2019-12-30T08:30:04Z</time>
      </trkpt>
      <trkpt lat="43.11717" lon="2.9873">
        <ele>-0.88</ele>
        <time>2019-12-30T08:30:19Z</time>
      </trkpt>
      <trkpt lat="43.11631" lon="2.98662">
        <ele>-0.92</ele>
        <time>2019-12-30T08:30:37Z</time>
      </trkpt>
      <trkpt lat="43.11534" lon="2.98584">
        <ele>-1.32</ele>
        <time>2019-12-30T08:30:57Z</time>
      </trkpt>
      <trkpt lat="43.11491" lon="2.9855">
        <ele>-1.33</ele>
        <time>2019-12-30T08:31:07Z</time>
      </trkpt>
      <trkpt lat="43.11445" lon="2.98506">
        <ele>0.55</ele>
        <time>2019-12-30T08:31:19Z</time>
      </trkpt>
      <trkpt lat="43.11371" lon="2.98437">
        <ele>2.55</ele>
        <time>2019-12-30T08:31:37Z</time>
      </trkpt>
      <trkpt lat="43.11363" lon="2.98429">
        <ele>4.08</ele>
        <time>2019-12-30T08:31:39Z</time>
      </trkpt>
      <trkpt lat="43.11295" lon="2.98398">
        <ele>3.27</ele>
        <time>2019-12-30T08:31:52Z</time>
      </trkpt>
      <trkpt lat="43.11244" lon="2.98373">
        <ele>0.95</ele>
        <time>2019-12-30T08:32:00Z</time>
      </trkpt>
      <trkpt lat="43.11151" lon="2.98287">
        <ele>-1.23</ele>
        <time>2019-12-30T08:32:16Z</time>
      </trkpt>
      <trkpt lat="43.11069" lon="2.98201">
        <ele>-1.98</ele>
        <time>2019-12-30T08:32:31Z</time>
      </trkpt>
      <trkpt lat="43.10991" lon="2.98091">
        <ele>-1.85</ele>
        <time>2019-12-30T08:32:48Z</time>
      </trkpt>
      <trkpt lat="43.10907" lon="2.97974">
        <ele>-2.04</ele>
        <time>2019-12-30T08:33:07Z</time>
      </trkpt>
      <trkpt lat="43.10807" lon="2.97836">
        <ele>-1.97</ele>
        <time>2019-12-30T08:33:28Z</time>
      </trkpt>
      <trkpt lat="43.10707" lon="2.97695">
        <ele>-2.17</ele>
        <time>2019-12-30T08:33:49Z</time>
      </trkpt>
      <trkpt lat="43.10657" lon="2.97631">
        <ele>-1.4</ele>
        <time>2019-12-30T08:33:59Z</time>
      </trkpt>
      <trkpt lat="43.10651" lon="2.97627">
        <ele>-1.57</ele>
        <time>2019-12-30T08:34:00Z</time>
      </trkpt>
      <trkpt lat="43.10645" lon="2.97623">
        <ele>-1.9</ele>
        <time>2019-12-30T08:34:01Z</time>
      </trkpt>
      <trkpt lat="43.10639" lon="2.9762">
        <ele>-1.76</ele>
        <time>2019-12-30T08:34:02Z</time>
      </trkpt>
      <trkpt lat="43.10632" lon="2.97617">
        <ele>-1.64</ele>
        <time>2019-12-30T08:34:03Z</time>
      </trkpt>
      <trkpt lat="43.10593" lon="2.97604">
        <ele>-1.67</ele>
        <time>2019-12-30T08:34:09Z</time>
      </trkpt>
      <trkpt lat="43.10587" lon="2.976">
        <ele>-1.79</ele>
        <time>2019-12-30T08:34:10Z</time>
      </trkpt>
      <trkpt lat="43.10581" lon="2.97596">
        <ele>-1.56</ele>
        <time>2019-12-30T08:34:11Z</time>
      </trkpt>
      <trkpt lat="43.10575" lon="2.97593">
        <ele>-1.74</ele>
        <time>2019-12-30T08:34:12Z</time>
      </trkpt>
      <trkpt lat="43.10568" lon="2.9759">
        <ele>-1.66</ele>
        <time>2019-12-30T08:34:13Z</time>
      </trkpt>
      <trkpt lat="43.1054" lon="2.97568">
        <ele>-1.99</ele>
        <time>2019-12-30T08:34:18Z</time>
      </trkpt>
      <trkpt lat="43.10478" lon="2.97454">
        <ele>-1.48</ele>
        <time>2019-12-30T08:34:33Z</time>
      </trkpt>
      <trkpt lat="43.10409" lon="2.97311">
        <ele>-0.17</ele>
        <time>2019-12-30T08:34:52Z</time>
      </trkpt>
      <trkpt lat="43.10344" lon="2.97179">
        <ele>-1.85</ele>
        <time>2019-12-30T08:35:08Z</time>
      </trkpt>
      <trkpt lat="43.10302" lon="2.97097">
        <ele>-2.45</ele>
        <time>2019-12-30T08:35:22Z</time>
      </trkpt>
      <trkpt lat="43.10299" lon="2.97095">
        <ele>-2.58</ele>
        <time>2019-12-30T08:35:23Z</time>
      </trkpt>
      <trkpt lat="43.10295" lon="2.97095">
        <ele>-2.8</ele>
        <time>2019-12-30T08:35:24Z</time>
      </trkpt>
      <trkpt lat="43.10293" lon="2.97097">
        <ele>-2.51</ele>
        <time>2019-12-30T08:35:25Z</time>
      </trkpt>
      <trkpt lat="43.10291" lon="2.97101">
        <ele>-2.54</ele>
        <time>2019-12-30T08:35:26Z</time>
      </trkpt>
      <trkpt lat="43.1029" lon="2.97106">
        <ele>-2.17</ele>
        <time>2019-12-30T08:35:27Z</time>
      </trkpt>
      <trkpt lat="43.10289" lon="2.97111">
        <ele>-2.09</ele>
        <time>2019-12-30T08:35:28Z</time>
      </trkpt>
      <trkpt lat="43.10282" lon="2.97189">
        <ele>-1.55</ele>
        <time>2019-12-30T08:35:44Z</time>
      </trkpt>
      <trkpt lat="43.10262" lon="2.97245">
        <ele>-2.56</ele>
        <time>2019-12-30T08:35:56Z</time>
      </trkpt>
      <trkpt lat="43.10259" lon="2.97249">
        <ele>-2.75</ele>
        <time>2019-12-30T08:35:57Z</time>
      </trkpt>
      <trkpt lat="43.10257" lon="2.97254">
        <ele>-2.6</ele>
        <time>2019-12-30T08:35:58Z</time>
      </trkpt>
      <trkpt lat="43.10256" lon="2.97259">
        <ele>-2.61</ele>
        <time>2019-12-30T08:35:59Z</time>
      </trkpt>
      <trkpt lat="43.10256" lon="2.97265">
        <ele>-2.79</ele>
        <time>2019-12-30T08:36:00Z</time>
      </trkpt>
      <trkpt lat="43.10257" lon="2.97271">
        <ele>-2.35</ele>
        <time>2019-12-30T08:36:01Z</time>
      </trkpt>
      <trkpt lat="43.10257" lon="2.97276">
        <ele>-2.3</ele>
        <time>2019-12-30T08:36:02Z</time>
      </trkpt>
      <trkpt lat="43.10256" lon="2.97307">
        <ele>-2.41</ele>
        <time>2019-12-30T08:36:08Z</time>
      </trkpt>
      <trkpt lat="43.10254" lon="2.97311">
        <ele>-2.76</ele>
        <time>2019-12-30T08:36:09Z</time>
      </trkpt>
      <trkpt lat="43.10251" lon="2.97314">
        <ele>-3.1</ele>
        <time>2019-12-30T08:36:10Z</time>
      </trkpt>
      <trkpt lat="43.10249" lon="2.97316">
        <ele>-2.81</ele>
        <time>2019-12-30T08:36:11Z</time>
      </trkpt>
      <trkpt lat="43.10247" lon="2.97319">
        <ele>-2.91</ele>
        <time>2019-12-30T08:36:12Z</time>
      </trkpt>
      <trkpt lat="43.10245" lon="2.97322">
        <ele>-3.23</ele>
        <time>2019-12-30T08:36:13Z</time>
      </trkpt>
      <trkpt lat="43.10241" lon="2.97326">
        <ele>-3.14</ele>
        <time>2019-12-30T08:36:15Z</time>
      </trkpt>
      <trkpt lat="43.10238" lon="2.97325">
        <ele>-3.09</ele>
        <time>2019-12-30T08:36:16Z</time>
      </trkpt>
      <trkpt lat="43.10235" lon="2.97325">
        <ele>-3.11</ele>
        <time>2019-12-30T08:36:17Z</time>
      </trkpt>
      <trkpt lat="43.10232" lon="2.97326">
        <ele>-3.03</ele>
        <time>2019-12-30T08:36:18Z</time>
      </trkpt>
      <trkpt lat="43.10229" lon="2.97328">
        <ele>-2.72</ele>
        <time>2019-12-30T08:36:19Z</time>
      </trkpt>
      <trkpt lat="43.10225" lon="2.97329">
        <ele>-2.65</ele>
        <time>2019-12-30T08:36:20Z</time>
      </trkpt>
      <trkpt lat="43.10199" lon="2.97346">
        <ele>-2.83</ele>
        <time>2019-12-30T08:36:30Z</time>
      </trkpt>
      <trkpt lat="43.10174" lon="2.9738">
        <ele>-2.71</ele>
        <time>2019-12-30T08:36:42Z</time>
      </trkpt>
      <trkpt lat="43.10149" lon="2.97414">
        <ele>-2.8</ele>
        <time>2019-12-30T08:36:53Z</time>
      </trkpt>
      <trkpt lat="43.1015" lon="2.97431">
        <ele>-2.74</ele>
        <time>2019-12-30T08:37:01Z</time>
      </trkpt>
      <trkpt lat="43.10151" lon="2.97431">
        <ele>-2.58</ele>
        <time>2019-12-30T08:37:26Z</time>
      </trkpt>
      <trkpt lat="43.10152" lon="2.97432">
        <ele>-2.87</ele>
        <time>2019-12-30T08:37:56Z</time>
      </trkpt>
      <trkpt lat="43.10153" lon="2.97433">
        <ele>-2.84</ele>
        <time>2019-12-30T08:38:00Z</time>
      </trkpt>
      <trkpt lat="43.10154" lon="2.97434">
        <ele>-2.74</ele>
        <time>2019-12-30T08:38:01Z</time>
      </trkpt>
      <trkpt lat="43.10155" lon="2.97436">
        <ele>-2.58</ele>
        <time>2019-12-30T08:38:02Z</time>
      </trkpt>
      <trkpt lat="43.10156" lon="2.97438">
        <ele>-2.81</ele>
        <time>2019-12-30T08:38:03Z</time>
      </trkpt>
      <trkpt lat="43.10158" lon="2.9744">
        <ele>-2.71</ele>
        <time>2019-12-30T08:38:04Z</time>
      </trkpt>
      <trkpt lat="43.10164" lon="2.97463">
        <ele>-3.41</ele>
        <time>2019-12-30T08:38:10Z</time>
      </trkpt>
      <trkpt lat="43.10163" lon="2.97467">
        <ele>-3.1</ele>
        <time>2019-12-30T08:38:11Z</time>
      </trkpt>
      <trkpt lat="43.10162" lon="2.97472">
        <ele>-2.72</ele>
        <time>2019-12-30T08:38:12Z</time>
      </trkpt>
      <trkpt lat="43.1016" lon="2.97476">
        <ele>-2.96</ele>
        <time>2019-12-30T08:38:13Z</time>
      </trkpt>
      <trkpt lat="43.10158" lon="2.9748">
        <ele>-2.97</ele>
        <time>2019-12-30T08:38:14Z</time>
      </trkpt>
      <trkpt lat="43.10156" lon="2.97484">
        <ele>-2.82</ele>
        <time>2019-12-30T08:38:15Z</time>
      </trkpt>
      <trkpt lat="43.10154" lon="2.97489">
        <ele>-2.83</ele>
        <time>2019-12-30T08:38:16Z</time>
      </trkpt>
      <trkpt lat="43.10153" lon="2.97493">
        <ele>-2.87</ele>
        <time>2019-12-30T08:38:17Z</time>
      </trkpt>
      <trkpt lat="43.10151" lon="2.97498">
        <ele>-3.29</ele>
        <time>2019-12-30T08:38:18Z</time>
      </trkpt>
      <trkpt lat="43.10149" lon="2.97502">
        <ele>-2.71</ele>
        <time>2019-12-30T08:38:19Z</time>
      </trkpt>
      <trkpt lat="43.10147" lon="2.97506">
        <ele>-3.13</ele>
        <time>2019-12-30T08:38:20Z</time>
      </trkpt>
      <trkpt lat="43.10144" lon="2.9751">
        <ele>-3.18</ele>
        <time>2019-12-30T08:38:21Z</time>
      </trkpt>
      <trkpt lat="43.10142" lon="2.97514">
        <ele>-2.92</ele>
        <time>2019-12-30T08:38:22Z</time>
      </trkpt>
      <trkpt lat="43.1014" lon="2.9752">
        <ele>-2.8</ele>
        <time>2019-12-30T08:38:23Z</time>
      </trkpt>
      <trkpt lat="43.1012" lon="2.97579">
        <ele>-2.53</ele>
        <time>2019-12-30T08:38:34Z</time>
      </trkpt>
      <trkpt lat="43.10118" lon="2.97603">
        <ele>-2.5</ele>
        <time>2019-12-30T08:38:38Z</time>
      </trkpt>
      <trkpt lat="43.10118" lon="2.97609">
        <ele>-2.21</ele>
        <time>2019-12-30T08:38:39Z</time>
      </trkpt>
      <trkpt lat="43.1012" lon="2.97662">
        <ele>-2.23</ele>
        <time>2019-12-30T08:38:49Z</time>
      </trkpt>
      <trkpt lat="43.10119" lon="2.97668">
        <ele>-2.3</ele>
        <time>2019-12-30T08:38:50Z</time>
      </trkpt>
      <trkpt lat="43.10118" lon="2.97673">
        <ele>-2.59</ele>
        <time>2019-12-30T08:38:51Z</time>
      </trkpt>
      <trkpt lat="43.10116" lon="2.9771">
        <ele>-2.06</ele>
        <time>2019-12-30T08:38:58Z</time>
      </trkpt>
      <trkpt lat="43.10116" lon="2.97716">
        <ele>-1.97</ele>
        <time>2019-12-30T08:38:59Z</time>
      </trkpt>
      <trkpt lat="43.10117" lon="2.97721">
        <ele>-2.51</ele>
        <time>2019-12-30T08:39:00Z</time>
      </trkpt>
      <trkpt lat="43.10119" lon="2.97727">
        <ele>-2.57</ele>
        <time>2019-12-30T08:39:01Z</time>
      </trkpt>
      <trkpt lat="43.1012" lon="2.97732">
        <ele>-2.28</ele>
        <time>2019-12-30T08:39:02Z</time>
      </trkpt>
      <trkpt lat="43.10121" lon="2.97737">
        <ele>-2.34</ele>
        <time>2019-12-30T08:39:03Z</time>
      </trkpt>
      <trkpt lat="43.1012" lon="2.97743">
        <ele>-2.08</ele>
        <time>2019-12-30T08:39:04Z</time>
      </trkpt>
      <trkpt lat="43.10119" lon="2.97748">
        <ele>-2.36</ele>
        <time>2019-12-30T08:39:05Z</time>
      </trkpt>
      <trkpt lat="43.10117" lon="2.97753">
        <ele>-2.43</ele>
        <time>2019-12-30T08:39:06Z</time>
      </trkpt>
      <trkpt lat="43.10114" lon="2.97757">
        <ele>-2.52</ele>
        <time>2019-12-30T08:39:07Z</time>
      </trkpt>
      <trkpt lat="43.10106" lon="2.97771">
        <ele>-2.57</ele>
        <time>2019-12-30T08:39:10Z</time>
      </trkpt>
      <trkpt lat="43.10104" lon="2.97776">
        <ele>-2.61</ele>
        <time>2019-12-30T08:39:11Z</time>
      </trkpt>
      <trkpt lat="43.10104" lon="2.97781">
        <ele>-2.24</ele>
        <time>2019-12-30T08:39:12Z</time>
      </trkpt>
      <trkpt lat="43.10103" lon="2.97787">
        <ele>-2.47</ele>
        <time>2019-12-30T08:39:13Z</time>
      </trkpt>
      <trkpt lat="43.10102" lon="2.97792">
        <ele>-2.66</ele>
        <time>2019-12-30T08:39:14Z</time>
      </trkpt>
      <trkpt lat="43.10099" lon="2.9781">
        <ele>-1.57</ele>
        <time>2019-12-30T08:39:17Z</time>
      </trkpt>
      <trkpt lat="43.10098" lon="2.97816">
        <ele>-2.03</ele>
        <time>2019-12-30T08:39:18Z</time>
      </trkpt>
      <trkpt lat="43.10098" lon="2.97822">
        <ele>-2.43</ele>
        <time>2019-12-30T08:39:19Z</time>
      </trkpt>
      <trkpt lat="43.101" lon="2.9784">
        <ele>-2.54</ele>
        <time>2019-12-30T08:39:22Z</time>
      </trkpt>
      <trkpt lat="43.10102" lon="2.97846">
        <ele>-2.49</ele>
        <time>2019-12-30T08:39:23Z</time>
      </trkpt>
      <trkpt lat="43.10104" lon="2.97851">
        <ele>-2.29</ele>
        <time>2019-12-30T08:39:24Z</time>
      </trkpt>
      <trkpt lat="43.10108" lon="2.97855">
        <ele>-2.39</ele>
        <time>2019-12-30T08:39:25Z</time>
      </trkpt>
      <trkpt lat="43.10111" lon="2.97858">
        <ele>-2.54</ele>
        <time>2019-12-30T08:39:26Z</time>
      </trkpt>
      <trkpt lat="43.10115" lon="2.97861">
        <ele>-2.29</ele>
        <time>2019-12-30T08:39:27Z</time>
      </trkpt>
      <trkpt lat="43.10119" lon="2.97865">
        <ele>-2.64</ele>
        <time>2019-12-30T08:39:28Z</time>
      </trkpt>
      <trkpt lat="43.10122" lon="2.97869">
        <ele>-3</ele>
        <time>2019-12-30T08:39:29Z</time>
      </trkpt>
      <trkpt lat="43.10182" lon="2.97918">
        <ele>-2.54</ele>
        <time>2019-12-30T08:39:45Z</time>
      </trkpt>
      <trkpt lat="43.10185" lon="2.97921">
        <ele>-2.52</ele>
        <time>2019-12-30T08:39:46Z</time>
      </trkpt>
      <trkpt lat="43.10188" lon="2.97925">
        <ele>-2.41</ele>
        <time>2019-12-30T08:39:47Z</time>
      </trkpt>
      <trkpt lat="43.10191" lon="2.97929">
        <ele>-2.41</ele>
        <time>2019-12-30T08:39:48Z</time>
      </trkpt>
      <trkpt lat="43.10193" lon="2.97934">
        <ele>-1.93</ele>
        <time>2019-12-30T08:39:49Z</time>
      </trkpt>
      <trkpt lat="43.10195" lon="2.9794">
        <ele>-2.24</ele>
        <time>2019-12-30T08:39:50Z</time>
      </trkpt>
      <trkpt lat="43.10196" lon="2.97946">
        <ele>-2.02</ele>
        <time>2019-12-30T08:39:51Z</time>
      </trkpt>
      <trkpt lat="43.10197" lon="2.97952">
        <ele>-2.48</ele>
        <time>2019-12-30T08:39:52Z</time>
      </trkpt>
      <trkpt lat="43.10196" lon="2.97958">
        <ele>-2.38</ele>
        <time>2019-12-30T08:39:53Z</time>
      </trkpt>
      <trkpt lat="43.10195" lon="2.97964">
        <ele>-2.34</ele>
        <time>2019-12-30T08:39:54Z</time>
      </trkpt>
      <trkpt lat="43.10194" lon="2.97969">
        <ele>-2.47</ele>
        <time>2019-12-30T08:39:55Z</time>
      </trkpt>
      <trkpt lat="43.10192" lon="2.97975">
        <ele>-2.18</ele>
        <time>2019-12-30T08:39:56Z</time>
      </trkpt>
      <trkpt lat="43.1019" lon="2.9798">
        <ele>-2.92</ele>
        <time>2019-12-30T08:39:57Z</time>
      </trkpt>
      <trkpt lat="43.10187" lon="2.97985">
        <ele>-2.96</ele>
        <time>2019-12-30T08:39:58Z</time>
      </trkpt>
      <trkpt lat="43.10184" lon="2.97989">
        <ele>-2.64</ele>
        <time>2019-12-30T08:39:59Z</time>
      </trkpt>
      <trkpt lat="43.1018" lon="2.97993">
        <ele>-2.55</ele>
        <time>2019-12-30T08:40:00Z</time>
      </trkpt>
      <trkpt lat="43.10176" lon="2.97997">
        <ele>-3</ele>
        <time>2019-12-30T08:40:01Z</time>
      </trkpt>
      <trkpt lat="43.10172" lon="2.98">
        <ele>-3</ele>
        <time>2019-12-30T08:40:02Z</time>
      </trkpt>
      <trkpt lat="43.10167" lon="2.98002">
        <ele>-3.19</ele>
        <time>2019-12-30T08:40:03Z</time>
      </trkpt>
      <trkpt lat="43.10163" lon="2.98003">
        <ele>-2.7</ele>
        <time>2019-12-30T08:40:04Z</time>
      </trkpt>
      <trkpt lat="43.10159" lon="2.98004">
        <ele>-2.95</ele>
        <time>2019-12-30T08:40:05Z</time>
      </trkpt>
      <trkpt lat="43.10155" lon="2.98007">
        <ele>-2.82</ele>
        <time>2019-12-30T08:40:06Z</time>
      </trkpt>
      <trkpt lat="43.10151" lon="2.9801">
        <ele>-2.5</ele>
        <time>2019-12-30T08:40:07Z</time>
      </trkpt>
      <trkpt lat="43.10148" lon="2.98014">
        <ele>-2.77</ele>
        <time>2019-12-30T08:40:08Z</time>
      </trkpt>
      <trkpt lat="43.10146" lon="2.9802">
        <ele>-2.67</ele>
        <time>2019-12-30T08:40:09Z</time>
      </trkpt>
      <trkpt lat="43.10144" lon="2.98025">
        <ele>-2.66</ele>
        <time>2019-12-30T08:40:10Z</time>
      </trkpt>
      <trkpt lat="43.10142" lon="2.98031">
        <ele>-2.78</ele>
        <time>2019-12-30T08:40:11Z</time>
      </trkpt>
      <trkpt lat="43.1014" lon="2.98036">
        <ele>-2.71</ele>
        <time>2019-12-30T08:40:12Z</time>
      </trkpt>
      <trkpt lat="43.10137" lon="2.98041">
        <ele>-2.81</ele>
        <time>2019-12-30T08:40:13Z</time>
      </trkpt>
      <trkpt lat="43.10135" lon="2.98046">
        <ele>-2.42</ele>
        <time>2019-12-30T08:40:14Z</time>
      </trkpt>
      <trkpt lat="43.10132" lon="2.98052">
        <ele>-2.53</ele>
        <time>2019-12-30T08:40:15Z</time>
      </trkpt>
      <trkpt lat="43.1013" lon="2.98058">
        <ele>-2.59</ele>
        <time>2019-12-30T08:40:16Z</time>
      </trkpt>
      <trkpt lat="43.10127" lon="2.98069">
        <ele>-2.51</ele>
        <time>2019-12-30T08:40:18Z</time>
      </trkpt>
      <trkpt lat="43.10111" lon="2.98105">
        <ele>-2.59</ele>
        <time>2019-12-30T08:40:25Z</time>
      </trkpt>
      <trkpt lat="43.10108" lon="2.98108">
        <ele>-2.74</ele>
        <time>2019-12-30T08:40:26Z</time>
      </trkpt>
      <trkpt lat="43.10105" lon="2.98112">
        <ele>-2.96</ele>
        <time>2019-12-30T08:40:27Z</time>
      </trkpt>
      <trkpt lat="43.10102" lon="2.98116">
        <ele>-2.8</ele>
        <time>2019-12-30T08:40:28Z</time>
      </trkpt>
      <trkpt lat="43.10098" lon="2.9812">
        <ele>-2.74</ele>
        <time>2019-12-30T08:40:29Z</time>
      </trkpt>
      <trkpt lat="43.10094" lon="2.98123">
        <ele>-2.69</ele>
        <time>2019-12-30T08:40:30Z</time>
      </trkpt>
      <trkpt lat="43.1009" lon="2.98126">
        <ele>-2.9</ele>
        <time>2019-12-30T08:40:31Z</time>
      </trkpt>
      <trkpt lat="43.10086" lon="2.98129">
        <ele>-2.96</ele>
        <time>2019-12-30T08:40:32Z</time>
      </trkpt>
      <trkpt lat="43.10039" lon="2.98164">
        <ele>-2.69</ele>
        <time>2019-12-30T08:40:43Z</time>
      </trkpt>
      <trkpt lat="43.10035" lon="2.98168">
        <ele>-2.89</ele>
        <time>2019-12-30T08:40:44Z</time>
      </trkpt>
      <trkpt lat="43.1002" lon="2.98186">
        <ele>-2.38</ele>
        <time>2019-12-30T08:40:48Z</time>
      </trkpt>
      <trkpt lat="43.10016" lon="2.98189">
        <ele>-1.9</ele>
        <time>2019-12-30T08:40:49Z</time>
      </trkpt>
      <trkpt lat="43.0997" lon="2.98238">
        <ele>-1.73</ele>
        <time>2019-12-30T08:41:02Z</time>
      </trkpt>
      <trkpt lat="43.09968" lon="2.98242">
        <ele>-1.65</ele>
        <time>2019-12-30T08:41:03Z</time>
      </trkpt>
      <trkpt lat="43.09955" lon="2.98261">
        <ele>-2.03</ele>
        <time>2019-12-30T08:41:07Z</time>
      </trkpt>
      <trkpt lat="43.09953" lon="2.98267">
        <ele>-1.47</ele>
        <time>2019-12-30T08:41:08Z</time>
      </trkpt>
      <trkpt lat="43.09951" lon="2.98272">
        <ele>-2.51</ele>
        <time>2019-12-30T08:41:09Z</time>
      </trkpt>
      <trkpt lat="43.09949" lon="2.98278">
        <ele>-2.38</ele>
        <time>2019-12-30T08:41:10Z</time>
      </trkpt>
      <trkpt lat="43.09947" lon="2.98284">
        <ele>-1.89</ele>
        <time>2019-12-30T08:41:11Z</time>
      </trkpt>
      <trkpt lat="43.09944" lon="2.9829">
        <ele>-2.25</ele>
        <time>2019-12-30T08:41:12Z</time>
      </trkpt>
      <trkpt lat="43.09941" lon="2.98295">
        <ele>-2.68</ele>
        <time>2019-12-30T08:41:13Z</time>
      </trkpt>
      <trkpt lat="43.09938" lon="2.98301">
        <ele>-2.42</ele>
        <time>2019-12-30T08:41:14Z</time>
      </trkpt>
      <trkpt lat="43.09933" lon="2.98304">
        <ele>-2.63</ele>
        <time>2019-12-30T08:41:15Z</time>
      </trkpt>
      <trkpt lat="43.09929" lon="2.98306">
        <ele>-2.88</ele>
        <time>2019-12-30T08:41:16Z</time>
      </trkpt>
      <trkpt lat="43.09924" lon="2.98307">
        <ele>-3.47</ele>
        <time>2019-12-30T08:41:17Z</time>
      </trkpt>
      <trkpt lat="43.09919" lon="2.98307">
        <ele>-3.36</ele>
        <time>2019-12-30T08:41:18Z</time>
      </trkpt>
      <trkpt lat="43.09914" lon="2.98307">
        <ele>-2.4</ele>
        <time>2019-12-30T08:41:19Z</time>
      </trkpt>
      <trkpt lat="43.0991" lon="2.98306">
        <ele>-3.27</ele>
        <time>2019-12-30T08:41:20Z</time>
      </trkpt>
      <trkpt lat="43.09906" lon="2.98306">
        <ele>-3.17</ele>
        <time>2019-12-30T08:41:21Z</time>
      </trkpt>
      <trkpt lat="43.09902" lon="2.98306">
        <ele>-3.17</ele>
        <time>2019-12-30T08:41:22Z</time>
      </trkpt>
      <trkpt lat="43.09898" lon="2.98306">
        <ele>-2.95</ele>
        <time>2019-12-30T08:41:23Z</time>
      </trkpt>
      <trkpt lat="43.09894" lon="2.98308">
        <ele>-2.13</ele>
        <time>2019-12-30T08:41:24Z</time>
      </trkpt>
      <trkpt lat="43.0989" lon="2.9831">
        <ele>-2.15</ele>
        <time>2019-12-30T08:41:25Z</time>
      </trkpt>
      <trkpt lat="43.09886" lon="2.98313">
        <ele>-2.97</ele>
        <time>2019-12-30T08:41:26Z</time>
      </trkpt>
      <trkpt lat="43.09878" lon="2.9832">
        <ele>-2.98</ele>
        <time>2019-12-30T08:41:28Z</time>
      </trkpt>
      <trkpt lat="43.09875" lon="2.98325">
        <ele>-2.6</ele>
        <time>2019-12-30T08:41:29Z</time>
      </trkpt>
      <trkpt lat="43.09873" lon="2.98331">
        <ele>-2.19</ele>
        <time>2019-12-30T08:41:30Z</time>
      </trkpt>
      <trkpt lat="43.09872" lon="2.98337">
        <ele>-2.47</ele>
        <time>2019-12-30T08:41:31Z</time>
      </trkpt>
      <trkpt lat="43.09872" lon="2.98343">
        <ele>-2.19</ele>
        <time>2019-12-30T08:41:32Z</time>
      </trkpt>
      <trkpt lat="43.09847" lon="2.98393">
        <ele>-3.69</ele>
        <time>2019-12-30T08:41:45Z</time>
      </trkpt>
      <trkpt lat="43.09833" lon="2.98423">
        <ele>-2.44</ele>
        <time>2019-12-30T08:41:55Z</time>
      </trkpt>
      <trkpt lat="43.09813" lon="2.9845">
        <ele>-2.89</ele>
        <time>2019-12-30T08:42:02Z</time>
      </trkpt>
      <trkpt lat="43.09809" lon="2.98452">
        <ele>-3.07</ele>
        <time>2019-12-30T08:42:03Z</time>
      </trkpt>
      <trkpt lat="43.09801" lon="2.98456">
        <ele>-3.14</ele>
        <time>2019-12-30T08:42:05Z</time>
      </trkpt>
      <trkpt lat="43.09797" lon="2.98457">
        <ele>-3.13</ele>
        <time>2019-12-30T08:42:06Z</time>
      </trkpt>
      <trkpt lat="43.09792" lon="2.98457">
        <ele>-3.08</ele>
        <time>2019-12-30T08:42:07Z</time>
      </trkpt>
      <trkpt lat="43.09788" lon="2.98457">
        <ele>-2.9</ele>
        <time>2019-12-30T08:42:08Z</time>
      </trkpt>
      <trkpt lat="43.09784" lon="2.98459">
        <ele>-2.75</ele>
        <time>2019-12-30T08:42:09Z</time>
      </trkpt>
      <trkpt lat="43.09781" lon="2.9846">
        <ele>-3.21</ele>
        <time>2019-12-30T08:42:10Z</time>
      </trkpt>
      <trkpt lat="43.09777" lon="2.9846">
        <ele>-2.45</ele>
        <time>2019-12-30T08:42:11Z</time>
      </trkpt>
      <trkpt lat="43.09773" lon="2.9846">
        <ele>-2.59</ele>
        <time>2019-12-30T08:42:12Z</time>
      </trkpt>
      <trkpt lat="43.09744" lon="2.98464">
        <ele>-2.81</ele>
        <time>2019-12-30T08:42:23Z</time>
      </trkpt>
      <trkpt lat="43.09732" lon="2.98464">
        <ele>-2.89</ele>
        <time>2019-12-30T08:42:29Z</time>
      </trkpt>
      <trkpt lat="43.0973" lon="2.98463">
        <ele>-2.86</ele>
        <time>2019-12-30T08:42:30Z</time>
      </trkpt>
      <trkpt lat="43.09729" lon="2.98462">
        <ele>-2.78</ele>
        <time>2019-12-30T08:42:31Z</time>
      </trkpt>
      <trkpt lat="43.09727" lon="2.98461">
        <ele>-2.74</ele>
        <time>2019-12-30T08:42:32Z</time>
      </trkpt>
      <trkpt lat="43.09726" lon="2.9846">
        <ele>-2.69</ele>
        <time>2019-12-30T08:42:33Z</time>
      </trkpt>
      <trkpt lat="43.09724" lon="2.9846">
        <ele>-2.66</ele>
        <time>2019-12-30T08:42:34Z</time>
      </trkpt>
      <trkpt lat="43.09722" lon="2.98461">
        <ele>-2.64</ele>
        <time>2019-12-30T08:42:35Z</time>
      </trkpt>
      <trkpt lat="43.0972" lon="2.98463">
        <ele>-2.62</ele>
        <time>2019-12-30T08:42:36Z</time>
      </trkpt>
      <trkpt lat="43.0971" lon="2.98471">
        <ele>-3.34</ele>
        <time>2019-12-30T08:42:42Z</time>
      </trkpt>
      <trkpt lat="43.09708" lon="2.98472">
        <ele>-3.21</ele>
        <time>2019-12-30T08:42:43Z</time>
      </trkpt>
      <trkpt lat="43.09683" lon="2.9848">
        <ele>-2.4</ele>
        <time>2019-12-30T08:42:50Z</time>
      </trkpt>
      <trkpt lat="43.09679" lon="2.98483">
        <ele>-3.26</ele>
        <time>2019-12-30T08:42:51Z</time>
      </trkpt>
      <trkpt lat="43.09675" lon="2.98485">
        <ele>-2.51</ele>
        <time>2019-12-30T08:42:52Z</time>
      </trkpt>
      <trkpt lat="43.09671" lon="2.98487">
        <ele>-2.43</ele>
        <time>2019-12-30T08:42:53Z</time>
      </trkpt>
      <trkpt lat="43.09667" lon="2.98488">
        <ele>-2.86</ele>
        <time>2019-12-30T08:42:54Z</time>
      </trkpt>
      <trkpt lat="43.09663" lon="2.98491">
        <ele>-2.18</ele>
        <time>2019-12-30T08:42:55Z</time>
      </trkpt>
      <trkpt lat="43.09659" lon="2.98493">
        <ele>-2.12</ele>
        <time>2019-12-30T08:42:56Z</time>
      </trkpt>
      <trkpt lat="43.09645" lon="2.98507">
        <ele>-2.66</ele>
        <time>2019-12-30T08:43:00Z</time>
      </trkpt>
      <trkpt lat="43.09582" lon="2.98572">
        <ele>-2.94</ele>
        <time>2019-12-30T08:43:17Z</time>
      </trkpt>
      <trkpt lat="43.09579" lon="2.98576">
        <ele>-2.94</ele>
        <time>2019-12-30T08:43:18Z</time>
      </trkpt>
      <trkpt lat="43.09577" lon="2.98582">
        <ele>-3.17</ele>
        <time>2019-12-30T08:43:19Z</time>
      </trkpt>
      <trkpt lat="43.09565" lon="2.98607">
        <ele>-2.62</ele>
        <time>2019-12-30T08:43:24Z</time>
      </trkpt>
      <trkpt lat="43.09563" lon="2.98612">
        <ele>-3.17</ele>
        <time>2019-12-30T08:43:25Z</time>
      </trkpt>
      <trkpt lat="43.0956" lon="2.98617">
        <ele>-2.91</ele>
        <time>2019-12-30T08:43:26Z</time>
      </trkpt>
      <trkpt lat="43.09556" lon="2.9862">
        <ele>-3.56</ele>
        <time>2019-12-30T08:43:27Z</time>
      </trkpt>
      <trkpt lat="43.09552" lon="2.98623">
        <ele>-3.37</ele>
        <time>2019-12-30T08:43:28Z</time>
      </trkpt>
      <trkpt lat="43.09548" lon="2.98627">
        <ele>-3.29</ele>
        <time>2019-12-30T08:43:29Z</time>
      </trkpt>
      <trkpt lat="43.09545" lon="2.98631">
        <ele>-3.18</ele>
        <time>2019-12-30T08:43:30Z</time>
      </trkpt>
      <trkpt lat="43.09543" lon="2.98637">
        <ele>-3.09</ele>
        <time>2019-12-30T08:43:31Z</time>
      </trkpt>
      <trkpt lat="43.09541" lon="2.98642">
        <ele>-3.7</ele>
        <time>2019-12-30T08:43:32Z</time>
      </trkpt>
      <trkpt lat="43.09538" lon="2.98648">
        <ele>-2.86</ele>
        <time>2019-12-30T08:43:33Z</time>
      </trkpt>
      <trkpt lat="43.09535" lon="2.98653">
        <ele>-2.84</ele>
        <time>2019-12-30T08:43:34Z</time>
      </trkpt>
      <trkpt lat="43.09532" lon="2.98657">
        <ele>-3.01</ele>
        <time>2019-12-30T08:43:35Z</time>
      </trkpt>
      <trkpt lat="43.09529" lon="2.9866">
        <ele>-3.43</ele>
        <time>2019-12-30T08:43:36Z</time>
      </trkpt>
      <trkpt lat="43.09504" lon="2.98684">
        <ele>-3.89</ele>
        <time>2019-12-30T08:43:46Z</time>
      </trkpt>
      <trkpt lat="43.09489" lon="2.98703">
        <ele>-3.33</ele>
        <time>2019-12-30T08:43:51Z</time>
      </trkpt>
      <trkpt lat="43.09481" lon="2.98731">
        <ele>-3.16</ele>
        <time>2019-12-30T08:43:56Z</time>
      </trkpt>
      <trkpt lat="43.09472" lon="2.98782">
        <ele>-2.72</ele>
        <time>2019-12-30T08:44:04Z</time>
      </trkpt>
      <trkpt lat="43.0947" lon="2.98787">
        <ele>-2.97</ele>
        <time>2019-12-30T08:44:05Z</time>
      </trkpt>
      <trkpt lat="43.09467" lon="2.98791">
        <ele>-2.8</ele>
        <time>2019-12-30T08:44:06Z</time>
      </trkpt>
      <trkpt lat="43.09463" lon="2.98793">
        <ele>-3.08</ele>
        <time>2019-12-30T08:44:07Z</time>
      </trkpt>
      <trkpt lat="43.09458" lon="2.98794">
        <ele>-2.9</ele>
        <time>2019-12-30T08:44:08Z</time>
      </trkpt>
      <trkpt lat="43.09454" lon="2.98794">
        <ele>-3.18</ele>
        <time>2019-12-30T08:44:09Z</time>
      </trkpt>
      <trkpt lat="43.0941" lon="2.98808">
        <ele>-2.88</ele>
        <time>2019-12-30T08:44:18Z</time>
      </trkpt>
      <trkpt lat="43.0938" lon="2.98825">
        <ele>-3.14</ele>
        <time>2019-12-30T08:44:24Z</time>
      </trkpt>
      <trkpt lat="43.09375" lon="2.98826">
        <ele>-2.61</ele>
        <time>2019-12-30T08:44:25Z</time>
      </trkpt>
      <trkpt lat="43.09369" lon="2.98825">
        <ele>-3.4</ele>
        <time>2019-12-30T08:44:26Z</time>
      </trkpt>
      <trkpt lat="43.09358" lon="2.98822">
        <ele>-2.89</ele>
        <time>2019-12-30T08:44:28Z</time>
      </trkpt>
      <trkpt lat="43.09353" lon="2.98821">
        <ele>-3.53</ele>
        <time>2019-12-30T08:44:29Z</time>
      </trkpt>
      <trkpt lat="43.09348" lon="2.98818">
        <ele>-3.22</ele>
        <time>2019-12-30T08:44:30Z</time>
      </trkpt>
      <trkpt lat="43.09343" lon="2.98815">
        <ele>-3.19</ele>
        <time>2019-12-30T08:44:31Z</time>
      </trkpt>
      <trkpt lat="43.09339" lon="2.9881">
        <ele>-3.02</ele>
        <time>2019-12-30T08:44:32Z</time>
      </trkpt>
      <trkpt lat="43.09335" lon="2.98805">
        <ele>-2.9</ele>
        <time>2019-12-30T08:44:33Z</time>
      </trkpt>
      <trkpt lat="43.09331" lon="2.98801">
        <ele>-3.1</ele>
        <time>2019-12-30T08:44:34Z</time>
      </trkpt>
      <trkpt lat="43.09327" lon="2.98798">
        <ele>-3.04</ele>
        <time>2019-12-30T08:44:35Z</time>
      </trkpt>
      <trkpt lat="43.0931" lon="2.98789">
        <ele>-3.05</ele>
        <time>2019-12-30T08:44:39Z</time>
      </trkpt>
      <trkpt lat="43.09293" lon="2.98782">
        <ele>-3.2</ele>
        <time>2019-12-30T08:44:43Z</time>
      </trkpt>
      <trkpt lat="43.09289" lon="2.9878">
        <ele>-3.27</ele>
        <time>2019-12-30T08:44:44Z</time>
      </trkpt>
      <trkpt lat="43.09285" lon="2.98778">
        <ele>-2.96</ele>
        <time>2019-12-30T08:44:45Z</time>
      </trkpt>
      <trkpt lat="43.09281" lon="2.98777">
        <ele>-2.76</ele>
        <time>2019-12-30T08:44:46Z</time>
      </trkpt>
      <trkpt lat="43.09276" lon="2.98775">
        <ele>-2.95</ele>
        <time>2019-12-30T08:44:47Z</time>
      </trkpt>
      <trkpt lat="43.09271" lon="2.98775">
        <ele>-2.85</ele>
        <time>2019-12-30T08:44:48Z</time>
      </trkpt>
      <trkpt lat="43.09266" lon="2.98774">
        <ele>-3.05</ele>
        <time>2019-12-30T08:44:49Z</time>
      </trkpt>
      <trkpt lat="43.09261" lon="2.98774">
        <ele>-2.5</ele>
        <time>2019-12-30T08:44:50Z</time>
      </trkpt>
      <trkpt lat="43.09256" lon="2.98773">
        <ele>-2.81</ele>
        <time>2019-12-30T08:44:51Z</time>
      </trkpt>
      <trkpt lat="43.09251" lon="2.98773">
        <ele>-2.92</ele>
        <time>2019-12-30T08:44:52Z</time>
      </trkpt>
      <trkpt lat="43.09245" lon="2.98774">
        <ele>-2.89</ele>
        <time>2019-12-30T08:44:53Z</time>
      </trkpt>
      <trkpt lat="43.0924" lon="2.98774">
        <ele>-2.55</ele>
        <time>2019-12-30T08:44:54Z</time>
      </trkpt>
      <trkpt lat="43.09235" lon="2.98774">
        <ele>-2.44</ele>
        <time>2019-12-30T08:44:55Z</time>
      </trkpt>
      <trkpt lat="43.09183" lon="2.98775">
        <ele>-2.77</ele>
        <time>2019-12-30T08:45:05Z</time>
      </trkpt>
      <trkpt lat="43.09076" lon="2.98764">
        <ele>-2.66</ele>
        <time>2019-12-30T08:45:24Z</time>
      </trkpt>
      <trkpt lat="43.09054" lon="2.98763">
        <ele>-2.36</ele>
        <time>2019-12-30T08:45:28Z</time>
      </trkpt>
      <trkpt lat="43.09049" lon="2.98761">
        <ele>-2.65</ele>
        <time>2019-12-30T08:45:29Z</time>
      </trkpt>
      <trkpt lat="43.0895" lon="2.98739">
        <ele>-1.12</ele>
        <time>2019-12-30T08:45:47Z</time>
      </trkpt>
      <trkpt lat="43.08863" lon="2.98705">
        <ele>-2.98</ele>
        <time>2019-12-30T08:46:03Z</time>
      </trkpt>
      <trkpt lat="43.08858" lon="2.98702">
        <ele>-2.57</ele>
        <time>2019-12-30T08:46:04Z</time>
      </trkpt>
      <trkpt lat="43.08832" lon="2.98675">
        <ele>-3.28</ele>
        <time>2019-12-30T08:46:10Z</time>
      </trkpt>
      <trkpt lat="43.0883" lon="2.9867">
        <ele>-3.15</ele>
        <time>2019-12-30T08:46:11Z</time>
      </trkpt>
      <trkpt lat="43.08828" lon="2.98665">
        <ele>-2.92</ele>
        <time>2019-12-30T08:46:12Z</time>
      </trkpt>
      <trkpt lat="43.08826" lon="2.98658">
        <ele>-3.14</ele>
        <time>2019-12-30T08:46:14Z</time>
      </trkpt>
      <trkpt lat="43.08824" lon="2.98656">
        <ele>-3.37</ele>
        <time>2019-12-30T08:46:15Z</time>
      </trkpt>
      <trkpt lat="43.08813" lon="2.98646">
        <ele>-3.41</ele>
        <time>2019-12-30T08:46:20Z</time>
      </trkpt>
      <trkpt lat="43.08813" lon="2.98643">
        <ele>-3.25</ele>
        <time>2019-12-30T08:46:21Z</time>
      </trkpt>
      <trkpt lat="43.08813" lon="2.98638">
        <ele>-3.14</ele>
        <time>2019-12-30T08:46:23Z</time>
      </trkpt>
      <trkpt lat="43.08812" lon="2.98636">
        <ele>-3.1</ele>
        <time>2019-12-30T08:46:24Z</time>
      </trkpt>
      <trkpt lat="43.08811" lon="2.98634">
        <ele>-3.19</ele>
        <time>2019-12-30T08:46:25Z</time>
      </trkpt>
      <trkpt lat="43.08809" lon="2.98633">
        <ele>-3.28</ele>
        <time>2019-12-30T08:46:26Z</time>
      </trkpt>
      <trkpt lat="43.08809" lon="2.98633">
        <ele>-2.92</ele>
        <time>2019-12-30T08:46:37Z</time>
      </trkpt>
      <trkpt lat="43.08807" lon="2.9862">
        <ele>-3.35</ele>
        <time>2019-12-30T08:46:57Z</time>
      </trkpt>
      <trkpt lat="43.08806" lon="2.9861">
        <ele>-3.11</ele>
        <time>2019-12-30T08:47:00Z</time>
      </trkpt>
      <trkpt lat="43.08805" lon="2.98606">
        <ele>-3.06</ele>
        <time>2019-12-30T08:47:01Z</time>
      </trkpt>
      <trkpt lat="43.08804" lon="2.98601">
        <ele>-3.16</ele>
        <time>2019-12-30T08:47:02Z</time>
      </trkpt>
      <trkpt lat="43.08804" lon="2.98597">
        <ele>-3.08</ele>
        <time>2019-12-30T08:47:03Z</time>
      </trkpt>
      <trkpt lat="43.08803" lon="2.98592">
        <ele>-2.73</ele>
        <time>2019-12-30T08:47:04Z</time>
      </trkpt>
      <trkpt lat="43.08796" lon="2.98526">
        <ele>-2.51</ele>
        <time>2019-12-30T08:47:16Z</time>
      </trkpt>
      <trkpt lat="43.08795" lon="2.98521">
        <ele>-2.68</ele>
        <time>2019-12-30T08:47:17Z</time>
      </trkpt>
      <trkpt lat="43.08793" lon="2.98513">
        <ele>-2.7</ele>
        <time>2019-12-30T08:47:19Z</time>
      </trkpt>
      <trkpt lat="43.08794" lon="2.9851">
        <ele>-2.86</ele>
        <time>2019-12-30T08:47:20Z</time>
      </trkpt>
      <trkpt lat="43.08798" lon="2.98475">
        <ele>-2.97</ele>
        <time>2019-12-30T08:47:28Z</time>
      </trkpt>
      <trkpt lat="43.08799" lon="2.98469">
        <ele>-2.92</ele>
        <time>2019-12-30T08:47:29Z</time>
      </trkpt>
      <trkpt lat="43.088" lon="2.98463">
        <ele>-3.12</ele>
        <time>2019-12-30T08:47:30Z</time>
      </trkpt>
      <trkpt lat="43.08802" lon="2.98457">
        <ele>-2.79</ele>
        <time>2019-12-30T08:47:31Z</time>
      </trkpt>
      <trkpt lat="43.08804" lon="2.98452">
        <ele>-2.17</ele>
        <time>2019-12-30T08:47:32Z</time>
      </trkpt>
      <trkpt lat="43.08806" lon="2.98446">
        <ele>-2.31</ele>
        <time>2019-12-30T08:47:33Z</time>
      </trkpt>
      <trkpt lat="43.08808" lon="2.9844">
        <ele>-1.98</ele>
        <time>2019-12-30T08:47:34Z</time>
      </trkpt>
      <trkpt lat="43.08809" lon="2.98434">
        <ele>-2.02</ele>
        <time>2019-12-30T08:47:35Z</time>
      </trkpt>
      <trkpt lat="43.0881" lon="2.98428">
        <ele>-1.83</ele>
        <time>2019-12-30T08:47:36Z</time>
      </trkpt>
      <trkpt lat="43.08811" lon="2.98422">
        <ele>-1.66</ele>
        <time>2019-12-30T08:47:37Z</time>
      </trkpt>
      <trkpt lat="43.08814" lon="2.98368">
        <ele>-1.9</ele>
        <time>2019-12-30T08:47:45Z</time>
      </trkpt>
      <trkpt lat="43.08811" lon="2.98318">
        <ele>-2.6</ele>
        <time>2019-12-30T08:47:52Z</time>
      </trkpt>
      <trkpt lat="43.0881" lon="2.98295">
        <ele>-2.22</ele>
        <time>2019-12-30T08:47:55Z</time>
      </trkpt>
      <trkpt lat="43.08809" lon="2.9827">
        <ele>-1.76</ele>
        <time>2019-12-30T08:47:59Z</time>
      </trkpt>
      <trkpt lat="43.08808" lon="2.98258">
        <ele>-2.1</ele>
        <time>2019-12-30T08:48:01Z</time>
      </trkpt>
      <trkpt lat="43.08806" lon="2.98245">
        <ele>-2.22</ele>
        <time>2019-12-30T08:48:03Z</time>
      </trkpt>
      <trkpt lat="43.08805" lon="2.98238">
        <ele>-1.94</ele>
        <time>2019-12-30T08:48:04Z</time>
      </trkpt>
      <trkpt lat="43.08802" lon="2.98232">
        <ele>-2.18</ele>
        <time>2019-12-30T08:48:05Z</time>
      </trkpt>
      <trkpt lat="43.088" lon="2.98226">
        <ele>-2.16</ele>
        <time>2019-12-30T08:48:06Z</time>
      </trkpt>
      <trkpt lat="43.08798" lon="2.98219">
        <ele>-2.74</ele>
        <time>2019-12-30T08:48:07Z</time>
      </trkpt>
      <trkpt lat="43.08797" lon="2.98213">
        <ele>-2.41</ele>
        <time>2019-12-30T08:48:08Z</time>
      </trkpt>
      <trkpt lat="43.08794" lon="2.98207">
        <ele>-1.98</ele>
        <time>2019-12-30T08:48:09Z</time>
      </trkpt>
      <trkpt lat="43.08792" lon="2.982">
        <ele>-2.68</ele>
        <time>2019-12-30T08:48:10Z</time>
      </trkpt>
      <trkpt lat="43.0879" lon="2.98194">
        <ele>-2.86</ele>
        <time>2019-12-30T08:48:11Z</time>
      </trkpt>
      <trkpt lat="43.08781" lon="2.98168">
        <ele>-2.91</ele>
        <time>2019-12-30T08:48:15Z</time>
      </trkpt>
      <trkpt lat="43.08777" lon="2.98155">
        <ele>-2.8</ele>
        <time>2019-12-30T08:48:17Z</time>
      </trkpt>
      <trkpt lat="43.08774" lon="2.9815">
        <ele>-2.27</ele>
        <time>2019-12-30T08:48:18Z</time>
      </trkpt>
      <trkpt lat="43.08741" lon="2.98078">
        <ele>-2.09</ele>
        <time>2019-12-30T08:48:30Z</time>
      </trkpt>
      <trkpt lat="43.08734" lon="2.98066">
        <ele>-2.16</ele>
        <time>2019-12-30T08:48:32Z</time>
      </trkpt>
      <trkpt lat="43.0873" lon="2.98061">
        <ele>-2.21</ele>
        <time>2019-12-30T08:48:33Z</time>
      </trkpt>
      <trkpt lat="43.08725" lon="2.98057">
        <ele>-2.34</ele>
        <time>2019-12-30T08:48:34Z</time>
      </trkpt>
      <trkpt lat="43.08721" lon="2.98051">
        <ele>-1.97</ele>
        <time>2019-12-30T08:48:35Z</time>
      </trkpt>
      <trkpt lat="43.08717" lon="2.98046">
        <ele>-2.29</ele>
        <time>2019-12-30T08:48:36Z</time>
      </trkpt>
      <trkpt lat="43.08706" lon="2.98028">
        <ele>-2.6</ele>
        <time>2019-12-30T08:48:39Z</time>
      </trkpt>
      <trkpt lat="43.0869" lon="2.97997">
        <ele>-2.64</ele>
        <time>2019-12-30T08:48:44Z</time>
      </trkpt>
      <trkpt lat="43.08685" lon="2.97993">
        <ele>-2.52</ele>
        <time>2019-12-30T08:48:45Z</time>
      </trkpt>
      <trkpt lat="43.0868" lon="2.97992">
        <ele>-2.48</ele>
        <time>2019-12-30T08:48:46Z</time>
      </trkpt>
      <trkpt lat="43.08669" lon="2.97993">
        <ele>-2.99</ele>
        <time>2019-12-30T08:48:48Z</time>
      </trkpt>
      <trkpt lat="43.08664" lon="2.97991">
        <ele>-3.11</ele>
        <time>2019-12-30T08:48:49Z</time>
      </trkpt>
      <trkpt lat="43.08659" lon="2.97987">
        <ele>-3.35</ele>
        <time>2019-12-30T08:48:50Z</time>
      </trkpt>
      <trkpt lat="43.08654" lon="2.97983">
        <ele>-2.91</ele>
        <time>2019-12-30T08:48:51Z</time>
      </trkpt>
      <trkpt lat="43.0865" lon="2.97977">
        <ele>-3.3</ele>
        <time>2019-12-30T08:48:52Z</time>
      </trkpt>
      <trkpt lat="43.08646" lon="2.97971">
        <ele>-3.19</ele>
        <time>2019-12-30T08:48:53Z</time>
      </trkpt>
      <trkpt lat="43.08643" lon="2.97965">
        <ele>-3.08</ele>
        <time>2019-12-30T08:48:54Z</time>
      </trkpt>
      <trkpt lat="43.08634" lon="2.97947">
        <ele>-2.95</ele>
        <time>2019-12-30T08:48:57Z</time>
      </trkpt>
      <trkpt lat="43.08611" lon="2.97913">
        <ele>-2.94</ele>
        <time>2019-12-30T08:49:03Z</time>
      </trkpt>
      <trkpt lat="43.08608" lon="2.97907">
        <ele>-3.08</ele>
        <time>2019-12-30T08:49:04Z</time>
      </trkpt>
      <trkpt lat="43.08606" lon="2.97901">
        <ele>-2.38</ele>
        <time>2019-12-30T08:49:05Z</time>
      </trkpt>
      <trkpt lat="43.08603" lon="2.97896">
        <ele>-2</ele>
        <time>2019-12-30T08:49:06Z</time>
      </trkpt>
      <trkpt lat="43.08599" lon="2.9789">
        <ele>-2.74</ele>
        <time>2019-12-30T08:49:07Z</time>
      </trkpt>
      <trkpt lat="43.08586" lon="2.97864">
        <ele>-2.76</ele>
        <time>2019-12-30T08:49:11Z</time>
      </trkpt>
      <trkpt lat="43.08582" lon="2.97859">
        <ele>-2.74</ele>
        <time>2019-12-30T08:49:12Z</time>
      </trkpt>
      <trkpt lat="43.08578" lon="2.97854">
        <ele>-3.06</ele>
        <time>2019-12-30T08:49:13Z</time>
      </trkpt>
      <trkpt lat="43.08575" lon="2.97848">
        <ele>-2.97</ele>
        <time>2019-12-30T08:49:14Z</time>
      </trkpt>
      <trkpt lat="43.08573" lon="2.97842">
        <ele>-2.88</ele>
        <time>2019-12-30T08:49:15Z</time>
      </trkpt>
      <trkpt lat="43.08571" lon="2.97835">
        <ele>-3.29</ele>
        <time>2019-12-30T08:49:16Z</time>
      </trkpt>
      <trkpt lat="43.08569" lon="2.97829">
        <ele>-3.25</ele>
        <time>2019-12-30T08:49:17Z</time>
      </trkpt>
      <trkpt lat="43.08566" lon="2.97824">
        <ele>-3.09</ele>
        <time>2019-12-30T08:49:18Z</time>
      </trkpt>
      <trkpt lat="43.08564" lon="2.97818">
        <ele>-2.81</ele>
        <time>2019-12-30T08:49:19Z</time>
      </trkpt>
      <trkpt lat="43.08556" lon="2.97802">
        <ele>-3.14</ele>
        <time>2019-12-30T08:49:22Z</time>
      </trkpt>
      <trkpt lat="43.08553" lon="2.97798">
        <ele>-2.85</ele>
        <time>2019-12-30T08:49:23Z</time>
      </trkpt>
      <trkpt lat="43.08548" lon="2.97796">
        <ele>-2.86</ele>
        <time>2019-12-30T08:49:24Z</time>
      </trkpt>
      <trkpt lat="43.08544" lon="2.97794">
        <ele>-3.01</ele>
        <time>2019-12-30T08:49:25Z</time>
      </trkpt>
      <trkpt lat="43.0854" lon="2.97792">
        <ele>-2.74</ele>
        <time>2019-12-30T08:49:26Z</time>
      </trkpt>
      <trkpt lat="43.08537" lon="2.97789">
        <ele>-2.82</ele>
        <time>2019-12-30T08:49:27Z</time>
      </trkpt>
      <trkpt lat="43.08534" lon="2.97785">
        <ele>-2.83</ele>
        <time>2019-12-30T08:49:28Z</time>
      </trkpt>
      <trkpt lat="43.08526" lon="2.97771">
        <ele>-3.05</ele>
        <time>2019-12-30T08:49:31Z</time>
      </trkpt>
      <trkpt lat="43.08523" lon="2.97766">
        <ele>-3.09</ele>
        <time>2019-12-30T08:49:32Z</time>
      </trkpt>
      <trkpt lat="43.08477" lon="2.97684">
        <ele>-2.9</ele>
        <time>2019-12-30T08:49:48Z</time>
      </trkpt>
      <trkpt lat="43.08436" lon="2.97619">
        <ele>-3.1</ele>
        <time>2019-12-30T08:50:01Z</time>
      </trkpt>
      <trkpt lat="43.0843" lon="2.97609">
        <ele>-3.05</ele>
        <time>2019-12-30T08:50:03Z</time>
      </trkpt>
      <trkpt lat="43.08428" lon="2.97603">
        <ele>-2.94</ele>
        <time>2019-12-30T08:50:04Z</time>
      </trkpt>
      <trkpt lat="43.08426" lon="2.97597">
        <ele>-3.39</ele>
        <time>2019-12-30T08:50:05Z</time>
      </trkpt>
      <trkpt lat="43.08426" lon="2.97591">
        <ele>-2.95</ele>
        <time>2019-12-30T08:50:06Z</time>
      </trkpt>
      <trkpt lat="43.08426" lon="2.97584">
        <ele>-2.74</ele>
        <time>2019-12-30T08:50:07Z</time>
      </trkpt>
      <trkpt lat="43.08426" lon="2.97578">
        <ele>-2.87</ele>
        <time>2019-12-30T08:50:08Z</time>
      </trkpt>
      <trkpt lat="43.08425" lon="2.97572">
        <ele>-2.94</ele>
        <time>2019-12-30T08:50:09Z</time>
      </trkpt>
      <trkpt lat="43.08423" lon="2.97565">
        <ele>-3.01</ele>
        <time>2019-12-30T08:50:10Z</time>
      </trkpt>
      <trkpt lat="43.0842" lon="2.9756">
        <ele>-2.81</ele>
        <time>2019-12-30T08:50:11Z</time>
      </trkpt>
      <trkpt lat="43.08417" lon="2.97554">
        <ele>-2.94</ele>
        <time>2019-12-30T08:50:12Z</time>
      </trkpt>
      <trkpt lat="43.08414" lon="2.97548">
        <ele>-2.93</ele>
        <time>2019-12-30T08:50:13Z</time>
      </trkpt>
      <trkpt lat="43.08412" lon="2.97542">
        <ele>-2.85</ele>
        <time>2019-12-30T08:50:14Z</time>
      </trkpt>
      <trkpt lat="43.0841" lon="2.97536">
        <ele>-2.98</ele>
        <time>2019-12-30T08:50:15Z</time>
      </trkpt>
      <trkpt lat="43.08408" lon="2.97529">
        <ele>-2.8</ele>
        <time>2019-12-30T08:50:16Z</time>
      </trkpt>
      <trkpt lat="43.08405" lon="2.97522">
        <ele>-2.7</ele>
        <time>2019-12-30T08:50:17Z</time>
      </trkpt>
      <trkpt lat="43.08401" lon="2.97516">
        <ele>-2.98</ele>
        <time>2019-12-30T08:50:18Z</time>
      </trkpt>
      <trkpt lat="43.08398" lon="2.9751">
        <ele>-2.79</ele>
        <time>2019-12-30T08:50:19Z</time>
      </trkpt>
      <trkpt lat="43.08387" lon="2.97492">
        <ele>-3.24</ele>
        <time>2019-12-30T08:50:22Z</time>
      </trkpt>
      <trkpt lat="43.08384" lon="2.97488">
        <ele>-3.13</ele>
        <time>2019-12-30T08:50:23Z</time>
      </trkpt>
      <trkpt lat="43.0838" lon="2.97483">
        <ele>-3.54</ele>
        <time>2019-12-30T08:50:24Z</time>
      </trkpt>
      <trkpt lat="43.08377" lon="2.97478">
        <ele>-3.1</ele>
        <time>2019-12-30T08:50:25Z</time>
      </trkpt>
      <trkpt lat="43.08375" lon="2.97473">
        <ele>-3.34</ele>
        <time>2019-12-30T08:50:26Z</time>
      </trkpt>
      <trkpt lat="43.08372" lon="2.97467">
        <ele>-3.15</ele>
        <time>2019-12-30T08:50:27Z</time>
      </trkpt>
      <trkpt lat="43.08369" lon="2.97462">
        <ele>-2.88</ele>
        <time>2019-12-30T08:50:28Z</time>
      </trkpt>
      <trkpt lat="43.08364" lon="2.97449">
        <ele>-3.28</ele>
        <time>2019-12-30T08:50:30Z</time>
      </trkpt>
      <trkpt lat="43.08357" lon="2.97438">
        <ele>-2.81</ele>
        <time>2019-12-30T08:50:32Z</time>
      </trkpt>
      <trkpt lat="43.08354" lon="2.97431">
        <ele>-2.97</ele>
        <time>2019-12-30T08:50:33Z</time>
      </trkpt>
      <trkpt lat="43.08335" lon="2.97397">
        <ele>-3.03</ele>
        <time>2019-12-30T08:50:39Z</time>
      </trkpt>
      <trkpt lat="43.08332" lon="2.97393">
        <ele>-2.78</ele>
        <time>2019-12-30T08:50:40Z</time>
      </trkpt>
      <trkpt lat="43.08329" lon="2.97388">
        <ele>-3.46</ele>
        <time>2019-12-30T08:50:41Z</time>
      </trkpt>
      <trkpt lat="43.08328" lon="2.97382">
        <ele>-3.38</ele>
        <time>2019-12-30T08:50:42Z</time>
      </trkpt>
      <trkpt lat="43.08328" lon="2.97375">
        <ele>-3.44</ele>
        <time>2019-12-30T08:50:43Z</time>
      </trkpt>
      <trkpt lat="43.08328" lon="2.97369">
        <ele>-3.07</ele>
        <time>2019-12-30T08:50:44Z</time>
      </trkpt>
      <trkpt lat="43.08327" lon="2.97362">
        <ele>-3.09</ele>
        <time>2019-12-30T08:50:45Z</time>
      </trkpt>
      <trkpt lat="43.08326" lon="2.97355">
        <ele>-2.85</ele>
        <time>2019-12-30T08:50:46Z</time>
      </trkpt>
      <trkpt lat="43.08323" lon="2.9735">
        <ele>-3.19</ele>
        <time>2019-12-30T08:50:47Z</time>
      </trkpt>
      <trkpt lat="43.08321" lon="2.97344">
        <ele>-2.53</ele>
        <time>2019-12-30T08:50:48Z</time>
      </trkpt>
      <trkpt lat="43.08318" lon="2.97339">
        <ele>-2.63</ele>
        <time>2019-12-30T08:50:49Z</time>
      </trkpt>
      <trkpt lat="43.08312" lon="2.97328">
        <ele>-2.61</ele>
        <time>2019-12-30T08:50:51Z</time>
      </trkpt>
      <trkpt lat="43.08308" lon="2.97324">
        <ele>-2.95</ele>
        <time>2019-12-30T08:50:52Z</time>
      </trkpt>
      <trkpt lat="43.08304" lon="2.9732">
        <ele>-3.02</ele>
        <time>2019-12-30T08:50:53Z</time>
      </trkpt>
      <trkpt lat="43.08295" lon="2.97312">
        <ele>-3.31</ele>
        <time>2019-12-30T08:50:55Z</time>
      </trkpt>
      <trkpt lat="43.08293" lon="2.97306">
        <ele>-3.48</ele>
        <time>2019-12-30T08:50:56Z</time>
      </trkpt>
      <trkpt lat="43.08289" lon="2.97293">
        <ele>-2.95</ele>
        <time>2019-12-30T08:50:58Z</time>
      </trkpt>
      <trkpt lat="43.08288" lon="2.97286">
        <ele>-3.08</ele>
        <time>2019-12-30T08:50:59Z</time>
      </trkpt>
      <trkpt lat="43.08287" lon="2.97279">
        <ele>-3.19</ele>
        <time>2019-12-30T08:51:00Z</time>
      </trkpt>
      <trkpt lat="43.08285" lon="2.97258">
        <ele>-2.57</ele>
        <time>2019-12-30T08:51:03Z</time>
      </trkpt>
      <trkpt lat="43.08283" lon="2.97251">
        <ele>-3.41</ele>
        <time>2019-12-30T08:51:04Z</time>
      </trkpt>
      <trkpt lat="43.08282" lon="2.97244">
        <ele>-3.5</ele>
        <time>2019-12-30T08:51:05Z</time>
      </trkpt>
      <trkpt lat="43.08281" lon="2.97237">
        <ele>-3.15</ele>
        <time>2019-12-30T08:51:06Z</time>
      </trkpt>
      <trkpt lat="43.08281" lon="2.97231">
        <ele>-3</ele>
        <time>2019-12-30T08:51:07Z</time>
      </trkpt>
      <trkpt lat="43.0828" lon="2.97217">
        <ele>-3.24</ele>
        <time>2019-12-30T08:51:09Z</time>
      </trkpt>
      <trkpt lat="43.0828" lon="2.97211">
        <ele>-3.32</ele>
        <time>2019-12-30T08:51:10Z</time>
      </trkpt>
      <trkpt lat="43.0828" lon="2.97204">
        <ele>-2.56</ele>
        <time>2019-12-30T08:51:11Z</time>
      </trkpt>
      <trkpt lat="43.0828" lon="2.97197">
        <ele>-3.19</ele>
        <time>2019-12-30T08:51:12Z</time>
      </trkpt>
      <trkpt lat="43.08279" lon="2.97191">
        <ele>-3.12</ele>
        <time>2019-12-30T08:51:13Z</time>
      </trkpt>
      <trkpt lat="43.08278" lon="2.97184">
        <ele>-2.9</ele>
        <time>2019-12-30T08:51:14Z</time>
      </trkpt>
      <trkpt lat="43.08278" lon="2.97171">
        <ele>-2.82</ele>
        <time>2019-12-30T08:51:16Z</time>
      </trkpt>
      <trkpt lat="43.08275" lon="2.97084">
        <ele>-3.23</ele>
        <time>2019-12-30T08:51:31Z</time>
      </trkpt>
      <trkpt lat="43.08294" lon="2.97036">
        <ele>-2.44</ele>
        <time>2019-12-30T08:51:43Z</time>
      </trkpt>
      <trkpt lat="43.08337" lon="2.97007">
        <ele>-2.85</ele>
        <time>2019-12-30T08:51:56Z</time>
      </trkpt>
      <trkpt lat="43.08374" lon="2.96989">
        <ele>-3.3</ele>
        <time>2019-12-30T08:52:06Z</time>
      </trkpt>
      <trkpt lat="43.08415" lon="2.96966">
        <ele>-3.09</ele>
        <time>2019-12-30T08:52:18Z</time>
      </trkpt>
      <trkpt lat="43.08437" lon="2.96952">
        <ele>-2.71</ele>
        <time>2019-12-30T08:52:24Z</time>
      </trkpt>
      <trkpt lat="43.08441" lon="2.9695">
        <ele>-2.37</ele>
        <time>2019-12-30T08:52:25Z</time>
      </trkpt>
      <trkpt lat="43.08444" lon="2.96948">
        <ele>-2.75</ele>
        <time>2019-12-30T08:52:26Z</time>
      </trkpt>
      <trkpt lat="43.08466" lon="2.96932">
        <ele>-3.19</ele>
        <time>2019-12-30T08:52:32Z</time>
      </trkpt>
      <trkpt lat="43.08479" lon="2.96924">
        <ele>-3.21</ele>
        <time>2019-12-30T08:52:35Z</time>
      </trkpt>
      <trkpt lat="43.08483" lon="2.96921">
        <ele>-3.41</ele>
        <time>2019-12-30T08:52:36Z</time>
      </trkpt>
      <trkpt lat="43.08516" lon="2.96899">
        <ele>-3.19</ele>
        <time>2019-12-30T08:52:44Z</time>
      </trkpt>
      <trkpt lat="43.08538" lon="2.96886">
        <ele>-3.19</ele>
        <time>2019-12-30T08:52:49Z</time>
      </trkpt>
      <trkpt lat="43.08556" lon="2.96878">
        <ele>-3.15</ele>
        <time>2019-12-30T08:52:53Z</time>
      </trkpt>
      <trkpt lat="43.0856" lon="2.96875">
        <ele>-3.2</ele>
        <time>2019-12-30T08:52:54Z</time>
      </trkpt>
      <trkpt lat="43.08564" lon="2.96872">
        <ele>-2.33</ele>
        <time>2019-12-30T08:52:55Z</time>
      </trkpt>
      <trkpt lat="43.08567" lon="2.96868">
        <ele>-2.66</ele>
        <time>2019-12-30T08:52:56Z</time>
      </trkpt>
      <trkpt lat="43.08569" lon="2.96863">
        <ele>-3.11</ele>
        <time>2019-12-30T08:52:57Z</time>
      </trkpt>
      <trkpt lat="43.08571" lon="2.96858">
        <ele>-2.57</ele>
        <time>2019-12-30T08:52:58Z</time>
      </trkpt>
      <trkpt lat="43.08573" lon="2.96853">
        <ele>-2.82</ele>
        <time>2019-12-30T08:52:59Z</time>
      </trkpt>
      <trkpt lat="43.08574" lon="2.96848">
        <ele>-3.16</ele>
        <time>2019-12-30T08:53:00Z</time>
      </trkpt>
      <trkpt lat="43.08592" lon="2.96799">
        <ele>-2.74</ele>
        <time>2019-12-30T08:53:09Z</time>
      </trkpt>
      <trkpt lat="43.08596" lon="2.96788">
        <ele>-2.7</ele>
        <time>2019-12-30T08:53:11Z</time>
      </trkpt>
      <trkpt lat="43.08599" lon="2.96777">
        <ele>-3.49</ele>
        <time>2019-12-30T08:53:13Z</time>
      </trkpt>
      <trkpt lat="43.086" lon="2.96771">
        <ele>-3.63</ele>
        <time>2019-12-30T08:53:14Z</time>
      </trkpt>
      <trkpt lat="43.086" lon="2.96766">
        <ele>-3.66</ele>
        <time>2019-12-30T08:53:15Z</time>
      </trkpt>
      <trkpt lat="43.086" lon="2.9676">
        <ele>-3.11</ele>
        <time>2019-12-30T08:53:16Z</time>
      </trkpt>
      <trkpt lat="43.086" lon="2.96754">
        <ele>-3.46</ele>
        <time>2019-12-30T08:53:17Z</time>
      </trkpt>
      <trkpt lat="43.08599" lon="2.96748">
        <ele>-3.02</ele>
        <time>2019-12-30T08:53:18Z</time>
      </trkpt>
      <trkpt lat="43.08597" lon="2.96741">
        <ele>-3.53</ele>
        <time>2019-12-30T08:53:19Z</time>
      </trkpt>
      <trkpt lat="43.08595" lon="2.96735">
        <ele>-3.45</ele>
        <time>2019-12-30T08:53:20Z</time>
      </trkpt>
      <trkpt lat="43.08594" lon="2.96729">
        <ele>-2.84</ele>
        <time>2019-12-30T08:53:21Z</time>
      </trkpt>
      <trkpt lat="43.08591" lon="2.96723">
        <ele>-3.34</ele>
        <time>2019-12-30T08:53:22Z</time>
      </trkpt>
      <trkpt lat="43.08564" lon="2.96636">
        <ele>-3.58</ele>
        <time>2019-12-30T08:53:35Z</time>
      </trkpt>
      <trkpt lat="43.08531" lon="2.96523">
        <ele>-3.59</ele>
        <time>2019-12-30T08:53:51Z</time>
      </trkpt>
      <trkpt lat="43.08491" lon="2.96386">
        <ele>-3.38</ele>
        <time>2019-12-30T08:54:10Z</time>
      </trkpt>
      <trkpt lat="43.08466" lon="2.96284">
        <ele>-2.37</ele>
        <time>2019-12-30T08:54:25Z</time>
      </trkpt>
      <trkpt lat="43.08463" lon="2.96281">
        <ele>-2.31</ele>
        <time>2019-12-30T08:54:26Z</time>
      </trkpt>
      <trkpt lat="43.08459" lon="2.9628">
        <ele>-2.28</ele>
        <time>2019-12-30T08:54:27Z</time>
      </trkpt>
      <trkpt lat="43.08443" lon="2.9628">
        <ele>-1.45</ele>
        <time>2019-12-30T08:54:31Z</time>
      </trkpt>
      <trkpt lat="43.08439" lon="2.96282">
        <ele>-1.33</ele>
        <time>2019-12-30T08:54:32Z</time>
      </trkpt>
      <trkpt lat="43.08435" lon="2.96284">
        <ele>-1.28</ele>
        <time>2019-12-30T08:54:33Z</time>
      </trkpt>
      <trkpt lat="43.0841" lon="2.96301">
        <ele>-1.42</ele>
        <time>2019-12-30T08:54:39Z</time>
      </trkpt>
      <trkpt lat="43.08401" lon="2.9631">
        <ele>-1.86</ele>
        <time>2019-12-30T08:54:41Z</time>
      </trkpt>
      <trkpt lat="43.08396" lon="2.96316">
        <ele>-1.99</ele>
        <time>2019-12-30T08:54:42Z</time>
      </trkpt>
      <trkpt lat="43.08385" lon="2.96326">
        <ele>-2.1</ele>
        <time>2019-12-30T08:54:44Z</time>
      </trkpt>
      <trkpt lat="43.0838" lon="2.96331">
        <ele>-2.5</ele>
        <time>2019-12-30T08:54:45Z</time>
      </trkpt>
      <trkpt lat="43.08351" lon="2.96356">
        <ele>-2.72</ele>
        <time>2019-12-30T08:54:50Z</time>
      </trkpt>
      <trkpt lat="43.08345" lon="2.96359">
        <ele>-2.69</ele>
        <time>2019-12-30T08:54:51Z</time>
      </trkpt>
      <trkpt lat="43.08339" lon="2.96361">
        <ele>-2.98</ele>
        <time>2019-12-30T08:54:52Z</time>
      </trkpt>
      <trkpt lat="43.08332" lon="2.96363">
        <ele>-3.08</ele>
        <time>2019-12-30T08:54:53Z</time>
      </trkpt>
      <trkpt lat="43.08326" lon="2.96362">
        <ele>-2.93</ele>
        <time>2019-12-30T08:54:54Z</time>
      </trkpt>
      <trkpt lat="43.08319" lon="2.96361">
        <ele>-3.46</ele>
        <time>2019-12-30T08:54:55Z</time>
      </trkpt>
      <trkpt lat="43.08313" lon="2.9636">
        <ele>-2.83</ele>
        <time>2019-12-30T08:54:56Z</time>
      </trkpt>
      <trkpt lat="43.08216" lon="2.96323">
        <ele>-3.03</ele>
        <time>2019-12-30T08:55:12Z</time>
      </trkpt>
      <trkpt lat="43.08128" lon="2.96267">
        <ele>-2.38</ele>
        <time>2019-12-30T08:55:28Z</time>
      </trkpt>
      <trkpt lat="43.08084" lon="2.9622">
        <ele>-3.42</ele>
        <time>2019-12-30T08:55:39Z</time>
      </trkpt>
      <trkpt lat="43.07987" lon="2.96112">
        <ele>-3.3</ele>
        <time>2019-12-30T08:56:00Z</time>
      </trkpt>
      <trkpt lat="43.07923" lon="2.9605">
        <ele>-3.72</ele>
        <time>2019-12-30T08:56:13Z</time>
      </trkpt>
      <trkpt lat="43.07918" lon="2.96044">
        <ele>-3.98</ele>
        <time>2019-12-30T08:56:14Z</time>
      </trkpt>
      <trkpt lat="43.0786" lon="2.95987">
        <ele>-3.65</ele>
        <time>2019-12-30T08:56:26Z</time>
      </trkpt>
      <trkpt lat="43.07856" lon="2.95982">
        <ele>-3.88</ele>
        <time>2019-12-30T08:56:27Z</time>
      </trkpt>
      <trkpt lat="43.07841" lon="2.95967">
        <ele>-4.1</ele>
        <time>2019-12-30T08:56:31Z</time>
      </trkpt>
      <trkpt lat="43.07837" lon="2.95962">
        <ele>-3.2</ele>
        <time>2019-12-30T08:56:32Z</time>
      </trkpt>
      <trkpt lat="43.07835" lon="2.95957">
        <ele>-3.37</ele>
        <time>2019-12-30T08:56:33Z</time>
      </trkpt>
      <trkpt lat="43.07832" lon="2.9595">
        <ele>-4.24</ele>
        <time>2019-12-30T08:56:34Z</time>
      </trkpt>
      <trkpt lat="43.07831" lon="2.95943">
        <ele>-3.79</ele>
        <time>2019-12-30T08:56:35Z</time>
      </trkpt>
      <trkpt lat="43.07805" lon="2.9586">
        <ele>-3.34</ele>
        <time>2019-12-30T08:56:47Z</time>
      </trkpt>
      <trkpt lat="43.07801" lon="2.95854">
        <ele>-3.56</ele>
        <time>2019-12-30T08:56:48Z</time>
      </trkpt>
      <trkpt lat="43.07797" lon="2.95848">
        <ele>-3.54</ele>
        <time>2019-12-30T08:56:49Z</time>
      </trkpt>
      <trkpt lat="43.07793" lon="2.95844">
        <ele>-3.88</ele>
        <time>2019-12-30T08:56:50Z</time>
      </trkpt>
      <trkpt lat="43.07788" lon="2.95839">
        <ele>-3.15</ele>
        <time>2019-12-30T08:56:51Z</time>
      </trkpt>
      <trkpt lat="43.0777" lon="2.95821">
        <ele>-3.33</ele>
        <time>2019-12-30T08:56:55Z</time>
      </trkpt>
      <trkpt lat="43.07763" lon="2.95811">
        <ele>-3.44</ele>
        <time>2019-12-30T08:56:57Z</time>
      </trkpt>
      <trkpt lat="43.07757" lon="2.95799">
        <ele>-3.7</ele>
        <time>2019-12-30T08:56:59Z</time>
      </trkpt>
      <trkpt lat="43.07704" lon="2.95674">
        <ele>-3.29</ele>
        <time>2019-12-30T08:57:19Z</time>
      </trkpt>
      <trkpt lat="43.07648" lon="2.95557">
        <ele>-3.95</ele>
        <time>2019-12-30T08:57:39Z</time>
      </trkpt>
      <trkpt lat="43.07604" lon="2.95471">
        <ele>-2.93</ele>
        <time>2019-12-30T08:57:53Z</time>
      </trkpt>
      <trkpt lat="43.07553" lon="2.95419">
        <ele>-3.28</ele>
        <time>2019-12-30T08:58:04Z</time>
      </trkpt>
      <trkpt lat="43.07534" lon="2.95405">
        <ele>-2.78</ele>
        <time>2019-12-30T08:58:08Z</time>
      </trkpt>
      <trkpt lat="43.07493" lon="2.95376">
        <ele>-3.29</ele>
        <time>2019-12-30T08:58:17Z</time>
      </trkpt>
      <trkpt lat="43.07453" lon="2.95361">
        <ele>-3.73</ele>
        <time>2019-12-30T08:58:30Z</time>
      </trkpt>
      <trkpt lat="43.07413" lon="2.95352">
        <ele>-3.33</ele>
        <time>2019-12-30T08:58:41Z</time>
      </trkpt>
      <trkpt lat="43.07405" lon="2.95348">
        <ele>-3.7</ele>
        <time>2019-12-30T08:58:43Z</time>
      </trkpt>
      <trkpt lat="43.07396" lon="2.95347">
        <ele>-3.92</ele>
        <time>2019-12-30T08:58:45Z</time>
      </trkpt>
      <trkpt lat="43.07392" lon="2.95347">
        <ele>-3.76</ele>
        <time>2019-12-30T08:58:46Z</time>
      </trkpt>
      <trkpt lat="43.07388" lon="2.95347">
        <ele>-4.13</ele>
        <time>2019-12-30T08:58:47Z</time>
      </trkpt>
      <trkpt lat="43.07338" lon="2.9534">
        <ele>-3.69</ele>
        <time>2019-12-30T08:58:59Z</time>
      </trkpt>
      <trkpt lat="43.07335" lon="2.95343">
        <ele>-3.85</ele>
        <time>2019-12-30T08:59:00Z</time>
      </trkpt>
      <trkpt lat="43.07333" lon="2.95346">
        <ele>-4.04</ele>
        <time>2019-12-30T08:59:01Z</time>
      </trkpt>
      <trkpt lat="43.0733" lon="2.95347">
        <ele>-4.08</ele>
        <time>2019-12-30T08:59:02Z</time>
      </trkpt>
      <trkpt lat="43.07328" lon="2.95347">
        <ele>-4.53</ele>
        <time>2019-12-30T08:59:03Z</time>
      </trkpt>
      <trkpt lat="43.07326" lon="2.95347">
        <ele>-4.27</ele>
        <time>2019-12-30T08:59:04Z</time>
      </trkpt>
      <trkpt lat="43.07323" lon="2.95348">
        <ele>-3.96</ele>
        <time>2019-12-30T08:59:05Z</time>
      </trkpt>
      <trkpt lat="43.0732" lon="2.95349">
        <ele>-3.9</ele>
        <time>2019-12-30T08:59:06Z</time>
      </trkpt>
      <trkpt lat="43.07316" lon="2.95349">
        <ele>-3.84</ele>
        <time>2019-12-30T08:59:07Z</time>
      </trkpt>
      <trkpt lat="43.07312" lon="2.9535">
        <ele>-3.75</ele>
        <time>2019-12-30T08:59:08Z</time>
      </trkpt>
      <trkpt lat="43.07307" lon="2.95352">
        <ele>-4.2</ele>
        <time>2019-12-30T08:59:09Z</time>
      </trkpt>
      <trkpt lat="43.07303" lon="2.95353">
        <ele>-3.93</ele>
        <time>2019-12-30T08:59:10Z</time>
      </trkpt>
      <trkpt lat="43.07298" lon="2.95356">
        <ele>-3.88</ele>
        <time>2019-12-30T08:59:11Z</time>
      </trkpt>
      <trkpt lat="43.07293" lon="2.95358">
        <ele>-4.3</ele>
        <time>2019-12-30T08:59:12Z</time>
      </trkpt>
      <trkpt lat="43.07263" lon="2.95369">
        <ele>-3.71</ele>
        <time>2019-12-30T08:59:18Z</time>
      </trkpt>
      <trkpt lat="43.07258" lon="2.95372">
        <ele>-3.59</ele>
        <time>2019-12-30T08:59:19Z</time>
      </trkpt>
      <trkpt lat="43.07248" lon="2.95379">
        <ele>-3.39</ele>
        <time>2019-12-30T08:59:21Z</time>
      </trkpt>
      <trkpt lat="43.07243" lon="2.95381">
        <ele>-3.62</ele>
        <time>2019-12-30T08:59:22Z</time>
      </trkpt>
      <trkpt lat="43.07238" lon="2.95381">
        <ele>-3.68</ele>
        <time>2019-12-30T08:59:23Z</time>
      </trkpt>
      <trkpt lat="43.07233" lon="2.95382">
        <ele>-3.4</ele>
        <time>2019-12-30T08:59:24Z</time>
      </trkpt>
      <trkpt lat="43.07229" lon="2.95385">
        <ele>-3.57</ele>
        <time>2019-12-30T08:59:25Z</time>
      </trkpt>
      <trkpt lat="43.07225" lon="2.9539">
        <ele>-3.48</ele>
        <time>2019-12-30T08:59:26Z</time>
      </trkpt>
      <trkpt lat="43.07222" lon="2.95395">
        <ele>-3.1</ele>
        <time>2019-12-30T08:59:27Z</time>
      </trkpt>
      <trkpt lat="43.07219" lon="2.95401">
        <ele>-3.18</ele>
        <time>2019-12-30T08:59:28Z</time>
      </trkpt>
      <trkpt lat="43.07217" lon="2.95407">
        <ele>-2.97</ele>
        <time>2019-12-30T08:59:29Z</time>
      </trkpt>
      <trkpt lat="43.07215" lon="2.95414">
        <ele>-2.97</ele>
        <time>2019-12-30T08:59:30Z</time>
      </trkpt>
      <trkpt lat="43.07213" lon="2.95421">
        <ele>-2.76</ele>
        <time>2019-12-30T08:59:31Z</time>
      </trkpt>
      <trkpt lat="43.07211" lon="2.95428">
        <ele>-3.26</ele>
        <time>2019-12-30T08:59:32Z</time>
      </trkpt>
      <trkpt lat="43.07207" lon="2.95448">
        <ele>-2.96</ele>
        <time>2019-12-30T08:59:35Z</time>
      </trkpt>
      <trkpt lat="43.07205" lon="2.95455">
        <ele>-2.93</ele>
        <time>2019-12-30T08:59:36Z</time>
      </trkpt>
      <trkpt lat="43.07205" lon="2.95462">
        <ele>-3.17</ele>
        <time>2019-12-30T08:59:37Z</time>
      </trkpt>
      <trkpt lat="43.072" lon="2.95515">
        <ele>-2.91</ele>
        <time>2019-12-30T08:59:45Z</time>
      </trkpt>
      <trkpt lat="43.07198" lon="2.9552">
        <ele>-3.02</ele>
        <time>2019-12-30T08:59:46Z</time>
      </trkpt>
      <trkpt lat="43.07196" lon="2.95587">
        <ele>-2.73</ele>
        <time>2019-12-30T09:00:10Z</time>
      </trkpt>
      <trkpt lat="43.07203" lon="2.95649">
        <ele>-3.09</ele>
        <time>2019-12-30T09:00:22Z</time>
      </trkpt>
      <trkpt lat="43.07201" lon="2.95654">
        <ele>-3.45</ele>
        <time>2019-12-30T09:00:23Z</time>
      </trkpt>
      <trkpt lat="43.07199" lon="2.9566">
        <ele>-3.19</ele>
        <time>2019-12-30T09:00:24Z</time>
      </trkpt>
      <trkpt lat="43.07193" lon="2.95673">
        <ele>-3.18</ele>
        <time>2019-12-30T09:00:26Z</time>
      </trkpt>
      <trkpt lat="43.07191" lon="2.95681">
        <ele>-2.63</ele>
        <time>2019-12-30T09:00:27Z</time>
      </trkpt>
      <trkpt lat="43.07179" lon="2.95722">
        <ele>-3.15</ele>
        <time>2019-12-30T09:00:33Z</time>
      </trkpt>
      <trkpt lat="43.07178" lon="2.95728">
        <ele>-3.4</ele>
        <time>2019-12-30T09:00:34Z</time>
      </trkpt>
      <trkpt lat="43.07178" lon="2.95747">
        <ele>-3.26</ele>
        <time>2019-12-30T09:00:37Z</time>
      </trkpt>
      <trkpt lat="43.07178" lon="2.95754">
        <ele>-3.39</ele>
        <time>2019-12-30T09:00:38Z</time>
      </trkpt>
      <trkpt lat="43.07178" lon="2.9576">
        <ele>-3.35</ele>
        <time>2019-12-30T09:00:39Z</time>
      </trkpt>
      <trkpt lat="43.07175" lon="2.95803">
        <ele>-2.9</ele>
        <time>2019-12-30T09:00:47Z</time>
      </trkpt>
      <trkpt lat="43.07176" lon="2.95808">
        <ele>-2.56</ele>
        <time>2019-12-30T09:00:48Z</time>
      </trkpt>
      <trkpt lat="43.07177" lon="2.95813">
        <ele>-2.95</ele>
        <time>2019-12-30T09:00:49Z</time>
      </trkpt>
      <trkpt lat="43.07178" lon="2.95817">
        <ele>-2.91</ele>
        <time>2019-12-30T09:00:50Z</time>
      </trkpt>
      <trkpt lat="43.07179" lon="2.95822">
        <ele>-2.49</ele>
        <time>2019-12-30T09:00:51Z</time>
      </trkpt>
      <trkpt lat="43.0718" lon="2.95833">
        <ele>-2.71</ele>
        <time>2019-12-30T09:00:53Z</time>
      </trkpt>
      <trkpt lat="43.0718" lon="2.95838">
        <ele>-2.34</ele>
        <time>2019-12-30T09:00:54Z</time>
      </trkpt>
      <trkpt lat="43.07182" lon="2.95879">
        <ele>-2.54</ele>
        <time>2019-12-30T09:01:01Z</time>
      </trkpt>
      <trkpt lat="43.07183" lon="2.95885">
        <ele>-3.32</ele>
        <time>2019-12-30T09:01:02Z</time>
      </trkpt>
      <trkpt lat="43.07193" lon="2.95914">
        <ele>-3.88</ele>
        <time>2019-12-30T09:01:07Z</time>
      </trkpt>
      <trkpt lat="43.07194" lon="2.9592">
        <ele>-3.22</ele>
        <time>2019-12-30T09:01:08Z</time>
      </trkpt>
      <trkpt lat="43.07194" lon="2.95926">
        <ele>-3.88</ele>
        <time>2019-12-30T09:01:09Z</time>
      </trkpt>
      <trkpt lat="43.07194" lon="2.95931">
        <ele>-2.98</ele>
        <time>2019-12-30T09:01:10Z</time>
      </trkpt>
      <trkpt lat="43.07194" lon="2.95937">
        <ele>-3.13</ele>
        <time>2019-12-30T09:01:11Z</time>
      </trkpt>
      <trkpt lat="43.0719" lon="2.95971">
        <ele>-3.35</ele>
        <time>2019-12-30T09:01:17Z</time>
      </trkpt>
      <trkpt lat="43.07189" lon="2.95978">
        <ele>-4.06</ele>
        <time>2019-12-30T09:01:18Z</time>
      </trkpt>
      <trkpt lat="43.07187" lon="2.95983">
        <ele>-3.73</ele>
        <time>2019-12-30T09:01:19Z</time>
      </trkpt>
      <trkpt lat="43.07185" lon="2.95988">
        <ele>-3.61</ele>
        <time>2019-12-30T09:01:20Z</time>
      </trkpt>
      <trkpt lat="43.07184" lon="2.95994">
        <ele>-3.42</ele>
        <time>2019-12-30T09:01:21Z</time>
      </trkpt>
      <trkpt lat="43.07166" lon="2.96068">
        <ele>-3.03</ele>
        <time>2019-12-30T09:01:35Z</time>
      </trkpt>
      <trkpt lat="43.07144" lon="2.96105">
        <ele>-3.81</ele>
        <time>2019-12-30T09:01:44Z</time>
      </trkpt>
      <trkpt lat="43.07137" lon="2.96109">
        <ele>-3.8</ele>
        <time>2019-12-30T09:01:46Z</time>
      </trkpt>
      <trkpt lat="43.07133" lon="2.96111">
        <ele>-3.06</ele>
        <time>2019-12-30T09:01:47Z</time>
      </trkpt>
      <trkpt lat="43.07129" lon="2.96113">
        <ele>-3.21</ele>
        <time>2019-12-30T09:01:48Z</time>
      </trkpt>
      <trkpt lat="43.07126" lon="2.96116">
        <ele>-3.52</ele>
        <time>2019-12-30T09:01:49Z</time>
      </trkpt>
      <trkpt lat="43.07122" lon="2.9612">
        <ele>-3.44</ele>
        <time>2019-12-30T09:01:50Z</time>
      </trkpt>
      <trkpt lat="43.07119" lon="2.96124">
        <ele>-3.69</ele>
        <time>2019-12-30T09:01:51Z</time>
      </trkpt>
      <trkpt lat="43.07107" lon="2.96142">
        <ele>-3.86</ele>
        <time>2019-12-30T09:01:55Z</time>
      </trkpt>
      <trkpt lat="43.07103" lon="2.96146">
        <ele>-3.86</ele>
        <time>2019-12-30T09:01:56Z</time>
      </trkpt>
      <trkpt lat="43.07099" lon="2.96149">
        <ele>-3.89</ele>
        <time>2019-12-30T09:01:57Z</time>
      </trkpt>
      <trkpt lat="43.07096" lon="2.96152">
        <ele>-4.13</ele>
        <time>2019-12-30T09:01:58Z</time>
      </trkpt>
      <trkpt lat="43.07092" lon="2.96154">
        <ele>-4.05</ele>
        <time>2019-12-30T09:01:59Z</time>
      </trkpt>
      <trkpt lat="43.07088" lon="2.96156">
        <ele>-3.59</ele>
        <time>2019-12-30T09:02:00Z</time>
      </trkpt>
      <trkpt lat="43.07084" lon="2.96159">
        <ele>-3.85</ele>
        <time>2019-12-30T09:02:01Z</time>
      </trkpt>
      <trkpt lat="43.0708" lon="2.96161">
        <ele>-3.79</ele>
        <time>2019-12-30T09:02:02Z</time>
      </trkpt>
      <trkpt lat="43.07023" lon="2.96202">
        <ele>-3.72</ele>
        <time>2019-12-30T09:02:18Z</time>
      </trkpt>
      <trkpt lat="43.06993" lon="2.96223">
        <ele>-4.03</ele>
        <time>2019-12-30T09:02:26Z</time>
      </trkpt>
      <trkpt lat="43.0699" lon="2.96227">
        <ele>-3.37</ele>
        <time>2019-12-30T09:02:27Z</time>
      </trkpt>
      <trkpt lat="43.06959" lon="2.96259">
        <ele>-3.73</ele>
        <time>2019-12-30T09:02:36Z</time>
      </trkpt>
      <trkpt lat="43.06955" lon="2.96262">
        <ele>-3.52</ele>
        <time>2019-12-30T09:02:37Z</time>
      </trkpt>
      <trkpt lat="43.06951" lon="2.96264">
        <ele>-3.75</ele>
        <time>2019-12-30T09:02:38Z</time>
      </trkpt>
      <trkpt lat="43.06948" lon="2.96268">
        <ele>-3.29</ele>
        <time>2019-12-30T09:02:39Z</time>
      </trkpt>
      <trkpt lat="43.06944" lon="2.96272">
        <ele>-3.31</ele>
        <time>2019-12-30T09:02:40Z</time>
      </trkpt>
      <trkpt lat="43.06935" lon="2.96284">
        <ele>-3.45</ele>
        <time>2019-12-30T09:02:43Z</time>
      </trkpt>
      <trkpt lat="43.06932" lon="2.96288">
        <ele>-3.89</ele>
        <time>2019-12-30T09:02:44Z</time>
      </trkpt>
      <trkpt lat="43.06926" lon="2.96296">
        <ele>-3.26</ele>
        <time>2019-12-30T09:02:46Z</time>
      </trkpt>
      <trkpt lat="43.06923" lon="2.96299">
        <ele>-3.85</ele>
        <time>2019-12-30T09:02:47Z</time>
      </trkpt>
      <trkpt lat="43.06912" lon="2.96309">
        <ele>-4.27</ele>
        <time>2019-12-30T09:02:50Z</time>
      </trkpt>
      <trkpt lat="43.069" lon="2.96319">
        <ele>-3.88</ele>
        <time>2019-12-30T09:02:54Z</time>
      </trkpt>
      <trkpt lat="43.06898" lon="2.96319">
        <ele>-4.44</ele>
        <time>2019-12-30T09:02:55Z</time>
      </trkpt>
      <trkpt lat="43.06897" lon="2.9632">
        <ele>-4.14</ele>
        <time>2019-12-30T09:03:08Z</time>
      </trkpt>
      <trkpt lat="43.06897" lon="2.96323">
        <ele>-4.29</ele>
        <time>2019-12-30T09:03:15Z</time>
      </trkpt>
      <trkpt lat="43.06895" lon="2.96328">
        <ele>-4.06</ele>
        <time>2019-12-30T09:03:20Z</time>
      </trkpt>
      <trkpt lat="43.06891" lon="2.96337">
        <ele>-4.59</ele>
        <time>2019-12-30T09:03:32Z</time>
      </trkpt>
      <trkpt lat="43.06889" lon="2.9634">
        <ele>-5.09</ele>
        <time>2019-12-30T09:03:45Z</time>
      </trkpt>
      <trkpt lat="43.06888" lon="2.9634">
        <ele>-5.11</ele>
        <time>2019-12-30T09:03:46Z</time>
      </trkpt>
      <trkpt lat="43.06887" lon="2.9634">
        <ele>-5.11</ele>
        <time>2019-12-30T09:03:47Z</time>
      </trkpt>
      <trkpt lat="43.06886" lon="2.96339">
        <ele>-4.9</ele>
        <time>2019-12-30T09:03:48Z</time>
      </trkpt>
      <trkpt lat="43.06884" lon="2.96337">
        <ele>-4.66</ele>
        <time>2019-12-30T09:03:49Z</time>
      </trkpt>
      <trkpt lat="43.06883" lon="2.96335">
        <ele>-4.23</ele>
        <time>2019-12-30T09:03:50Z</time>
      </trkpt>
      <trkpt lat="43.06882" lon="2.96334">
        <ele>-4.62</ele>
        <time>2019-12-30T09:03:51Z</time>
      </trkpt>
      <trkpt lat="43.0688" lon="2.96333">
        <ele>-4.25</ele>
        <time>2019-12-30T09:03:52Z</time>
      </trkpt>
      <trkpt lat="43.06878" lon="2.96332">
        <ele>-4.16</ele>
        <time>2019-12-30T09:03:53Z</time>
      </trkpt>
      <trkpt lat="43.06864" lon="2.96328">
        <ele>-4.51</ele>
        <time>2019-12-30T09:03:59Z</time>
      </trkpt>
      <trkpt lat="43.06863" lon="2.96326">
        <ele>-3.98</ele>
        <time>2019-12-30T09:04:00Z</time>
      </trkpt>
      <trkpt lat="43.0686" lon="2.96324">
        <ele>-4.27</ele>
        <time>2019-12-30T09:04:01Z</time>
      </trkpt>
      <trkpt lat="43.06858" lon="2.96323">
        <ele>-4.21</ele>
        <time>2019-12-30T09:04:02Z</time>
      </trkpt>
      <trkpt lat="43.06855" lon="2.96322">
        <ele>-4.18</ele>
        <time>2019-12-30T09:04:03Z</time>
      </trkpt>
      <trkpt lat="43.06848" lon="2.96317">
        <ele>-3.87</ele>
        <time>2019-12-30T09:04:06Z</time>
      </trkpt>
      <trkpt lat="43.06848" lon="2.96315">
        <ele>-3.92</ele>
        <time>2019-12-30T09:04:07Z</time>
      </trkpt>
      <trkpt lat="43.06847" lon="2.96312">
        <ele>-3.4</ele>
        <time>2019-12-30T09:04:08Z</time>
      </trkpt>
      <trkpt lat="43.06848" lon="2.9631">
        <ele>-3.22</ele>
        <time>2019-12-30T09:04:09Z</time>
      </trkpt>
      <trkpt lat="43.06847" lon="2.96308">
        <ele>-2.98</ele>
        <time>2019-12-30T09:04:10Z</time>
      </trkpt>
      <trkpt lat="43.06846" lon="2.96307">
        <ele>-2.8</ele>
        <time>2019-12-30T09:04:11Z</time>
      </trkpt>
      <trkpt lat="43.06843" lon="2.9631">
        <ele>-3.32</ele>
        <time>2019-12-30T09:04:14Z</time>
      </trkpt>
      <trkpt lat="43.06841" lon="2.9631">
        <ele>-3.06</ele>
        <time>2019-12-30T09:04:15Z</time>
      </trkpt>
      <trkpt lat="43.06839" lon="2.96309">
        <ele>-3.19</ele>
        <time>2019-12-30T09:04:16Z</time>
      </trkpt>
      <trkpt lat="43.06805" lon="2.963">
        <ele>-2.97</ele>
        <time>2019-12-30T09:04:28Z</time>
      </trkpt>
      <trkpt lat="43.06782" lon="2.96293">
        <ele>-3.01</ele>
        <time>2019-12-30T09:04:37Z</time>
      </trkpt>
      <trkpt lat="43.06781" lon="2.96291">
        <ele>-3.67</ele>
        <time>2019-12-30T09:04:38Z</time>
      </trkpt>
      <trkpt lat="43.06779" lon="2.96288">
        <ele>-3.27</ele>
        <time>2019-12-30T09:04:39Z</time>
      </trkpt>
      <trkpt lat="43.06777" lon="2.96286">
        <ele>-3.81</ele>
        <time>2019-12-30T09:04:40Z</time>
      </trkpt>
      <trkpt lat="43.06775" lon="2.96284">
        <ele>-3.83</ele>
        <time>2019-12-30T09:04:41Z</time>
      </trkpt>
      <trkpt lat="43.06773" lon="2.96283">
        <ele>-3.08</ele>
        <time>2019-12-30T09:04:42Z</time>
      </trkpt>
      <trkpt lat="43.06772" lon="2.96281">
        <ele>-3.35</ele>
        <time>2019-12-30T09:04:43Z</time>
      </trkpt>
      <trkpt lat="43.06769" lon="2.96279">
        <ele>-2.87</ele>
        <time>2019-12-30T09:04:44Z</time>
      </trkpt>
      <trkpt lat="43.06768" lon="2.96278">
        <ele>-2.83</ele>
        <time>2019-12-30T09:04:45Z</time>
      </trkpt>
      <trkpt lat="43.06765" lon="2.96276">
        <ele>-2.79</ele>
        <time>2019-12-30T09:04:46Z</time>
      </trkpt>
      <trkpt lat="43.06762" lon="2.96274">
        <ele>-3.32</ele>
        <time>2019-12-30T09:04:47Z</time>
      </trkpt>
      <trkpt lat="43.06759" lon="2.96273">
        <ele>-2.76</ele>
        <time>2019-12-30T09:04:48Z</time>
      </trkpt>
      <trkpt lat="43.06756" lon="2.96272">
        <ele>-3.15</ele>
        <time>2019-12-30T09:04:49Z</time>
      </trkpt>
      <trkpt lat="43.06744" lon="2.96257">
        <ele>-3.3</ele>
        <time>2019-12-30T09:04:58Z</time>
      </trkpt>
      <trkpt lat="43.0674" lon="2.96254">
        <ele>-3.07</ele>
        <time>2019-12-30T09:05:22Z</time>
      </trkpt>
      <trkpt lat="43.06739" lon="2.96253">
        <ele>-4.09</ele>
        <time>2019-12-30T09:06:04Z</time>
      </trkpt>
      <trkpt lat="43.06737" lon="2.96247">
        <ele>-4.36</ele>
        <time>2019-12-30T09:06:16Z</time>
      </trkpt>
      <trkpt lat="43.06737" lon="2.96244">
        <ele>-4.01</ele>
        <time>2019-12-30T09:06:17Z</time>
      </trkpt>
      <trkpt lat="43.06737" lon="2.96242">
        <ele>-3.96</ele>
        <time>2019-12-30T09:06:18Z</time>
      </trkpt>
      <trkpt lat="43.06737" lon="2.96239">
        <ele>-3.99</ele>
        <time>2019-12-30T09:06:19Z</time>
      </trkpt>
      <trkpt lat="43.06736" lon="2.96237">
        <ele>-4.81</ele>
        <time>2019-12-30T09:06:20Z</time>
      </trkpt>
      <trkpt lat="43.06735" lon="2.96234">
        <ele>-4.84</ele>
        <time>2019-12-30T09:06:21Z</time>
      </trkpt>
      <trkpt lat="43.06735" lon="2.96231">
        <ele>-4.17</ele>
        <time>2019-12-30T09:06:22Z</time>
      </trkpt>
      <trkpt lat="43.06735" lon="2.96228">
        <ele>-4.75</ele>
        <time>2019-12-30T09:06:23Z</time>
      </trkpt>
      <trkpt lat="43.06735" lon="2.96225">
        <ele>-4.23</ele>
        <time>2019-12-30T09:06:24Z</time>
      </trkpt>
      <trkpt lat="43.06736" lon="2.96222">
        <ele>-4.21</ele>
        <time>2019-12-30T09:06:25Z</time>
      </trkpt>
      <trkpt lat="43.06737" lon="2.96218">
        <ele>-4.23</ele>
        <time>2019-12-30T09:06:26Z</time>
      </trkpt>
      <trkpt lat="43.06738" lon="2.96215">
        <ele>-4.5</ele>
        <time>2019-12-30T09:06:27Z</time>
      </trkpt>
      <trkpt lat="43.06738" lon="2.96211">
        <ele>-4.25</ele>
        <time>2019-12-30T09:06:28Z</time>
      </trkpt>
      <trkpt lat="43.06738" lon="2.96207">
        <ele>-4.68</ele>
        <time>2019-12-30T09:06:29Z</time>
      </trkpt>
      <trkpt lat="43.06739" lon="2.96203">
        <ele>-4.54</ele>
        <time>2019-12-30T09:06:30Z</time>
      </trkpt>
      <trkpt lat="43.06744" lon="2.96164">
        <ele>-3.91</ele>
        <time>2019-12-30T09:06:43Z</time>
      </trkpt>
      <trkpt lat="43.06743" lon="2.96162">
        <ele>-4.21</ele>
        <time>2019-12-30T09:07:08Z</time>
      </trkpt>
      <trkpt lat="43.06743" lon="2.96162">
        <ele>-4.14</ele>
        <time>2019-12-30T09:07:46Z</time>
      </trkpt>
      <trkpt lat="43.06748" lon="2.96145">
        <ele>-4.38</ele>
        <time>2019-12-30T09:08:12Z</time>
      </trkpt>
      <trkpt lat="43.0676" lon="2.96124">
        <ele>-4.39</ele>
        <time>2019-12-30T09:08:21Z</time>
      </trkpt>
      <trkpt lat="43.06761" lon="2.96123">
        <ele>-4.14</ele>
        <time>2019-12-30T09:08:22Z</time>
      </trkpt>
      <trkpt lat="43.06763" lon="2.9612">
        <ele>-3.8</ele>
        <time>2019-12-30T09:08:23Z</time>
      </trkpt>
      <trkpt lat="43.06765" lon="2.96118">
        <ele>-3.9</ele>
        <time>2019-12-30T09:08:24Z</time>
      </trkpt>
      <trkpt lat="43.06766" lon="2.96116">
        <ele>-3.91</ele>
        <time>2019-12-30T09:08:25Z</time>
      </trkpt>
      <trkpt lat="43.06769" lon="2.96115">
        <ele>-3.86</ele>
        <time>2019-12-30T09:08:26Z</time>
      </trkpt>
      <trkpt lat="43.06771" lon="2.96114">
        <ele>-3.79</ele>
        <time>2019-12-30T09:08:27Z</time>
      </trkpt>
      <trkpt lat="43.06774" lon="2.96113">
        <ele>-3.75</ele>
        <time>2019-12-30T09:08:28Z</time>
      </trkpt>
      <trkpt lat="43.06777" lon="2.96111">
        <ele>-3.83</ele>
        <time>2019-12-30T09:08:29Z</time>
      </trkpt>
      <trkpt lat="43.06812" lon="2.96084">
        <ele>-3.63</ele>
        <time>2019-12-30T09:08:42Z</time>
      </trkpt>
      <trkpt lat="43.0683" lon="2.96036">
        <ele>-4.56</ele>
        <time>2019-12-30T09:08:53Z</time>
      </trkpt>
      <trkpt lat="43.06848" lon="2.95959">
        <ele>-3.82</ele>
        <time>2019-12-30T09:09:10Z</time>
      </trkpt>
      <trkpt lat="43.06858" lon="2.9588">
        <ele>-3.56</ele>
        <time>2019-12-30T09:09:26Z</time>
      </trkpt>
      <trkpt lat="43.0684" lon="2.95807">
        <ele>-3.85</ele>
        <time>2019-12-30T09:09:42Z</time>
      </trkpt>
      <trkpt lat="43.06825" lon="2.95733">
        <ele>-4.42</ele>
        <time>2019-12-30T09:09:59Z</time>
      </trkpt>
      <trkpt lat="43.06812" lon="2.9569">
        <ele>-4.61</ele>
        <time>2019-12-30T09:10:12Z</time>
      </trkpt>
      <trkpt lat="43.06787" lon="2.95639">
        <ele>-3.57</ele>
        <time>2019-12-30T09:10:26Z</time>
      </trkpt>
      <trkpt lat="43.06756" lon="2.9558">
        <ele>-4.83</ele>
        <time>2019-12-30T09:10:43Z</time>
      </trkpt>
      <trkpt lat="43.06754" lon="2.95569">
        <ele>-5.02</ele>
        <time>2019-12-30T09:10:46Z</time>
      </trkpt>
      <trkpt lat="43.06754" lon="2.95565">
        <ele>-4.57</ele>
        <time>2019-12-30T09:10:47Z</time>
      </trkpt>
      <trkpt lat="43.06754" lon="2.9556">
        <ele>-4.62</ele>
        <time>2019-12-30T09:10:48Z</time>
      </trkpt>
      <trkpt lat="43.06737" lon="2.95507">
        <ele>-4.5</ele>
        <time>2019-12-30T09:11:01Z</time>
      </trkpt>
      <trkpt lat="43.06732" lon="2.95456">
        <ele>-3.91</ele>
        <time>2019-12-30T09:11:16Z</time>
      </trkpt>
      <trkpt lat="43.06732" lon="2.9545">
        <ele>-4.4</ele>
        <time>2019-12-30T09:11:29Z</time>
      </trkpt>
      <trkpt lat="43.06734" lon="2.95445">
        <ele>-3.09</ele>
        <time>2019-12-30T09:11:52Z</time>
      </trkpt>
      <trkpt lat="43.06747" lon="2.95415">
        <ele>-3.29</ele>
        <time>2019-12-30T09:12:07Z</time>
      </trkpt>
      <trkpt lat="43.0677" lon="2.95375">
        <ele>-3.47</ele>
        <time>2019-12-30T09:12:22Z</time>
      </trkpt>
      <trkpt lat="43.06794" lon="2.95331">
        <ele>-3.32</ele>
        <time>2019-12-30T09:12:34Z</time>
      </trkpt>
      <trkpt lat="43.06799" lon="2.95322">
        <ele>-4.3</ele>
        <time>2019-12-30T09:12:42Z</time>
      </trkpt>
      <trkpt lat="43.06803" lon="2.95318">
        <ele>-4.34</ele>
        <time>2019-12-30T09:12:47Z</time>
      </trkpt>
      <trkpt lat="43.06804" lon="2.95316">
        <ele>-4.23</ele>
        <time>2019-12-30T09:12:48Z</time>
      </trkpt>
      <trkpt lat="43.06805" lon="2.95315">
        <ele>-4.16</ele>
        <time>2019-12-30T09:12:49Z</time>
      </trkpt>
      <trkpt lat="43.06809" lon="2.95307">
        <ele>-4.03</ele>
        <time>2019-12-30T09:13:02Z</time>
      </trkpt>
      <trkpt lat="43.06814" lon="2.95301">
        <ele>-3.84</ele>
        <time>2019-12-30T09:13:23Z</time>
      </trkpt>
      <trkpt lat="43.06821" lon="2.95295">
        <ele>-4.02</ele>
        <time>2019-12-30T09:13:28Z</time>
      </trkpt>
      <trkpt lat="43.06823" lon="2.95294">
        <ele>-2.72</ele>
        <time>2019-12-30T09:13:29Z</time>
      </trkpt>
      <trkpt lat="43.06826" lon="2.95293">
        <ele>-2.91</ele>
        <time>2019-12-30T09:13:30Z</time>
      </trkpt>
      <trkpt lat="43.06832" lon="2.9529">
        <ele>-2.65</ele>
        <time>2019-12-30T09:13:34Z</time>
      </trkpt>
      <trkpt lat="43.06834" lon="2.95288">
        <ele>-3.09</ele>
        <time>2019-12-30T09:13:35Z</time>
      </trkpt>
      <trkpt lat="43.06839" lon="2.95274">
        <ele>-2.31</ele>
        <time>2019-12-30T09:13:41Z</time>
      </trkpt>
      <trkpt lat="43.06839" lon="2.95271">
        <ele>-2.02</ele>
        <time>2019-12-30T09:13:42Z</time>
      </trkpt>
      <trkpt lat="43.06839" lon="2.95269">
        <ele>-2.57</ele>
        <time>2019-12-30T09:13:43Z</time>
      </trkpt>
      <trkpt lat="43.06839" lon="2.95267">
        <ele>-2.49</ele>
        <time>2019-12-30T09:13:44Z</time>
      </trkpt>
      <trkpt lat="43.06838" lon="2.95265">
        <ele>-2.03</ele>
        <time>2019-12-30T09:13:45Z</time>
      </trkpt>
      <trkpt lat="43.06843" lon="2.95232">
        <ele>-2.55</ele>
        <time>2019-12-30T09:13:56Z</time>
      </trkpt>
      <trkpt lat="43.06856" lon="2.95203">
        <ele>-1.59</ele>
        <time>2019-12-30T09:14:08Z</time>
      </trkpt>
      <trkpt lat="43.06876" lon="2.95167">
        <ele>-1.43</ele>
        <time>2019-12-30T09:14:21Z</time>
      </trkpt>
      <trkpt lat="43.06896" lon="2.95137">
        <ele>-0.75</ele>
        <time>2019-12-30T09:14:32Z</time>
      </trkpt>
      <trkpt lat="43.06916" lon="2.95109">
        <ele>0.16</ele>
        <time>2019-12-30T09:14:42Z</time>
      </trkpt>
      <trkpt lat="43.06937" lon="2.95091">
        <ele>1.37</ele>
        <time>2019-12-30T09:14:51Z</time>
      </trkpt>
      <trkpt lat="43.06961" lon="2.95071">
        <ele>3.78</ele>
        <time>2019-12-30T09:15:00Z</time>
      </trkpt>
      <trkpt lat="43.0698" lon="2.95044">
        <ele>6.69</ele>
        <time>2019-12-30T09:15:11Z</time>
      </trkpt>
      <trkpt lat="43.06994" lon="2.95017">
        <ele>10.19</ele>
        <time>2019-12-30T09:15:22Z</time>
      </trkpt>
      <trkpt lat="43.07001" lon="2.94997">
        <ele>12</ele>
        <time>2019-12-30T09:15:31Z</time>
      </trkpt>
      <trkpt lat="43.07003" lon="2.94996">
        <ele>12.26</ele>
        <time>2019-12-30T09:15:32Z</time>
      </trkpt>
      <trkpt lat="43.07009" lon="2.94986">
        <ele>12.58</ele>
        <time>2019-12-30T09:15:38Z</time>
      </trkpt>
      <trkpt lat="43.0701" lon="2.94984">
        <ele>12.46</ele>
        <time>2019-12-30T09:15:39Z</time>
      </trkpt>
      <trkpt lat="43.07011" lon="2.94982">
        <ele>12.3</ele>
        <time>2019-12-30T09:15:40Z</time>
      </trkpt>
      <trkpt lat="43.07028" lon="2.94943">
        <ele>10.75</ele>
        <time>2019-12-30T09:15:52Z</time>
      </trkpt>
      <trkpt lat="43.0703" lon="2.94937">
        <ele>10.17</ele>
        <time>2019-12-30T09:16:00Z</time>
      </trkpt>
      <trkpt lat="43.0703" lon="2.94921">
        <ele>9.07</ele>
        <time>2019-12-30T09:16:13Z</time>
      </trkpt>
      <trkpt lat="43.0703" lon="2.94917">
        <ele>8.93</ele>
        <time>2019-12-30T09:16:14Z</time>
      </trkpt>
      <trkpt lat="43.07031" lon="2.94912">
        <ele>8.62</ele>
        <time>2019-12-30T09:16:15Z</time>
      </trkpt>
      <trkpt lat="43.07032" lon="2.94908">
        <ele>8.39</ele>
        <time>2019-12-30T09:16:16Z</time>
      </trkpt>
      <trkpt lat="43.07033" lon="2.94903">
        <ele>8.21</ele>
        <time>2019-12-30T09:16:17Z</time>
      </trkpt>
      <trkpt lat="43.07034" lon="2.94899">
        <ele>8.39</ele>
        <time>2019-12-30T09:16:18Z</time>
      </trkpt>
      <trkpt lat="43.0704" lon="2.94871">
        <ele>8.51</ele>
        <time>2019-12-30T09:16:24Z</time>
      </trkpt>
      <trkpt lat="43.07039" lon="2.94867">
        <ele>7.71</ele>
        <time>2019-12-30T09:16:25Z</time>
      </trkpt>
      <trkpt lat="43.07038" lon="2.94862">
        <ele>7.73</ele>
        <time>2019-12-30T09:16:26Z</time>
      </trkpt>
      <trkpt lat="43.07037" lon="2.94858">
        <ele>7.6</ele>
        <time>2019-12-30T09:16:27Z</time>
      </trkpt>
      <trkpt lat="43.07036" lon="2.94853">
        <ele>7.5</ele>
        <time>2019-12-30T09:16:28Z</time>
      </trkpt>
      <trkpt lat="43.07036" lon="2.94848">
        <ele>7.75</ele>
        <time>2019-12-30T09:16:29Z</time>
      </trkpt>
      <trkpt lat="43.07037" lon="2.94844">
        <ele>7.47</ele>
        <time>2019-12-30T09:16:30Z</time>
      </trkpt>
      <trkpt lat="43.07039" lon="2.9484">
        <ele>8.63</ele>
        <time>2019-12-30T09:16:31Z</time>
      </trkpt>
      <trkpt lat="43.07041" lon="2.94837">
        <ele>8.05</ele>
        <time>2019-12-30T09:16:32Z</time>
      </trkpt>
      <trkpt lat="43.07043" lon="2.94834">
        <ele>8.08</ele>
        <time>2019-12-30T09:16:33Z</time>
      </trkpt>
      <trkpt lat="43.07046" lon="2.94832">
        <ele>8.62</ele>
        <time>2019-12-30T09:16:34Z</time>
      </trkpt>
      <trkpt lat="43.07058" lon="2.94823">
        <ele>8.9</ele>
        <time>2019-12-30T09:16:39Z</time>
      </trkpt>
      <trkpt lat="43.0706" lon="2.94819">
        <ele>9.67</ele>
        <time>2019-12-30T09:16:40Z</time>
      </trkpt>
      <trkpt lat="43.07062" lon="2.94815">
        <ele>8.9</ele>
        <time>2019-12-30T09:16:41Z</time>
      </trkpt>
      <trkpt lat="43.07064" lon="2.94811">
        <ele>8.93</ele>
        <time>2019-12-30T09:16:42Z</time>
      </trkpt>
      <trkpt lat="43.07066" lon="2.94807">
        <ele>9.04</ele>
        <time>2019-12-30T09:16:43Z</time>
      </trkpt>
      <trkpt lat="43.07069" lon="2.94803">
        <ele>9.05</ele>
        <time>2019-12-30T09:16:44Z</time>
      </trkpt>
      <trkpt lat="43.07086" lon="2.94768">
        <ele>9.6</ele>
        <time>2019-12-30T09:16:52Z</time>
      </trkpt>
      <trkpt lat="43.07088" lon="2.94763">
        <ele>9.71</ele>
        <time>2019-12-30T09:16:53Z</time>
      </trkpt>
      <trkpt lat="43.0709" lon="2.94758">
        <ele>10</ele>
        <time>2019-12-30T09:16:54Z</time>
      </trkpt>
      <trkpt lat="43.07093" lon="2.94754">
        <ele>9.88</ele>
        <time>2019-12-30T09:16:55Z</time>
      </trkpt>
      <trkpt lat="43.07095" lon="2.9475">
        <ele>10.83</ele>
        <time>2019-12-30T09:16:56Z</time>
      </trkpt>
      <trkpt lat="43.07097" lon="2.94745">
        <ele>10.33</ele>
        <time>2019-12-30T09:16:57Z</time>
      </trkpt>
      <trkpt lat="43.07102" lon="2.94733">
        <ele>11.81</ele>
        <time>2019-12-30T09:17:00Z</time>
      </trkpt>
      <trkpt lat="43.07107" lon="2.94718">
        <ele>12.26</ele>
        <time>2019-12-30T09:17:05Z</time>
      </trkpt>
      <trkpt lat="43.07108" lon="2.94716">
        <ele>12.61</ele>
        <time>2019-12-30T09:17:06Z</time>
      </trkpt>
      <trkpt lat="43.0711" lon="2.94715">
        <ele>12.85</ele>
        <time>2019-12-30T09:17:07Z</time>
      </trkpt>
      <trkpt lat="43.07114" lon="2.94713">
        <ele>13.01</ele>
        <time>2019-12-30T09:17:09Z</time>
      </trkpt>
      <trkpt lat="43.07116" lon="2.94711">
        <ele>12.7</ele>
        <time>2019-12-30T09:17:10Z</time>
      </trkpt>
      <trkpt lat="43.07118" lon="2.94708">
        <ele>12.89</ele>
        <time>2019-12-30T09:17:11Z</time>
      </trkpt>
      <trkpt lat="43.07137" lon="2.94679">
        <ele>12.3</ele>
        <time>2019-12-30T09:17:23Z</time>
      </trkpt>
      <trkpt lat="43.07167" lon="2.94623">
        <ele>13.32</ele>
        <time>2019-12-30T09:17:37Z</time>
      </trkpt>
      <trkpt lat="43.07185" lon="2.9459">
        <ele>15.62</ele>
        <time>2019-12-30T09:17:47Z</time>
      </trkpt>
      <trkpt lat="43.07189" lon="2.94579">
        <ele>17.12</ele>
        <time>2019-12-30T09:17:50Z</time>
      </trkpt>
      <trkpt lat="43.07211" lon="2.94536">
        <ele>16.69</ele>
        <time>2019-12-30T09:18:02Z</time>
      </trkpt>
      <trkpt lat="43.07236" lon="2.94488">
        <ele>16.74</ele>
        <time>2019-12-30T09:18:15Z</time>
      </trkpt>
      <trkpt lat="43.07264" lon="2.94431">
        <ele>14.72</ele>
        <time>2019-12-30T09:18:29Z</time>
      </trkpt>
      <trkpt lat="43.07284" lon="2.94395">
        <ele>14.6</ele>
        <time>2019-12-30T09:18:41Z</time>
      </trkpt>
      <trkpt lat="43.07294" lon="2.94372">
        <ele>14.13</ele>
        <time>2019-12-30T09:18:51Z</time>
      </trkpt>
      <trkpt lat="43.07294" lon="2.94369">
        <ele>14.76</ele>
        <time>2019-12-30T09:18:52Z</time>
      </trkpt>
      <trkpt lat="43.07293" lon="2.94365">
        <ele>14.63</ele>
        <time>2019-12-30T09:18:53Z</time>
      </trkpt>
      <trkpt lat="43.07291" lon="2.94358">
        <ele>13.61</ele>
        <time>2019-12-30T09:18:55Z</time>
      </trkpt>
      <trkpt lat="43.07289" lon="2.94354">
        <ele>14.44</ele>
        <time>2019-12-30T09:18:56Z</time>
      </trkpt>
      <trkpt lat="43.07235" lon="2.94308">
        <ele>11.28</ele>
        <time>2019-12-30T09:19:07Z</time>
      </trkpt>
      <trkpt lat="43.07173" lon="2.94255">
        <ele>7.75</ele>
        <time>2019-12-30T09:19:16Z</time>
      </trkpt>
      <trkpt lat="43.0711" lon="2.942">
        <ele>4.66</ele>
        <time>2019-12-30T09:19:25Z</time>
      </trkpt>
      <trkpt lat="43.07013" lon="2.9411">
        <ele>3.92</ele>
        <time>2019-12-30T09:19:41Z</time>
      </trkpt>
      <trkpt lat="43.069" lon="2.94006">
        <ele>4.74</ele>
        <time>2019-12-30T09:20:02Z</time>
      </trkpt>
      <trkpt lat="43.06813" lon="2.93923">
        <ele>5.69</ele>
        <time>2019-12-30T09:20:20Z</time>
      </trkpt>
      <trkpt lat="43.06809" lon="2.93917">
        <ele>5.53</ele>
        <time>2019-12-30T09:20:21Z</time>
      </trkpt>
      <trkpt lat="43.06806" lon="2.93911">
        <ele>5.42</ele>
        <time>2019-12-30T09:20:22Z</time>
      </trkpt>
      <trkpt lat="43.06805" lon="2.93903">
        <ele>5.63</ele>
        <time>2019-12-30T09:20:23Z</time>
      </trkpt>
      <trkpt lat="43.06804" lon="2.93896">
        <ele>5.81</ele>
        <time>2019-12-30T09:20:24Z</time>
      </trkpt>
      <trkpt lat="43.06803" lon="2.93888">
        <ele>5.8</ele>
        <time>2019-12-30T09:20:25Z</time>
      </trkpt>
      <trkpt lat="43.068" lon="2.93881">
        <ele>5.6</ele>
        <time>2019-12-30T09:20:26Z</time>
      </trkpt>
      <trkpt lat="43.06796" lon="2.93876">
        <ele>5.55</ele>
        <time>2019-12-30T09:20:27Z</time>
      </trkpt>
      <trkpt lat="43.06791" lon="2.93871">
        <ele>5.51</ele>
        <time>2019-12-30T09:20:28Z</time>
      </trkpt>
      <trkpt lat="43.06786" lon="2.93869">
        <ele>5.12</ele>
        <time>2019-12-30T09:20:29Z</time>
      </trkpt>
      <trkpt lat="43.0678" lon="2.93869">
        <ele>5.37</ele>
        <time>2019-12-30T09:20:30Z</time>
      </trkpt>
      <trkpt lat="43.06775" lon="2.9387">
        <ele>5.04</ele>
        <time>2019-12-30T09:20:31Z</time>
      </trkpt>
      <trkpt lat="43.0677" lon="2.93873">
        <ele>4.95</ele>
        <time>2019-12-30T09:20:32Z</time>
      </trkpt>
      <trkpt lat="43.06765" lon="2.93877">
        <ele>5.12</ele>
        <time>2019-12-30T09:20:33Z</time>
      </trkpt>
      <trkpt lat="43.06762" lon="2.93883">
        <ele>5.15</ele>
        <time>2019-12-30T09:20:34Z</time>
      </trkpt>
      <trkpt lat="43.06759" lon="2.9389">
        <ele>5.53</ele>
        <time>2019-12-30T09:20:35Z</time>
      </trkpt>
      <trkpt lat="43.06758" lon="2.93897">
        <ele>5.65</ele>
        <time>2019-12-30T09:20:36Z</time>
      </trkpt>
      <trkpt lat="43.06757" lon="2.93905">
        <ele>5.65</ele>
        <time>2019-12-30T09:20:37Z</time>
      </trkpt>
      <trkpt lat="43.06757" lon="2.93913">
        <ele>5.56</ele>
        <time>2019-12-30T09:20:38Z</time>
      </trkpt>
      <trkpt lat="43.06756" lon="2.93921">
        <ele>5.43</ele>
        <time>2019-12-30T09:20:39Z</time>
      </trkpt>
      <trkpt lat="43.06754" lon="2.93929">
        <ele>5.55</ele>
        <time>2019-12-30T09:20:40Z</time>
      </trkpt>
      <trkpt lat="43.06751" lon="2.93936">
        <ele>4.97</ele>
        <time>2019-12-30T09:20:41Z</time>
      </trkpt>
      <trkpt lat="43.06746" lon="2.93943">
        <ele>4.09</ele>
        <time>2019-12-30T09:20:42Z</time>
      </trkpt>
      <trkpt lat="43.06741" lon="2.93949">
        <ele>3.81</ele>
        <time>2019-12-30T09:20:43Z</time>
      </trkpt>
      <trkpt lat="43.06656" lon="2.94052">
        <ele>1.68</ele>
        <time>2019-12-30T09:20:58Z</time>
      </trkpt>
      <trkpt lat="43.0665" lon="2.94059">
        <ele>1.78</ele>
        <time>2019-12-30T09:20:59Z</time>
      </trkpt>
      <trkpt lat="43.06643" lon="2.94063">
        <ele>1.42</ele>
        <time>2019-12-30T09:21:00Z</time>
      </trkpt>
      <trkpt lat="43.06636" lon="2.94064">
        <ele>0.77</ele>
        <time>2019-12-30T09:21:01Z</time>
      </trkpt>
      <trkpt lat="43.06628" lon="2.94063">
        <ele>1</ele>
        <time>2019-12-30T09:21:02Z</time>
      </trkpt>
      <trkpt lat="43.06621" lon="2.94061">
        <ele>0.6</ele>
        <time>2019-12-30T09:21:03Z</time>
      </trkpt>
      <trkpt lat="43.06613" lon="2.94057">
        <ele>0.08</ele>
        <time>2019-12-30T09:21:04Z</time>
      </trkpt>
      <trkpt lat="43.06605" lon="2.94053">
        <ele>0.31</ele>
        <time>2019-12-30T09:21:05Z</time>
      </trkpt>
      <trkpt lat="43.06582" lon="2.94044">
        <ele>-0.29</ele>
        <time>2019-12-30T09:21:08Z</time>
      </trkpt>
      <trkpt lat="43.06575" lon="2.94043">
        <ele>-0.06</ele>
        <time>2019-12-30T09:21:09Z</time>
      </trkpt>
      <trkpt lat="43.06567" lon="2.94044">
        <ele>-0.26</ele>
        <time>2019-12-30T09:21:10Z</time>
      </trkpt>
      <trkpt lat="43.0656" lon="2.94047">
        <ele>-0.1</ele>
        <time>2019-12-30T09:21:11Z</time>
      </trkpt>
      <trkpt lat="43.06553" lon="2.94052">
        <ele>-0.33</ele>
        <time>2019-12-30T09:21:12Z</time>
      </trkpt>
      <trkpt lat="43.06547" lon="2.94058">
        <ele>-0.5</ele>
        <time>2019-12-30T09:21:13Z</time>
      </trkpt>
      <trkpt lat="43.06543" lon="2.94065">
        <ele>-0.54</ele>
        <time>2019-12-30T09:21:14Z</time>
      </trkpt>
      <trkpt lat="43.06539" lon="2.94073">
        <ele>-0.94</ele>
        <time>2019-12-30T09:21:15Z</time>
      </trkpt>
      <trkpt lat="43.06535" lon="2.94082">
        <ele>-0.54</ele>
        <time>2019-12-30T09:21:16Z</time>
      </trkpt>
      <trkpt lat="43.06532" lon="2.94091">
        <ele>-0.78</ele>
        <time>2019-12-30T09:21:17Z</time>
      </trkpt>
      <trkpt lat="43.06529" lon="2.94101">
        <ele>-1.24</ele>
        <time>2019-12-30T09:21:18Z</time>
      </trkpt>
      <trkpt lat="43.06496" lon="2.94214">
        <ele>-1.86</ele>
        <time>2019-12-30T09:21:30Z</time>
      </trkpt>
      <trkpt lat="43.06469" lon="2.94309">
        <ele>-1.38</ele>
        <time>2019-12-30T09:21:40Z</time>
      </trkpt>
      <trkpt lat="43.06419" lon="2.94477">
        <ele>-2.24</ele>
        <time>2019-12-30T09:21:57Z</time>
      </trkpt>
      <trkpt lat="43.06355" lon="2.94691">
        <ele>-3.08</ele>
        <time>2019-12-30T09:22:19Z</time>
      </trkpt>
      <trkpt lat="43.06289" lon="2.94913">
        <ele>-3.51</ele>
        <time>2019-12-30T09:22:42Z</time>
      </trkpt>
      <trkpt lat="43.06236" lon="2.95096">
        <ele>-2.8</ele>
        <time>2019-12-30T09:23:01Z</time>
      </trkpt>
      <trkpt lat="43.06213" lon="2.95178">
        <ele>-3.33</ele>
        <time>2019-12-30T09:23:10Z</time>
      </trkpt>
      <trkpt lat="43.06179" lon="2.95284">
        <ele>-3.23</ele>
        <time>2019-12-30T09:23:21Z</time>
      </trkpt>
      <trkpt lat="43.06154" lon="2.95368">
        <ele>-2.94</ele>
        <time>2019-12-30T09:23:31Z</time>
      </trkpt>
      <trkpt lat="43.06128" lon="2.95459">
        <ele>-2.27</ele>
        <time>2019-12-30T09:23:41Z</time>
      </trkpt>
      <trkpt lat="43.06096" lon="2.9557">
        <ele>-2.38</ele>
        <time>2019-12-30T09:23:53Z</time>
      </trkpt>
      <trkpt lat="43.0606" lon="2.95687">
        <ele>-1.52</ele>
        <time>2019-12-30T09:24:05Z</time>
      </trkpt>
      <trkpt lat="43.06023" lon="2.95815">
        <ele>-0.77</ele>
        <time>2019-12-30T09:24:20Z</time>
      </trkpt>
      <trkpt lat="43.05997" lon="2.9589">
        <ele>-0.99</ele>
        <time>2019-12-30T09:24:36Z</time>
      </trkpt>
      <trkpt lat="43.05978" lon="2.95947">
        <ele>-0.96</ele>
        <time>2019-12-30T09:24:49Z</time>
      </trkpt>
      <trkpt lat="43.05955" lon="2.96017">
        <ele>-0.66</ele>
        <time>2019-12-30T09:25:03Z</time>
      </trkpt>
      <trkpt lat="43.05932" lon="2.96096">
        <ele>-1.24</ele>
        <time>2019-12-30T09:25:18Z</time>
      </trkpt>
      <trkpt lat="43.05903" lon="2.96193">
        <ele>-0.18</ele>
        <time>2019-12-30T09:25:35Z</time>
      </trkpt>
      <trkpt lat="43.05892" lon="2.96239">
        <ele>0.24</ele>
        <time>2019-12-30T09:25:43Z</time>
      </trkpt>
      <trkpt lat="43.05895" lon="2.96309">
        <ele>1.3</ele>
        <time>2019-12-30T09:25:57Z</time>
      </trkpt>
      <trkpt lat="43.05893" lon="2.96313">
        <ele>1.67</ele>
        <time>2019-12-30T09:25:58Z</time>
      </trkpt>
      <trkpt lat="43.05891" lon="2.96316">
        <ele>1.86</ele>
        <time>2019-12-30T09:25:59Z</time>
      </trkpt>
      <trkpt lat="43.05881" lon="2.96325">
        <ele>1.5</ele>
        <time>2019-12-30T09:26:09Z</time>
      </trkpt>
      <trkpt lat="43.05876" lon="2.9633">
        <ele>2.35</ele>
        <time>2019-12-30T09:26:30Z</time>
      </trkpt>
      <trkpt lat="43.05874" lon="2.96333">
        <ele>1.85</ele>
        <time>2019-12-30T09:26:32Z</time>
      </trkpt>
      <trkpt lat="43.05871" lon="2.96337">
        <ele>1.93</ele>
        <time>2019-12-30T09:26:34Z</time>
      </trkpt>
      <trkpt lat="43.0587" lon="2.96339">
        <ele>2.18</ele>
        <time>2019-12-30T09:26:35Z</time>
      </trkpt>
      <trkpt lat="43.05868" lon="2.96342">
        <ele>2.21</ele>
        <time>2019-12-30T09:26:36Z</time>
      </trkpt>
      <trkpt lat="43.05839" lon="2.9638">
        <ele>2.91</ele>
        <time>2019-12-30T09:26:47Z</time>
      </trkpt>
      <trkpt lat="43.05816" lon="2.96422">
        <ele>2.53</ele>
        <time>2019-12-30T09:26:57Z</time>
      </trkpt>
      <trkpt lat="43.05813" lon="2.96427">
        <ele>3.4</ele>
        <time>2019-12-30T09:26:58Z</time>
      </trkpt>
      <trkpt lat="43.05804" lon="2.96446">
        <ele>2.07</ele>
        <time>2019-12-30T09:27:01Z</time>
      </trkpt>
      <trkpt lat="43.058" lon="2.96452">
        <ele>2</ele>
        <time>2019-12-30T09:27:02Z</time>
      </trkpt>
      <trkpt lat="43.05795" lon="2.96456">
        <ele>1.73</ele>
        <time>2019-12-30T09:27:03Z</time>
      </trkpt>
      <trkpt lat="43.0579" lon="2.96459">
        <ele>1.04</ele>
        <time>2019-12-30T09:27:04Z</time>
      </trkpt>
      <trkpt lat="43.05784" lon="2.96458">
        <ele>1.21</ele>
        <time>2019-12-30T09:27:05Z</time>
      </trkpt>
      <trkpt lat="43.05779" lon="2.96456">
        <ele>2.13</ele>
        <time>2019-12-30T09:27:06Z</time>
      </trkpt>
      <trkpt lat="43.05774" lon="2.96454">
        <ele>2.24</ele>
        <time>2019-12-30T09:27:07Z</time>
      </trkpt>
      <trkpt lat="43.0577" lon="2.9645">
        <ele>1.94</ele>
        <time>2019-12-30T09:27:08Z</time>
      </trkpt>
      <trkpt lat="43.05762" lon="2.96444">
        <ele>3.13</ele>
        <time>2019-12-30T09:27:10Z</time>
      </trkpt>
      <trkpt lat="43.05757" lon="2.9644">
        <ele>2.48</ele>
        <time>2019-12-30T09:27:11Z</time>
      </trkpt>
      <trkpt lat="43.05749" lon="2.96434">
        <ele>4.19</ele>
        <time>2019-12-30T09:27:13Z</time>
      </trkpt>
      <trkpt lat="43.05732" lon="2.96422">
        <ele>4.82</ele>
        <time>2019-12-30T09:27:17Z</time>
      </trkpt>
      <trkpt lat="43.05694" lon="2.96384">
        <ele>5</ele>
        <time>2019-12-30T09:27:28Z</time>
      </trkpt>
      <trkpt lat="43.05692" lon="2.96379">
        <ele>5.02</ele>
        <time>2019-12-30T09:27:29Z</time>
      </trkpt>
      <trkpt lat="43.05691" lon="2.96373">
        <ele>5</ele>
        <time>2019-12-30T09:27:30Z</time>
      </trkpt>
      <trkpt lat="43.0569" lon="2.96367">
        <ele>4.98</ele>
        <time>2019-12-30T09:27:31Z</time>
      </trkpt>
      <trkpt lat="43.05691" lon="2.96361">
        <ele>3.7</ele>
        <time>2019-12-30T09:27:32Z</time>
      </trkpt>
      <trkpt lat="43.05691" lon="2.96354">
        <ele>3.84</ele>
        <time>2019-12-30T09:27:33Z</time>
      </trkpt>
      <trkpt lat="43.05691" lon="2.96348">
        <ele>3.59</ele>
        <time>2019-12-30T09:27:34Z</time>
      </trkpt>
      <trkpt lat="43.0569" lon="2.96342">
        <ele>3.5</ele>
        <time>2019-12-30T09:27:35Z</time>
      </trkpt>
      <trkpt lat="43.0569" lon="2.96336">
        <ele>3.48</ele>
        <time>2019-12-30T09:27:36Z</time>
      </trkpt>
      <trkpt lat="43.05688" lon="2.96308">
        <ele>3.13</ele>
        <time>2019-12-30T09:27:41Z</time>
      </trkpt>
      <trkpt lat="43.05681" lon="2.96281">
        <ele>3.25</ele>
        <time>2019-12-30T09:27:46Z</time>
      </trkpt>
      <trkpt lat="43.05679" lon="2.96276">
        <ele>3.26</ele>
        <time>2019-12-30T09:27:47Z</time>
      </trkpt>
      <trkpt lat="43.05676" lon="2.96271">
        <ele>3.49</ele>
        <time>2019-12-30T09:27:48Z</time>
      </trkpt>
      <trkpt lat="43.05673" lon="2.96267">
        <ele>3.87</ele>
        <time>2019-12-30T09:27:49Z</time>
      </trkpt>
      <trkpt lat="43.0567" lon="2.96264">
        <ele>4.2</ele>
        <time>2019-12-30T09:27:50Z</time>
      </trkpt>
      <trkpt lat="43.05643" lon="2.96233">
        <ele>5.99</ele>
        <time>2019-12-30T09:28:00Z</time>
      </trkpt>
      <trkpt lat="43.05611" lon="2.96223">
        <ele>5.58</ele>
        <time>2019-12-30T09:28:09Z</time>
      </trkpt>
      <trkpt lat="43.05589" lon="2.96231">
        <ele>4.2</ele>
        <time>2019-12-30T09:28:13Z</time>
      </trkpt>
      <trkpt lat="43.05582" lon="2.96232">
        <ele>3.5</ele>
        <time>2019-12-30T09:28:14Z</time>
      </trkpt>
      <trkpt lat="43.05575" lon="2.96234">
        <ele>3.46</ele>
        <time>2019-12-30T09:28:15Z</time>
      </trkpt>
      <trkpt lat="43.05553" lon="2.96243">
        <ele>2.3</ele>
        <time>2019-12-30T09:28:18Z</time>
      </trkpt>
      <trkpt lat="43.05546" lon="2.96247">
        <ele>1.98</ele>
        <time>2019-12-30T09:28:19Z</time>
      </trkpt>
      <trkpt lat="43.0554" lon="2.96252">
        <ele>2.26</ele>
        <time>2019-12-30T09:28:20Z</time>
      </trkpt>
      <trkpt lat="43.05535" lon="2.96258">
        <ele>1.86</ele>
        <time>2019-12-30T09:28:21Z</time>
      </trkpt>
      <trkpt lat="43.0553" lon="2.96265">
        <ele>1.5</ele>
        <time>2019-12-30T09:28:22Z</time>
      </trkpt>
      <trkpt lat="43.0551" lon="2.96298">
        <ele>0.5</ele>
        <time>2019-12-30T09:28:27Z</time>
      </trkpt>
      <trkpt lat="43.05507" lon="2.96305">
        <ele>1.13</ele>
        <time>2019-12-30T09:28:28Z</time>
      </trkpt>
      <trkpt lat="43.055" lon="2.96342">
        <ele>-0.01</ele>
        <time>2019-12-30T09:28:34Z</time>
      </trkpt>
      <trkpt lat="43.05507" lon="2.96431">
        <ele>-0.38</ele>
        <time>2019-12-30T09:28:47Z</time>
      </trkpt>
      <trkpt lat="43.05509" lon="2.96548">
        <ele>-1.19</ele>
        <time>2019-12-30T09:29:02Z</time>
      </trkpt>
      <trkpt lat="43.05509" lon="2.96555">
        <ele>-1.14</ele>
        <time>2019-12-30T09:29:03Z</time>
      </trkpt>
      <trkpt lat="43.05511" lon="2.96562">
        <ele>-1.14</ele>
        <time>2019-12-30T09:29:04Z</time>
      </trkpt>
      <trkpt lat="43.05512" lon="2.96568">
        <ele>-0.94</ele>
        <time>2019-12-30T09:29:05Z</time>
      </trkpt>
      <trkpt lat="43.05514" lon="2.96575">
        <ele>-1.56</ele>
        <time>2019-12-30T09:29:06Z</time>
      </trkpt>
      <trkpt lat="43.05516" lon="2.96581">
        <ele>-1.39</ele>
        <time>2019-12-30T09:29:07Z</time>
      </trkpt>
      <trkpt lat="43.0552" lon="2.96587">
        <ele>-1.02</ele>
        <time>2019-12-30T09:29:08Z</time>
      </trkpt>
      <trkpt lat="43.05524" lon="2.96592">
        <ele>-1.13</ele>
        <time>2019-12-30T09:29:09Z</time>
      </trkpt>
      <trkpt lat="43.05529" lon="2.96597">
        <ele>-1.27</ele>
        <time>2019-12-30T09:29:10Z</time>
      </trkpt>
      <trkpt lat="43.05535" lon="2.96601">
        <ele>-1.09</ele>
        <time>2019-12-30T09:29:11Z</time>
      </trkpt>
      <trkpt lat="43.0554" lon="2.96605">
        <ele>-1.29</ele>
        <time>2019-12-30T09:29:12Z</time>
      </trkpt>
      <trkpt lat="43.05546" lon="2.96608">
        <ele>-0.83</ele>
        <time>2019-12-30T09:29:13Z</time>
      </trkpt>
      <trkpt lat="43.05551" lon="2.96611">
        <ele>-1.42</ele>
        <time>2019-12-30T09:29:14Z</time>
      </trkpt>
      <trkpt lat="43.05561" lon="2.96618">
        <ele>-1.42</ele>
        <time>2019-12-30T09:29:16Z</time>
      </trkpt>
      <trkpt lat="43.05565" lon="2.96623">
        <ele>-1.96</ele>
        <time>2019-12-30T09:29:17Z</time>
      </trkpt>
      <trkpt lat="43.05569" lon="2.96628">
        <ele>-1.89</ele>
        <time>2019-12-30T09:29:18Z</time>
      </trkpt>
      <trkpt lat="43.05573" lon="2.96634">
        <ele>-1.97</ele>
        <time>2019-12-30T09:29:19Z</time>
      </trkpt>
      <trkpt lat="43.05576" lon="2.9664">
        <ele>-1.82</ele>
        <time>2019-12-30T09:29:20Z</time>
      </trkpt>
      <trkpt lat="43.05578" lon="2.96647">
        <ele>-1.89</ele>
        <time>2019-12-30T09:29:21Z</time>
      </trkpt>
      <trkpt lat="43.05594" lon="2.96689">
        <ele>-2</ele>
        <time>2019-12-30T09:29:27Z</time>
      </trkpt>
      <trkpt lat="43.05596" lon="2.96695">
        <ele>-1.56</ele>
        <time>2019-12-30T09:29:28Z</time>
      </trkpt>
      <trkpt lat="43.05599" lon="2.967">
        <ele>-2.48</ele>
        <time>2019-12-30T09:29:29Z</time>
      </trkpt>
      <trkpt lat="43.05601" lon="2.96707">
        <ele>-2.12</ele>
        <time>2019-12-30T09:29:30Z</time>
      </trkpt>
      <trkpt lat="43.05603" lon="2.96714">
        <ele>-1.99</ele>
        <time>2019-12-30T09:29:31Z</time>
      </trkpt>
      <trkpt lat="43.05605" lon="2.96722">
        <ele>-1.68</ele>
        <time>2019-12-30T09:29:32Z</time>
      </trkpt>
      <trkpt lat="43.0563" lon="2.96822">
        <ele>-2.51</ele>
        <time>2019-12-30T09:29:45Z</time>
      </trkpt>
      <trkpt lat="43.05633" lon="2.96829">
        <ele>-2.49</ele>
        <time>2019-12-30T09:29:46Z</time>
      </trkpt>
      <trkpt lat="43.05637" lon="2.96832">
        <ele>-2.27</ele>
        <time>2019-12-30T09:29:47Z</time>
      </trkpt>
      <trkpt lat="43.0564" lon="2.96838">
        <ele>-2.74</ele>
        <time>2019-12-30T09:29:48Z</time>
      </trkpt>
      <trkpt lat="43.05643" lon="2.96843">
        <ele>-2.96</ele>
        <time>2019-12-30T09:29:49Z</time>
      </trkpt>
      <trkpt lat="43.05645" lon="2.96846">
        <ele>-2.5</ele>
        <time>2019-12-30T09:29:50Z</time>
      </trkpt>
      <trkpt lat="43.05646" lon="2.96848">
        <ele>-3.38</ele>
        <time>2019-12-30T09:29:51Z</time>
      </trkpt>
      <trkpt lat="43.05647" lon="2.96849">
        <ele>-3.29</ele>
        <time>2019-12-30T09:29:56Z</time>
      </trkpt>
      <trkpt lat="43.05646" lon="2.96851">
        <ele>-3.28</ele>
        <time>2019-12-30T09:29:57Z</time>
      </trkpt>
      <trkpt lat="43.05635" lon="2.96883">
        <ele>-3.05</ele>
        <time>2019-12-30T09:30:06Z</time>
      </trkpt>
      <trkpt lat="43.05626" lon="2.9692">
        <ele>-3.42</ele>
        <time>2019-12-30T09:30:18Z</time>
      </trkpt>
      <trkpt lat="43.05617" lon="2.96954">
        <ele>-3.42</ele>
        <time>2019-12-30T09:30:28Z</time>
      </trkpt>
      <trkpt lat="43.05615" lon="2.96967">
        <ele>-3.44</ele>
        <time>2019-12-30T09:30:32Z</time>
      </trkpt>
      <trkpt lat="43.05616" lon="2.96969">
        <ele>-3.76</ele>
        <time>2019-12-30T09:30:33Z</time>
      </trkpt>
      <trkpt lat="43.0562" lon="2.96979">
        <ele>-3.8</ele>
        <time>2019-12-30T09:30:38Z</time>
      </trkpt>
      <trkpt lat="43.05626" lon="2.96989">
        <ele>-3.24</ele>
        <time>2019-12-30T09:30:43Z</time>
      </trkpt>
      <trkpt lat="43.05632" lon="2.96997">
        <ele>-3.44</ele>
        <time>2019-12-30T09:30:47Z</time>
      </trkpt>
      <trkpt lat="43.05633" lon="2.96999">
        <ele>-3.87</ele>
        <time>2019-12-30T09:30:48Z</time>
      </trkpt>
      <trkpt lat="43.05635" lon="2.97002">
        <ele>-3.15</ele>
        <time>2019-12-30T09:30:49Z</time>
      </trkpt>
      <trkpt lat="43.05641" lon="2.97016">
        <ele>-3.77</ele>
        <time>2019-12-30T09:30:54Z</time>
      </trkpt>
      <trkpt lat="43.05641" lon="2.9702">
        <ele>-3.12</ele>
        <time>2019-12-30T09:30:55Z</time>
      </trkpt>
      <trkpt lat="43.0564" lon="2.97023">
        <ele>-3.19</ele>
        <time>2019-12-30T09:30:56Z</time>
      </trkpt>
      <trkpt lat="43.05622" lon="2.97071">
        <ele>-3.26</ele>
        <time>2019-12-30T09:31:07Z</time>
      </trkpt>
      <trkpt lat="43.05623" lon="2.97109">
        <ele>-3.55</ele>
        <time>2019-12-30T09:31:17Z</time>
      </trkpt>
      <trkpt lat="43.05632" lon="2.97158">
        <ele>-2.8</ele>
        <time>2019-12-30T09:31:28Z</time>
      </trkpt>
      <trkpt lat="43.05636" lon="2.97202">
        <ele>-2.37</ele>
        <time>2019-12-30T09:31:37Z</time>
      </trkpt>
      <trkpt lat="43.05636" lon="2.97204">
        <ele>-2.41</ele>
        <time>2019-12-30T09:31:38Z</time>
      </trkpt>
      <trkpt lat="43.05636" lon="2.97207">
        <ele>-2.58</ele>
        <time>2019-12-30T09:31:52Z</time>
      </trkpt>
      <trkpt lat="43.05641" lon="2.97208">
        <ele>-2.27</ele>
        <time>2019-12-30T09:32:11Z</time>
      </trkpt>
      <trkpt lat="43.05642" lon="2.97209">
        <ele>-2.13</ele>
        <time>2019-12-30T09:32:12Z</time>
      </trkpt>
      <trkpt lat="43.05644" lon="2.9721">
        <ele>-2.7</ele>
        <time>2019-12-30T09:32:13Z</time>
      </trkpt>
      <trkpt lat="43.05646" lon="2.97211">
        <ele>-2.25</ele>
        <time>2019-12-30T09:32:14Z</time>
      </trkpt>
      <trkpt lat="43.05648" lon="2.97213">
        <ele>-1.92</ele>
        <time>2019-12-30T09:32:15Z</time>
      </trkpt>
      <trkpt lat="43.0565" lon="2.97214">
        <ele>-2.16</ele>
        <time>2019-12-30T09:32:16Z</time>
      </trkpt>
      <trkpt lat="43.05652" lon="2.97215">
        <ele>-1.85</ele>
        <time>2019-12-30T09:32:17Z</time>
      </trkpt>
      <trkpt lat="43.05655" lon="2.97217">
        <ele>-1.96</ele>
        <time>2019-12-30T09:32:18Z</time>
      </trkpt>
      <trkpt lat="43.05658" lon="2.97218">
        <ele>-1.75</ele>
        <time>2019-12-30T09:32:19Z</time>
      </trkpt>
      <trkpt lat="43.05661" lon="2.97219">
        <ele>-1.77</ele>
        <time>2019-12-30T09:32:20Z</time>
      </trkpt>
      <trkpt lat="43.05664" lon="2.97219">
        <ele>-1.95</ele>
        <time>2019-12-30T09:32:21Z</time>
      </trkpt>
      <trkpt lat="43.05668" lon="2.97218">
        <ele>-1.71</ele>
        <time>2019-12-30T09:32:22Z</time>
      </trkpt>
      <trkpt lat="43.05672" lon="2.97217">
        <ele>-1.89</ele>
        <time>2019-12-30T09:32:23Z</time>
      </trkpt>
      <trkpt lat="43.05676" lon="2.97215">
        <ele>-2.03</ele>
        <time>2019-12-30T09:32:24Z</time>
      </trkpt>
      <trkpt lat="43.0568" lon="2.97213">
        <ele>-1.76</ele>
        <time>2019-12-30T09:32:25Z</time>
      </trkpt>
      <trkpt lat="43.05738" lon="2.97174">
        <ele>-2.39</ele>
        <time>2019-12-30T09:32:37Z</time>
      </trkpt>
      <trkpt lat="43.05759" lon="2.97153">
        <ele>-2.98</ele>
        <time>2019-12-30T09:32:42Z</time>
      </trkpt>
      <trkpt lat="43.05766" lon="2.97145">
        <ele>-2.61</ele>
        <time>2019-12-30T09:32:44Z</time>
      </trkpt>
      <trkpt lat="43.05768" lon="2.9714">
        <ele>-3.13</ele>
        <time>2019-12-30T09:32:45Z</time>
      </trkpt>
      <trkpt lat="43.05779" lon="2.97122">
        <ele>-3.17</ele>
        <time>2019-12-30T09:32:49Z</time>
      </trkpt>
      <trkpt lat="43.05788" lon="2.9711">
        <ele>-3.96</ele>
        <time>2019-12-30T09:32:57Z</time>
      </trkpt>
      <trkpt lat="43.05786" lon="2.97107">
        <ele>-4.09</ele>
        <time>2019-12-30T09:33:25Z</time>
      </trkpt>
      <trkpt lat="43.05784" lon="2.97105">
        <ele>-4.18</ele>
        <time>2019-12-30T09:33:51Z</time>
      </trkpt>
      <trkpt lat="43.05787" lon="2.97101">
        <ele>-4.2</ele>
        <time>2019-12-30T09:34:02Z</time>
      </trkpt>
      <trkpt lat="43.05789" lon="2.97099">
        <ele>-4.23</ele>
        <time>2019-12-30T09:34:03Z</time>
      </trkpt>
      <trkpt lat="43.05791" lon="2.97098">
        <ele>-4.12</ele>
        <time>2019-12-30T09:34:04Z</time>
      </trkpt>
      <trkpt lat="43.05794" lon="2.97097">
        <ele>-4.19</ele>
        <time>2019-12-30T09:34:05Z</time>
      </trkpt>
      <trkpt lat="43.05796" lon="2.97095">
        <ele>-4.09</ele>
        <time>2019-12-30T09:34:06Z</time>
      </trkpt>
      <trkpt lat="43.0582" lon="2.97085">
        <ele>-3.87</ele>
        <time>2019-12-30T09:34:13Z</time>
      </trkpt>
      <trkpt lat="43.05824" lon="2.97083">
        <ele>-4.46</ele>
        <time>2019-12-30T09:34:14Z</time>
      </trkpt>
      <trkpt lat="43.05865" lon="2.97057">
        <ele>-3.84</ele>
        <time>2019-12-30T09:34:25Z</time>
      </trkpt>
      <trkpt lat="43.05876" lon="2.97055">
        <ele>-3.86</ele>
        <time>2019-12-30T09:34:28Z</time>
      </trkpt>
      <trkpt lat="43.05879" lon="2.97058">
        <ele>-3.64</ele>
        <time>2019-12-30T09:34:29Z</time>
      </trkpt>
      <trkpt lat="43.05882" lon="2.97061">
        <ele>-3.38</ele>
        <time>2019-12-30T09:34:30Z</time>
      </trkpt>
      <trkpt lat="43.05897" lon="2.97102">
        <ele>-1.95</ele>
        <time>2019-12-30T09:34:40Z</time>
      </trkpt>
      <trkpt lat="43.05898" lon="2.97169">
        <ele>-2.95</ele>
        <time>2019-12-30T09:34:51Z</time>
      </trkpt>
      <trkpt lat="43.05892" lon="2.97194">
        <ele>-3.39</ele>
        <time>2019-12-30T09:34:55Z</time>
      </trkpt>
      <trkpt lat="43.0589" lon="2.97206">
        <ele>-3.43</ele>
        <time>2019-12-30T09:34:57Z</time>
      </trkpt>
      <trkpt lat="43.05873" lon="2.97245">
        <ele>-3.1</ele>
        <time>2019-12-30T09:35:07Z</time>
      </trkpt>
      <trkpt lat="43.05866" lon="2.97258">
        <ele>-3.05</ele>
        <time>2019-12-30T09:35:10Z</time>
      </trkpt>
      <trkpt lat="43.05848" lon="2.97294">
        <ele>-2.99</ele>
        <time>2019-12-30T09:35:18Z</time>
      </trkpt>
      <trkpt lat="43.05843" lon="2.97311">
        <ele>-2.8</ele>
        <time>2019-12-30T09:35:21Z</time>
      </trkpt>
      <trkpt lat="43.05842" lon="2.97317">
        <ele>-3.1</ele>
        <time>2019-12-30T09:35:22Z</time>
      </trkpt>
      <trkpt lat="43.05842" lon="2.97323">
        <ele>-2.99</ele>
        <time>2019-12-30T09:35:23Z</time>
      </trkpt>
      <trkpt lat="43.05842" lon="2.97329">
        <ele>-2.98</ele>
        <time>2019-12-30T09:35:24Z</time>
      </trkpt>
      <trkpt lat="43.05843" lon="2.97334">
        <ele>-3.2</ele>
        <time>2019-12-30T09:35:25Z</time>
      </trkpt>
      <trkpt lat="43.05845" lon="2.97341">
        <ele>-3.5</ele>
        <time>2019-12-30T09:35:26Z</time>
      </trkpt>
      <trkpt lat="43.0585" lon="2.97362">
        <ele>-4.09</ele>
        <time>2019-12-30T09:35:29Z</time>
      </trkpt>
      <trkpt lat="43.05853" lon="2.97369">
        <ele>-3.98</ele>
        <time>2019-12-30T09:35:30Z</time>
      </trkpt>
      <trkpt lat="43.05858" lon="2.97384">
        <ele>-4.16</ele>
        <time>2019-12-30T09:35:32Z</time>
      </trkpt>
      <trkpt lat="43.05862" lon="2.9739">
        <ele>-4.36</ele>
        <time>2019-12-30T09:35:33Z</time>
      </trkpt>
      <trkpt lat="43.05864" lon="2.97396">
        <ele>-5.07</ele>
        <time>2019-12-30T09:35:34Z</time>
      </trkpt>
      <trkpt lat="43.05866" lon="2.97401">
        <ele>-4.47</ele>
        <time>2019-12-30T09:35:35Z</time>
      </trkpt>
      <trkpt lat="43.05867" lon="2.97406">
        <ele>-4.79</ele>
        <time>2019-12-30T09:35:36Z</time>
      </trkpt>
      <trkpt lat="43.05867" lon="2.97457">
        <ele>-4.52</ele>
        <time>2019-12-30T09:35:46Z</time>
      </trkpt>
      <trkpt lat="43.05851" lon="2.97518">
        <ele>-4.14</ele>
        <time>2019-12-30T09:35:59Z</time>
      </trkpt>
      <trkpt lat="43.05843" lon="2.9754">
        <ele>-1.07</ele>
        <time>2019-12-30T09:36:07Z</time>
      </trkpt>
      <trkpt lat="43.05842" lon="2.97542">
        <ele>-0.88</ele>
        <time>2019-12-30T09:36:08Z</time>
      </trkpt>
      <trkpt lat="43.05836" lon="2.97569">
        <ele>2.5</ele>
        <time>2019-12-30T09:36:18Z</time>
      </trkpt>
      <trkpt lat="43.05835" lon="2.97572">
        <ele>2.78</ele>
        <time>2019-12-30T09:36:19Z</time>
      </trkpt>
      <trkpt lat="43.05833" lon="2.97582">
        <ele>4.86</ele>
        <time>2019-12-30T09:36:23Z</time>
      </trkpt>
      <trkpt lat="43.05822" lon="2.97608">
        <ele>7.3</ele>
        <time>2019-12-30T09:36:33Z</time>
      </trkpt>
      <trkpt lat="43.0582" lon="2.9761">
        <ele>7.22</ele>
        <time>2019-12-30T09:36:34Z</time>
      </trkpt>
      <trkpt lat="43.05818" lon="2.97611">
        <ele>7.24</ele>
        <time>2019-12-30T09:36:35Z</time>
      </trkpt>
      <trkpt lat="43.05815" lon="2.97613">
        <ele>7.4</ele>
        <time>2019-12-30T09:36:36Z</time>
      </trkpt>
      <trkpt lat="43.05813" lon="2.97615">
        <ele>7.63</ele>
        <time>2019-12-30T09:36:37Z</time>
      </trkpt>
      <trkpt lat="43.05811" lon="2.97617">
        <ele>7.75</ele>
        <time>2019-12-30T09:36:38Z</time>
      </trkpt>
      <trkpt lat="43.05809" lon="2.97618">
        <ele>7.36</ele>
        <time>2019-12-30T09:36:39Z</time>
      </trkpt>
      <trkpt lat="43.05806" lon="2.97619">
        <ele>7.1</ele>
        <time>2019-12-30T09:36:40Z</time>
      </trkpt>
      <trkpt lat="43.05804" lon="2.97619">
        <ele>7.27</ele>
        <time>2019-12-30T09:36:41Z</time>
      </trkpt>
      <trkpt lat="43.05802" lon="2.9762">
        <ele>7.46</ele>
        <time>2019-12-30T09:36:42Z</time>
      </trkpt>
      <trkpt lat="43.05773" lon="2.97639">
        <ele>7.46</ele>
        <time>2019-12-30T09:36:53Z</time>
      </trkpt>
      <trkpt lat="43.05758" lon="2.97648">
        <ele>8.15</ele>
        <time>2019-12-30T09:37:05Z</time>
      </trkpt>
      <trkpt lat="43.05755" lon="2.97653">
        <ele>7.74</ele>
        <time>2019-12-30T09:37:25Z</time>
      </trkpt>
      <trkpt lat="43.05755" lon="2.97655">
        <ele>8.28</ele>
        <time>2019-12-30T09:38:24Z</time>
      </trkpt>
      <trkpt lat="43.05754" lon="2.97657">
        <ele>8.13</ele>
        <time>2019-12-30T09:38:51Z</time>
      </trkpt>
      <trkpt lat="43.05746" lon="2.97665">
        <ele>7.3</ele>
        <time>2019-12-30T09:39:04Z</time>
      </trkpt>
      <trkpt lat="43.05743" lon="2.97667">
        <ele>6.71</ele>
        <time>2019-12-30T09:39:05Z</time>
      </trkpt>
      <trkpt lat="43.05731" lon="2.97676">
        <ele>4.8</ele>
        <time>2019-12-30T09:39:08Z</time>
      </trkpt>
      <trkpt lat="43.05727" lon="2.9768">
        <ele>4.74</ele>
        <time>2019-12-30T09:39:09Z</time>
      </trkpt>
      <trkpt lat="43.05718" lon="2.9769">
        <ele>3.51</ele>
        <time>2019-12-30T09:39:11Z</time>
      </trkpt>
      <trkpt lat="43.05707" lon="2.97699">
        <ele>1.56</ele>
        <time>2019-12-30T09:39:13Z</time>
      </trkpt>
      <trkpt lat="43.05692" lon="2.97712">
        <ele>0.04</ele>
        <time>2019-12-30T09:39:16Z</time>
      </trkpt>
      <trkpt lat="43.05688" lon="2.97718">
        <ele>-0.81</ele>
        <time>2019-12-30T09:39:17Z</time>
      </trkpt>
      <trkpt lat="43.0567" lon="2.97748">
        <ele>-3.38</ele>
        <time>2019-12-30T09:39:21Z</time>
      </trkpt>
      <trkpt lat="43.05665" lon="2.97754">
        <ele>-4.24</ele>
        <time>2019-12-30T09:39:22Z</time>
      </trkpt>
      <trkpt lat="43.05659" lon="2.9776">
        <ele>-4.34</ele>
        <time>2019-12-30T09:39:23Z</time>
      </trkpt>
      <trkpt lat="43.05653" lon="2.97767">
        <ele>-4.04</ele>
        <time>2019-12-30T09:39:24Z</time>
      </trkpt>
      <trkpt lat="43.05649" lon="2.97774">
        <ele>-3.93</ele>
        <time>2019-12-30T09:39:25Z</time>
      </trkpt>
      <trkpt lat="43.05646" lon="2.97783">
        <ele>-4.13</ele>
        <time>2019-12-30T09:39:26Z</time>
      </trkpt>
      <trkpt lat="43.05645" lon="2.97791">
        <ele>-4.91</ele>
        <time>2019-12-30T09:39:27Z</time>
      </trkpt>
      <trkpt lat="43.05646" lon="2.97798">
        <ele>-4.76</ele>
        <time>2019-12-30T09:39:28Z</time>
      </trkpt>
      <trkpt lat="43.05648" lon="2.97804">
        <ele>-4.99</ele>
        <time>2019-12-30T09:39:29Z</time>
      </trkpt>
      <trkpt lat="43.05651" lon="2.97809">
        <ele>-4.89</ele>
        <time>2019-12-30T09:39:30Z</time>
      </trkpt>
      <trkpt lat="43.05656" lon="2.97819">
        <ele>-5.39</ele>
        <time>2019-12-30T09:39:32Z</time>
      </trkpt>
      <trkpt lat="43.05665" lon="2.97833">
        <ele>-6</ele>
        <time>2019-12-30T09:39:35Z</time>
      </trkpt>
      <trkpt lat="43.05671" lon="2.97842">
        <ele>-5.87</ele>
        <time>2019-12-30T09:39:37Z</time>
      </trkpt>
      <trkpt lat="43.05677" lon="2.97851">
        <ele>-6.49</ele>
        <time>2019-12-30T09:39:39Z</time>
      </trkpt>
      <trkpt lat="43.05679" lon="2.97856">
        <ele>-5.83</ele>
        <time>2019-12-30T09:39:40Z</time>
      </trkpt>
      <trkpt lat="43.0569" lon="2.97899">
        <ele>-5.87</ele>
        <time>2019-12-30T09:39:47Z</time>
      </trkpt>
      <trkpt lat="43.05691" lon="2.97905">
        <ele>-6.01</ele>
        <time>2019-12-30T09:39:48Z</time>
      </trkpt>
      <trkpt lat="43.05692" lon="2.97931">
        <ele>-5.98</ele>
        <time>2019-12-30T09:39:52Z</time>
      </trkpt>
      <trkpt lat="43.05694" lon="2.97937">
        <ele>-5.68</ele>
        <time>2019-12-30T09:39:53Z</time>
      </trkpt>
      <trkpt lat="43.05696" lon="2.97942">
        <ele>-5.41</ele>
        <time>2019-12-30T09:39:54Z</time>
      </trkpt>
      <trkpt lat="43.057" lon="2.97946">
        <ele>-5.54</ele>
        <time>2019-12-30T09:39:55Z</time>
      </trkpt>
      <trkpt lat="43.05704" lon="2.97948">
        <ele>-5.55</ele>
        <time>2019-12-30T09:39:56Z</time>
      </trkpt>
      <trkpt lat="43.05708" lon="2.97949">
        <ele>-5.25</ele>
        <time>2019-12-30T09:39:57Z</time>
      </trkpt>
      <trkpt lat="43.05748" lon="2.97962">
        <ele>-4.55</ele>
        <time>2019-12-30T09:40:07Z</time>
      </trkpt>
      <trkpt lat="43.05752" lon="2.97965">
        <ele>-4.38</ele>
        <time>2019-12-30T09:40:08Z</time>
      </trkpt>
      <trkpt lat="43.05753" lon="2.97968">
        <ele>-5.37</ele>
        <time>2019-12-30T09:40:09Z</time>
      </trkpt>
      <trkpt lat="43.05754" lon="2.97973">
        <ele>-5.3</ele>
        <time>2019-12-30T09:40:10Z</time>
      </trkpt>
      <trkpt lat="43.05753" lon="2.97977">
        <ele>-4.81</ele>
        <time>2019-12-30T09:40:11Z</time>
      </trkpt>
      <trkpt lat="43.05751" lon="2.97982">
        <ele>-5.1</ele>
        <time>2019-12-30T09:40:12Z</time>
      </trkpt>
      <trkpt lat="43.0575" lon="2.97988">
        <ele>-4.96</ele>
        <time>2019-12-30T09:40:13Z</time>
      </trkpt>
      <trkpt lat="43.05728" lon="2.98075">
        <ele>-6.23</ele>
        <time>2019-12-30T09:40:29Z</time>
      </trkpt>
      <trkpt lat="43.05723" lon="2.98091">
        <ele>-6.16</ele>
        <time>2019-12-30T09:40:32Z</time>
      </trkpt>
      <trkpt lat="43.05702" lon="2.98151">
        <ele>-6.11</ele>
        <time>2019-12-30T09:40:45Z</time>
      </trkpt>
      <trkpt lat="43.05684" lon="2.98201">
        <ele>-5.61</ele>
        <time>2019-12-30T09:40:57Z</time>
      </trkpt>
      <trkpt lat="43.05666" lon="2.98247">
        <ele>-6.43</ele>
        <time>2019-12-30T09:41:08Z</time>
      </trkpt>
      <trkpt lat="43.05663" lon="2.98247">
        <ele>-7</ele>
        <time>2019-12-30T09:41:09Z</time>
      </trkpt>
      <trkpt lat="43.0566" lon="2.98246">
        <ele>-6.18</ele>
        <time>2019-12-30T09:41:10Z</time>
      </trkpt>
      <trkpt lat="43.05602" lon="2.98204">
        <ele>-6.53</ele>
        <time>2019-12-30T09:41:28Z</time>
      </trkpt>
      <trkpt lat="43.05576" lon="2.98185">
        <ele>-6.81</ele>
        <time>2019-12-30T09:41:41Z</time>
      </trkpt>
      <trkpt lat="43.05574" lon="2.98184">
        <ele>-6.49</ele>
        <time>2019-12-30T09:41:47Z</time>
      </trkpt>
      <trkpt lat="43.05573" lon="2.98183">
        <ele>-6.22</ele>
        <time>2019-12-30T09:41:48Z</time>
      </trkpt>
      <trkpt lat="43.05571" lon="2.98182">
        <ele>-6.36</ele>
        <time>2019-12-30T09:41:49Z</time>
      </trkpt>
      <trkpt lat="43.05569" lon="2.98181">
        <ele>-6.73</ele>
        <time>2019-12-30T09:41:50Z</time>
      </trkpt>
      <trkpt lat="43.05567" lon="2.9818">
        <ele>-6.05</ele>
        <time>2019-12-30T09:41:51Z</time>
      </trkpt>
      <trkpt lat="43.05564" lon="2.98179">
        <ele>-6.22</ele>
        <time>2019-12-30T09:41:52Z</time>
      </trkpt>
      <trkpt lat="43.05556" lon="2.98179">
        <ele>-5.84</ele>
        <time>2019-12-30T09:41:56Z</time>
      </trkpt>
      <trkpt lat="43.05554" lon="2.98182">
        <ele>-6.08</ele>
        <time>2019-12-30T09:41:57Z</time>
      </trkpt>
      <trkpt lat="43.05553" lon="2.98185">
        <ele>-6.19</ele>
        <time>2019-12-30T09:41:58Z</time>
      </trkpt>
      <trkpt lat="43.05553" lon="2.98188">
        <ele>-6.2</ele>
        <time>2019-12-30T09:41:59Z</time>
      </trkpt>
      <trkpt lat="43.05552" lon="2.98192">
        <ele>-6.08</ele>
        <time>2019-12-30T09:42:00Z</time>
      </trkpt>
      <trkpt lat="43.0554" lon="2.98241">
        <ele>-5.76</ele>
        <time>2019-12-30T09:42:12Z</time>
      </trkpt>
      <trkpt lat="43.05526" lon="2.98293">
        <ele>-5.97</ele>
        <time>2019-12-30T09:42:26Z</time>
      </trkpt>
      <trkpt lat="43.05523" lon="2.98337">
        <ele>-4.99</ele>
        <time>2019-12-30T09:42:37Z</time>
      </trkpt>
      <trkpt lat="43.05523" lon="2.98342">
        <ele>-5</ele>
        <time>2019-12-30T09:42:38Z</time>
      </trkpt>
      <trkpt lat="43.05523" lon="2.98347">
        <ele>-4.81</ele>
        <time>2019-12-30T09:42:39Z</time>
      </trkpt>
      <trkpt lat="43.05522" lon="2.98352">
        <ele>-5.18</ele>
        <time>2019-12-30T09:42:40Z</time>
      </trkpt>
      <trkpt lat="43.05521" lon="2.98357">
        <ele>-4.92</ele>
        <time>2019-12-30T09:42:41Z</time>
      </trkpt>
      <trkpt lat="43.05519" lon="2.98361">
        <ele>-5.12</ele>
        <time>2019-12-30T09:42:42Z</time>
      </trkpt>
      <trkpt lat="43.05517" lon="2.98365">
        <ele>-5.38</ele>
        <time>2019-12-30T09:42:43Z</time>
      </trkpt>
      <trkpt lat="43.05491" lon="2.98435">
        <ele>-5.58</ele>
        <time>2019-12-30T09:42:58Z</time>
      </trkpt>
      <trkpt lat="43.05484" lon="2.98461">
        <ele>-5.93</ele>
        <time>2019-12-30T09:43:03Z</time>
      </trkpt>
      <trkpt lat="43.05481" lon="2.98466">
        <ele>-5.7</ele>
        <time>2019-12-30T09:43:04Z</time>
      </trkpt>
      <trkpt lat="43.05434" lon="2.98535">
        <ele>-5.97</ele>
        <time>2019-12-30T09:43:21Z</time>
      </trkpt>
      <trkpt lat="43.05419" lon="2.98562">
        <ele>-5.62</ele>
        <time>2019-12-30T09:43:27Z</time>
      </trkpt>
      <trkpt lat="43.05404" lon="2.98596">
        <ele>-5.45</ele>
        <time>2019-12-30T09:43:34Z</time>
      </trkpt>
      <trkpt lat="43.05401" lon="2.986">
        <ele>-5.98</ele>
        <time>2019-12-30T09:43:35Z</time>
      </trkpt>
      <trkpt lat="43.05381" lon="2.9862">
        <ele>-6.03</ele>
        <time>2019-12-30T09:43:41Z</time>
      </trkpt>
      <trkpt lat="43.05377" lon="2.98622">
        <ele>-5.61</ele>
        <time>2019-12-30T09:43:42Z</time>
      </trkpt>
      <trkpt lat="43.05358" lon="2.98632">
        <ele>-5.25</ele>
        <time>2019-12-30T09:43:47Z</time>
      </trkpt>
      <trkpt lat="43.05355" lon="2.98636">
        <ele>-5.73</ele>
        <time>2019-12-30T09:43:48Z</time>
      </trkpt>
      <trkpt lat="43.05352" lon="2.98639">
        <ele>-5.75</ele>
        <time>2019-12-30T09:43:49Z</time>
      </trkpt>
      <trkpt lat="43.05345" lon="2.98646">
        <ele>-5.83</ele>
        <time>2019-12-30T09:43:51Z</time>
      </trkpt>
      <trkpt lat="43.05341" lon="2.98649">
        <ele>-5.6</ele>
        <time>2019-12-30T09:43:52Z</time>
      </trkpt>
      <trkpt lat="43.05337" lon="2.98652">
        <ele>-5.62</ele>
        <time>2019-12-30T09:43:53Z</time>
      </trkpt>
      <trkpt lat="43.05333" lon="2.98653">
        <ele>-5.86</ele>
        <time>2019-12-30T09:43:54Z</time>
      </trkpt>
      <trkpt lat="43.05329" lon="2.98654">
        <ele>-5.91</ele>
        <time>2019-12-30T09:43:55Z</time>
      </trkpt>
      <trkpt lat="43.05324" lon="2.98655">
        <ele>-5.72</ele>
        <time>2019-12-30T09:43:56Z</time>
      </trkpt>
      <trkpt lat="43.0532" lon="2.98656">
        <ele>-5.83</ele>
        <time>2019-12-30T09:43:57Z</time>
      </trkpt>
      <trkpt lat="43.05316" lon="2.98658">
        <ele>-5.83</ele>
        <time>2019-12-30T09:43:58Z</time>
      </trkpt>
      <trkpt lat="43.05313" lon="2.98662">
        <ele>-5.39</ele>
        <time>2019-12-30T09:43:59Z</time>
      </trkpt>
      <trkpt lat="43.0531" lon="2.98665">
        <ele>-5.54</ele>
        <time>2019-12-30T09:44:00Z</time>
      </trkpt>
      <trkpt lat="43.05307" lon="2.9867">
        <ele>-6.27</ele>
        <time>2019-12-30T09:44:01Z</time>
      </trkpt>
      <trkpt lat="43.05255" lon="2.98746">
        <ele>-5.34</ele>
        <time>2019-12-30T09:44:20Z</time>
      </trkpt>
      <trkpt lat="43.05233" lon="2.9878">
        <ele>-5.23</ele>
        <time>2019-12-30T09:44:31Z</time>
      </trkpt>
      <trkpt lat="43.05222" lon="2.98828">
        <ele>-5.64</ele>
        <time>2019-12-30T09:44:47Z</time>
      </trkpt>
      <trkpt lat="43.05217" lon="2.98843">
        <ele>-5.97</ele>
        <time>2019-12-30T09:44:59Z</time>
      </trkpt>
      <trkpt lat="43.05216" lon="2.98848">
        <ele>-6.04</ele>
        <time>2019-12-30T09:45:05Z</time>
      </trkpt>
      <trkpt lat="43.05215" lon="2.98852">
        <ele>-5.9</ele>
        <time>2019-12-30T09:45:07Z</time>
      </trkpt>
      <trkpt lat="43.05211" lon="2.98871">
        <ele>-5.12</ele>
        <time>2019-12-30T09:45:18Z</time>
      </trkpt>
      <trkpt lat="43.05211" lon="2.98873">
        <ele>-5.14</ele>
        <time>2019-12-30T09:45:24Z</time>
      </trkpt>
      <trkpt lat="43.0521" lon="2.98875">
        <ele>-5.67</ele>
        <time>2019-12-30T09:45:26Z</time>
      </trkpt>
      <trkpt lat="43.05209" lon="2.98875">
        <ele>-5.56</ele>
        <time>2019-12-30T09:45:27Z</time>
      </trkpt>
      <trkpt lat="43.05207" lon="2.98875">
        <ele>-5.35</ele>
        <time>2019-12-30T09:45:28Z</time>
      </trkpt>
      <trkpt lat="43.05206" lon="2.98874">
        <ele>-5.63</ele>
        <time>2019-12-30T09:45:29Z</time>
      </trkpt>
      <trkpt lat="43.05204" lon="2.98874">
        <ele>-5.34</ele>
        <time>2019-12-30T09:45:30Z</time>
      </trkpt>
      <trkpt lat="43.05202" lon="2.98872">
        <ele>-5.48</ele>
        <time>2019-12-30T09:45:31Z</time>
      </trkpt>
      <trkpt lat="43.052" lon="2.98871">
        <ele>-5.25</ele>
        <time>2019-12-30T09:45:32Z</time>
      </trkpt>
      <trkpt lat="43.05198" lon="2.98869">
        <ele>-5.35</ele>
        <time>2019-12-30T09:45:33Z</time>
      </trkpt>
      <trkpt lat="43.05196" lon="2.98868">
        <ele>-5.24</ele>
        <time>2019-12-30T09:45:34Z</time>
      </trkpt>
      <trkpt lat="43.05193" lon="2.98866">
        <ele>-5.42</ele>
        <time>2019-12-30T09:45:35Z</time>
      </trkpt>
      <trkpt lat="43.05165" lon="2.98863">
        <ele>-1.99</ele>
        <time>2019-12-30T09:45:48Z</time>
      </trkpt>
      <trkpt lat="43.05154" lon="2.98902">
        <ele>0.4</ele>
        <time>2019-12-30T09:46:01Z</time>
      </trkpt>
      <trkpt lat="43.05134" lon="2.98948">
        <ele>1.44</ele>
        <time>2019-12-30T09:46:14Z</time>
      </trkpt>
      <trkpt lat="43.05084" lon="2.98994">
        <ele>3.59</ele>
        <time>2019-12-30T09:46:33Z</time>
      </trkpt>
      <trkpt lat="43.05078" lon="2.99034">
        <ele>5.31</ele>
        <time>2019-12-30T09:46:44Z</time>
      </trkpt>
      <trkpt lat="43.05057" lon="2.9908">
        <ele>3.2</ele>
        <time>2019-12-30T09:46:56Z</time>
      </trkpt>
      <trkpt lat="43.05034" lon="2.99123">
        <ele>2.38</ele>
        <time>2019-12-30T09:47:06Z</time>
      </trkpt>
      <trkpt lat="43.05027" lon="2.99138">
        <ele>2.35</ele>
        <time>2019-12-30T09:47:09Z</time>
      </trkpt>
      <trkpt lat="43.05025" lon="2.99143">
        <ele>2.77</ele>
        <time>2019-12-30T09:47:10Z</time>
      </trkpt>
      <trkpt lat="43.05023" lon="2.99148">
        <ele>2.63</ele>
        <time>2019-12-30T09:47:11Z</time>
      </trkpt>
      <trkpt lat="43.05005" lon="2.9919">
        <ele>2.43</ele>
        <time>2019-12-30T09:47:21Z</time>
      </trkpt>
      <trkpt lat="43.05002" lon="2.99195">
        <ele>2.19</ele>
        <time>2019-12-30T09:47:23Z</time>
      </trkpt>
      <trkpt lat="43.05002" lon="2.99197">
        <ele>2.03</ele>
        <time>2019-12-30T09:47:24Z</time>
      </trkpt>
      <trkpt lat="43.05004" lon="2.99202">
        <ele>1.83</ele>
        <time>2019-12-30T09:47:36Z</time>
      </trkpt>
      <trkpt lat="43.05004" lon="2.99202">
        <ele>1.5</ele>
        <time>2019-12-30T09:47:58Z</time>
      </trkpt>
      <trkpt lat="43.05003" lon="2.99213">
        <ele>0.96</ele>
        <time>2019-12-30T09:48:21Z</time>
      </trkpt>
      <trkpt lat="43.05002" lon="2.99215">
        <ele>0.57</ele>
        <time>2019-12-30T09:48:22Z</time>
      </trkpt>
      <trkpt lat="43.05001" lon="2.99219">
        <ele>0.39</ele>
        <time>2019-12-30T09:48:23Z</time>
      </trkpt>
      <trkpt lat="43.05" lon="2.9924">
        <ele>0.24</ele>
        <time>2019-12-30T09:48:27Z</time>
      </trkpt>
      <trkpt lat="43.05" lon="2.99259">
        <ele>-0.14</ele>
        <time>2019-12-30T09:48:30Z</time>
      </trkpt>
      <trkpt lat="43.05" lon="2.99266">
        <ele>-0.64</ele>
        <time>2019-12-30T09:48:31Z</time>
      </trkpt>
      <trkpt lat="43.05003" lon="2.99309">
        <ele>-1.85</ele>
        <time>2019-12-30T09:48:36Z</time>
      </trkpt>
      <trkpt lat="43.05005" lon="2.99318">
        <ele>-2.31</ele>
        <time>2019-12-30T09:48:37Z</time>
      </trkpt>
      <trkpt lat="43.05023" lon="2.99406">
        <ele>-2.81</ele>
        <time>2019-12-30T09:48:48Z</time>
      </trkpt>
      <trkpt lat="43.05022" lon="2.9953">
        <ele>-2.17</ele>
        <time>2019-12-30T09:49:05Z</time>
      </trkpt>
      <trkpt lat="43.05024" lon="2.99557">
        <ele>-2.12</ele>
        <time>2019-12-30T09:49:09Z</time>
      </trkpt>
      <trkpt lat="43.05026" lon="2.99564">
        <ele>-2.55</ele>
        <time>2019-12-30T09:49:10Z</time>
      </trkpt>
      <trkpt lat="43.05027" lon="2.9957">
        <ele>-1.96</ele>
        <time>2019-12-30T09:49:11Z</time>
      </trkpt>
      <trkpt lat="43.05029" lon="2.99577">
        <ele>-2.55</ele>
        <time>2019-12-30T09:49:12Z</time>
      </trkpt>
      <trkpt lat="43.05031" lon="2.99583">
        <ele>-2.13</ele>
        <time>2019-12-30T09:49:13Z</time>
      </trkpt>
      <trkpt lat="43.05034" lon="2.99589">
        <ele>-1.91</ele>
        <time>2019-12-30T09:49:14Z</time>
      </trkpt>
      <trkpt lat="43.05036" lon="2.99596">
        <ele>-2.52</ele>
        <time>2019-12-30T09:49:15Z</time>
      </trkpt>
      <trkpt lat="43.05038" lon="2.99602">
        <ele>-2.25</ele>
        <time>2019-12-30T09:49:16Z</time>
      </trkpt>
      <trkpt lat="43.05041" lon="2.99608">
        <ele>-2.01</ele>
        <time>2019-12-30T09:49:17Z</time>
      </trkpt>
      <trkpt lat="43.05044" lon="2.99614">
        <ele>-2.17</ele>
        <time>2019-12-30T09:49:18Z</time>
      </trkpt>
      <trkpt lat="43.05046" lon="2.9962">
        <ele>-2.92</ele>
        <time>2019-12-30T09:49:19Z</time>
      </trkpt>
      <trkpt lat="43.05048" lon="2.99627">
        <ele>-2.94</ele>
        <time>2019-12-30T09:49:20Z</time>
      </trkpt>
      <trkpt lat="43.05055" lon="2.99647">
        <ele>-2.92</ele>
        <time>2019-12-30T09:49:23Z</time>
      </trkpt>
      <trkpt lat="43.05057" lon="2.99654">
        <ele>-2.93</ele>
        <time>2019-12-30T09:49:24Z</time>
      </trkpt>
      <trkpt lat="43.05063" lon="2.99677">
        <ele>-3.2</ele>
        <time>2019-12-30T09:49:27Z</time>
      </trkpt>
      <trkpt lat="43.05066" lon="2.99684">
        <ele>-3.51</ele>
        <time>2019-12-30T09:49:28Z</time>
      </trkpt>
      <trkpt lat="43.05069" lon="2.99691">
        <ele>-3.67</ele>
        <time>2019-12-30T09:49:29Z</time>
      </trkpt>
      <trkpt lat="43.05103" lon="2.9974">
        <ele>-4.12</ele>
        <time>2019-12-30T09:49:37Z</time>
      </trkpt>
      <trkpt lat="43.05182" lon="2.99819">
        <ele>-4.58</ele>
        <time>2019-12-30T09:49:53Z</time>
      </trkpt>
      <trkpt lat="43.05256" lon="2.99886">
        <ele>-5.1</ele>
        <time>2019-12-30T09:50:08Z</time>
      </trkpt>
      <trkpt lat="43.05267" lon="2.99892">
        <ele>-4.3</ele>
        <time>2019-12-30T09:50:10Z</time>
      </trkpt>
      <trkpt lat="43.05272" lon="2.99893">
        <ele>-4.71</ele>
        <time>2019-12-30T09:50:11Z</time>
      </trkpt>
      <trkpt lat="43.05278" lon="2.99894">
        <ele>-5.02</ele>
        <time>2019-12-30T09:50:12Z</time>
      </trkpt>
      <trkpt lat="43.05284" lon="2.99895">
        <ele>-4.42</ele>
        <time>2019-12-30T09:50:13Z</time>
      </trkpt>
      <trkpt lat="43.05289" lon="2.99894">
        <ele>-4.99</ele>
        <time>2019-12-30T09:50:14Z</time>
      </trkpt>
      <trkpt lat="43.05358" lon="2.9986">
        <ele>-4.29</ele>
        <time>2019-12-30T09:50:27Z</time>
      </trkpt>
      <trkpt lat="43.05363" lon="2.99855">
        <ele>-4.49</ele>
        <time>2019-12-30T09:50:28Z</time>
      </trkpt>
      <trkpt lat="43.05386" lon="2.99839">
        <ele>-3.88</ele>
        <time>2019-12-30T09:50:33Z</time>
      </trkpt>
      <trkpt lat="43.05408" lon="2.99828">
        <ele>-1.92</ele>
        <time>2019-12-30T09:50:38Z</time>
      </trkpt>
      <trkpt lat="43.05445" lon="2.99815">
        <ele>0.82</ele>
        <time>2019-12-30T09:50:47Z</time>
      </trkpt>
      <trkpt lat="43.05462" lon="2.99813">
        <ele>1.39</ele>
        <time>2019-12-30T09:50:51Z</time>
      </trkpt>
      <trkpt lat="43.0547" lon="2.99814">
        <ele>1.82</ele>
        <time>2019-12-30T09:50:53Z</time>
      </trkpt>
      <trkpt lat="43.05482" lon="2.99815">
        <ele>2.86</ele>
        <time>2019-12-30T09:50:56Z</time>
      </trkpt>
      <trkpt lat="43.05486" lon="2.99816">
        <ele>2.97</ele>
        <time>2019-12-30T09:50:57Z</time>
      </trkpt>
      <trkpt lat="43.05495" lon="2.99819">
        <ele>3.13</ele>
        <time>2019-12-30T09:50:59Z</time>
      </trkpt>
      <trkpt lat="43.05499" lon="2.9982">
        <ele>3.01</ele>
        <time>2019-12-30T09:51:00Z</time>
      </trkpt>
      <trkpt lat="43.05503" lon="2.99822">
        <ele>3.54</ele>
        <time>2019-12-30T09:51:01Z</time>
      </trkpt>
      <trkpt lat="43.05512" lon="2.99825">
        <ele>4.34</ele>
        <time>2019-12-30T09:51:03Z</time>
      </trkpt>
      <trkpt lat="43.05519" lon="2.9983">
        <ele>4.2</ele>
        <time>2019-12-30T09:51:05Z</time>
      </trkpt>
      <trkpt lat="43.05569" lon="2.99887">
        <ele>1.65</ele>
        <time>2019-12-30T09:51:19Z</time>
      </trkpt>
      <trkpt lat="43.0562" lon="2.99965">
        <ele>-1.55</ele>
        <time>2019-12-30T09:51:32Z</time>
      </trkpt>
      <trkpt lat="43.05653" lon="3.00005">
        <ele>-3.74</ele>
        <time>2019-12-30T09:51:38Z</time>
      </trkpt>
      <trkpt lat="43.05709" lon="3.00043">
        <ele>-3.99</ele>
        <time>2019-12-30T09:51:48Z</time>
      </trkpt>
      <trkpt lat="43.05715" lon="3.00043">
        <ele>-4.43</ele>
        <time>2019-12-30T09:51:49Z</time>
      </trkpt>
      <trkpt lat="43.05744" lon="3.00035">
        <ele>-4.33</ele>
        <time>2019-12-30T09:51:54Z</time>
      </trkpt>
      <trkpt lat="43.05789" lon="3.00031">
        <ele>-3.55</ele>
        <time>2019-12-30T09:52:02Z</time>
      </trkpt>
      <trkpt lat="43.05799" lon="3.00034">
        <ele>-3.61</ele>
        <time>2019-12-30T09:52:04Z</time>
      </trkpt>
      <trkpt lat="43.05804" lon="3.00036">
        <ele>-4.23</ele>
        <time>2019-12-30T09:52:05Z</time>
      </trkpt>
      <trkpt lat="43.05809" lon="3.00039">
        <ele>-3.95</ele>
        <time>2019-12-30T09:52:06Z</time>
      </trkpt>
      <trkpt lat="43.05814" lon="3.00042">
        <ele>-4.16</ele>
        <time>2019-12-30T09:52:07Z</time>
      </trkpt>
      <trkpt lat="43.05819" lon="3.00046">
        <ele>-4.01</ele>
        <time>2019-12-30T09:52:08Z</time>
      </trkpt>
      <trkpt lat="43.05824" lon="3.0005">
        <ele>-4.05</ele>
        <time>2019-12-30T09:52:09Z</time>
      </trkpt>
      <trkpt lat="43.05872" lon="3.00106">
        <ele>-4.53</ele>
        <time>2019-12-30T09:52:21Z</time>
      </trkpt>
      <trkpt lat="43.05876" lon="3.0011">
        <ele>-3.68</ele>
        <time>2019-12-30T09:52:22Z</time>
      </trkpt>
      <trkpt lat="43.05891" lon="3.00135">
        <ele>-3.63</ele>
        <time>2019-12-30T09:52:27Z</time>
      </trkpt>
      <trkpt lat="43.05893" lon="3.0014">
        <ele>-3.71</ele>
        <time>2019-12-30T09:52:28Z</time>
      </trkpt>
      <trkpt lat="43.05894" lon="3.00146">
        <ele>-3.96</ele>
        <time>2019-12-30T09:52:29Z</time>
      </trkpt>
      <trkpt lat="43.05895" lon="3.00153">
        <ele>-3.9</ele>
        <time>2019-12-30T09:52:30Z</time>
      </trkpt>
      <trkpt lat="43.05896" lon="3.0016">
        <ele>-4.1</ele>
        <time>2019-12-30T09:52:31Z</time>
      </trkpt>
      <trkpt lat="43.05898" lon="3.00212">
        <ele>-4.58</ele>
        <time>2019-12-30T09:52:38Z</time>
      </trkpt>
      <trkpt lat="43.05899" lon="3.00234">
        <ele>-4.33</ele>
        <time>2019-12-30T09:52:41Z</time>
      </trkpt>
      <trkpt lat="43.059" lon="3.0024">
        <ele>-4.28</ele>
        <time>2019-12-30T09:52:42Z</time>
      </trkpt>
      <trkpt lat="43.05901" lon="3.00247">
        <ele>-3.98</ele>
        <time>2019-12-30T09:52:43Z</time>
      </trkpt>
      <trkpt lat="43.05901" lon="3.00253">
        <ele>-5.06</ele>
        <time>2019-12-30T09:52:44Z</time>
      </trkpt>
      <trkpt lat="43.05901" lon="3.0026">
        <ele>-4.9</ele>
        <time>2019-12-30T09:52:45Z</time>
      </trkpt>
      <trkpt lat="43.059" lon="3.00266">
        <ele>-4.94</ele>
        <time>2019-12-30T09:52:46Z</time>
      </trkpt>
      <trkpt lat="43.05898" lon="3.00273">
        <ele>-4.77</ele>
        <time>2019-12-30T09:52:47Z</time>
      </trkpt>
      <trkpt lat="43.05896" lon="3.00279">
        <ele>-4.55</ele>
        <time>2019-12-30T09:52:48Z</time>
      </trkpt>
      <trkpt lat="43.05894" lon="3.00285">
        <ele>-4.94</ele>
        <time>2019-12-30T09:52:49Z</time>
      </trkpt>
      <trkpt lat="43.05891" lon="3.00291">
        <ele>-5</ele>
        <time>2019-12-30T09:52:50Z</time>
      </trkpt>
      <trkpt lat="43.05885" lon="3.00302">
        <ele>-4.89</ele>
        <time>2019-12-30T09:52:52Z</time>
      </trkpt>
      <trkpt lat="43.05881" lon="3.00307">
        <ele>-4.76</ele>
        <time>2019-12-30T09:52:53Z</time>
      </trkpt>
      <trkpt lat="43.05877" lon="3.00311">
        <ele>-4.95</ele>
        <time>2019-12-30T09:52:54Z</time>
      </trkpt>
      <trkpt lat="43.05864" lon="3.00323">
        <ele>-5.42</ele>
        <time>2019-12-30T09:52:57Z</time>
      </trkpt>
      <trkpt lat="43.05842" lon="3.00344">
        <ele>-4.7</ele>
        <time>2019-12-30T09:53:03Z</time>
      </trkpt>
      <trkpt lat="43.05838" lon="3.00346">
        <ele>-5.41</ele>
        <time>2019-12-30T09:53:04Z</time>
      </trkpt>
      <trkpt lat="43.05834" lon="3.00348">
        <ele>-5.32</ele>
        <time>2019-12-30T09:53:05Z</time>
      </trkpt>
      <trkpt lat="43.0583" lon="3.0035">
        <ele>-5.29</ele>
        <time>2019-12-30T09:53:06Z</time>
      </trkpt>
      <trkpt lat="43.05827" lon="3.00353">
        <ele>-5.31</ele>
        <time>2019-12-30T09:53:07Z</time>
      </trkpt>
      <trkpt lat="43.05824" lon="3.00356">
        <ele>-5.37</ele>
        <time>2019-12-30T09:53:08Z</time>
      </trkpt>
      <trkpt lat="43.0579" lon="3.00379">
        <ele>-4.84</ele>
        <time>2019-12-30T09:53:19Z</time>
      </trkpt>
      <trkpt lat="43.05766" lon="3.00397">
        <ele>-5.21</ele>
        <time>2019-12-30T09:53:31Z</time>
      </trkpt>
      <trkpt lat="43.05764" lon="3.00398">
        <ele>-5.3</ele>
        <time>2019-12-30T09:53:43Z</time>
      </trkpt>
      <trkpt lat="43.05762" lon="3.004">
        <ele>-5.05</ele>
        <time>2019-12-30T09:53:44Z</time>
      </trkpt>
      <trkpt lat="43.0576" lon="3.00402">
        <ele>-4.97</ele>
        <time>2019-12-30T09:53:45Z</time>
      </trkpt>
      <trkpt lat="43.05758" lon="3.00404">
        <ele>-5.27</ele>
        <time>2019-12-30T09:53:46Z</time>
      </trkpt>
      <trkpt lat="43.05755" lon="3.00407">
        <ele>-5.13</ele>
        <time>2019-12-30T09:53:47Z</time>
      </trkpt>
      <trkpt lat="43.05726" lon="3.00446">
        <ele>-4.64</ele>
        <time>2019-12-30T09:53:59Z</time>
      </trkpt>
      <trkpt lat="43.05704" lon="3.00493">
        <ele>-5.11</ele>
        <time>2019-12-30T09:54:12Z</time>
      </trkpt>
      <trkpt lat="43.05676" lon="3.00523">
        <ele>-5.11</ele>
        <time>2019-12-30T09:54:24Z</time>
      </trkpt>
      <trkpt lat="43.05636" lon="3.00545">
        <ele>-5.22</ele>
        <time>2019-12-30T09:54:36Z</time>
      </trkpt>
      <trkpt lat="43.05617" lon="3.00565">
        <ele>-5.04</ele>
        <time>2019-12-30T09:54:42Z</time>
      </trkpt>
      <trkpt lat="43.05614" lon="3.00569">
        <ele>-4.93</ele>
        <time>2019-12-30T09:54:43Z</time>
      </trkpt>
      <trkpt lat="43.05612" lon="3.00573">
        <ele>-4.23</ele>
        <time>2019-12-30T09:54:44Z</time>
      </trkpt>
      <trkpt lat="43.05609" lon="3.00577">
        <ele>-4.76</ele>
        <time>2019-12-30T09:54:45Z</time>
      </trkpt>
      <trkpt lat="43.05607" lon="3.00581">
        <ele>-4.74</ele>
        <time>2019-12-30T09:54:46Z</time>
      </trkpt>
      <trkpt lat="43.05579" lon="3.00592">
        <ele>-4.63</ele>
        <time>2019-12-30T09:54:55Z</time>
      </trkpt>
      <trkpt lat="43.05548" lon="3.00579">
        <ele>-4.19</ele>
        <time>2019-12-30T09:55:04Z</time>
      </trkpt>
      <trkpt lat="43.05543" lon="3.00579">
        <ele>-3.91</ele>
        <time>2019-12-30T09:55:05Z</time>
      </trkpt>
      <trkpt lat="43.0546" lon="3.00556">
        <ele>-4.55</ele>
        <time>2019-12-30T09:55:25Z</time>
      </trkpt>
      <trkpt lat="43.05414" lon="3.00548">
        <ele>-4.12</ele>
        <time>2019-12-30T09:55:35Z</time>
      </trkpt>
      <trkpt lat="43.05393" lon="3.00548">
        <ele>-4.47</ele>
        <time>2019-12-30T09:55:40Z</time>
      </trkpt>
      <trkpt lat="43.05389" lon="3.00546">
        <ele>-3.86</ele>
        <time>2019-12-30T09:55:41Z</time>
      </trkpt>
      <trkpt lat="43.05384" lon="3.00544">
        <ele>-4.43</ele>
        <time>2019-12-30T09:55:42Z</time>
      </trkpt>
      <trkpt lat="43.0538" lon="3.00541">
        <ele>-4.46</ele>
        <time>2019-12-30T09:55:43Z</time>
      </trkpt>
      <trkpt lat="43.05375" lon="3.0054">
        <ele>-4.76</ele>
        <time>2019-12-30T09:55:44Z</time>
      </trkpt>
      <trkpt lat="43.0537" lon="3.00542">
        <ele>-4.52</ele>
        <time>2019-12-30T09:55:45Z</time>
      </trkpt>
      <trkpt lat="43.05365" lon="3.00544">
        <ele>-4.48</ele>
        <time>2019-12-30T09:55:46Z</time>
      </trkpt>
      <trkpt lat="43.0536" lon="3.00547">
        <ele>-4.33</ele>
        <time>2019-12-30T09:55:47Z</time>
      </trkpt>
      <trkpt lat="43.05356" lon="3.0055">
        <ele>-4.49</ele>
        <time>2019-12-30T09:55:48Z</time>
      </trkpt>
      <trkpt lat="43.05351" lon="3.00553">
        <ele>-4.35</ele>
        <time>2019-12-30T09:55:49Z</time>
      </trkpt>
      <trkpt lat="43.05342" lon="3.00559">
        <ele>-4.14</ele>
        <time>2019-12-30T09:55:51Z</time>
      </trkpt>
      <trkpt lat="43.05337" lon="3.00562">
        <ele>-4.05</ele>
        <time>2019-12-30T09:55:52Z</time>
      </trkpt>
      <trkpt lat="43.05313" lon="3.00585">
        <ele>-4.08</ele>
        <time>2019-12-30T09:55:58Z</time>
      </trkpt>
      <trkpt lat="43.05308" lon="3.00587">
        <ele>-4.54</ele>
        <time>2019-12-30T09:55:59Z</time>
      </trkpt>
      <trkpt lat="43.05277" lon="3.00599">
        <ele>-3.9</ele>
        <time>2019-12-30T09:56:05Z</time>
      </trkpt>
      <trkpt lat="43.05272" lon="3.00604">
        <ele>-3.47</ele>
        <time>2019-12-30T09:56:06Z</time>
      </trkpt>
      <trkpt lat="43.05264" lon="3.00613">
        <ele>-3.37</ele>
        <time>2019-12-30T09:56:08Z</time>
      </trkpt>
      <trkpt lat="43.05259" lon="3.00616">
        <ele>-4.2</ele>
        <time>2019-12-30T09:56:09Z</time>
      </trkpt>
      <trkpt lat="43.0525" lon="3.00623">
        <ele>-4.38</ele>
        <time>2019-12-30T09:56:11Z</time>
      </trkpt>
      <trkpt lat="43.05245" lon="3.00626">
        <ele>-4.1</ele>
        <time>2019-12-30T09:56:12Z</time>
      </trkpt>
      <trkpt lat="43.0524" lon="3.00629">
        <ele>-3.64</ele>
        <time>2019-12-30T09:56:13Z</time>
      </trkpt>
      <trkpt lat="43.05236" lon="3.00633">
        <ele>-4.04</ele>
        <time>2019-12-30T09:56:14Z</time>
      </trkpt>
      <trkpt lat="43.05232" lon="3.00638">
        <ele>-4.51</ele>
        <time>2019-12-30T09:56:15Z</time>
      </trkpt>
      <trkpt lat="43.05229" lon="3.00643">
        <ele>-4.42</ele>
        <time>2019-12-30T09:56:16Z</time>
      </trkpt>
      <trkpt lat="43.05217" lon="3.00657">
        <ele>-3.81</ele>
        <time>2019-12-30T09:56:19Z</time>
      </trkpt>
      <trkpt lat="43.05214" lon="3.00662">
        <ele>-4.13</ele>
        <time>2019-12-30T09:56:20Z</time>
      </trkpt>
      <trkpt lat="43.05211" lon="3.00668">
        <ele>-3.75</ele>
        <time>2019-12-30T09:56:21Z</time>
      </trkpt>
      <trkpt lat="43.0521" lon="3.00674">
        <ele>-3.94</ele>
        <time>2019-12-30T09:56:22Z</time>
      </trkpt>
      <trkpt lat="43.05208" lon="3.00681">
        <ele>-3.88</ele>
        <time>2019-12-30T09:56:23Z</time>
      </trkpt>
      <trkpt lat="43.05208" lon="3.00688">
        <ele>-3.81</ele>
        <time>2019-12-30T09:56:24Z</time>
      </trkpt>
      <trkpt lat="43.05207" lon="3.00695">
        <ele>-3.96</ele>
        <time>2019-12-30T09:56:25Z</time>
      </trkpt>
      <trkpt lat="43.05208" lon="3.00701">
        <ele>-3.9</ele>
        <time>2019-12-30T09:56:26Z</time>
      </trkpt>
      <trkpt lat="43.05209" lon="3.00708">
        <ele>-4.59</ele>
        <time>2019-12-30T09:56:27Z</time>
      </trkpt>
      <trkpt lat="43.05211" lon="3.00721">
        <ele>-3.85</ele>
        <time>2019-12-30T09:56:29Z</time>
      </trkpt>
      <trkpt lat="43.05212" lon="3.00727">
        <ele>-4.07</ele>
        <time>2019-12-30T09:56:30Z</time>
      </trkpt>
      <trkpt lat="43.05211" lon="3.00732">
        <ele>-4.43</ele>
        <time>2019-12-30T09:56:31Z</time>
      </trkpt>
      <trkpt lat="43.05209" lon="3.00736">
        <ele>-3.96</ele>
        <time>2019-12-30T09:56:32Z</time>
      </trkpt>
      <trkpt lat="43.05206" lon="3.00737">
        <ele>-4.23</ele>
        <time>2019-12-30T09:56:33Z</time>
      </trkpt>
      <trkpt lat="43.05203" lon="3.00738">
        <ele>-3.86</ele>
        <time>2019-12-30T09:56:34Z</time>
      </trkpt>
      <trkpt lat="43.05201" lon="3.00741">
        <ele>-3.49</ele>
        <time>2019-12-30T09:56:35Z</time>
      </trkpt>
      <trkpt lat="43.05198" lon="3.00744">
        <ele>-4.08</ele>
        <time>2019-12-30T09:56:36Z</time>
      </trkpt>
      <trkpt lat="43.05194" lon="3.00746">
        <ele>-4.26</ele>
        <time>2019-12-30T09:56:37Z</time>
      </trkpt>
      <trkpt lat="43.0519" lon="3.00748">
        <ele>-4.71</ele>
        <time>2019-12-30T09:56:38Z</time>
      </trkpt>
      <trkpt lat="43.05187" lon="3.00749">
        <ele>-4.58</ele>
        <time>2019-12-30T09:56:39Z</time>
      </trkpt>
      <trkpt lat="43.05185" lon="3.00748">
        <ele>-4.52</ele>
        <time>2019-12-30T09:56:40Z</time>
      </trkpt>
      <trkpt lat="43.05182" lon="3.00747">
        <ele>-4.91</ele>
        <time>2019-12-30T09:56:41Z</time>
      </trkpt>
      <trkpt lat="43.0518" lon="3.00747">
        <ele>-4.19</ele>
        <time>2019-12-30T09:56:42Z</time>
      </trkpt>
      <trkpt lat="43.05177" lon="3.00746">
        <ele>-4.64</ele>
        <time>2019-12-30T09:56:43Z</time>
      </trkpt>
      <trkpt lat="43.05175" lon="3.00744">
        <ele>-4.23</ele>
        <time>2019-12-30T09:56:44Z</time>
      </trkpt>
      <trkpt lat="43.05172" lon="3.00743">
        <ele>-4.04</ele>
        <time>2019-12-30T09:56:45Z</time>
      </trkpt>
      <trkpt lat="43.05168" lon="3.00741">
        <ele>-5.13</ele>
        <time>2019-12-30T09:56:46Z</time>
      </trkpt>
      <trkpt lat="43.05165" lon="3.00739">
        <ele>-4</ele>
        <time>2019-12-30T09:56:47Z</time>
      </trkpt>
      <trkpt lat="43.05161" lon="3.00736">
        <ele>-4.2</ele>
        <time>2019-12-30T09:56:48Z</time>
      </trkpt>
      <trkpt lat="43.05158" lon="3.00734">
        <ele>-4.03</ele>
        <time>2019-12-30T09:56:49Z</time>
      </trkpt>
      <trkpt lat="43.0515" lon="3.00731">
        <ele>-3.78</ele>
        <time>2019-12-30T09:56:51Z</time>
      </trkpt>
      <trkpt lat="43.05146" lon="3.00729">
        <ele>-4.5</ele>
        <time>2019-12-30T09:56:52Z</time>
      </trkpt>
      <trkpt lat="43.05143" lon="3.00726">
        <ele>-4.16</ele>
        <time>2019-12-30T09:56:53Z</time>
      </trkpt>
      <trkpt lat="43.0514" lon="3.00722">
        <ele>-3.35</ele>
        <time>2019-12-30T09:56:54Z</time>
      </trkpt>
      <trkpt lat="43.05138" lon="3.00718">
        <ele>-4.53</ele>
        <time>2019-12-30T09:56:55Z</time>
      </trkpt>
      <trkpt lat="43.05134" lon="3.00709">
        <ele>-5.39</ele>
        <time>2019-12-30T09:56:58Z</time>
      </trkpt>
      <trkpt lat="43.05133" lon="3.00706">
        <ele>-4.84</ele>
        <time>2019-12-30T09:56:59Z</time>
      </trkpt>
      <trkpt lat="43.05133" lon="3.00704">
        <ele>-5.57</ele>
        <time>2019-12-30T09:57:00Z</time>
      </trkpt>
      <trkpt lat="43.05131" lon="3.00699">
        <ele>-5.04</ele>
        <time>2019-12-30T09:57:05Z</time>
      </trkpt>
      <trkpt lat="43.05131" lon="3.00697">
        <ele>-5.29</ele>
        <time>2019-12-30T09:57:06Z</time>
      </trkpt>
      <trkpt lat="43.0513" lon="3.00695">
        <ele>-4.78</ele>
        <time>2019-12-30T09:57:07Z</time>
      </trkpt>
      <trkpt lat="43.0513" lon="3.00692">
        <ele>-5.3</ele>
        <time>2019-12-30T09:57:08Z</time>
      </trkpt>
      <trkpt lat="43.0513" lon="3.0069">
        <ele>-4.94</ele>
        <time>2019-12-30T09:57:09Z</time>
      </trkpt>
      <trkpt lat="43.0513" lon="3.00688">
        <ele>-4.32</ele>
        <time>2019-12-30T09:57:10Z</time>
      </trkpt>
      <trkpt lat="43.05128" lon="3.00686">
        <ele>-4.72</ele>
        <time>2019-12-30T09:57:11Z</time>
      </trkpt>
      <trkpt lat="43.05127" lon="3.00682">
        <ele>-4.64</ele>
        <time>2019-12-30T09:57:15Z</time>
      </trkpt>
      <trkpt lat="43.05126" lon="3.0068">
        <ele>-4.18</ele>
        <time>2019-12-30T09:57:16Z</time>
      </trkpt>
      <trkpt lat="43.05124" lon="3.00679">
        <ele>-4.21</ele>
        <time>2019-12-30T09:57:17Z</time>
      </trkpt>
      <trkpt lat="43.05121" lon="3.00678">
        <ele>-4.33</ele>
        <time>2019-12-30T09:57:18Z</time>
      </trkpt>
      <trkpt lat="43.05118" lon="3.00678">
        <ele>-4.3</ele>
        <time>2019-12-30T09:57:19Z</time>
      </trkpt>
      <trkpt lat="43.05115" lon="3.00677">
        <ele>-3.98</ele>
        <time>2019-12-30T09:57:20Z</time>
      </trkpt>
      <trkpt lat="43.05111" lon="3.00676">
        <ele>-3.93</ele>
        <time>2019-12-30T09:57:21Z</time>
      </trkpt>
      <trkpt lat="43.05108" lon="3.00676">
        <ele>-3.89</ele>
        <time>2019-12-30T09:57:22Z</time>
      </trkpt>
      <trkpt lat="43.05048" lon="3.00668">
        <ele>-3.44</ele>
        <time>2019-12-30T09:57:35Z</time>
      </trkpt>
      <trkpt lat="43.05044" lon="3.00667">
        <ele>-3.57</ele>
        <time>2019-12-30T09:57:36Z</time>
      </trkpt>
      <trkpt lat="43.05039" lon="3.00665">
        <ele>-3.57</ele>
        <time>2019-12-30T09:57:37Z</time>
      </trkpt>
      <trkpt lat="43.05026" lon="3.00658">
        <ele>-3.77</ele>
        <time>2019-12-30T09:57:40Z</time>
      </trkpt>
      <trkpt lat="43.05022" lon="3.00657">
        <ele>-2.92</ele>
        <time>2019-12-30T09:57:41Z</time>
      </trkpt>
      <trkpt lat="43.05013" lon="3.00658">
        <ele>-3.42</ele>
        <time>2019-12-30T09:57:43Z</time>
      </trkpt>
      <trkpt lat="43.05009" lon="3.0066">
        <ele>-2.17</ele>
        <time>2019-12-30T09:57:44Z</time>
      </trkpt>
      <trkpt lat="43.05005" lon="3.00664">
        <ele>-2.87</ele>
        <time>2019-12-30T09:57:45Z</time>
      </trkpt>
      <trkpt lat="43.05003" lon="3.00668">
        <ele>-3.09</ele>
        <time>2019-12-30T09:57:46Z</time>
      </trkpt>
      <trkpt lat="43.05" lon="3.00674">
        <ele>-3.6</ele>
        <time>2019-12-30T09:57:47Z</time>
      </trkpt>
      <trkpt lat="43.04997" lon="3.00678">
        <ele>-3.22</ele>
        <time>2019-12-30T09:57:48Z</time>
      </trkpt>
      <trkpt lat="43.04993" lon="3.00682">
        <ele>-3.5</ele>
        <time>2019-12-30T09:57:49Z</time>
      </trkpt>
      <trkpt lat="43.04989" lon="3.00685">
        <ele>-3.55</ele>
        <time>2019-12-30T09:57:50Z</time>
      </trkpt>
      <trkpt lat="43.04984" lon="3.00686">
        <ele>-3.66</ele>
        <time>2019-12-30T09:57:51Z</time>
      </trkpt>
      <trkpt lat="43.04979" lon="3.00687">
        <ele>-3.57</ele>
        <time>2019-12-30T09:57:52Z</time>
      </trkpt>
      <trkpt lat="43.04942" lon="3.0069">
        <ele>-3.72</ele>
        <time>2019-12-30T09:58:00Z</time>
      </trkpt>
      <trkpt lat="43.04938" lon="3.00689">
        <ele>-3.52</ele>
        <time>2019-12-30T09:58:01Z</time>
      </trkpt>
      <trkpt lat="43.04925" lon="3.00685">
        <ele>-3.47</ele>
        <time>2019-12-30T09:58:04Z</time>
      </trkpt>
      <trkpt lat="43.04921" lon="3.00682">
        <ele>-3.19</ele>
        <time>2019-12-30T09:58:05Z</time>
      </trkpt>
      <trkpt lat="43.04909" lon="3.00673">
        <ele>-3.78</ele>
        <time>2019-12-30T09:58:08Z</time>
      </trkpt>
      <trkpt lat="43.04905" lon="3.00668">
        <ele>-4.09</ele>
        <time>2019-12-30T09:58:09Z</time>
      </trkpt>
      <trkpt lat="43.04892" lon="3.00649">
        <ele>-3.75</ele>
        <time>2019-12-30T09:58:13Z</time>
      </trkpt>
      <trkpt lat="43.04888" lon="3.00645">
        <ele>-4.24</ele>
        <time>2019-12-30T09:58:14Z</time>
      </trkpt>
      <trkpt lat="43.04883" lon="3.00642">
        <ele>-3.47</ele>
        <time>2019-12-30T09:58:15Z</time>
      </trkpt>
      <trkpt lat="43.04879" lon="3.00639">
        <ele>-3.15</ele>
        <time>2019-12-30T09:58:16Z</time>
      </trkpt>
      <trkpt lat="43.04874" lon="3.00636">
        <ele>-3.25</ele>
        <time>2019-12-30T09:58:17Z</time>
      </trkpt>
      <trkpt lat="43.04864" lon="3.00631">
        <ele>-4.46</ele>
        <time>2019-12-30T09:58:19Z</time>
      </trkpt>
      <trkpt lat="43.04831" lon="3.00605">
        <ele>-3.3</ele>
        <time>2019-12-30T09:58:26Z</time>
      </trkpt>
      <trkpt lat="43.04826" lon="3.00603">
        <ele>-3.58</ele>
        <time>2019-12-30T09:58:27Z</time>
      </trkpt>
      <trkpt lat="43.04776" lon="3.00587">
        <ele>-4</ele>
        <time>2019-12-30T09:58:36Z</time>
      </trkpt>
      <trkpt lat="43.0477" lon="3.00588">
        <ele>-4.07</ele>
        <time>2019-12-30T09:58:37Z</time>
      </trkpt>
      <trkpt lat="43.04731" lon="3.00589">
        <ele>-4.71</ele>
        <time>2019-12-30T09:58:44Z</time>
      </trkpt>
      <trkpt lat="43.04725" lon="3.00591">
        <ele>-4.27</ele>
        <time>2019-12-30T09:58:45Z</time>
      </trkpt>
      <trkpt lat="43.0472" lon="3.00593">
        <ele>-4.25</ele>
        <time>2019-12-30T09:58:46Z</time>
      </trkpt>
      <trkpt lat="43.04715" lon="3.00596">
        <ele>-3.73</ele>
        <time>2019-12-30T09:58:47Z</time>
      </trkpt>
      <trkpt lat="43.04711" lon="3.00599">
        <ele>-3.34</ele>
        <time>2019-12-30T09:58:48Z</time>
      </trkpt>
      <trkpt lat="43.04706" lon="3.00604">
        <ele>-3.39</ele>
        <time>2019-12-30T09:58:49Z</time>
      </trkpt>
      <trkpt lat="43.04701" lon="3.00608">
        <ele>-3.62</ele>
        <time>2019-12-30T09:58:50Z</time>
      </trkpt>
      <trkpt lat="43.04697" lon="3.00612">
        <ele>-3.99</ele>
        <time>2019-12-30T09:58:51Z</time>
      </trkpt>
      <trkpt lat="43.04691" lon="3.00616">
        <ele>-3.79</ele>
        <time>2019-12-30T09:58:52Z</time>
      </trkpt>
      <trkpt lat="43.04638" lon="3.00662">
        <ele>-3.66</ele>
        <time>2019-12-30T09:59:03Z</time>
      </trkpt>
      <trkpt lat="43.04635" lon="3.00668">
        <ele>-3.95</ele>
        <time>2019-12-30T09:59:04Z</time>
      </trkpt>
      <trkpt lat="43.04632" lon="3.00675">
        <ele>-3.42</ele>
        <time>2019-12-30T09:59:05Z</time>
      </trkpt>
      <trkpt lat="43.0463" lon="3.00682">
        <ele>-3.61</ele>
        <time>2019-12-30T09:59:06Z</time>
      </trkpt>
      <trkpt lat="43.04626" lon="3.00688">
        <ele>-3.82</ele>
        <time>2019-12-30T09:59:07Z</time>
      </trkpt>
      <trkpt lat="43.04622" lon="3.00693">
        <ele>-3.41</ele>
        <time>2019-12-30T09:59:08Z</time>
      </trkpt>
      <trkpt lat="43.04618" lon="3.00696">
        <ele>-3.63</ele>
        <time>2019-12-30T09:59:09Z</time>
      </trkpt>
      <trkpt lat="43.04614" lon="3.00697">
        <ele>-3.64</ele>
        <time>2019-12-30T09:59:10Z</time>
      </trkpt>
      <trkpt lat="43.0461" lon="3.00695">
        <ele>-3.6</ele>
        <time>2019-12-30T09:59:11Z</time>
      </trkpt>
      <trkpt lat="43.04605" lon="3.00694">
        <ele>-3.8</ele>
        <time>2019-12-30T09:59:12Z</time>
      </trkpt>
      <trkpt lat="43.04601" lon="3.00694">
        <ele>-3.72</ele>
        <time>2019-12-30T09:59:13Z</time>
      </trkpt>
      <trkpt lat="43.04596" lon="3.00695">
        <ele>-3.6</ele>
        <time>2019-12-30T09:59:14Z</time>
      </trkpt>
      <trkpt lat="43.04591" lon="3.00696">
        <ele>-3.68</ele>
        <time>2019-12-30T09:59:15Z</time>
      </trkpt>
      <trkpt lat="43.04586" lon="3.00697">
        <ele>-3.48</ele>
        <time>2019-12-30T09:59:16Z</time>
      </trkpt>
      <trkpt lat="43.0458" lon="3.00698">
        <ele>-3.64</ele>
        <time>2019-12-30T09:59:17Z</time>
      </trkpt>
      <trkpt lat="43.04549" lon="3.007">
        <ele>-3.67</ele>
        <time>2019-12-30T09:59:23Z</time>
      </trkpt>
      <trkpt lat="43.04544" lon="3.00702">
        <ele>-3.56</ele>
        <time>2019-12-30T09:59:24Z</time>
      </trkpt>
      <trkpt lat="43.04541" lon="3.00706">
        <ele>-3.21</ele>
        <time>2019-12-30T09:59:25Z</time>
      </trkpt>
      <trkpt lat="43.04538" lon="3.0071">
        <ele>-3.66</ele>
        <time>2019-12-30T09:59:26Z</time>
      </trkpt>
      <trkpt lat="43.04537" lon="3.00716">
        <ele>-3.7</ele>
        <time>2019-12-30T09:59:27Z</time>
      </trkpt>
      <trkpt lat="43.04536" lon="3.00722">
        <ele>-3.02</ele>
        <time>2019-12-30T09:59:28Z</time>
      </trkpt>
      <trkpt lat="43.04533" lon="3.00734">
        <ele>-3.66</ele>
        <time>2019-12-30T09:59:36Z</time>
      </trkpt>
      <trkpt lat="43.0453" lon="3.0074">
        <ele>-3.55</ele>
        <time>2019-12-30T09:59:50Z</time>
      </trkpt>
      <trkpt lat="43.04529" lon="3.00743">
        <ele>-3.23</ele>
        <time>2019-12-30T09:59:51Z</time>
      </trkpt>
      <trkpt lat="43.04528" lon="3.00746">
        <ele>-3.11</ele>
        <time>2019-12-30T09:59:52Z</time>
      </trkpt>
      <trkpt lat="43.0451" lon="3.00815">
        <ele>-2.82</ele>
        <time>2019-12-30T10:00:07Z</time>
      </trkpt>
      <trkpt lat="43.04504" lon="3.00837">
        <ele>-2.76</ele>
        <time>2019-12-30T10:00:11Z</time>
      </trkpt>
      <trkpt lat="43.04502" lon="3.00842">
        <ele>-2.61</ele>
        <time>2019-12-30T10:00:12Z</time>
      </trkpt>
      <trkpt lat="43.04499" lon="3.00846">
        <ele>-2.67</ele>
        <time>2019-12-30T10:00:13Z</time>
      </trkpt>
      <trkpt lat="43.04496" lon="3.0085">
        <ele>-2.39</ele>
        <time>2019-12-30T10:00:14Z</time>
      </trkpt>
      <trkpt lat="43.04493" lon="3.00854">
        <ele>-2.16</ele>
        <time>2019-12-30T10:00:15Z</time>
      </trkpt>
      <trkpt lat="43.04482" lon="3.00871">
        <ele>-1.96</ele>
        <time>2019-12-30T10:00:19Z</time>
      </trkpt>
      <trkpt lat="43.0448" lon="3.00876">
        <ele>-1.91</ele>
        <time>2019-12-30T10:00:20Z</time>
      </trkpt>
      <trkpt lat="43.04471" lon="3.00917">
        <ele>-2.07</ele>
        <time>2019-12-30T10:00:27Z</time>
      </trkpt>
      <trkpt lat="43.04471" lon="3.00936">
        <ele>-2.39</ele>
        <time>2019-12-30T10:00:30Z</time>
      </trkpt>
      <trkpt lat="43.04472" lon="3.00942">
        <ele>-2.07</ele>
        <time>2019-12-30T10:00:31Z</time>
      </trkpt>
      <trkpt lat="43.0448" lon="3.00996">
        <ele>-2.8</ele>
        <time>2019-12-30T10:00:39Z</time>
      </trkpt>
      <trkpt lat="43.0448" lon="3.01003">
        <ele>-2.69</ele>
        <time>2019-12-30T10:00:40Z</time>
      </trkpt>
      <trkpt lat="43.04479" lon="3.01009">
        <ele>-2.85</ele>
        <time>2019-12-30T10:00:41Z</time>
      </trkpt>
      <trkpt lat="43.04477" lon="3.01016">
        <ele>-3.18</ele>
        <time>2019-12-30T10:00:42Z</time>
      </trkpt>
      <trkpt lat="43.04474" lon="3.01022">
        <ele>-2.59</ele>
        <time>2019-12-30T10:00:43Z</time>
      </trkpt>
      <trkpt lat="43.0447" lon="3.01027">
        <ele>-3.12</ele>
        <time>2019-12-30T10:00:44Z</time>
      </trkpt>
      <trkpt lat="43.04467" lon="3.01032">
        <ele>-2.44</ele>
        <time>2019-12-30T10:00:45Z</time>
      </trkpt>
      <trkpt lat="43.04444" lon="3.01072">
        <ele>-2.64</ele>
        <time>2019-12-30T10:00:52Z</time>
      </trkpt>
      <trkpt lat="43.04382" lon="3.01142">
        <ele>-3.02</ele>
        <time>2019-12-30T10:01:06Z</time>
      </trkpt>
      <trkpt lat="43.04326" lon="3.01202">
        <ele>-3</ele>
        <time>2019-12-30T10:01:19Z</time>
      </trkpt>
      <trkpt lat="43.04311" lon="3.01217">
        <ele>-3.65</ele>
        <time>2019-12-30T10:01:23Z</time>
      </trkpt>
      <trkpt lat="43.04307" lon="3.0122">
        <ele>-3.57</ele>
        <time>2019-12-30T10:01:24Z</time>
      </trkpt>
      <trkpt lat="43.04302" lon="3.01222">
        <ele>-3.65</ele>
        <time>2019-12-30T10:01:25Z</time>
      </trkpt>
      <trkpt lat="43.04293" lon="3.01225">
        <ele>-3.28</ele>
        <time>2019-12-30T10:01:27Z</time>
      </trkpt>
      <trkpt lat="43.04288" lon="3.01225">
        <ele>-3.27</ele>
        <time>2019-12-30T10:01:28Z</time>
      </trkpt>
      <trkpt lat="43.04269" lon="3.01226">
        <ele>-3.47</ele>
        <time>2019-12-30T10:01:32Z</time>
      </trkpt>
      <trkpt lat="43.04266" lon="3.01228">
        <ele>-3.4</ele>
        <time>2019-12-30T10:01:33Z</time>
      </trkpt>
      <trkpt lat="43.04262" lon="3.01231">
        <ele>-3.73</ele>
        <time>2019-12-30T10:01:34Z</time>
      </trkpt>
      <trkpt lat="43.04228" lon="3.01279">
        <ele>-3.06</ele>
        <time>2019-12-30T10:01:47Z</time>
      </trkpt>
      <trkpt lat="43.04214" lon="3.0131">
        <ele>-2.97</ele>
        <time>2019-12-30T10:01:56Z</time>
      </trkpt>
      <trkpt lat="43.04211" lon="3.01318">
        <ele>-2.71</ele>
        <time>2019-12-30T10:01:58Z</time>
      </trkpt>
      <trkpt lat="43.0421" lon="3.01322">
        <ele>-2.75</ele>
        <time>2019-12-30T10:01:59Z</time>
      </trkpt>
      <trkpt lat="43.04209" lon="3.01327">
        <ele>-2.44</ele>
        <time>2019-12-30T10:02:00Z</time>
      </trkpt>
      <trkpt lat="43.04209" lon="3.01331">
        <ele>-3.24</ele>
        <time>2019-12-30T10:02:01Z</time>
      </trkpt>
      <trkpt lat="43.04208" lon="3.01335">
        <ele>-2.87</ele>
        <time>2019-12-30T10:02:02Z</time>
      </trkpt>
      <trkpt lat="43.04208" lon="3.01337">
        <ele>-2.32</ele>
        <time>2019-12-30T10:02:03Z</time>
      </trkpt>
      <trkpt lat="43.04207" lon="3.0134">
        <ele>-2.4</ele>
        <time>2019-12-30T10:02:04Z</time>
      </trkpt>
      <trkpt lat="43.04207" lon="3.01343">
        <ele>-2.67</ele>
        <time>2019-12-30T10:02:05Z</time>
      </trkpt>
      <trkpt lat="43.04208" lon="3.01347">
        <ele>-2.33</ele>
        <time>2019-12-30T10:02:06Z</time>
      </trkpt>
      <trkpt lat="43.04209" lon="3.0135">
        <ele>-2.69</ele>
        <time>2019-12-30T10:02:07Z</time>
      </trkpt>
      <trkpt lat="43.0421" lon="3.01354">
        <ele>-2.89</ele>
        <time>2019-12-30T10:02:08Z</time>
      </trkpt>
      <trkpt lat="43.04209" lon="3.01356">
        <ele>-3.42</ele>
        <time>2019-12-30T10:02:09Z</time>
      </trkpt>
      <trkpt lat="43.04209" lon="3.01358">
        <ele>-3.92</ele>
        <time>2019-12-30T10:02:10Z</time>
      </trkpt>
      <trkpt lat="43.04206" lon="3.01371">
        <ele>-3.38</ele>
        <time>2019-12-30T10:02:16Z</time>
      </trkpt>
      <trkpt lat="43.04204" lon="3.01375">
        <ele>-3.77</ele>
        <time>2019-12-30T10:02:17Z</time>
      </trkpt>
      <trkpt lat="43.04202" lon="3.01379">
        <ele>-3.35</ele>
        <time>2019-12-30T10:02:18Z</time>
      </trkpt>
      <trkpt lat="43.042" lon="3.01383">
        <ele>-3.66</ele>
        <time>2019-12-30T10:02:19Z</time>
      </trkpt>
      <trkpt lat="43.04198" lon="3.01387">
        <ele>-3.18</ele>
        <time>2019-12-30T10:02:20Z</time>
      </trkpt>
      <trkpt lat="43.04186" lon="3.01441">
        <ele>-3.94</ele>
        <time>2019-12-30T10:02:31Z</time>
      </trkpt>
      <trkpt lat="43.04184" lon="3.01446">
        <ele>-4.21</ele>
        <time>2019-12-30T10:02:32Z</time>
      </trkpt>
      <trkpt lat="43.04183" lon="3.01452">
        <ele>-3.81</ele>
        <time>2019-12-30T10:02:33Z</time>
      </trkpt>
      <trkpt lat="43.04176" lon="3.01488">
        <ele>-4.24</ele>
        <time>2019-12-30T10:02:39Z</time>
      </trkpt>
      <trkpt lat="43.04174" lon="3.01494">
        <ele>-3.82</ele>
        <time>2019-12-30T10:02:40Z</time>
      </trkpt>
      <trkpt lat="43.04172" lon="3.01499">
        <ele>-3.27</ele>
        <time>2019-12-30T10:02:41Z</time>
      </trkpt>
      <trkpt lat="43.0416" lon="3.01533">
        <ele>-4.46</ele>
        <time>2019-12-30T10:02:47Z</time>
      </trkpt>
      <trkpt lat="43.04156" lon="3.01546">
        <ele>-3.82</ele>
        <time>2019-12-30T10:02:49Z</time>
      </trkpt>
      <trkpt lat="43.04154" lon="3.01558">
        <ele>-3.51</ele>
        <time>2019-12-30T10:02:51Z</time>
      </trkpt>
      <trkpt lat="43.04153" lon="3.01565">
        <ele>-4.15</ele>
        <time>2019-12-30T10:02:52Z</time>
      </trkpt>
      <trkpt lat="43.04153" lon="3.0159">
        <ele>-3.9</ele>
        <time>2019-12-30T10:02:56Z</time>
      </trkpt>
      <trkpt lat="43.04154" lon="3.01634">
        <ele>-4.38</ele>
        <time>2019-12-30T10:03:04Z</time>
      </trkpt>
      <trkpt lat="43.04151" lon="3.01644">
        <ele>-4.39</ele>
        <time>2019-12-30T10:03:06Z</time>
      </trkpt>
      <trkpt lat="43.04149" lon="3.01649">
        <ele>-4.6</ele>
        <time>2019-12-30T10:03:07Z</time>
      </trkpt>
      <trkpt lat="43.04146" lon="3.01654">
        <ele>-3.83</ele>
        <time>2019-12-30T10:03:08Z</time>
      </trkpt>
      <trkpt lat="43.04112" lon="3.01719">
        <ele>-3.45</ele>
        <time>2019-12-30T10:03:21Z</time>
      </trkpt>
      <trkpt lat="43.04111" lon="3.01725">
        <ele>-3.49</ele>
        <time>2019-12-30T10:03:22Z</time>
      </trkpt>
      <trkpt lat="43.0411" lon="3.01731">
        <ele>-4.36</ele>
        <time>2019-12-30T10:03:23Z</time>
      </trkpt>
      <trkpt lat="43.04112" lon="3.01737">
        <ele>-3.25</ele>
        <time>2019-12-30T10:03:24Z</time>
      </trkpt>
      <trkpt lat="43.04114" lon="3.01742">
        <ele>-3.92</ele>
        <time>2019-12-30T10:03:25Z</time>
      </trkpt>
      <trkpt lat="43.04118" lon="3.01747">
        <ele>-3.33</ele>
        <time>2019-12-30T10:03:26Z</time>
      </trkpt>
      <trkpt lat="43.04122" lon="3.01751">
        <ele>-3.81</ele>
        <time>2019-12-30T10:03:27Z</time>
      </trkpt>
      <trkpt lat="43.04126" lon="3.01754">
        <ele>-3.87</ele>
        <time>2019-12-30T10:03:28Z</time>
      </trkpt>
      <trkpt lat="43.0413" lon="3.01758">
        <ele>-3.81</ele>
        <time>2019-12-30T10:03:29Z</time>
      </trkpt>
      <trkpt lat="43.04168" lon="3.01784">
        <ele>-3.92</ele>
        <time>2019-12-30T10:03:38Z</time>
      </trkpt>
      <trkpt lat="43.04172" lon="3.01788">
        <ele>-3.02</ele>
        <time>2019-12-30T10:03:39Z</time>
      </trkpt>
      <trkpt lat="43.04188" lon="3.01804">
        <ele>-3.52</ele>
        <time>2019-12-30T10:03:43Z</time>
      </trkpt>
      <trkpt lat="43.04223" lon="3.01843">
        <ele>-3.69</ele>
        <time>2019-12-30T10:03:52Z</time>
      </trkpt>
      <trkpt lat="43.04226" lon="3.01848">
        <ele>-3.68</ele>
        <time>2019-12-30T10:03:53Z</time>
      </trkpt>
      <trkpt lat="43.04229" lon="3.01854">
        <ele>-3.96</ele>
        <time>2019-12-30T10:03:54Z</time>
      </trkpt>
      <trkpt lat="43.04233" lon="3.01866">
        <ele>-4.25</ele>
        <time>2019-12-30T10:03:56Z</time>
      </trkpt>
      <trkpt lat="43.04233" lon="3.01872">
        <ele>-4.31</ele>
        <time>2019-12-30T10:03:57Z</time>
      </trkpt>
      <trkpt lat="43.04233" lon="3.01879">
        <ele>-4.01</ele>
        <time>2019-12-30T10:03:58Z</time>
      </trkpt>
      <trkpt lat="43.04232" lon="3.01886">
        <ele>-3.98</ele>
        <time>2019-12-30T10:03:59Z</time>
      </trkpt>
      <trkpt lat="43.04231" lon="3.01892">
        <ele>-3.82</ele>
        <time>2019-12-30T10:04:00Z</time>
      </trkpt>
      <trkpt lat="43.04229" lon="3.01898">
        <ele>-4.32</ele>
        <time>2019-12-30T10:04:01Z</time>
      </trkpt>
      <trkpt lat="43.04229" lon="3.01904">
        <ele>-4.03</ele>
        <time>2019-12-30T10:04:02Z</time>
      </trkpt>
      <trkpt lat="43.04227" lon="3.01909">
        <ele>-4.03</ele>
        <time>2019-12-30T10:04:03Z</time>
      </trkpt>
      <trkpt lat="43.04226" lon="3.01915">
        <ele>-3.97</ele>
        <time>2019-12-30T10:04:04Z</time>
      </trkpt>
      <trkpt lat="43.04193" lon="3.02006">
        <ele>-4.44</ele>
        <time>2019-12-30T10:04:19Z</time>
      </trkpt>
      <trkpt lat="43.04192" lon="3.02011">
        <ele>-4.3</ele>
        <time>2019-12-30T10:04:20Z</time>
      </trkpt>
      <trkpt lat="43.0419" lon="3.02016">
        <ele>-4.14</ele>
        <time>2019-12-30T10:04:21Z</time>
      </trkpt>
      <trkpt lat="43.04175" lon="3.02059">
        <ele>-4.29</ele>
        <time>2019-12-30T10:04:32Z</time>
      </trkpt>
      <trkpt lat="43.04172" lon="3.02066">
        <ele>-4.12</ele>
        <time>2019-12-30T10:04:40Z</time>
      </trkpt>
      <trkpt lat="43.04171" lon="3.02072">
        <ele>-4.77</ele>
        <time>2019-12-30T10:04:51Z</time>
      </trkpt>
      <trkpt lat="43.04169" lon="3.02075">
        <ele>-4.74</ele>
        <time>2019-12-30T10:04:53Z</time>
      </trkpt>
      <trkpt lat="43.04142" lon="3.02089">
        <ele>-4.52</ele>
        <time>2019-12-30T10:05:09Z</time>
      </trkpt>
      <trkpt lat="43.04098" lon="3.02109">
        <ele>-4.41</ele>
        <time>2019-12-30T10:05:28Z</time>
      </trkpt>
      <trkpt lat="43.0407" lon="3.02156">
        <ele>-4.17</ele>
        <time>2019-12-30T10:05:42Z</time>
      </trkpt>
      <trkpt lat="43.04068" lon="3.02159">
        <ele>-4.56</ele>
        <time>2019-12-30T10:05:43Z</time>
      </trkpt>
      <trkpt lat="43.04065" lon="3.0216">
        <ele>-4.33</ele>
        <time>2019-12-30T10:05:44Z</time>
      </trkpt>
      <trkpt lat="43.04062" lon="3.02158">
        <ele>-4.2</ele>
        <time>2019-12-30T10:05:45Z</time>
      </trkpt>
      <trkpt lat="43.04059" lon="3.02157">
        <ele>-3.79</ele>
        <time>2019-12-30T10:05:46Z</time>
      </trkpt>
      <trkpt lat="43.04056" lon="3.02156">
        <ele>-3.95</ele>
        <time>2019-12-30T10:05:47Z</time>
      </trkpt>
      <trkpt lat="43.04053" lon="3.02156">
        <ele>-4</ele>
        <time>2019-12-30T10:05:48Z</time>
      </trkpt>
      <trkpt lat="43.0405" lon="3.02157">
        <ele>-3.17</ele>
        <time>2019-12-30T10:05:49Z</time>
      </trkpt>
      <trkpt lat="43.04047" lon="3.02158">
        <ele>-4.12</ele>
        <time>2019-12-30T10:05:50Z</time>
      </trkpt>
      <trkpt lat="43.04028" lon="3.02158">
        <ele>-3.46</ele>
        <time>2019-12-30T10:05:56Z</time>
      </trkpt>
      <trkpt lat="43.04025" lon="3.0216">
        <ele>-3.37</ele>
        <time>2019-12-30T10:05:57Z</time>
      </trkpt>
      <trkpt lat="43.04023" lon="3.02162">
        <ele>-3.49</ele>
        <time>2019-12-30T10:05:58Z</time>
      </trkpt>
      <trkpt lat="43.03995" lon="3.02169">
        <ele>-3.39</ele>
        <time>2019-12-30T10:06:08Z</time>
      </trkpt>
      <trkpt lat="43.03946" lon="3.02137">
        <ele>-3.72</ele>
        <time>2019-12-30T10:06:25Z</time>
      </trkpt>
      <trkpt lat="43.03936" lon="3.02126">
        <ele>-3.56</ele>
        <time>2019-12-30T10:06:29Z</time>
      </trkpt>
      <trkpt lat="43.03937" lon="3.02122">
        <ele>-3.46</ele>
        <time>2019-12-30T10:06:30Z</time>
      </trkpt>
      <trkpt lat="43.03938" lon="3.02118">
        <ele>-3.38</ele>
        <time>2019-12-30T10:06:31Z</time>
      </trkpt>
      <trkpt lat="43.03939" lon="3.02115">
        <ele>-3.41</ele>
        <time>2019-12-30T10:06:32Z</time>
      </trkpt>
      <trkpt lat="43.0394" lon="3.02114">
        <ele>-3.62</ele>
        <time>2019-12-30T10:06:33Z</time>
      </trkpt>
      <trkpt lat="43.03941" lon="3.02112">
        <ele>-3.38</ele>
        <time>2019-12-30T10:06:50Z</time>
      </trkpt>
      <trkpt lat="43.03942" lon="3.02104">
        <ele>-4.13</ele>
        <time>2019-12-30T10:07:02Z</time>
      </trkpt>
      <trkpt lat="43.03942" lon="3.02101">
        <ele>-3.55</ele>
        <time>2019-12-30T10:07:03Z</time>
      </trkpt>
      <trkpt lat="43.0394" lon="3.02098">
        <ele>-3.33</ele>
        <time>2019-12-30T10:07:04Z</time>
      </trkpt>
      <trkpt lat="43.03938" lon="3.02096">
        <ele>-3.45</ele>
        <time>2019-12-30T10:07:05Z</time>
      </trkpt>
      <trkpt lat="43.03935" lon="3.02095">
        <ele>-3.49</ele>
        <time>2019-12-30T10:07:06Z</time>
      </trkpt>
      <trkpt lat="43.03905" lon="3.02078">
        <ele>-4.24</ele>
        <time>2019-12-30T10:07:15Z</time>
      </trkpt>
      <trkpt lat="43.03898" lon="3.02072">
        <ele>-3.53</ele>
        <time>2019-12-30T10:07:17Z</time>
      </trkpt>
      <trkpt lat="43.03894" lon="3.0207">
        <ele>-4</ele>
        <time>2019-12-30T10:07:18Z</time>
      </trkpt>
      <trkpt lat="43.0389" lon="3.02068">
        <ele>-4.15</ele>
        <time>2019-12-30T10:07:19Z</time>
      </trkpt>
      <trkpt lat="43.0384" lon="3.02047">
        <ele>-4.04</ele>
        <time>2019-12-30T10:07:31Z</time>
      </trkpt>
      <trkpt lat="43.03831" lon="3.02046">
        <ele>-4.06</ele>
        <time>2019-12-30T10:07:33Z</time>
      </trkpt>
      <trkpt lat="43.0382" lon="3.02039">
        <ele>-3.86</ele>
        <time>2019-12-30T10:07:36Z</time>
      </trkpt>
      <trkpt lat="43.03817" lon="3.02036">
        <ele>-4.08</ele>
        <time>2019-12-30T10:07:37Z</time>
      </trkpt>
      <trkpt lat="43.0381" lon="3.02029">
        <ele>-3.81</ele>
        <time>2019-12-30T10:07:39Z</time>
      </trkpt>
      <trkpt lat="43.03761" lon="3.02001">
        <ele>-3.41</ele>
        <time>2019-12-30T10:07:52Z</time>
      </trkpt>
      <trkpt lat="43.03678" lon="3.01968">
        <ele>-4.04</ele>
        <time>2019-12-30T10:08:12Z</time>
      </trkpt>
      <trkpt lat="43.03652" lon="3.01951">
        <ele>-3.78</ele>
        <time>2019-12-30T10:08:18Z</time>
      </trkpt>
      <trkpt lat="43.03648" lon="3.01947">
        <ele>-4.36</ele>
        <time>2019-12-30T10:08:19Z</time>
      </trkpt>
      <trkpt lat="43.03635" lon="3.01934">
        <ele>-3.77</ele>
        <time>2019-12-30T10:08:22Z</time>
      </trkpt>
      <trkpt lat="43.03632" lon="3.01929">
        <ele>-3.69</ele>
        <time>2019-12-30T10:08:23Z</time>
      </trkpt>
      <trkpt lat="43.03629" lon="3.01923">
        <ele>-3.37</ele>
        <time>2019-12-30T10:08:24Z</time>
      </trkpt>
      <trkpt lat="43.03628" lon="3.01916">
        <ele>-3.57</ele>
        <time>2019-12-30T10:08:25Z</time>
      </trkpt>
      <trkpt lat="43.03626" lon="3.0191">
        <ele>-2.86</ele>
        <time>2019-12-30T10:08:26Z</time>
      </trkpt>
      <trkpt lat="43.03625" lon="3.01905">
        <ele>-2.66</ele>
        <time>2019-12-30T10:08:27Z</time>
      </trkpt>
      <trkpt lat="43.03625" lon="3.019">
        <ele>-2.81</ele>
        <time>2019-12-30T10:08:28Z</time>
      </trkpt>
      <trkpt lat="43.03625" lon="3.01895">
        <ele>-2.85</ele>
        <time>2019-12-30T10:08:29Z</time>
      </trkpt>
      <trkpt lat="43.03626" lon="3.01889">
        <ele>-2.29</ele>
        <time>2019-12-30T10:08:30Z</time>
      </trkpt>
      <trkpt lat="43.03645" lon="3.01784">
        <ele>-2.68</ele>
        <time>2019-12-30T10:08:47Z</time>
      </trkpt>
      <trkpt lat="43.03671" lon="3.01648">
        <ele>-2.66</ele>
        <time>2019-12-30T10:09:08Z</time>
      </trkpt>
      <trkpt lat="43.03673" lon="3.01641">
        <ele>-2.89</ele>
        <time>2019-12-30T10:09:09Z</time>
      </trkpt>
      <trkpt lat="43.03696" lon="3.01513">
        <ele>-2.76</ele>
        <time>2019-12-30T10:09:29Z</time>
      </trkpt>
      <trkpt lat="43.03714" lon="3.01421">
        <ele>-2.65</ele>
        <time>2019-12-30T10:09:45Z</time>
      </trkpt>
      <trkpt lat="43.03721" lon="3.014">
        <ele>-3.48</ele>
        <time>2019-12-30T10:09:50Z</time>
      </trkpt>
      <trkpt lat="43.03723" lon="3.01397">
        <ele>-3.32</ele>
        <time>2019-12-30T10:09:51Z</time>
      </trkpt>
      <trkpt lat="43.0375" lon="3.01365">
        <ele>-2.7</ele>
        <time>2019-12-30T10:10:01Z</time>
      </trkpt>
      <trkpt lat="43.03754" lon="3.01362">
        <ele>-3.33</ele>
        <time>2019-12-30T10:10:02Z</time>
      </trkpt>
      <trkpt lat="43.03771" lon="3.0134">
        <ele>-2.41</ele>
        <time>2019-12-30T10:10:08Z</time>
      </trkpt>
      <trkpt lat="43.03778" lon="3.01326">
        <ele>-3.13</ele>
        <time>2019-12-30T10:10:11Z</time>
      </trkpt>
      <trkpt lat="43.03781" lon="3.01321">
        <ele>-2.24</ele>
        <time>2019-12-30T10:10:12Z</time>
      </trkpt>
      <trkpt lat="43.03783" lon="3.01316">
        <ele>-2.3</ele>
        <time>2019-12-30T10:10:13Z</time>
      </trkpt>
      <trkpt lat="43.03797" lon="3.01291">
        <ele>-2</ele>
        <time>2019-12-30T10:10:18Z</time>
      </trkpt>
      <trkpt lat="43.03803" lon="3.01282">
        <ele>-2.66</ele>
        <time>2019-12-30T10:10:20Z</time>
      </trkpt>
      <trkpt lat="43.0381" lon="3.01259">
        <ele>-1.8</ele>
        <time>2019-12-30T10:10:39Z</time>
      </trkpt>
      <trkpt lat="43.03779" lon="3.0123">
        <ele>-2.23</ele>
        <time>2019-12-30T10:10:50Z</time>
      </trkpt>
      <trkpt lat="43.03743" lon="3.01196">
        <ele>-2.84</ele>
        <time>2019-12-30T10:11:01Z</time>
      </trkpt>
      <trkpt lat="43.03701" lon="3.01161">
        <ele>-3.48</ele>
        <time>2019-12-30T10:11:15Z</time>
      </trkpt>
      <trkpt lat="43.03698" lon="3.0116">
        <ele>-3.1</ele>
        <time>2019-12-30T10:11:16Z</time>
      </trkpt>
      <trkpt lat="43.0366" lon="3.01149">
        <ele>-3.48</ele>
        <time>2019-12-30T10:11:28Z</time>
      </trkpt>
      <trkpt lat="43.03604" lon="3.01161">
        <ele>-3.11</ele>
        <time>2019-12-30T10:11:45Z</time>
      </trkpt>
      <trkpt lat="43.03559" lon="3.01163">
        <ele>-1.75</ele>
        <time>2019-12-30T10:12:01Z</time>
      </trkpt>
      <trkpt lat="43.03547" lon="3.01154">
        <ele>-1.4</ele>
        <time>2019-12-30T10:12:07Z</time>
      </trkpt>
      <trkpt lat="43.03547" lon="3.01151">
        <ele>-1.23</ele>
        <time>2019-12-30T10:12:08Z</time>
      </trkpt>
      <trkpt lat="43.03546" lon="3.01145">
        <ele>-1.63</ele>
        <time>2019-12-30T10:12:09Z</time>
      </trkpt>
      <trkpt lat="43.03545" lon="3.0114">
        <ele>-2.06</ele>
        <time>2019-12-30T10:12:10Z</time>
      </trkpt>
      <trkpt lat="43.03544" lon="3.01136">
        <ele>-2.19</ele>
        <time>2019-12-30T10:12:11Z</time>
      </trkpt>
      <trkpt lat="43.03525" lon="3.01058">
        <ele>-2.03</ele>
        <time>2019-12-30T10:12:26Z</time>
      </trkpt>
      <trkpt lat="43.03522" lon="3.01052">
        <ele>-2.65</ele>
        <time>2019-12-30T10:12:27Z</time>
      </trkpt>
      <trkpt lat="43.03499" lon="3.01003">
        <ele>-1.73</ele>
        <time>2019-12-30T10:12:36Z</time>
      </trkpt>
      <trkpt lat="43.03496" lon="3.00998">
        <ele>-2.99</ele>
        <time>2019-12-30T10:12:37Z</time>
      </trkpt>
      <trkpt lat="43.0348" lon="3.00971">
        <ele>-1.99</ele>
        <time>2019-12-30T10:12:42Z</time>
      </trkpt>
      <trkpt lat="43.03478" lon="3.00965">
        <ele>-1.37</ele>
        <time>2019-12-30T10:12:43Z</time>
      </trkpt>
      <trkpt lat="43.03476" lon="3.00959">
        <ele>-2.46</ele>
        <time>2019-12-30T10:12:44Z</time>
      </trkpt>
      <trkpt lat="43.03471" lon="3.00947">
        <ele>-1.13</ele>
        <time>2019-12-30T10:12:46Z</time>
      </trkpt>
      <trkpt lat="43.03469" lon="3.0094">
        <ele>-1.47</ele>
        <time>2019-12-30T10:12:47Z</time>
      </trkpt>
      <trkpt lat="43.03468" lon="3.00934">
        <ele>-1.11</ele>
        <time>2019-12-30T10:12:48Z</time>
      </trkpt>
      <trkpt lat="43.03467" lon="3.00928">
        <ele>-1.74</ele>
        <time>2019-12-30T10:12:49Z</time>
      </trkpt>
      <trkpt lat="43.03466" lon="3.00922">
        <ele>-1.51</ele>
        <time>2019-12-30T10:12:50Z</time>
      </trkpt>
      <trkpt lat="43.03465" lon="3.00916">
        <ele>-1.11</ele>
        <time>2019-12-30T10:12:51Z</time>
      </trkpt>
      <trkpt lat="43.0346" lon="3.00835">
        <ele>-1.03</ele>
        <time>2019-12-30T10:13:03Z</time>
      </trkpt>
      <trkpt lat="43.03461" lon="3.00821">
        <ele>-0.63</ele>
        <time>2019-12-30T10:13:05Z</time>
      </trkpt>
      <trkpt lat="43.03462" lon="3.00794">
        <ele>-0.26</ele>
        <time>2019-12-30T10:13:09Z</time>
      </trkpt>
      <trkpt lat="43.03464" lon="3.00781">
        <ele>-0.97</ele>
        <time>2019-12-30T10:13:11Z</time>
      </trkpt>
      <trkpt lat="43.03462" lon="3.00774">
        <ele>-0.8</ele>
        <time>2019-12-30T10:13:12Z</time>
      </trkpt>
      <trkpt lat="43.0346" lon="3.00767">
        <ele>-0.32</ele>
        <time>2019-12-30T10:13:13Z</time>
      </trkpt>
      <trkpt lat="43.03458" lon="3.0076">
        <ele>-0.63</ele>
        <time>2019-12-30T10:13:14Z</time>
      </trkpt>
      <trkpt lat="43.03458" lon="3.00753">
        <ele>-0.17</ele>
        <time>2019-12-30T10:13:15Z</time>
      </trkpt>
      <trkpt lat="43.03457" lon="3.00746">
        <ele>-0.69</ele>
        <time>2019-12-30T10:13:16Z</time>
      </trkpt>
      <trkpt lat="43.03456" lon="3.00677">
        <ele>0.52</ele>
        <time>2019-12-30T10:13:26Z</time>
      </trkpt>
      <trkpt lat="43.03452" lon="3.00635">
        <ele>-0.64</ele>
        <time>2019-12-30T10:13:36Z</time>
      </trkpt>
      <trkpt lat="43.03429" lon="3.00596">
        <ele>-0.84</ele>
        <time>2019-12-30T10:13:46Z</time>
      </trkpt>
      <trkpt lat="43.0341" lon="3.00543">
        <ele>-1.52</ele>
        <time>2019-12-30T10:13:58Z</time>
      </trkpt>
      <trkpt lat="43.03404" lon="3.00482">
        <ele>-1.52</ele>
        <time>2019-12-30T10:14:11Z</time>
      </trkpt>
      <trkpt lat="43.03416" lon="3.0042">
        <ele>-1.59</ele>
        <time>2019-12-30T10:14:24Z</time>
      </trkpt>
      <trkpt lat="43.03436" lon="3.00341">
        <ele>-1.69</ele>
        <time>2019-12-30T10:14:40Z</time>
      </trkpt>
      <trkpt lat="43.03463" lon="3.00281">
        <ele>4.5</ele>
        <time>2019-12-30T10:14:55Z</time>
      </trkpt>
      <trkpt lat="43.03475" lon="3.00248">
        <ele>1.32</ele>
        <time>2019-12-30T10:16:37Z</time>
      </trkpt>
      <trkpt lat="43.03457" lon="3.0022">
        <ele>1.3</ele>
        <time>2019-12-30T10:16:38Z</time>
      </trkpt>
      <trkpt lat="43.03456" lon="3.00219">
        <ele>1.36</ele>
        <time>2019-12-30T10:16:39Z</time>
      </trkpt>
      <trkpt lat="43.03455" lon="3.00217">
        <ele>1.31</ele>
        <time>2019-12-30T10:16:40Z</time>
      </trkpt>
      <trkpt lat="43.03454" lon="3.00216">
        <ele>1.51</ele>
        <time>2019-12-30T10:16:41Z</time>
      </trkpt>
      <trkpt lat="43.03453" lon="3.00215">
        <ele>1.34</ele>
        <time>2019-12-30T10:16:42Z</time>
      </trkpt>
      <trkpt lat="43.03425" lon="3.00183">
        <ele>1.29</ele>
        <time>2019-12-30T10:16:52Z</time>
      </trkpt>
      <trkpt lat="43.03383" lon="3.00132">
        <ele>0.73</ele>
        <time>2019-12-30T10:17:02Z</time>
      </trkpt>
      <trkpt lat="43.0332" lon="3.00025">
        <ele>-1.11</ele>
        <time>2019-12-30T10:17:18Z</time>
      </trkpt>
      <trkpt lat="43.03298" lon="2.99992">
        <ele>-1.24</ele>
        <time>2019-12-30T10:17:24Z</time>
      </trkpt>
      <trkpt lat="43.03295" lon="2.99987">
        <ele>-1.73</ele>
        <time>2019-12-30T10:17:25Z</time>
      </trkpt>
      <trkpt lat="43.03292" lon="2.99981">
        <ele>-1.33</ele>
        <time>2019-12-30T10:17:26Z</time>
      </trkpt>
      <trkpt lat="43.0324" lon="2.99903">
        <ele>-1.01</ele>
        <time>2019-12-30T10:17:40Z</time>
      </trkpt>
      <trkpt lat="43.03228" lon="2.99879">
        <ele>-0.75</ele>
        <time>2019-12-30T10:17:44Z</time>
      </trkpt>
      <trkpt lat="43.03199" lon="2.99771">
        <ele>-0.38</ele>
        <time>2019-12-30T10:17:59Z</time>
      </trkpt>
      <trkpt lat="43.03198" lon="2.99763">
        <ele>-0.42</ele>
        <time>2019-12-30T10:18:00Z</time>
      </trkpt>
      <trkpt lat="43.03194" lon="2.99701">
        <ele>-0.28</ele>
        <time>2019-12-30T10:18:08Z</time>
      </trkpt>
      <trkpt lat="43.03192" lon="2.99694">
        <ele>-0.94</ele>
        <time>2019-12-30T10:18:09Z</time>
      </trkpt>
      <trkpt lat="43.03189" lon="2.99689">
        <ele>-0.41</ele>
        <time>2019-12-30T10:18:10Z</time>
      </trkpt>
      <trkpt lat="43.03185" lon="2.99684">
        <ele>-0.39</ele>
        <time>2019-12-30T10:18:11Z</time>
      </trkpt>
      <trkpt lat="43.0318" lon="2.99681">
        <ele>-1.06</ele>
        <time>2019-12-30T10:18:12Z</time>
      </trkpt>
      <trkpt lat="43.03175" lon="2.99678">
        <ele>-0.83</ele>
        <time>2019-12-30T10:18:13Z</time>
      </trkpt>
      <trkpt lat="43.03122" lon="2.9965">
        <ele>-0.82</ele>
        <time>2019-12-30T10:18:23Z</time>
      </trkpt>
      <trkpt lat="43.03116" lon="2.99646">
        <ele>-0.53</ele>
        <time>2019-12-30T10:18:24Z</time>
      </trkpt>
      <trkpt lat="43.03112" lon="2.99642">
        <ele>-0.06</ele>
        <time>2019-12-30T10:18:25Z</time>
      </trkpt>
      <trkpt lat="43.03108" lon="2.99637">
        <ele>-0.05</ele>
        <time>2019-12-30T10:18:26Z</time>
      </trkpt>
      <trkpt lat="43.03104" lon="2.99631">
        <ele>-0.15</ele>
        <time>2019-12-30T10:18:27Z</time>
      </trkpt>
      <trkpt lat="43.031" lon="2.99625">
        <ele>0.6</ele>
        <time>2019-12-30T10:18:28Z</time>
      </trkpt>
      <trkpt lat="43.03095" lon="2.99613">
        <ele>1.46</ele>
        <time>2019-12-30T10:18:30Z</time>
      </trkpt>
      <trkpt lat="43.03094" lon="2.99606">
        <ele>1.43</ele>
        <time>2019-12-30T10:18:31Z</time>
      </trkpt>
      <trkpt lat="43.03094" lon="2.99598">
        <ele>1.75</ele>
        <time>2019-12-30T10:18:32Z</time>
      </trkpt>
      <trkpt lat="43.03094" lon="2.99591">
        <ele>1.88</ele>
        <time>2019-12-30T10:18:33Z</time>
      </trkpt>
      <trkpt lat="43.03095" lon="2.99583">
        <ele>2.67</ele>
        <time>2019-12-30T10:18:34Z</time>
      </trkpt>
      <trkpt lat="43.03099" lon="2.99526">
        <ele>5.85</ele>
        <time>2019-12-30T10:18:43Z</time>
      </trkpt>
      <trkpt lat="43.031" lon="2.99484">
        <ele>6.95</ele>
        <time>2019-12-30T10:18:49Z</time>
      </trkpt>
      <trkpt lat="43.03099" lon="2.99478">
        <ele>7.23</ele>
        <time>2019-12-30T10:18:50Z</time>
      </trkpt>
      <trkpt lat="43.03097" lon="2.99472">
        <ele>7.88</ele>
        <time>2019-12-30T10:18:51Z</time>
      </trkpt>
      <trkpt lat="43.03097" lon="2.99466">
        <ele>7.31</ele>
        <time>2019-12-30T10:18:52Z</time>
      </trkpt>
      <trkpt lat="43.03097" lon="2.99459">
        <ele>7.56</ele>
        <time>2019-12-30T10:18:53Z</time>
      </trkpt>
      <trkpt lat="43.03086" lon="2.99367">
        <ele>7.49</ele>
        <time>2019-12-30T10:20:16Z</time>
      </trkpt>
      <trkpt lat="43.03074" lon="2.99322">
        <ele>7.65</ele>
        <time>2019-12-30T10:20:17Z</time>
      </trkpt>
      <trkpt lat="43.03072" lon="2.99309">
        <ele>7.85</ele>
        <time>2019-12-30T10:20:18Z</time>
      </trkpt>
      <trkpt lat="43.03051" lon="2.99312">
        <ele>7.78</ele>
        <time>2019-12-30T10:20:19Z</time>
      </trkpt>
      <trkpt lat="43.03047" lon="2.99312">
        <ele>7.75</ele>
        <time>2019-12-30T10:20:20Z</time>
      </trkpt>
      <trkpt lat="43.03042" lon="2.99311">
        <ele>7.94</ele>
        <time>2019-12-30T10:20:21Z</time>
      </trkpt>
      <trkpt lat="43.03038" lon="2.99309">
        <ele>8.07</ele>
        <time>2019-12-30T10:20:22Z</time>
      </trkpt>
      <trkpt lat="43.03034" lon="2.99308">
        <ele>7.81</ele>
        <time>2019-12-30T10:20:23Z</time>
      </trkpt>
      <trkpt lat="43.03007" lon="2.99301">
        <ele>8.93</ele>
        <time>2019-12-30T10:20:30Z</time>
      </trkpt>
      <trkpt lat="43.02996" lon="2.99298">
        <ele>8.64</ele>
        <time>2019-12-30T10:20:33Z</time>
      </trkpt>
      <trkpt lat="43.02955" lon="2.99288">
        <ele>8.87</ele>
        <time>2019-12-30T10:20:43Z</time>
      </trkpt>
      <trkpt lat="43.02951" lon="2.99288">
        <ele>7.83</ele>
        <time>2019-12-30T10:20:44Z</time>
      </trkpt>
      <trkpt lat="43.02938" lon="2.99287">
        <ele>8.32</ele>
        <time>2019-12-30T10:20:47Z</time>
      </trkpt>
      <trkpt lat="43.0285" lon="2.99265">
        <ele>8.15</ele>
        <time>2019-12-30T10:21:04Z</time>
      </trkpt>
      <trkpt lat="43.02827" lon="2.9926">
        <ele>8.16</ele>
        <time>2019-12-30T10:21:08Z</time>
      </trkpt>
      <trkpt lat="43.02822" lon="2.99258">
        <ele>7.84</ele>
        <time>2019-12-30T10:21:09Z</time>
      </trkpt>
      <trkpt lat="43.02734" lon="2.99232">
        <ele>6.71</ele>
        <time>2019-12-30T10:21:25Z</time>
      </trkpt>
      <trkpt lat="43.02725" lon="2.99229">
        <ele>6.53</ele>
        <time>2019-12-30T10:21:27Z</time>
      </trkpt>
      <trkpt lat="43.02707" lon="2.99221">
        <ele>6.3</ele>
        <time>2019-12-30T10:21:31Z</time>
      </trkpt>
      <trkpt lat="43.02703" lon="2.9922">
        <ele>6.62</ele>
        <time>2019-12-30T10:21:32Z</time>
      </trkpt>
      <trkpt lat="43.02699" lon="2.9922">
        <ele>6.15</ele>
        <time>2019-12-30T10:21:33Z</time>
      </trkpt>
      <trkpt lat="43.02694" lon="2.99221">
        <ele>6.17</ele>
        <time>2019-12-30T10:21:34Z</time>
      </trkpt>
      <trkpt lat="43.0269" lon="2.99224">
        <ele>5.43</ele>
        <time>2019-12-30T10:21:35Z</time>
      </trkpt>
      <trkpt lat="43.02687" lon="2.99229">
        <ele>5.5</ele>
        <time>2019-12-30T10:21:36Z</time>
      </trkpt>
      <trkpt lat="43.02685" lon="2.99235">
        <ele>6.1</ele>
        <time>2019-12-30T10:21:37Z</time>
      </trkpt>
      <trkpt lat="43.02683" lon="2.99242">
        <ele>5.82</ele>
        <time>2019-12-30T10:21:38Z</time>
      </trkpt>
      <trkpt lat="43.02659" lon="2.99316">
        <ele>5.57</ele>
        <time>2019-12-30T10:21:48Z</time>
      </trkpt>
      <trkpt lat="43.02655" lon="2.99323">
        <ele>5.79</ele>
        <time>2019-12-30T10:21:49Z</time>
      </trkpt>
      <trkpt lat="43.0265" lon="2.99327">
        <ele>5.73</ele>
        <time>2019-12-30T10:21:50Z</time>
      </trkpt>
      <trkpt lat="43.02644" lon="2.9933">
        <ele>5.99</ele>
        <time>2019-12-30T10:21:51Z</time>
      </trkpt>
      <trkpt lat="43.02639" lon="2.99332">
        <ele>5.8</ele>
        <time>2019-12-30T10:21:52Z</time>
      </trkpt>
      <trkpt lat="43.02628" lon="2.99338">
        <ele>6.04</ele>
        <time>2019-12-30T10:21:54Z</time>
      </trkpt>
      <trkpt lat="43.02624" lon="2.99343">
        <ele>5.92</ele>
        <time>2019-12-30T10:21:55Z</time>
      </trkpt>
      <trkpt lat="43.0262" lon="2.99349">
        <ele>5.8</ele>
        <time>2019-12-30T10:21:56Z</time>
      </trkpt>
      <trkpt lat="43.02617" lon="2.99356">
        <ele>5.69</ele>
        <time>2019-12-30T10:21:57Z</time>
      </trkpt>
      <trkpt lat="43.02615" lon="2.99363">
        <ele>5.94</ele>
        <time>2019-12-30T10:21:58Z</time>
      </trkpt>
      <trkpt lat="43.02614" lon="2.99371">
        <ele>5.93</ele>
        <time>2019-12-30T10:21:59Z</time>
      </trkpt>
      <trkpt lat="43.02612" lon="2.99379">
        <ele>5.81</ele>
        <time>2019-12-30T10:22:00Z</time>
      </trkpt>
      <trkpt lat="43.02611" lon="2.99386">
        <ele>5.5</ele>
        <time>2019-12-30T10:22:01Z</time>
      </trkpt>
      <trkpt lat="43.02608" lon="2.99394">
        <ele>4.54</ele>
        <time>2019-12-30T10:22:02Z</time>
      </trkpt>
      <trkpt lat="43.02606" lon="2.99401">
        <ele>5.29</ele>
        <time>2019-12-30T10:22:03Z</time>
      </trkpt>
      <trkpt lat="43.02605" lon="2.9941">
        <ele>4.98</ele>
        <time>2019-12-30T10:22:04Z</time>
      </trkpt>
      <trkpt lat="43.02606" lon="2.99418">
        <ele>5.05</ele>
        <time>2019-12-30T10:22:05Z</time>
      </trkpt>
      <trkpt lat="43.02609" lon="2.99425">
        <ele>4.94</ele>
        <time>2019-12-30T10:22:06Z</time>
      </trkpt>
      <trkpt lat="43.02612" lon="2.99432">
        <ele>4.34</ele>
        <time>2019-12-30T10:22:07Z</time>
      </trkpt>
      <trkpt lat="43.02616" lon="2.99439">
        <ele>4.26</ele>
        <time>2019-12-30T10:22:08Z</time>
      </trkpt>
      <trkpt lat="43.0262" lon="2.99446">
        <ele>4.29</ele>
        <time>2019-12-30T10:22:09Z</time>
      </trkpt>
      <trkpt lat="43.02623" lon="2.99453">
        <ele>4.22</ele>
        <time>2019-12-30T10:22:10Z</time>
      </trkpt>
      <trkpt lat="43.02626" lon="2.9946">
        <ele>4.63</ele>
        <time>2019-12-30T10:22:11Z</time>
      </trkpt>
      <trkpt lat="43.02629" lon="2.99468">
        <ele>5.26</ele>
        <time>2019-12-30T10:22:12Z</time>
      </trkpt>
      <trkpt lat="43.02633" lon="2.99484">
        <ele>5.04</ele>
        <time>2019-12-30T10:22:14Z</time>
      </trkpt>
      <trkpt lat="43.02635" lon="2.99492">
        <ele>4.26</ele>
        <time>2019-12-30T10:22:15Z</time>
      </trkpt>
      <trkpt lat="43.02637" lon="2.99498">
        <ele>4.21</ele>
        <time>2019-12-30T10:22:16Z</time>
      </trkpt>
      <trkpt lat="43.02638" lon="2.99506">
        <ele>4.26</ele>
        <time>2019-12-30T10:22:17Z</time>
      </trkpt>
      <trkpt lat="43.02638" lon="2.99515">
        <ele>4.13</ele>
        <time>2019-12-30T10:22:18Z</time>
      </trkpt>
      <trkpt lat="43.02646" lon="2.99644">
        <ele>4.06</ele>
        <time>2019-12-30T10:22:32Z</time>
      </trkpt>
      <trkpt lat="43.02646" lon="2.99662">
        <ele>3.96</ele>
        <time>2019-12-30T10:22:34Z</time>
      </trkpt>
      <trkpt lat="43.02645" lon="2.99671">
        <ele>4.01</ele>
        <time>2019-12-30T10:22:35Z</time>
      </trkpt>
      <trkpt lat="43.02639" lon="2.99707">
        <ele>4.05</ele>
        <time>2019-12-30T10:22:39Z</time>
      </trkpt>
      <trkpt lat="43.02598" lon="2.99821">
        <ele>2.3</ele>
        <time>2019-12-30T10:22:52Z</time>
      </trkpt>
      <trkpt lat="43.02558" lon="2.99918">
        <ele>3.29</ele>
        <time>2019-12-30T10:23:04Z</time>
      </trkpt>
      <trkpt lat="43.02498" lon="3.00061">
        <ele>3.53</ele>
        <time>2019-12-30T10:23:21Z</time>
      </trkpt>
      <trkpt lat="43.02435" lon="3.00195">
        <ele>6.81</ele>
        <time>2019-12-30T10:23:38Z</time>
      </trkpt>
      <trkpt lat="43.0243" lon="3.002">
        <ele>5.88</ele>
        <time>2019-12-30T10:23:39Z</time>
      </trkpt>
      <trkpt lat="43.02424" lon="3.00205">
        <ele>7.2</ele>
        <time>2019-12-30T10:23:40Z</time>
      </trkpt>
      <trkpt lat="43.02419" lon="3.00209">
        <ele>7.42</ele>
        <time>2019-12-30T10:23:41Z</time>
      </trkpt>
      <trkpt lat="43.02413" lon="3.00214">
        <ele>7.62</ele>
        <time>2019-12-30T10:23:42Z</time>
      </trkpt>
      <trkpt lat="43.02408" lon="3.00219">
        <ele>7.79</ele>
        <time>2019-12-30T10:23:43Z</time>
      </trkpt>
      <trkpt lat="43.02381" lon="3.00246">
        <ele>9.54</ele>
        <time>2019-12-30T10:23:49Z</time>
      </trkpt>
      <trkpt lat="43.0235" lon="3.00271">
        <ele>7.64</ele>
        <time>2019-12-30T10:23:57Z</time>
      </trkpt>
      <trkpt lat="43.02346" lon="3.00276">
        <ele>7.89</ele>
        <time>2019-12-30T10:23:58Z</time>
      </trkpt>
      <trkpt lat="43.02339" lon="3.00288">
        <ele>7.26</ele>
        <time>2019-12-30T10:24:00Z</time>
      </trkpt>
      <trkpt lat="43.02336" lon="3.00295">
        <ele>6.98</ele>
        <time>2019-12-30T10:24:01Z</time>
      </trkpt>
      <trkpt lat="43.02293" lon="3.00388">
        <ele>4.68</ele>
        <time>2019-12-30T10:24:14Z</time>
      </trkpt>
      <trkpt lat="43.0225" lon="3.00485">
        <ele>3.33</ele>
        <time>2019-12-30T10:24:29Z</time>
      </trkpt>
      <trkpt lat="43.02247" lon="3.0049">
        <ele>2.88</ele>
        <time>2019-12-30T10:24:30Z</time>
      </trkpt>
      <trkpt lat="43.02242" lon="3.00496">
        <ele>2.94</ele>
        <time>2019-12-30T10:24:31Z</time>
      </trkpt>
      <trkpt lat="43.02234" lon="3.00506">
        <ele>3.38</ele>
        <time>2019-12-30T10:24:33Z</time>
      </trkpt>
      <trkpt lat="43.0223" lon="3.00512">
        <ele>3.33</ele>
        <time>2019-12-30T10:24:34Z</time>
      </trkpt>
      <trkpt lat="43.02227" lon="3.00519">
        <ele>3.63</ele>
        <time>2019-12-30T10:24:35Z</time>
      </trkpt>
      <trkpt lat="43.02222" lon="3.00532">
        <ele>3.62</ele>
        <time>2019-12-30T10:24:37Z</time>
      </trkpt>
      <trkpt lat="43.02201" lon="3.00596">
        <ele>3.96</ele>
        <time>2019-12-30T10:24:49Z</time>
      </trkpt>
      <trkpt lat="43.02195" lon="3.00617">
        <ele>4.47</ele>
        <time>2019-12-30T10:24:52Z</time>
      </trkpt>
      <trkpt lat="43.0219" lon="3.0063">
        <ele>4.4</ele>
        <time>2019-12-30T10:24:54Z</time>
      </trkpt>
      <trkpt lat="43.02187" lon="3.00637">
        <ele>4.81</ele>
        <time>2019-12-30T10:24:55Z</time>
      </trkpt>
      <trkpt lat="43.02183" lon="3.00642">
        <ele>4.67</ele>
        <time>2019-12-30T10:24:56Z</time>
      </trkpt>
      <trkpt lat="43.0218" lon="3.00647">
        <ele>4.18</ele>
        <time>2019-12-30T10:24:57Z</time>
      </trkpt>
      <trkpt lat="43.02175" lon="3.00651">
        <ele>4.52</ele>
        <time>2019-12-30T10:24:58Z</time>
      </trkpt>
      <trkpt lat="43.02171" lon="3.00655">
        <ele>4.74</ele>
        <time>2019-12-30T10:24:59Z</time>
      </trkpt>
      <trkpt lat="43.02166" lon="3.00658">
        <ele>4.11</ele>
        <time>2019-12-30T10:25:00Z</time>
      </trkpt>
      <trkpt lat="43.02162" lon="3.00663">
        <ele>4.46</ele>
        <time>2019-12-30T10:25:01Z</time>
      </trkpt>
      <trkpt lat="43.02159" lon="3.00669">
        <ele>4.53</ele>
        <time>2019-12-30T10:25:02Z</time>
      </trkpt>
      <trkpt lat="43.02156" lon="3.00676">
        <ele>4.51</ele>
        <time>2019-12-30T10:25:03Z</time>
      </trkpt>
      <trkpt lat="43.02154" lon="3.00683">
        <ele>4.2</ele>
        <time>2019-12-30T10:25:04Z</time>
      </trkpt>
      <trkpt lat="43.02144" lon="3.00711">
        <ele>4.53</ele>
        <time>2019-12-30T10:25:08Z</time>
      </trkpt>
      <trkpt lat="43.02143" lon="3.00718">
        <ele>3.53</ele>
        <time>2019-12-30T10:25:09Z</time>
      </trkpt>
      <trkpt lat="43.02136" lon="3.00739">
        <ele>3.95</ele>
        <time>2019-12-30T10:25:12Z</time>
      </trkpt>
      <trkpt lat="43.02136" lon="3.00743">
        <ele>3.72</ele>
        <time>2019-12-30T10:25:13Z</time>
      </trkpt>
      <trkpt lat="43.02137" lon="3.00746">
        <ele>3.61</ele>
        <time>2019-12-30T10:25:14Z</time>
      </trkpt>
      <trkpt lat="43.02139" lon="3.00746">
        <ele>3.61</ele>
        <time>2019-12-30T10:25:15Z</time>
      </trkpt>
      <trkpt lat="43.0214" lon="3.00745">
        <ele>3.63</ele>
        <time>2019-12-30T10:25:16Z</time>
      </trkpt>
      <trkpt lat="43.02141" lon="3.00743">
        <ele>3.65</ele>
        <time>2019-12-30T10:25:17Z</time>
      </trkpt>
      <trkpt lat="43.0216" lon="3.00729">
        <ele>3.8</ele>
        <time>2019-12-30T10:25:28Z</time>
      </trkpt>
      <trkpt lat="43.02189" lon="3.0072">
        <ele>3.4</ele>
        <time>2019-12-30T10:25:40Z</time>
      </trkpt>
      <trkpt lat="43.02209" lon="3.00723">
        <ele>3.26</ele>
        <time>2019-12-30T10:25:51Z</time>
      </trkpt>
      <trkpt lat="43.02211" lon="3.00722">
        <ele>3.39</ele>
        <time>2019-12-30T10:25:52Z</time>
      </trkpt>
      <trkpt lat="43.02212" lon="3.00722">
        <ele>3.46</ele>
        <time>2019-12-30T10:25:53Z</time>
      </trkpt>
      <trkpt lat="43.02214" lon="3.00722">
        <ele>3.56</ele>
        <time>2019-12-30T10:25:54Z</time>
      </trkpt>
      <trkpt lat="43.02215" lon="3.00722">
        <ele>3.58</ele>
        <time>2019-12-30T10:25:55Z</time>
      </trkpt>
      <trkpt lat="43.02217" lon="3.00721">
        <ele>3.6</ele>
        <time>2019-12-30T10:25:56Z</time>
      </trkpt>
      <trkpt lat="43.02218" lon="3.00721">
        <ele>3.57</ele>
        <time>2019-12-30T10:25:57Z</time>
      </trkpt>
      <trkpt lat="43.02254" lon="3.00717">
        <ele>3.32</ele>
        <time>2019-12-30T10:26:08Z</time>
      </trkpt>
      <trkpt lat="43.02272" lon="3.00713">
        <ele>3.31</ele>
        <time>2019-12-30T10:26:12Z</time>
      </trkpt>
      <trkpt lat="43.02276" lon="3.0071">
        <ele>3.65</ele>
        <time>2019-12-30T10:26:13Z</time>
      </trkpt>
      <trkpt lat="43.0233" lon="3.0068">
        <ele>3.69</ele>
        <time>2019-12-30T10:26:24Z</time>
      </trkpt>
      <trkpt lat="43.02335" lon="3.0068">
        <ele>3.44</ele>
        <time>2019-12-30T10:26:25Z</time>
      </trkpt>
      <trkpt lat="43.0234" lon="3.00683">
        <ele>3.26</ele>
        <time>2019-12-30T10:26:26Z</time>
      </trkpt>
      <trkpt lat="43.02347" lon="3.00693">
        <ele>3.52</ele>
        <time>2019-12-30T10:26:28Z</time>
      </trkpt>
      <trkpt lat="43.02347" lon="3.007">
        <ele>4.06</ele>
        <time>2019-12-30T10:26:29Z</time>
      </trkpt>
      <trkpt lat="43.02347" lon="3.00706">
        <ele>3.87</ele>
        <time>2019-12-30T10:26:30Z</time>
      </trkpt>
      <trkpt lat="43.02345" lon="3.00711">
        <ele>4.31</ele>
        <time>2019-12-30T10:26:31Z</time>
      </trkpt>
      <trkpt lat="43.02344" lon="3.00716">
        <ele>4.26</ele>
        <time>2019-12-30T10:26:32Z</time>
      </trkpt>
      <trkpt lat="43.02343" lon="3.0072">
        <ele>4.3</ele>
        <time>2019-12-30T10:26:33Z</time>
      </trkpt>
      <trkpt lat="43.02341" lon="3.00753">
        <ele>4.4</ele>
        <time>2019-12-30T10:26:39Z</time>
      </trkpt>
      <trkpt lat="43.02343" lon="3.00759">
        <ele>4.06</ele>
        <time>2019-12-30T10:26:40Z</time>
      </trkpt>
      <trkpt lat="43.02345" lon="3.00765">
        <ele>4.39</ele>
        <time>2019-12-30T10:26:41Z</time>
      </trkpt>
      <trkpt lat="43.02346" lon="3.00771">
        <ele>4.16</ele>
        <time>2019-12-30T10:26:42Z</time>
      </trkpt>
      <trkpt lat="43.02348" lon="3.00777">
        <ele>4.31</ele>
        <time>2019-12-30T10:26:43Z</time>
      </trkpt>
      <trkpt lat="43.0235" lon="3.00782">
        <ele>4.35</ele>
        <time>2019-12-30T10:26:44Z</time>
      </trkpt>
      <trkpt lat="43.02351" lon="3.00788">
        <ele>4.9</ele>
        <time>2019-12-30T10:26:45Z</time>
      </trkpt>
      <trkpt lat="43.02356" lon="3.00805">
        <ele>5.28</ele>
        <time>2019-12-30T10:26:48Z</time>
      </trkpt>
      <trkpt lat="43.02361" lon="3.00822">
        <ele>5.27</ele>
        <time>2019-12-30T10:26:51Z</time>
      </trkpt>
      <trkpt lat="43.02361" lon="3.00842">
        <ele>5.02</ele>
        <time>2019-12-30T10:26:54Z</time>
      </trkpt>
      <trkpt lat="43.02361" lon="3.00848">
        <ele>5.28</ele>
        <time>2019-12-30T10:26:55Z</time>
      </trkpt>
      <trkpt lat="43.0236" lon="3.00854">
        <ele>5.5</ele>
        <time>2019-12-30T10:26:56Z</time>
      </trkpt>
      <trkpt lat="43.02361" lon="3.00949">
        <ele>3.69</ele>
        <time>2019-12-30T10:27:09Z</time>
      </trkpt>
      <trkpt lat="43.02361" lon="3.00967">
        <ele>3.61</ele>
        <time>2019-12-30T10:27:11Z</time>
      </trkpt>
      <trkpt lat="43.02374" lon="3.0112">
        <ele>3.47</ele>
        <time>2019-12-30T10:27:28Z</time>
      </trkpt>
      <trkpt lat="43.02374" lon="3.01129">
        <ele>3.45</ele>
        <time>2019-12-30T10:27:29Z</time>
      </trkpt>
      <trkpt lat="43.02375" lon="3.01137">
        <ele>3.23</ele>
        <time>2019-12-30T10:27:30Z</time>
      </trkpt>
      <trkpt lat="43.0238" lon="3.01185">
        <ele>3.01</ele>
        <time>2019-12-30T10:27:36Z</time>
      </trkpt>
      <trkpt lat="43.02384" lon="3.01228">
        <ele>2.6</ele>
        <time>2019-12-30T10:27:42Z</time>
      </trkpt>
      <trkpt lat="43.02402" lon="3.01293">
        <ele>1.76</ele>
        <time>2019-12-30T10:27:50Z</time>
      </trkpt>
      <trkpt lat="43.02416" lon="3.01367">
        <ele>1.74</ele>
        <time>2019-12-30T10:27:59Z</time>
      </trkpt>
      <trkpt lat="43.02418" lon="3.01374">
        <ele>1.05</ele>
        <time>2019-12-30T10:28:00Z</time>
      </trkpt>
      <trkpt lat="43.02421" lon="3.01381">
        <ele>0.82</ele>
        <time>2019-12-30T10:28:01Z</time>
      </trkpt>
      <trkpt lat="43.02424" lon="3.01387">
        <ele>1.29</ele>
        <time>2019-12-30T10:28:02Z</time>
      </trkpt>
      <trkpt lat="43.02426" lon="3.01394">
        <ele>1.24</ele>
        <time>2019-12-30T10:28:03Z</time>
      </trkpt>
      <trkpt lat="43.02427" lon="3.01401">
        <ele>1.13</ele>
        <time>2019-12-30T10:28:04Z</time>
      </trkpt>
      <trkpt lat="43.02427" lon="3.01409">
        <ele>1.47</ele>
        <time>2019-12-30T10:28:05Z</time>
      </trkpt>
      <trkpt lat="43.02425" lon="3.01416">
        <ele>0.96</ele>
        <time>2019-12-30T10:28:06Z</time>
      </trkpt>
      <trkpt lat="43.02423" lon="3.01422">
        <ele>1.24</ele>
        <time>2019-12-30T10:28:07Z</time>
      </trkpt>
      <trkpt lat="43.02418" lon="3.01443">
        <ele>1.23</ele>
        <time>2019-12-30T10:28:10Z</time>
      </trkpt>
      <trkpt lat="43.02407" lon="3.01469">
        <ele>2.14</ele>
        <time>2019-12-30T10:28:14Z</time>
      </trkpt>
      <trkpt lat="43.02405" lon="3.01474">
        <ele>1.42</ele>
        <time>2019-12-30T10:28:15Z</time>
      </trkpt>
      <trkpt lat="43.02402" lon="3.0148">
        <ele>1.5</ele>
        <time>2019-12-30T10:28:16Z</time>
      </trkpt>
      <trkpt lat="43.02394" lon="3.01504">
        <ele>2.23</ele>
        <time>2019-12-30T10:28:20Z</time>
      </trkpt>
      <trkpt lat="43.02392" lon="3.01519">
        <ele>1.68</ele>
        <time>2019-12-30T10:28:28Z</time>
      </trkpt>
      <trkpt lat="43.02389" lon="3.01525">
        <ele>1.95</ele>
        <time>2019-12-30T10:28:45Z</time>
      </trkpt>
      <trkpt lat="43.02387" lon="3.01562">
        <ele>2.93</ele>
        <time>2019-12-30T10:28:55Z</time>
      </trkpt>
      <trkpt lat="43.02392" lon="3.01584">
        <ele>2.51</ele>
        <time>2019-12-30T10:28:59Z</time>
      </trkpt>
      <trkpt lat="43.02392" lon="3.01589">
        <ele>3.13</ele>
        <time>2019-12-30T10:29:00Z</time>
      </trkpt>
      <trkpt lat="43.02391" lon="3.01595">
        <ele>2.31</ele>
        <time>2019-12-30T10:29:01Z</time>
      </trkpt>
      <trkpt lat="43.0239" lon="3.01601">
        <ele>3.16</ele>
        <time>2019-12-30T10:29:02Z</time>
      </trkpt>
      <trkpt lat="43.02389" lon="3.01607">
        <ele>2.51</ele>
        <time>2019-12-30T10:29:03Z</time>
      </trkpt>
      <trkpt lat="43.02386" lon="3.01623">
        <ele>3.53</ele>
        <time>2019-12-30T10:29:06Z</time>
      </trkpt>
      <trkpt lat="43.02386" lon="3.01629">
        <ele>4.2</ele>
        <time>2019-12-30T10:29:07Z</time>
      </trkpt>
      <trkpt lat="43.02388" lon="3.01633">
        <ele>3.71</ele>
        <time>2019-12-30T10:29:08Z</time>
      </trkpt>
      <trkpt lat="43.02391" lon="3.01637">
        <ele>4.42</ele>
        <time>2019-12-30T10:29:09Z</time>
      </trkpt>
      <trkpt lat="43.02395" lon="3.0164">
        <ele>3.87</ele>
        <time>2019-12-30T10:29:10Z</time>
      </trkpt>
      <trkpt lat="43.02399" lon="3.01643">
        <ele>4.33</ele>
        <time>2019-12-30T10:29:11Z</time>
      </trkpt>
      <trkpt lat="43.02403" lon="3.01647">
        <ele>4.59</ele>
        <time>2019-12-30T10:29:12Z</time>
      </trkpt>
      <trkpt lat="43.02407" lon="3.0165">
        <ele>5.4</ele>
        <time>2019-12-30T10:29:13Z</time>
      </trkpt>
      <trkpt lat="43.0241" lon="3.01654">
        <ele>5.33</ele>
        <time>2019-12-30T10:29:14Z</time>
      </trkpt>
      <trkpt lat="43.02416" lon="3.01663">
        <ele>6.06</ele>
        <time>2019-12-30T10:29:16Z</time>
      </trkpt>
      <trkpt lat="43.02418" lon="3.01668">
        <ele>7.61</ele>
        <time>2019-12-30T10:29:17Z</time>
      </trkpt>
      <trkpt lat="43.0242" lon="3.01673">
        <ele>7.58</ele>
        <time>2019-12-30T10:29:18Z</time>
      </trkpt>
      <trkpt lat="43.02429" lon="3.01697">
        <ele>9.79</ele>
        <time>2019-12-30T10:29:23Z</time>
      </trkpt>
      <trkpt lat="43.02452" lon="3.0175">
        <ele>11.29</ele>
        <time>2019-12-30T10:29:36Z</time>
      </trkpt>
      <trkpt lat="43.02471" lon="3.01823">
        <ele>11.3</ele>
        <time>2019-12-30T10:29:51Z</time>
      </trkpt>
      <trkpt lat="43.02486" lon="3.01868">
        <ele>8.68</ele>
        <time>2019-12-30T10:29:58Z</time>
      </trkpt>
      <trkpt lat="43.02492" lon="3.01882">
        <ele>7.79</ele>
        <time>2019-12-30T10:30:00Z</time>
      </trkpt>
      <trkpt lat="43.02492" lon="3.01888">
        <ele>6.71</ele>
        <time>2019-12-30T10:30:01Z</time>
      </trkpt>
      <trkpt lat="43.02492" lon="3.01893">
        <ele>7.55</ele>
        <time>2019-12-30T10:30:02Z</time>
      </trkpt>
      <trkpt lat="43.02493" lon="3.01898">
        <ele>7.26</ele>
        <time>2019-12-30T10:30:03Z</time>
      </trkpt>
      <trkpt lat="43.02496" lon="3.01903">
        <ele>6.83</ele>
        <time>2019-12-30T10:30:04Z</time>
      </trkpt>
      <trkpt lat="43.02499" lon="3.01912">
        <ele>4.72</ele>
        <time>2019-12-30T10:30:06Z</time>
      </trkpt>
      <trkpt lat="43.025" lon="3.01927">
        <ele>5.14</ele>
        <time>2019-12-30T10:30:09Z</time>
      </trkpt>
      <trkpt lat="43.02513" lon="3.01931">
        <ele>3.71</ele>
        <time>2019-12-30T10:30:12Z</time>
      </trkpt>
      <trkpt lat="43.02518" lon="3.01933">
        <ele>4.84</ele>
        <time>2019-12-30T10:30:13Z</time>
      </trkpt>
      <trkpt lat="43.02527" lon="3.0194">
        <ele>4.57</ele>
        <time>2019-12-30T10:30:15Z</time>
      </trkpt>
      <trkpt lat="43.02561" lon="3.01944">
        <ele>5.46</ele>
        <time>2019-12-30T10:30:23Z</time>
      </trkpt>
      <trkpt lat="43.02593" lon="3.01955">
        <ele>7.32</ele>
        <time>2019-12-30T10:30:35Z</time>
      </trkpt>
      <trkpt lat="43.02607" lon="3.02002">
        <ele>5.53</ele>
        <time>2019-12-30T10:30:46Z</time>
      </trkpt>
      <trkpt lat="43.02596" lon="3.02026">
        <ele>6.68</ele>
        <time>2019-12-30T10:30:55Z</time>
      </trkpt>
      <trkpt lat="43.02582" lon="3.02059">
        <ele>9.37</ele>
        <time>2019-12-30T10:31:05Z</time>
      </trkpt>
      <trkpt lat="43.02563" lon="3.02099">
        <ele>10.9</ele>
        <time>2019-12-30T10:31:15Z</time>
      </trkpt>
      <trkpt lat="43.02556" lon="3.02119">
        <ele>12.26</ele>
        <time>2019-12-30T10:31:25Z</time>
      </trkpt>
      <trkpt lat="43.02558" lon="3.0212">
        <ele>12.18</ele>
        <time>2019-12-30T10:31:30Z</time>
      </trkpt>
      <trkpt lat="43.02559" lon="3.0212">
        <ele>12.08</ele>
        <time>2019-12-30T10:31:31Z</time>
      </trkpt>
      <trkpt lat="43.0256" lon="3.02121">
        <ele>11.72</ele>
        <time>2019-12-30T10:31:32Z</time>
      </trkpt>
      <trkpt lat="43.02561" lon="3.02122">
        <ele>11.91</ele>
        <time>2019-12-30T10:31:33Z</time>
      </trkpt>
      <trkpt lat="43.02562" lon="3.02124">
        <ele>11.75</ele>
        <time>2019-12-30T10:31:34Z</time>
      </trkpt>
      <trkpt lat="43.02571" lon="3.02142">
        <ele>10.81</ele>
        <time>2019-12-30T10:31:40Z</time>
      </trkpt>
      <trkpt lat="43.02572" lon="3.02147">
        <ele>10.85</ele>
        <time>2019-12-30T10:31:41Z</time>
      </trkpt>
      <trkpt lat="43.02572" lon="3.02152">
        <ele>10.68</ele>
        <time>2019-12-30T10:31:42Z</time>
      </trkpt>
      <trkpt lat="43.02572" lon="3.02182">
        <ele>11</ele>
        <time>2019-12-30T10:31:52Z</time>
      </trkpt>
      <trkpt lat="43.02574" lon="3.02188">
        <ele>10.94</ele>
        <time>2019-12-30T10:31:54Z</time>
      </trkpt>
      <trkpt lat="43.02574" lon="3.02192">
        <ele>10.94</ele>
        <time>2019-12-30T10:31:55Z</time>
      </trkpt>
      <trkpt lat="43.02574" lon="3.02196">
        <ele>11.05</ele>
        <time>2019-12-30T10:31:56Z</time>
      </trkpt>
      <trkpt lat="43.02573" lon="3.022">
        <ele>10.79</ele>
        <time>2019-12-30T10:31:57Z</time>
      </trkpt>
      <trkpt lat="43.02572" lon="3.02203">
        <ele>11.02</ele>
        <time>2019-12-30T10:31:58Z</time>
      </trkpt>
      <trkpt lat="43.0257" lon="3.02206">
        <ele>11.15</ele>
        <time>2019-12-30T10:31:59Z</time>
      </trkpt>
      <trkpt lat="43.02568" lon="3.02209">
        <ele>11.29</ele>
        <time>2019-12-30T10:32:00Z</time>
      </trkpt>
      <trkpt lat="43.02568" lon="3.02212">
        <ele>11.13</ele>
        <time>2019-12-30T10:32:01Z</time>
      </trkpt>
      <trkpt lat="43.02566" lon="3.02215">
        <ele>11.65</ele>
        <time>2019-12-30T10:32:02Z</time>
      </trkpt>
      <trkpt lat="43.02566" lon="3.02219">
        <ele>11.77</ele>
        <time>2019-12-30T10:32:03Z</time>
      </trkpt>
      <trkpt lat="43.02557" lon="3.02266">
        <ele>12.99</ele>
        <time>2019-12-30T10:32:14Z</time>
      </trkpt>
      <trkpt lat="43.02554" lon="3.0228">
        <ele>12.56</ele>
        <time>2019-12-30T10:32:17Z</time>
      </trkpt>
      <trkpt lat="43.02539" lon="3.02311">
        <ele>14.27</ele>
        <time>2019-12-30T10:32:26Z</time>
      </trkpt>
      <trkpt lat="43.02536" lon="3.02316">
        <ele>13.83</ele>
        <time>2019-12-30T10:32:39Z</time>
      </trkpt>
      <trkpt lat="43.02535" lon="3.02321">
        <ele>14.27</ele>
        <time>2019-12-30T10:33:08Z</time>
      </trkpt>
      <trkpt lat="43.02534" lon="3.02328">
        <ele>13.34</ele>
        <time>2019-12-30T10:33:22Z</time>
      </trkpt>
      <trkpt lat="43.02533" lon="3.0234">
        <ele>12.59</ele>
        <time>2019-12-30T10:33:24Z</time>
      </trkpt>
      <trkpt lat="43.02532" lon="3.02348">
        <ele>12.43</ele>
        <time>2019-12-30T10:33:25Z</time>
      </trkpt>
      <trkpt lat="43.02528" lon="3.02379">
        <ele>9.41</ele>
        <time>2019-12-30T10:33:28Z</time>
      </trkpt>
      <trkpt lat="43.02526" lon="3.02391">
        <ele>8.14</ele>
        <time>2019-12-30T10:33:29Z</time>
      </trkpt>
      <trkpt lat="43.02522" lon="3.02404">
        <ele>7.16</ele>
        <time>2019-12-30T10:33:30Z</time>
      </trkpt>
      <trkpt lat="43.02518" lon="3.02417">
        <ele>5.5</ele>
        <time>2019-12-30T10:33:31Z</time>
      </trkpt>
      <trkpt lat="43.02507" lon="3.02443">
        <ele>4.16</ele>
        <time>2019-12-30T10:33:33Z</time>
      </trkpt>
      <trkpt lat="43.02458" lon="3.02536">
        <ele>2.34</ele>
        <time>2019-12-30T10:33:42Z</time>
      </trkpt>
      <trkpt lat="43.02454" lon="3.02546">
        <ele>2.18</ele>
        <time>2019-12-30T10:33:43Z</time>
      </trkpt>
      <trkpt lat="43.02451" lon="3.02554">
        <ele>1.97</ele>
        <time>2019-12-30T10:33:44Z</time>
      </trkpt>
      <trkpt lat="43.02447" lon="3.02558">
        <ele>1.66</ele>
        <time>2019-12-30T10:33:45Z</time>
      </trkpt>
      <trkpt lat="43.02442" lon="3.0256">
        <ele>1.79</ele>
        <time>2019-12-30T10:33:46Z</time>
      </trkpt>
      <trkpt lat="43.02438" lon="3.02559">
        <ele>2.18</ele>
        <time>2019-12-30T10:33:47Z</time>
      </trkpt>
      <trkpt lat="43.02433" lon="3.02558">
        <ele>2.51</ele>
        <time>2019-12-30T10:33:48Z</time>
      </trkpt>
      <trkpt lat="43.02415" lon="3.0256">
        <ele>2.75</ele>
        <time>2019-12-30T10:33:57Z</time>
      </trkpt>
      <trkpt lat="43.02402" lon="3.02589">
        <ele>2.4</ele>
        <time>2019-12-30T10:34:41Z</time>
      </trkpt>
      <trkpt lat="43.02402" lon="3.02594">
        <ele>2.47</ele>
        <time>2019-12-30T10:34:42Z</time>
      </trkpt>
      <trkpt lat="43.02404" lon="3.02599">
        <ele>1.65</ele>
        <time>2019-12-30T10:34:43Z</time>
      </trkpt>
      <trkpt lat="43.02403" lon="3.02605">
        <ele>1.61</ele>
        <time>2019-12-30T10:34:44Z</time>
      </trkpt>
      <trkpt lat="43.02402" lon="3.02611">
        <ele>1.7</ele>
        <time>2019-12-30T10:34:45Z</time>
      </trkpt>
      <trkpt lat="43.024" lon="3.02616">
        <ele>1.69</ele>
        <time>2019-12-30T10:34:46Z</time>
      </trkpt>
      <trkpt lat="43.02364" lon="3.02703">
        <ele>1.94</ele>
        <time>2019-12-30T10:34:59Z</time>
      </trkpt>
      <trkpt lat="43.02361" lon="3.0271">
        <ele>1.92</ele>
        <time>2019-12-30T10:35:00Z</time>
      </trkpt>
      <trkpt lat="43.02356" lon="3.02715">
        <ele>2.09</ele>
        <time>2019-12-30T10:35:01Z</time>
      </trkpt>
      <trkpt lat="43.02351" lon="3.02721">
        <ele>2.1</ele>
        <time>2019-12-30T10:35:02Z</time>
      </trkpt>
      <trkpt lat="43.02348" lon="3.02727">
        <ele>1.73</ele>
        <time>2019-12-30T10:35:03Z</time>
      </trkpt>
      <trkpt lat="43.02345" lon="3.02734">
        <ele>1.85</ele>
        <time>2019-12-30T10:35:04Z</time>
      </trkpt>
      <trkpt lat="43.02319" lon="3.02809">
        <ele>1.54</ele>
        <time>2019-12-30T10:35:14Z</time>
      </trkpt>
      <trkpt lat="43.02316" lon="3.02817">
        <ele>1.51</ele>
        <time>2019-12-30T10:35:15Z</time>
      </trkpt>
      <trkpt lat="43.02307" lon="3.0285">
        <ele>0.48</ele>
        <time>2019-12-30T10:35:19Z</time>
      </trkpt>
      <trkpt lat="43.02295" lon="3.02917">
        <ele>0.92</ele>
        <time>2019-12-30T10:35:27Z</time>
      </trkpt>
      <trkpt lat="43.02274" lon="3.03033">
        <ele>1.32</ele>
        <time>2019-12-30T10:35:41Z</time>
      </trkpt>
      <trkpt lat="43.02269" lon="3.03083">
        <ele>2.19</ele>
        <time>2019-12-30T10:35:48Z</time>
      </trkpt>
      <trkpt lat="43.02269" lon="3.0309">
        <ele>2.32</ele>
        <time>2019-12-30T10:35:49Z</time>
      </trkpt>
      <trkpt lat="43.0227" lon="3.03109">
        <ele>2.06</ele>
        <time>2019-12-30T10:35:52Z</time>
      </trkpt>
      <trkpt lat="43.02269" lon="3.03116">
        <ele>1.82</ele>
        <time>2019-12-30T10:35:53Z</time>
      </trkpt>
      <trkpt lat="43.02259" lon="3.03156">
        <ele>1.77</ele>
        <time>2019-12-30T10:35:59Z</time>
      </trkpt>
      <trkpt lat="43.02259" lon="3.03163">
        <ele>1.73</ele>
        <time>2019-12-30T10:36:00Z</time>
      </trkpt>
      <trkpt lat="43.0226" lon="3.0317">
        <ele>1.89</ele>
        <time>2019-12-30T10:36:01Z</time>
      </trkpt>
      <trkpt lat="43.02265" lon="3.03192">
        <ele>1.45</ele>
        <time>2019-12-30T10:36:04Z</time>
      </trkpt>
      <trkpt lat="43.02265" lon="3.032">
        <ele>1.62</ele>
        <time>2019-12-30T10:36:05Z</time>
      </trkpt>
      <trkpt lat="43.02264" lon="3.03208">
        <ele>1.7</ele>
        <time>2019-12-30T10:36:06Z</time>
      </trkpt>
      <trkpt lat="43.02263" lon="3.03215">
        <ele>1.13</ele>
        <time>2019-12-30T10:36:07Z</time>
      </trkpt>
      <trkpt lat="43.02262" lon="3.03223">
        <ele>1.15</ele>
        <time>2019-12-30T10:36:08Z</time>
      </trkpt>
      <trkpt lat="43.0226" lon="3.0323">
        <ele>1.59</ele>
        <time>2019-12-30T10:36:09Z</time>
      </trkpt>
      <trkpt lat="43.02258" lon="3.03237">
        <ele>1.46</ele>
        <time>2019-12-30T10:36:10Z</time>
      </trkpt>
      <trkpt lat="43.02255" lon="3.03243">
        <ele>1.48</ele>
        <time>2019-12-30T10:36:11Z</time>
      </trkpt>
      <trkpt lat="43.02252" lon="3.03249">
        <ele>1.61</ele>
        <time>2019-12-30T10:36:12Z</time>
      </trkpt>
      <trkpt lat="43.02248" lon="3.03255">
        <ele>1.95</ele>
        <time>2019-12-30T10:36:13Z</time>
      </trkpt>
      <trkpt lat="43.02244" lon="3.0326">
        <ele>1.96</ele>
        <time>2019-12-30T10:36:14Z</time>
      </trkpt>
      <trkpt lat="43.02175" lon="3.03345">
        <ele>2.29</ele>
        <time>2019-12-30T10:36:30Z</time>
      </trkpt>
      <trkpt lat="43.0216" lon="3.03359">
        <ele>1.9</ele>
        <time>2019-12-30T10:36:33Z</time>
      </trkpt>
      <trkpt lat="43.02154" lon="3.03362">
        <ele>2.11</ele>
        <time>2019-12-30T10:36:34Z</time>
      </trkpt>
      <trkpt lat="43.02149" lon="3.03365">
        <ele>2.39</ele>
        <time>2019-12-30T10:36:35Z</time>
      </trkpt>
      <trkpt lat="43.02137" lon="3.03371">
        <ele>1.58</ele>
        <time>2019-12-30T10:36:37Z</time>
      </trkpt>
      <trkpt lat="43.02131" lon="3.03373">
        <ele>1.58</ele>
        <time>2019-12-30T10:36:38Z</time>
      </trkpt>
      <trkpt lat="43.02108" lon="3.03384">
        <ele>1.34</ele>
        <time>2019-12-30T10:36:42Z</time>
      </trkpt>
      <trkpt lat="43.02105" lon="3.03389">
        <ele>1.02</ele>
        <time>2019-12-30T10:36:43Z</time>
      </trkpt>
      <trkpt lat="43.02103" lon="3.03397">
        <ele>1.01</ele>
        <time>2019-12-30T10:36:44Z</time>
      </trkpt>
      <trkpt lat="43.02101" lon="3.03413">
        <ele>1.3</ele>
        <time>2019-12-30T10:36:46Z</time>
      </trkpt>
      <trkpt lat="43.021" lon="3.03422">
        <ele>1.14</ele>
        <time>2019-12-30T10:36:47Z</time>
      </trkpt>
      <trkpt lat="43.02101" lon="3.03431">
        <ele>0.94</ele>
        <time>2019-12-30T10:36:48Z</time>
      </trkpt>
      <trkpt lat="43.02103" lon="3.03439">
        <ele>1.13</ele>
        <time>2019-12-30T10:36:49Z</time>
      </trkpt>
      <trkpt lat="43.02105" lon="3.03448">
        <ele>0.78</ele>
        <time>2019-12-30T10:36:50Z</time>
      </trkpt>
      <trkpt lat="43.02108" lon="3.03456">
        <ele>1.02</ele>
        <time>2019-12-30T10:36:51Z</time>
      </trkpt>
      <trkpt lat="43.02157" lon="3.036">
        <ele>0.44</ele>
        <time>2019-12-30T10:37:09Z</time>
      </trkpt>
      <trkpt lat="43.02209" lon="3.03754">
        <ele>1.17</ele>
        <time>2019-12-30T10:37:28Z</time>
      </trkpt>
      <trkpt lat="43.02252" lon="3.0388">
        <ele>2.2</ele>
        <time>2019-12-30T10:37:45Z</time>
      </trkpt>
      <trkpt lat="43.02257" lon="3.039">
        <ele>1.94</ele>
        <time>2019-12-30T10:37:48Z</time>
      </trkpt>
      <trkpt lat="43.02261" lon="3.0393">
        <ele>1.22</ele>
        <time>2019-12-30T10:37:52Z</time>
      </trkpt>
      <trkpt lat="43.02263" lon="3.03937">
        <ele>1.1</ele>
        <time>2019-12-30T10:37:53Z</time>
      </trkpt>
      <trkpt lat="43.02267" lon="3.03952">
        <ele>0.69</ele>
        <time>2019-12-30T10:37:55Z</time>
      </trkpt>
      <trkpt lat="43.0227" lon="3.03958">
        <ele>0.59</ele>
        <time>2019-12-30T10:37:56Z</time>
      </trkpt>
      <trkpt lat="43.02274" lon="3.03964">
        <ele>0.64</ele>
        <time>2019-12-30T10:37:57Z</time>
      </trkpt>
      <trkpt lat="43.02278" lon="3.0397">
        <ele>0.63</ele>
        <time>2019-12-30T10:37:58Z</time>
      </trkpt>
      <trkpt lat="43.02282" lon="3.03975">
        <ele>0.07</ele>
        <time>2019-12-30T10:37:59Z</time>
      </trkpt>
      <trkpt lat="43.02286" lon="3.0398">
        <ele>0.32</ele>
        <time>2019-12-30T10:38:00Z</time>
      </trkpt>
      <trkpt lat="43.02307" lon="3.04002">
        <ele>0.41</ele>
        <time>2019-12-30T10:38:05Z</time>
      </trkpt>
      <trkpt lat="43.02311" lon="3.04007">
        <ele>0.43</ele>
        <time>2019-12-30T10:38:06Z</time>
      </trkpt>
      <trkpt lat="43.02334" lon="3.04027">
        <ele>0.46</ele>
        <time>2019-12-30T10:38:11Z</time>
      </trkpt>
      <trkpt lat="43.0237" lon="3.0406">
        <ele>0.14</ele>
        <time>2019-12-30T10:38:20Z</time>
      </trkpt>
      <trkpt lat="43.02372" lon="3.04065">
        <ele>0.33</ele>
        <time>2019-12-30T10:38:21Z</time>
      </trkpt>
      <trkpt lat="43.02373" lon="3.04071">
        <ele>0.27</ele>
        <time>2019-12-30T10:38:22Z</time>
      </trkpt>
      <trkpt lat="43.02373" lon="3.04077">
        <ele>0.39</ele>
        <time>2019-12-30T10:38:23Z</time>
      </trkpt>
      <trkpt lat="43.02372" lon="3.04083">
        <ele>0.41</ele>
        <time>2019-12-30T10:38:24Z</time>
      </trkpt>
      <trkpt lat="43.02371" lon="3.0409">
        <ele>0.83</ele>
        <time>2019-12-30T10:38:25Z</time>
      </trkpt>
      <trkpt lat="43.0237" lon="3.04097">
        <ele>0.63</ele>
        <time>2019-12-30T10:38:26Z</time>
      </trkpt>
      <trkpt lat="43.02371" lon="3.04104">
        <ele>0.6</ele>
        <time>2019-12-30T10:38:27Z</time>
      </trkpt>
      <trkpt lat="43.02371" lon="3.0411">
        <ele>0.73</ele>
        <time>2019-12-30T10:38:28Z</time>
      </trkpt>
      <trkpt lat="43.0237" lon="3.04117">
        <ele>0.62</ele>
        <time>2019-12-30T10:38:29Z</time>
      </trkpt>
      <trkpt lat="43.02368" lon="3.04123">
        <ele>0.66</ele>
        <time>2019-12-30T10:38:30Z</time>
      </trkpt>
      <trkpt lat="43.02352" lon="3.04179">
        <ele>2.37</ele>
        <time>2019-12-30T10:38:39Z</time>
      </trkpt>
      <trkpt lat="43.0235" lon="3.04183">
        <ele>2.39</ele>
        <time>2019-12-30T10:38:40Z</time>
      </trkpt>
      <trkpt lat="43.0235" lon="3.04188">
        <ele>1.95</ele>
        <time>2019-12-30T10:38:41Z</time>
      </trkpt>
      <trkpt lat="43.02351" lon="3.04192">
        <ele>2.1</ele>
        <time>2019-12-30T10:38:42Z</time>
      </trkpt>
      <trkpt lat="43.02354" lon="3.04195">
        <ele>3.14</ele>
        <time>2019-12-30T10:38:43Z</time>
      </trkpt>
      <trkpt lat="43.02357" lon="3.04196">
        <ele>3.08</ele>
        <time>2019-12-30T10:38:44Z</time>
      </trkpt>
      <trkpt lat="43.02361" lon="3.04197">
        <ele>3.09</ele>
        <time>2019-12-30T10:38:45Z</time>
      </trkpt>
      <trkpt lat="43.02364" lon="3.04199">
        <ele>3.36</ele>
        <time>2019-12-30T10:38:46Z</time>
      </trkpt>
      <trkpt lat="43.02368" lon="3.04201">
        <ele>3.53</ele>
        <time>2019-12-30T10:38:47Z</time>
      </trkpt>
      <trkpt lat="43.02437" lon="3.04232">
        <ele>1.06</ele>
        <time>2019-12-30T10:39:18Z</time>
      </trkpt>
      <trkpt lat="43.02445" lon="3.04216">
        <ele>1.51</ele>
        <time>2019-12-30T10:39:19Z</time>
      </trkpt>
      <trkpt lat="43.02447" lon="3.04211">
        <ele>1.19</ele>
        <time>2019-12-30T10:39:20Z</time>
      </trkpt>
      <trkpt lat="43.0245" lon="3.04206">
        <ele>0.87</ele>
        <time>2019-12-30T10:39:21Z</time>
      </trkpt>
      <trkpt lat="43.02453" lon="3.04194">
        <ele>0.78</ele>
        <time>2019-12-30T10:39:23Z</time>
      </trkpt>
      <trkpt lat="43.02453" lon="3.04187">
        <ele>0.81</ele>
        <time>2019-12-30T10:39:24Z</time>
      </trkpt>
      <trkpt lat="43.02453" lon="3.04181">
        <ele>0.26</ele>
        <time>2019-12-30T10:39:25Z</time>
      </trkpt>
      <trkpt lat="43.02453" lon="3.04176">
        <ele>0.47</ele>
        <time>2019-12-30T10:39:26Z</time>
      </trkpt>
      <trkpt lat="43.02455" lon="3.04171">
        <ele>0.49</ele>
        <time>2019-12-30T10:39:27Z</time>
      </trkpt>
      <trkpt lat="43.02457" lon="3.04167">
        <ele>0.57</ele>
        <time>2019-12-30T10:39:28Z</time>
      </trkpt>
      <trkpt lat="43.0246" lon="3.04164">
        <ele>0.84</ele>
        <time>2019-12-30T10:39:29Z</time>
      </trkpt>
      <trkpt lat="43.02463" lon="3.04162">
        <ele>0.42</ele>
        <time>2019-12-30T10:39:30Z</time>
      </trkpt>
      <trkpt lat="43.02467" lon="3.0416">
        <ele>0.86</ele>
        <time>2019-12-30T10:39:31Z</time>
      </trkpt>
      <trkpt lat="43.02471" lon="3.0416">
        <ele>0.59</ele>
        <time>2019-12-30T10:39:32Z</time>
      </trkpt>
      <trkpt lat="43.02475" lon="3.04161">
        <ele>-0.02</ele>
        <time>2019-12-30T10:39:33Z</time>
      </trkpt>
      <trkpt lat="43.02479" lon="3.04163">
        <ele>0.44</ele>
        <time>2019-12-30T10:39:34Z</time>
      </trkpt>
      <trkpt lat="43.02483" lon="3.04165">
        <ele>-0.06</ele>
        <time>2019-12-30T10:39:35Z</time>
      </trkpt>
      <trkpt lat="43.0254" lon="3.04206">
        <ele>-0.13</ele>
        <time>2019-12-30T10:39:51Z</time>
      </trkpt>
      <trkpt lat="43.02593" lon="3.04241">
        <ele>-0.41</ele>
        <time>2019-12-30T10:40:06Z</time>
      </trkpt>
      <trkpt lat="43.02621" lon="3.04258">
        <ele>-0.79</ele>
        <time>2019-12-30T10:40:15Z</time>
      </trkpt>
      <trkpt lat="43.02624" lon="3.04261">
        <ele>-0.35</ele>
        <time>2019-12-30T10:40:16Z</time>
      </trkpt>
      <trkpt lat="43.02628" lon="3.04264">
        <ele>-0.24</ele>
        <time>2019-12-30T10:40:17Z</time>
      </trkpt>
      <trkpt lat="43.02669" lon="3.04294">
        <ele>0.18</ele>
        <time>2019-12-30T10:40:29Z</time>
      </trkpt>
      <trkpt lat="43.02673" lon="3.04297">
        <ele>0.71</ele>
        <time>2019-12-30T10:40:30Z</time>
      </trkpt>
      <trkpt lat="43.02681" lon="3.04302">
        <ele>0.9</ele>
        <time>2019-12-30T10:40:32Z</time>
      </trkpt>
      <trkpt lat="43.02685" lon="3.04305">
        <ele>0.39</ele>
        <time>2019-12-30T10:40:33Z</time>
      </trkpt>
      <trkpt lat="43.02763" lon="3.04354">
        <ele>0.75</ele>
        <time>2019-12-30T10:40:51Z</time>
      </trkpt>
      <trkpt lat="43.02786" lon="3.04367">
        <ele>0.47</ele>
        <time>2019-12-30T10:40:56Z</time>
      </trkpt>
      <trkpt lat="43.02807" lon="3.04381">
        <ele>-0.09</ele>
        <time>2019-12-30T10:41:01Z</time>
      </trkpt>
      <trkpt lat="43.02855" lon="3.04412">
        <ele>0.2</ele>
        <time>2019-12-30T10:41:15Z</time>
      </trkpt>
      <trkpt lat="43.02893" lon="3.04435">
        <ele>0.42</ele>
        <time>2019-12-30T10:41:25Z</time>
      </trkpt>
      <trkpt lat="43.02897" lon="3.04438">
        <ele>0.59</ele>
        <time>2019-12-30T10:41:26Z</time>
      </trkpt>
      <trkpt lat="43.02984" lon="3.04494">
        <ele>0.2</ele>
        <time>2019-12-30T10:41:48Z</time>
      </trkpt>
      <trkpt lat="43.02999" lon="3.04504">
        <ele>-0.12</ele>
        <time>2019-12-30T10:41:52Z</time>
      </trkpt>
      <trkpt lat="43.03003" lon="3.04506">
        <ele>-0.03</ele>
        <time>2019-12-30T10:41:53Z</time>
      </trkpt>
      <trkpt lat="43.03024" lon="3.0452">
        <ele>0.43</ele>
        <time>2019-12-30T10:41:58Z</time>
      </trkpt>
      <trkpt lat="43.03028" lon="3.04523">
        <ele>0.57</ele>
        <time>2019-12-30T10:41:59Z</time>
      </trkpt>
      <trkpt lat="43.03096" lon="3.04566">
        <ele>0.66</ele>
        <time>2019-12-30T10:42:14Z</time>
      </trkpt>
      <trkpt lat="43.03169" lon="3.04613">
        <ele>0.39</ele>
        <time>2019-12-30T10:42:29Z</time>
      </trkpt>
      <trkpt lat="43.03216" lon="3.04643">
        <ele>0.07</ele>
        <time>2019-12-30T10:42:39Z</time>
      </trkpt>
      <trkpt lat="43.03288" lon="3.04688">
        <ele>0.47</ele>
        <time>2019-12-30T10:42:54Z</time>
      </trkpt>
      <trkpt lat="43.03347" lon="3.04726">
        <ele>1.03</ele>
        <time>2019-12-30T10:43:06Z</time>
      </trkpt>
      <trkpt lat="43.03352" lon="3.04729">
        <ele>1.05</ele>
        <time>2019-12-30T10:43:07Z</time>
      </trkpt>
      <trkpt lat="43.03357" lon="3.04732">
        <ele>0.79</ele>
        <time>2019-12-30T10:43:08Z</time>
      </trkpt>
      <trkpt lat="43.03362" lon="3.04735">
        <ele>0.12</ele>
        <time>2019-12-30T10:43:09Z</time>
      </trkpt>
      <trkpt lat="43.03366" lon="3.04739">
        <ele>0.45</ele>
        <time>2019-12-30T10:43:10Z</time>
      </trkpt>
      <trkpt lat="43.03386" lon="3.04752">
        <ele>0.75</ele>
        <time>2019-12-30T10:43:14Z</time>
      </trkpt>
      <trkpt lat="43.0339" lon="3.04757">
        <ele>1</ele>
        <time>2019-12-30T10:43:15Z</time>
      </trkpt>
      <trkpt lat="43.03395" lon="3.04761">
        <ele>0.95</ele>
        <time>2019-12-30T10:43:16Z</time>
      </trkpt>
      <trkpt lat="43.03489" lon="3.04821">
        <ele>0.38</ele>
        <time>2019-12-30T10:43:34Z</time>
      </trkpt>
      <trkpt lat="43.036" lon="3.04892">
        <ele>1.22</ele>
        <time>2019-12-30T10:43:54Z</time>
      </trkpt>
      <trkpt lat="43.03702" lon="3.04958">
        <ele>1.22</ele>
        <time>2019-12-30T10:44:12Z</time>
      </trkpt>
      <trkpt lat="43.03725" lon="3.04971">
        <ele>0.86</ele>
        <time>2019-12-30T10:44:17Z</time>
      </trkpt>
      <trkpt lat="43.03729" lon="3.04973">
        <ele>0.61</ele>
        <time>2019-12-30T10:44:18Z</time>
      </trkpt>
      <trkpt lat="43.03767" lon="3.04997">
        <ele>0.73</ele>
        <time>2019-12-30T10:44:28Z</time>
      </trkpt>
      <trkpt lat="43.03771" lon="3.04999">
        <ele>0.34</ele>
        <time>2019-12-30T10:44:29Z</time>
      </trkpt>
      <trkpt lat="43.03776" lon="3.05001">
        <ele>0.47</ele>
        <time>2019-12-30T10:44:30Z</time>
      </trkpt>
      <trkpt lat="43.03847" lon="3.05045">
        <ele>0.97</ele>
        <time>2019-12-30T10:44:45Z</time>
      </trkpt>
      <trkpt lat="43.03851" lon="3.05049">
        <ele>0.52</ele>
        <time>2019-12-30T10:44:46Z</time>
      </trkpt>
      <trkpt lat="43.03855" lon="3.05053">
        <ele>0.34</ele>
        <time>2019-12-30T10:44:47Z</time>
      </trkpt>
      <trkpt lat="43.0386" lon="3.05057">
        <ele>0.51</ele>
        <time>2019-12-30T10:44:48Z</time>
      </trkpt>
      <trkpt lat="43.03865" lon="3.0506">
        <ele>0.89</ele>
        <time>2019-12-30T10:44:49Z</time>
      </trkpt>
      <trkpt lat="43.0387" lon="3.05064">
        <ele>0.62</ele>
        <time>2019-12-30T10:44:50Z</time>
      </trkpt>
      <trkpt lat="43.03974" lon="3.0513">
        <ele>1.21</ele>
        <time>2019-12-30T10:45:11Z</time>
      </trkpt>
      <trkpt lat="43.04041" lon="3.05174">
        <ele>1.24</ele>
        <time>2019-12-30T10:45:25Z</time>
      </trkpt>
      <trkpt lat="43.04045" lon="3.05177">
        <ele>1.35</ele>
        <time>2019-12-30T10:45:26Z</time>
      </trkpt>
      <trkpt lat="43.04079" lon="3.05198">
        <ele>0.9</ele>
        <time>2019-12-30T10:45:33Z</time>
      </trkpt>
      <trkpt lat="43.04084" lon="3.05201">
        <ele>1.16</ele>
        <time>2019-12-30T10:45:34Z</time>
      </trkpt>
      <trkpt lat="43.04175" lon="3.0526">
        <ele>1.42</ele>
        <time>2019-12-30T10:45:54Z</time>
      </trkpt>
      <trkpt lat="43.04244" lon="3.05304">
        <ele>1.5</ele>
        <time>2019-12-30T10:46:09Z</time>
      </trkpt>
      <trkpt lat="43.04253" lon="3.05308">
        <ele>1.53</ele>
        <time>2019-12-30T10:46:11Z</time>
      </trkpt>
      <trkpt lat="43.04283" lon="3.05327">
        <ele>1.42</ele>
        <time>2019-12-30T10:46:18Z</time>
      </trkpt>
      <trkpt lat="43.04288" lon="3.0533">
        <ele>1.47</ele>
        <time>2019-12-30T10:46:19Z</time>
      </trkpt>
      <trkpt lat="43.04293" lon="3.05334">
        <ele>1.4</ele>
        <time>2019-12-30T10:46:20Z</time>
      </trkpt>
      <trkpt lat="43.04376" lon="3.05385">
        <ele>1.89</ele>
        <time>2019-12-30T10:46:37Z</time>
      </trkpt>
      <trkpt lat="43.0438" lon="3.05388">
        <ele>1.6</ele>
        <time>2019-12-30T10:46:38Z</time>
      </trkpt>
      <trkpt lat="43.04385" lon="3.05392">
        <ele>1.84</ele>
        <time>2019-12-30T10:46:39Z</time>
      </trkpt>
      <trkpt lat="43.04448" lon="3.05431">
        <ele>1.56</ele>
        <time>2019-12-30T10:46:52Z</time>
      </trkpt>
      <trkpt lat="43.04453" lon="3.05433">
        <ele>1.45</ele>
        <time>2019-12-30T10:46:53Z</time>
      </trkpt>
      <trkpt lat="43.04507" lon="3.05468">
        <ele>0.74</ele>
        <time>2019-12-30T10:47:04Z</time>
      </trkpt>
      <trkpt lat="43.04527" lon="3.05481">
        <ele>1.72</ele>
        <time>2019-12-30T10:47:08Z</time>
      </trkpt>
      <trkpt lat="43.04565" lon="3.05507">
        <ele>1.8</ele>
        <time>2019-12-30T10:47:16Z</time>
      </trkpt>
      <trkpt lat="43.04582" lon="3.0552">
        <ele>1.56</ele>
        <time>2019-12-30T10:47:20Z</time>
      </trkpt>
      <trkpt lat="43.04586" lon="3.05524">
        <ele>1.6</ele>
        <time>2019-12-30T10:47:21Z</time>
      </trkpt>
      <trkpt lat="43.04601" lon="3.05533">
        <ele>1.21</ele>
        <time>2019-12-30T10:47:24Z</time>
      </trkpt>
      <trkpt lat="43.04622" lon="3.05545">
        <ele>1.59</ele>
        <time>2019-12-30T10:47:28Z</time>
      </trkpt>
      <trkpt lat="43.04626" lon="3.05548">
        <ele>1.52</ele>
        <time>2019-12-30T10:47:29Z</time>
      </trkpt>
      <trkpt lat="43.04634" lon="3.05553">
        <ele>1.57</ele>
        <time>2019-12-30T10:47:31Z</time>
      </trkpt>
      <trkpt lat="43.04639" lon="3.05556">
        <ele>1.62</ele>
        <time>2019-12-30T10:47:32Z</time>
      </trkpt>
      <trkpt lat="43.04679" lon="3.05579">
        <ele>1.38</ele>
        <time>2019-12-30T10:47:40Z</time>
      </trkpt>
      <trkpt lat="43.04685" lon="3.05581">
        <ele>1.28</ele>
        <time>2019-12-30T10:47:41Z</time>
      </trkpt>
      <trkpt lat="43.0469" lon="3.05583">
        <ele>1.02</ele>
        <time>2019-12-30T10:47:42Z</time>
      </trkpt>
      <trkpt lat="43.04695" lon="3.05584">
        <ele>1.19</ele>
        <time>2019-12-30T10:47:43Z</time>
      </trkpt>
      <trkpt lat="43.04699" lon="3.05584">
        <ele>0.69</ele>
        <time>2019-12-30T10:47:44Z</time>
      </trkpt>
      <trkpt lat="43.04704" lon="3.05583">
        <ele>0.35</ele>
        <time>2019-12-30T10:47:53Z</time>
      </trkpt>
      <trkpt lat="43.04707" lon="3.05585">
        <ele>0.62</ele>
        <time>2019-12-30T10:48:07Z</time>
      </trkpt>
      <trkpt lat="43.0471" lon="3.05587">
        <ele>0.68</ele>
        <time>2019-12-30T10:48:09Z</time>
      </trkpt>
      <trkpt lat="43.04711" lon="3.05588">
        <ele>0.8</ele>
        <time>2019-12-30T10:48:10Z</time>
      </trkpt>
      <trkpt lat="43.04713" lon="3.05589">
        <ele>0.61</ele>
        <time>2019-12-30T10:48:11Z</time>
      </trkpt>
      <trkpt lat="43.04732" lon="3.05607">
        <ele>1.01</ele>
        <time>2019-12-30T10:48:25Z</time>
      </trkpt>
      <trkpt lat="43.0474" lon="3.05612">
        <ele>0.72</ele>
        <time>2019-12-30T10:48:31Z</time>
      </trkpt>
      <trkpt lat="43.04744" lon="3.05611">
        <ele>0.84</ele>
        <time>2019-12-30T10:48:44Z</time>
      </trkpt>
      <trkpt lat="43.04745" lon="3.0561">
        <ele>1.3</ele>
        <time>2019-12-30T10:49:19Z</time>
      </trkpt>
      <trkpt lat="43.04745" lon="3.05608">
        <ele>0.52</ele>
        <time>2019-12-30T10:50:12Z</time>
      </trkpt>
      <trkpt lat="43.04745" lon="3.05609">
        <ele>1.21</ele>
        <time>2019-12-30T10:50:49Z</time>
      </trkpt>
      <trkpt lat="43.04755" lon="3.05621">
        <ele>1.58</ele>
        <time>2019-12-30T10:51:16Z</time>
      </trkpt>
      <trkpt lat="43.04786" lon="3.05647">
        <ele>1.45</ele>
        <time>2019-12-30T10:51:29Z</time>
      </trkpt>
      <trkpt lat="43.04829" lon="3.05676">
        <ele>1.87</ele>
        <time>2019-12-30T10:51:43Z</time>
      </trkpt>
      <trkpt lat="43.04874" lon="3.05705">
        <ele>1.69</ele>
        <time>2019-12-30T10:51:55Z</time>
      </trkpt>
      <trkpt lat="43.04912" lon="3.05728">
        <ele>2.16</ele>
        <time>2019-12-30T10:52:04Z</time>
      </trkpt>
      <trkpt lat="43.04916" lon="3.05731">
        <ele>1.43</ele>
        <time>2019-12-30T10:52:05Z</time>
      </trkpt>
      <trkpt lat="43.04954" lon="3.05757">
        <ele>1.52</ele>
        <time>2019-12-30T10:52:15Z</time>
      </trkpt>
      <trkpt lat="43.04968" lon="3.05765">
        <ele>1.89</ele>
        <time>2019-12-30T10:52:18Z</time>
      </trkpt>
      <trkpt lat="43.04973" lon="3.05767">
        <ele>2.08</ele>
        <time>2019-12-30T10:52:19Z</time>
      </trkpt>
      <trkpt lat="43.04978" lon="3.05771">
        <ele>2.5</ele>
        <time>2019-12-30T10:52:20Z</time>
      </trkpt>
      <trkpt lat="43.04986" lon="3.05776">
        <ele>1.86</ele>
        <time>2019-12-30T10:52:22Z</time>
      </trkpt>
      <trkpt lat="43.05038" lon="3.05801">
        <ele>2.35</ele>
        <time>2019-12-30T10:52:33Z</time>
      </trkpt>
      <trkpt lat="43.05043" lon="3.05803">
        <ele>2.16</ele>
        <time>2019-12-30T10:52:34Z</time>
      </trkpt>
      <trkpt lat="43.05129" lon="3.05813">
        <ele>1.89</ele>
        <time>2019-12-30T10:52:51Z</time>
      </trkpt>
      <trkpt lat="43.05155" lon="3.0581">
        <ele>1.81</ele>
        <time>2019-12-30T10:52:56Z</time>
      </trkpt>
      <trkpt lat="43.05161" lon="3.05808">
        <ele>1.71</ele>
        <time>2019-12-30T10:52:57Z</time>
      </trkpt>
      <trkpt lat="43.05166" lon="3.05807">
        <ele>1.95</ele>
        <time>2019-12-30T10:52:58Z</time>
      </trkpt>
      <trkpt lat="43.05187" lon="3.05802">
        <ele>1.94</ele>
        <time>2019-12-30T10:53:02Z</time>
      </trkpt>
      <trkpt lat="43.05241" lon="3.0579">
        <ele>2.08</ele>
        <time>2019-12-30T10:53:13Z</time>
      </trkpt>
      <trkpt lat="43.0527" lon="3.05784">
        <ele>2.06</ele>
        <time>2019-12-30T10:53:19Z</time>
      </trkpt>
      <trkpt lat="43.05275" lon="3.05783">
        <ele>2.13</ele>
        <time>2019-12-30T10:53:20Z</time>
      </trkpt>
      <trkpt lat="43.05308" lon="3.05775">
        <ele>2.16</ele>
        <time>2019-12-30T10:53:27Z</time>
      </trkpt>
      <trkpt lat="43.05368" lon="3.05736">
        <ele>1.68</ele>
        <time>2019-12-30T10:53:40Z</time>
      </trkpt>
      <trkpt lat="43.05395" lon="3.05692">
        <ele>1.69</ele>
        <time>2019-12-30T10:53:48Z</time>
      </trkpt>
      <trkpt lat="43.05414" lon="3.05599">
        <ele>1.76</ele>
        <time>2019-12-30T10:54:01Z</time>
      </trkpt>
      <trkpt lat="43.05396" lon="3.05483">
        <ele>2.16</ele>
        <time>2019-12-30T10:54:17Z</time>
      </trkpt>
      <trkpt lat="43.05371" lon="3.05364">
        <ele>1.42</ele>
        <time>2019-12-30T10:54:34Z</time>
      </trkpt>
      <trkpt lat="43.05362" lon="3.05298">
        <ele>1.66</ele>
        <time>2019-12-30T10:54:43Z</time>
      </trkpt>
      <trkpt lat="43.05362" lon="3.05291">
        <ele>1.8</ele>
        <time>2019-12-30T10:54:44Z</time>
      </trkpt>
      <trkpt lat="43.05386" lon="3.05201">
        <ele>1.98</ele>
        <time>2019-12-30T10:54:57Z</time>
      </trkpt>
      <trkpt lat="43.05441" lon="3.05083">
        <ele>2.16</ele>
        <time>2019-12-30T10:55:16Z</time>
      </trkpt>
      <trkpt lat="43.05497" lon="3.04964">
        <ele>1.82</ele>
        <time>2019-12-30T10:55:36Z</time>
      </trkpt>
      <trkpt lat="43.05559" lon="3.0483">
        <ele>1.69</ele>
        <time>2019-12-30T10:55:58Z</time>
      </trkpt>
      <trkpt lat="43.05594" lon="3.04741">
        <ele>1.5</ele>
        <time>2019-12-30T10:56:12Z</time>
      </trkpt>
      <trkpt lat="43.05613" lon="3.04669">
        <ele>2.07</ele>
        <time>2019-12-30T10:56:23Z</time>
      </trkpt>
      <trkpt lat="43.05615" lon="3.04662">
        <ele>2.15</ele>
        <time>2019-12-30T10:56:24Z</time>
      </trkpt>
      <trkpt lat="43.05626" lon="3.04556">
        <ele>1.26</ele>
        <time>2019-12-30T10:56:39Z</time>
      </trkpt>
      <trkpt lat="43.05627" lon="3.04543">
        <ele>1.03</ele>
        <time>2019-12-30T10:56:41Z</time>
      </trkpt>
      <trkpt lat="43.05635" lon="3.0448">
        <ele>1.47</ele>
        <time>2019-12-30T10:56:50Z</time>
      </trkpt>
      <trkpt lat="43.05661" lon="3.04367">
        <ele>1.56</ele>
        <time>2019-12-30T10:57:07Z</time>
      </trkpt>
      <trkpt lat="43.0567" lon="3.04335">
        <ele>1.69</ele>
        <time>2019-12-30T10:57:12Z</time>
      </trkpt>
      <trkpt lat="43.05673" lon="3.04328">
        <ele>1.12</ele>
        <time>2019-12-30T10:57:13Z</time>
      </trkpt>
      <trkpt lat="43.05682" lon="3.04309">
        <ele>1.52</ele>
        <time>2019-12-30T10:57:16Z</time>
      </trkpt>
      <trkpt lat="43.05747" lon="3.04203">
        <ele>1.1</ele>
        <time>2019-12-30T10:57:35Z</time>
      </trkpt>
      <trkpt lat="43.05757" lon="3.04187">
        <ele>1.54</ele>
        <time>2019-12-30T10:57:38Z</time>
      </trkpt>
      <trkpt lat="43.05809" lon="3.04107">
        <ele>2.13</ele>
        <time>2019-12-30T10:57:53Z</time>
      </trkpt>
      <trkpt lat="43.05881" lon="3.03992">
        <ele>1.65</ele>
        <time>2019-12-30T10:58:14Z</time>
      </trkpt>
      <trkpt lat="43.05937" lon="3.03902">
        <ele>1.41</ele>
        <time>2019-12-30T10:58:31Z</time>
      </trkpt>
      <trkpt lat="43.05999" lon="3.03805">
        <ele>1.53</ele>
        <time>2019-12-30T10:58:49Z</time>
      </trkpt>
      <trkpt lat="43.06058" lon="3.03712">
        <ele>1.22</ele>
        <time>2019-12-30T10:59:06Z</time>
      </trkpt>
      <trkpt lat="43.06071" lon="3.0369">
        <ele>1.22</ele>
        <time>2019-12-30T10:59:10Z</time>
      </trkpt>
      <trkpt lat="43.06129" lon="3.03599">
        <ele>1.55</ele>
        <time>2019-12-30T10:59:27Z</time>
      </trkpt>
      <trkpt lat="43.06135" lon="3.03589">
        <ele>1.8</ele>
        <time>2019-12-30T10:59:29Z</time>
      </trkpt>
      <trkpt lat="43.06162" lon="3.03549">
        <ele>2.17</ele>
        <time>2019-12-30T10:59:37Z</time>
      </trkpt>
      <trkpt lat="43.06168" lon="3.03539">
        <ele>2.37</ele>
        <time>2019-12-30T10:59:39Z</time>
      </trkpt>
      <trkpt lat="43.06214" lon="3.03466">
        <ele>2.25</ele>
        <time>2019-12-30T10:59:53Z</time>
      </trkpt>
      <trkpt lat="43.06232" lon="3.03442">
        <ele>2.34</ele>
        <time>2019-12-30T10:59:58Z</time>
      </trkpt>
      <trkpt lat="43.06235" lon="3.03437">
        <ele>2.47</ele>
        <time>2019-12-30T10:59:59Z</time>
      </trkpt>
      <trkpt lat="43.06302" lon="3.03366">
        <ele>1.93</ele>
        <time>2019-12-30T11:00:17Z</time>
      </trkpt>
      <trkpt lat="43.06359" lon="3.0332">
        <ele>1.32</ele>
        <time>2019-12-30T11:00:34Z</time>
      </trkpt>
      <trkpt lat="43.06435" lon="3.03259">
        <ele>1.76</ele>
        <time>2019-12-30T11:00:54Z</time>
      </trkpt>
      <trkpt lat="43.06505" lon="3.03195">
        <ele>0.91</ele>
        <time>2019-12-30T11:01:12Z</time>
      </trkpt>
      <trkpt lat="43.06571" lon="3.03127">
        <ele>1.65</ele>
        <time>2019-12-30T11:01:29Z</time>
      </trkpt>
      <trkpt lat="43.06657" lon="3.03084">
        <ele>1.22</ele>
        <time>2019-12-30T11:01:47Z</time>
      </trkpt>
      <trkpt lat="43.06733" lon="3.03031">
        <ele>1.55</ele>
        <time>2019-12-30T11:02:04Z</time>
      </trkpt>
      <trkpt lat="43.06812" lon="3.02981">
        <ele>1.21</ele>
        <time>2019-12-30T11:02:21Z</time>
      </trkpt>
      <trkpt lat="43.06893" lon="3.02909">
        <ele>0.97</ele>
        <time>2019-12-30T11:02:40Z</time>
      </trkpt>
      <trkpt lat="43.06985" lon="3.02826">
        <ele>1.39</ele>
        <time>2019-12-30T11:03:01Z</time>
      </trkpt>
      <trkpt lat="43.07054" lon="3.02742">
        <ele>1.46</ele>
        <time>2019-12-30T11:03:18Z</time>
      </trkpt>
      <trkpt lat="43.07141" lon="3.02602">
        <ele>1.21</ele>
        <time>2019-12-30T11:03:42Z</time>
      </trkpt>
      <trkpt lat="43.07218" lon="3.02492">
        <ele>0.78</ele>
        <time>2019-12-30T11:04:02Z</time>
      </trkpt>
      <trkpt lat="43.07271" lon="3.0238">
        <ele>1.09</ele>
        <time>2019-12-30T11:04:19Z</time>
      </trkpt>
      <trkpt lat="43.07321" lon="3.02285">
        <ele>1.29</ele>
        <time>2019-12-30T11:04:34Z</time>
      </trkpt>
      <trkpt lat="43.07347" lon="3.02271">
        <ele>0.28</ele>
        <time>2019-12-30T11:04:39Z</time>
      </trkpt>
      <trkpt lat="43.07375" lon="3.0227">
        <ele>0.81</ele>
        <time>2019-12-30T11:04:44Z</time>
      </trkpt>
      <trkpt lat="43.07379" lon="3.02272">
        <ele>1.01</ele>
        <time>2019-12-30T11:04:45Z</time>
      </trkpt>
      <trkpt lat="43.07475" lon="3.02318">
        <ele>1.29</ele>
        <time>2019-12-30T11:08:29Z</time>
      </trkpt>
      <trkpt lat="43.0752" lon="3.02356">
        <ele>1.02</ele>
        <time>2019-12-30T11:08:43Z</time>
      </trkpt>
      <trkpt lat="43.07567" lon="3.02388">
        <ele>1.8</ele>
        <time>2019-12-30T11:08:55Z</time>
      </trkpt>
      <trkpt lat="43.07638" lon="3.024">
        <ele>2.5</ele>
        <time>2019-12-30T11:09:10Z</time>
      </trkpt>
      <trkpt lat="43.07721" lon="3.0242">
        <ele>2.13</ele>
        <time>2019-12-30T11:09:27Z</time>
      </trkpt>
      <trkpt lat="43.07768" lon="3.02445">
        <ele>1.68</ele>
        <time>2019-12-30T11:09:37Z</time>
      </trkpt>
      <trkpt lat="43.07772" lon="3.02449">
        <ele>1.82</ele>
        <time>2019-12-30T11:09:38Z</time>
      </trkpt>
      <trkpt lat="43.0786" lon="3.02512">
        <ele>1.89</ele>
        <time>2019-12-30T11:09:56Z</time>
      </trkpt>
      <trkpt lat="43.07869" lon="3.02519">
        <ele>2.27</ele>
        <time>2019-12-30T11:09:58Z</time>
      </trkpt>
      <trkpt lat="43.07874" lon="3.02524">
        <ele>2.15</ele>
        <time>2019-12-30T11:09:59Z</time>
      </trkpt>
      <trkpt lat="43.0792" lon="3.02558">
        <ele>1.56</ele>
        <time>2019-12-30T11:10:08Z</time>
      </trkpt>
      <trkpt lat="43.07924" lon="3.02562">
        <ele>1.56</ele>
        <time>2019-12-30T11:10:09Z</time>
      </trkpt>
      <trkpt lat="43.08023" lon="3.02639">
        <ele>1.68</ele>
        <time>2019-12-30T11:10:29Z</time>
      </trkpt>
      <trkpt lat="43.08049" lon="3.02658">
        <ele>1.4</ele>
        <time>2019-12-30T11:10:34Z</time>
      </trkpt>
      <trkpt lat="43.08054" lon="3.02662">
        <ele>2.05</ele>
        <time>2019-12-30T11:10:35Z</time>
      </trkpt>
      <trkpt lat="43.08164" lon="3.02746">
        <ele>1.45</ele>
        <time>2019-12-30T11:10:57Z</time>
      </trkpt>
      <trkpt lat="43.0826" lon="3.02816">
        <ele>1.67</ele>
        <time>2019-12-30T11:11:16Z</time>
      </trkpt>
      <trkpt lat="43.08292" lon="3.02835">
        <ele>1.7</ele>
        <time>2019-12-30T11:11:22Z</time>
      </trkpt>
      <trkpt lat="43.08298" lon="3.02837">
        <ele>2.05</ele>
        <time>2019-12-30T11:11:23Z</time>
      </trkpt>
      <trkpt lat="43.08377" lon="3.02903">
        <ele>2.72</ele>
        <time>2019-12-30T11:11:39Z</time>
      </trkpt>
      <trkpt lat="43.08432" lon="3.02945">
        <ele>2.07</ele>
        <time>2019-12-30T11:11:50Z</time>
      </trkpt>
      <trkpt lat="43.08437" lon="3.02946">
        <ele>2.11</ele>
        <time>2019-12-30T11:11:51Z</time>
      </trkpt>
      <trkpt lat="43.08534" lon="3.02963">
        <ele>1.79</ele>
        <time>2019-12-30T11:12:08Z</time>
      </trkpt>
      <trkpt lat="43.08609" lon="3.0299">
        <ele>1.83</ele>
        <time>2019-12-30T11:12:24Z</time>
      </trkpt>
      <trkpt lat="43.08698" lon="3.03011">
        <ele>1.66</ele>
        <time>2019-12-30T11:12:43Z</time>
      </trkpt>
      <trkpt lat="43.08772" lon="3.03042">
        <ele>2.27</ele>
        <time>2019-12-30T11:12:59Z</time>
      </trkpt>
      <trkpt lat="43.08861" lon="3.03098">
        <ele>2.4</ele>
        <time>2019-12-30T11:13:19Z</time>
      </trkpt>
      <trkpt lat="43.08866" lon="3.031">
        <ele>2.27</ele>
        <time>2019-12-30T11:13:20Z</time>
      </trkpt>
      <trkpt lat="43.08946" lon="3.03111">
        <ele>1.6</ele>
        <time>2019-12-30T11:13:37Z</time>
      </trkpt>
      <trkpt lat="43.09053" lon="3.03122">
        <ele>2.54</ele>
        <time>2019-12-30T11:13:57Z</time>
      </trkpt>
      <trkpt lat="43.09152" lon="3.03141">
        <ele>2.46</ele>
        <time>2019-12-30T11:14:14Z</time>
      </trkpt>
      <trkpt lat="43.09176" lon="3.03136">
        <ele>1.85</ele>
        <time>2019-12-30T11:14:18Z</time>
      </trkpt>
      <trkpt lat="43.09194" lon="3.03129">
        <ele>2.32</ele>
        <time>2019-12-30T11:14:21Z</time>
      </trkpt>
      <trkpt lat="43.092" lon="3.03126">
        <ele>1.86</ele>
        <time>2019-12-30T11:14:22Z</time>
      </trkpt>
      <trkpt lat="43.09314" lon="3.03065">
        <ele>2.14</ele>
        <time>2019-12-30T11:14:42Z</time>
      </trkpt>
      <trkpt lat="43.09397" lon="3.03091">
        <ele>2.35</ele>
        <time>2019-12-30T11:14:56Z</time>
      </trkpt>
      <trkpt lat="43.09464" lon="3.03102">
        <ele>1.57</ele>
        <time>2019-12-30T11:15:07Z</time>
      </trkpt>
      <trkpt lat="43.09488" lon="3.03095">
        <ele>2.32</ele>
        <time>2019-12-30T11:15:11Z</time>
      </trkpt>
      <trkpt lat="43.09586" lon="3.03046">
        <ele>2.26</ele>
        <time>2019-12-30T11:15:28Z</time>
      </trkpt>
      <trkpt lat="43.09605" lon="3.03046">
        <ele>2.59</ele>
        <time>2019-12-30T11:15:31Z</time>
      </trkpt>
      <trkpt lat="43.09657" lon="3.03067">
        <ele>2.33</ele>
        <time>2019-12-30T11:15:40Z</time>
      </trkpt>
      <trkpt lat="43.09662" lon="3.03068">
        <ele>2.02</ele>
        <time>2019-12-30T11:15:41Z</time>
      </trkpt>
      <trkpt lat="43.09667" lon="3.03069">
        <ele>2.27</ele>
        <time>2019-12-30T11:15:42Z</time>
      </trkpt>
      <trkpt lat="43.09724" lon="3.03071">
        <ele>2.14</ele>
        <time>2019-12-30T11:15:55Z</time>
      </trkpt>
      <trkpt lat="43.09784" lon="3.03043">
        <ele>1.95</ele>
        <time>2019-12-30T11:16:09Z</time>
      </trkpt>
      <trkpt lat="43.09849" lon="3.03023">
        <ele>1.69</ele>
        <time>2019-12-30T11:16:23Z</time>
      </trkpt>
      <trkpt lat="43.09862" lon="3.03026">
        <ele>1.82</ele>
        <time>2019-12-30T11:16:26Z</time>
      </trkpt>
      <trkpt lat="43.09922" lon="3.03064">
        <ele>1.55</ele>
        <time>2019-12-30T11:16:40Z</time>
      </trkpt>
      <trkpt lat="43.09946" lon="3.03072">
        <ele>1.74</ele>
        <time>2019-12-30T11:16:45Z</time>
      </trkpt>
      <trkpt lat="43.09951" lon="3.03072">
        <ele>2.28</ele>
        <time>2019-12-30T11:16:46Z</time>
      </trkpt>
      <trkpt lat="43.1004" lon="3.03079">
        <ele>1.65</ele>
        <time>2019-12-30T11:17:03Z</time>
      </trkpt>
      <trkpt lat="43.10103" lon="3.03089">
        <ele>2.23</ele>
        <time>2019-12-30T11:17:15Z</time>
      </trkpt>
      <trkpt lat="43.10176" lon="3.03132">
        <ele>2</ele>
        <time>2019-12-30T11:17:30Z</time>
      </trkpt>
      <trkpt lat="43.10249" lon="3.03164">
        <ele>2.27</ele>
        <time>2019-12-30T11:17:44Z</time>
      </trkpt>
      <trkpt lat="43.10254" lon="3.03164">
        <ele>2.67</ele>
        <time>2019-12-30T11:17:45Z</time>
      </trkpt>
      <trkpt lat="43.1026" lon="3.03163">
        <ele>2.58</ele>
        <time>2019-12-30T11:17:46Z</time>
      </trkpt>
      <trkpt lat="43.10331" lon="3.03141">
        <ele>1.69</ele>
        <time>2019-12-30T11:17:59Z</time>
      </trkpt>
      <trkpt lat="43.10347" lon="3.0314">
        <ele>2.06</ele>
        <time>2019-12-30T11:18:02Z</time>
      </trkpt>
      <trkpt lat="43.10352" lon="3.03141">
        <ele>1.97</ele>
        <time>2019-12-30T11:18:03Z</time>
      </trkpt>
      <trkpt lat="43.10357" lon="3.03143">
        <ele>2.01</ele>
        <time>2019-12-30T11:18:04Z</time>
      </trkpt>
      <trkpt lat="43.10362" lon="3.03145">
        <ele>1.58</ele>
        <time>2019-12-30T11:18:05Z</time>
      </trkpt>
      <trkpt lat="43.10367" lon="3.03148">
        <ele>1.93</ele>
        <time>2019-12-30T11:18:06Z</time>
      </trkpt>
      <trkpt lat="43.10429" lon="3.03181">
        <ele>1.64</ele>
        <time>2019-12-30T11:18:18Z</time>
      </trkpt>
      <trkpt lat="43.10492" lon="3.03215">
        <ele>1.62</ele>
        <time>2019-12-30T11:18:30Z</time>
      </trkpt>
      <trkpt lat="43.10527" lon="3.03232">
        <ele>1.12</ele>
        <time>2019-12-30T11:18:37Z</time>
      </trkpt>
      <trkpt lat="43.10532" lon="3.03234">
        <ele>1.42</ele>
        <time>2019-12-30T11:18:38Z</time>
      </trkpt>
      <trkpt lat="43.10539" lon="3.03237">
        <ele>1.12</ele>
        <time>2019-12-30T11:18:45Z</time>
      </trkpt>
      <trkpt lat="43.1054" lon="3.03238">
        <ele>1.01</ele>
        <time>2019-12-30T11:19:28Z</time>
      </trkpt>
      <trkpt lat="43.10554" lon="3.03241">
        <ele>1.48</ele>
        <time>2019-12-30T11:19:42Z</time>
      </trkpt>
      <trkpt lat="43.10559" lon="3.03242">
        <ele>1.72</ele>
        <time>2019-12-30T11:19:43Z</time>
      </trkpt>
      <trkpt lat="43.10563" lon="3.03242">
        <ele>2.1</ele>
        <time>2019-12-30T11:19:44Z</time>
      </trkpt>
      <trkpt lat="43.10624" lon="3.03238">
        <ele>1.95</ele>
        <time>2019-12-30T11:19:56Z</time>
      </trkpt>
      <trkpt lat="43.10731" lon="3.03239">
        <ele>1.87</ele>
        <time>2019-12-30T11:20:14Z</time>
      </trkpt>
      <trkpt lat="43.10817" lon="3.0321">
        <ele>1.95</ele>
        <time>2019-12-30T11:20:29Z</time>
      </trkpt>
      <trkpt lat="43.10932" lon="3.0316">
        <ele>2.27</ele>
        <time>2019-12-30T11:20:49Z</time>
      </trkpt>
      <trkpt lat="43.11025" lon="3.03126">
        <ele>2.03</ele>
        <time>2019-12-30T11:21:05Z</time>
      </trkpt>
      <trkpt lat="43.11055" lon="3.03122">
        <ele>2.25</ele>
        <time>2019-12-30T11:21:10Z</time>
      </trkpt>
      <trkpt lat="43.11061" lon="3.03123">
        <ele>1.66</ele>
        <time>2019-12-30T11:21:11Z</time>
      </trkpt>
      <trkpt lat="43.11116" lon="3.03136">
        <ele>2.19</ele>
        <time>2019-12-30T11:21:20Z</time>
      </trkpt>
      <trkpt lat="43.11194" lon="3.03124">
        <ele>1.6</ele>
        <time>2019-12-30T11:21:33Z</time>
      </trkpt>
      <trkpt lat="43.11199" lon="3.03122">
        <ele>1.45</ele>
        <time>2019-12-30T11:21:34Z</time>
      </trkpt>
      <trkpt lat="43.11282" lon="3.031">
        <ele>2.51</ele>
        <time>2019-12-30T11:21:48Z</time>
      </trkpt>
      <trkpt lat="43.11379" lon="3.03086">
        <ele>1.66</ele>
        <time>2019-12-30T11:22:04Z</time>
      </trkpt>
      <trkpt lat="43.11458" lon="3.03059">
        <ele>2.29</ele>
        <time>2019-12-30T11:22:17Z</time>
      </trkpt>
      <trkpt lat="43.11535" lon="3.03053">
        <ele>2.15</ele>
        <time>2019-12-30T11:22:31Z</time>
      </trkpt>
      <trkpt lat="43.11595" lon="3.03056">
        <ele>1.91</ele>
        <time>2019-12-30T11:22:45Z</time>
      </trkpt>
      <trkpt lat="43.11664" lon="3.03062">
        <ele>2.19</ele>
        <time>2019-12-30T11:23:00Z</time>
      </trkpt>
      <trkpt lat="43.11727" lon="3.03069">
        <ele>2.19</ele>
        <time>2019-12-30T11:23:14Z</time>
      </trkpt>
      <trkpt lat="43.11788" lon="3.03074">
        <ele>2.15</ele>
        <time>2019-12-30T11:23:27Z</time>
      </trkpt>
      <trkpt lat="43.1186" lon="3.03081">
        <ele>2.1</ele>
        <time>2019-12-30T11:23:42Z</time>
      </trkpt>
      <trkpt lat="43.11939" lon="3.03089">
        <ele>2.37</ele>
        <time>2019-12-30T11:23:58Z</time>
      </trkpt>
      <trkpt lat="43.12017" lon="3.03096">
        <ele>2.65</ele>
        <time>2019-12-30T11:24:13Z</time>
      </trkpt>
      <trkpt lat="43.12116" lon="3.03105">
        <ele>2.3</ele>
        <time>2019-12-30T11:24:31Z</time>
      </trkpt>
      <trkpt lat="43.12178" lon="3.03108">
        <ele>2.86</ele>
        <time>2019-12-30T11:24:42Z</time>
      </trkpt>
      <trkpt lat="43.12183" lon="3.03107">
        <ele>4.06</ele>
        <time>2019-12-30T11:24:43Z</time>
      </trkpt>
      <trkpt lat="43.12186" lon="3.03106">
        <ele>4.55</ele>
        <time>2019-12-30T11:27:30Z</time>
      </trkpt>
      <trkpt lat="43.12189" lon="3.03094">
        <ele>4.84</ele>
        <time>2019-12-30T11:27:31Z</time>
      </trkpt>
      <trkpt lat="43.12189" lon="3.03092">
        <ele>4.46</ele>
        <time>2019-12-30T11:27:32Z</time>
      </trkpt>
      <trkpt lat="43.1219" lon="3.03089">
        <ele>4.37</ele>
        <time>2019-12-30T11:27:33Z</time>
      </trkpt>
      <trkpt lat="43.1219" lon="3.03087">
        <ele>4.7</ele>
        <time>2019-12-30T11:27:34Z</time>
      </trkpt>
      <trkpt lat="43.12191" lon="3.03085">
        <ele>4.93</ele>
        <time>2019-12-30T11:27:35Z</time>
      </trkpt>
      <trkpt lat="43.12192" lon="3.03082">
        <ele>4.32</ele>
        <time>2019-12-30T11:27:36Z</time>
      </trkpt>
      <trkpt lat="43.12194" lon="3.03079">
        <ele>4.97</ele>
        <time>2019-12-30T11:27:37Z</time>
      </trkpt>
      <trkpt lat="43.12197" lon="3.03078">
        <ele>4.32</ele>
        <time>2019-12-30T11:27:38Z</time>
      </trkpt>
      <trkpt lat="43.12201" lon="3.03078">
        <ele>4.2</ele>
        <time>2019-12-30T11:27:39Z</time>
      </trkpt>
      <trkpt lat="43.12205" lon="3.03078">
        <ele>4.12</ele>
        <time>2019-12-30T11:27:40Z</time>
      </trkpt>
      <trkpt lat="43.12209" lon="3.03079">
        <ele>3.74</ele>
        <time>2019-12-30T11:27:41Z</time>
      </trkpt>
      <trkpt lat="43.12293" lon="3.03086">
        <ele>3.15</ele>
        <time>2019-12-30T11:27:58Z</time>
      </trkpt>
      <trkpt lat="43.12324" lon="3.03091">
        <ele>3.27</ele>
        <time>2019-12-30T11:28:04Z</time>
      </trkpt>
      <trkpt lat="43.12414" lon="3.03098">
        <ele>2.98</ele>
        <time>2019-12-30T11:28:20Z</time>
      </trkpt>
      <trkpt lat="43.12442" lon="3.031">
        <ele>2.97</ele>
        <time>2019-12-30T11:28:25Z</time>
      </trkpt>
      <trkpt lat="43.12529" lon="3.03108">
        <ele>2.72</ele>
        <time>2019-12-30T11:28:40Z</time>
      </trkpt>
      <trkpt lat="43.12623" lon="3.03116">
        <ele>3.87</ele>
        <time>2019-12-30T11:28:56Z</time>
      </trkpt>
      <trkpt lat="43.12628" lon="3.03116">
        <ele>3.34</ele>
        <time>2019-12-30T11:28:57Z</time>
      </trkpt>
      <trkpt lat="43.12634" lon="3.03117">
        <ele>4.14</ele>
        <time>2019-12-30T11:28:58Z</time>
      </trkpt>
      <trkpt lat="43.12656" lon="3.03121">
        <ele>3.97</ele>
        <time>2019-12-30T11:29:02Z</time>
      </trkpt>
      <trkpt lat="43.12704" lon="3.03127">
        <ele>3.69</ele>
        <time>2019-12-30T11:29:10Z</time>
      </trkpt>
      <trkpt lat="43.12717" lon="3.03128">
        <ele>3.6</ele>
        <time>2019-12-30T11:29:12Z</time>
      </trkpt>
      <trkpt lat="43.1273" lon="3.03129">
        <ele>3.15</ele>
        <time>2019-12-30T11:29:14Z</time>
      </trkpt>
      <trkpt lat="43.12736" lon="3.0313">
        <ele>3.33</ele>
        <time>2019-12-30T11:29:15Z</time>
      </trkpt>
      <trkpt lat="43.12754" lon="3.0313">
        <ele>3.25</ele>
        <time>2019-12-30T11:29:18Z</time>
      </trkpt>
      <trkpt lat="43.12828" lon="3.03135">
        <ele>3.61</ele>
        <time>2019-12-30T11:29:30Z</time>
      </trkpt>
      <trkpt lat="43.12912" lon="3.03135">
        <ele>3.05</ele>
        <time>2019-12-30T11:29:43Z</time>
      </trkpt>
      <trkpt lat="43.12976" lon="3.03135">
        <ele>3.37</ele>
        <time>2019-12-30T11:29:54Z</time>
      </trkpt>
      <trkpt lat="43.12981" lon="3.03134">
        <ele>3.11</ele>
        <time>2019-12-30T11:29:55Z</time>
      </trkpt>
      <trkpt lat="43.12996" lon="3.03127">
        <ele>3.16</ele>
        <time>2019-12-30T11:29:58Z</time>
      </trkpt>
      <trkpt lat="43.13001" lon="3.03123">
        <ele>3.01</ele>
        <time>2019-12-30T11:29:59Z</time>
      </trkpt>
      <trkpt lat="43.13012" lon="3.03109">
        <ele>2.46</ele>
        <time>2019-12-30T11:30:02Z</time>
      </trkpt>
      <trkpt lat="43.13015" lon="3.03103">
        <ele>2.44</ele>
        <time>2019-12-30T11:30:03Z</time>
      </trkpt>
      <trkpt lat="43.13018" lon="3.03097">
        <ele>3.01</ele>
        <time>2019-12-30T11:30:04Z</time>
      </trkpt>
      <trkpt lat="43.13025" lon="3.03077">
        <ele>2.6</ele>
        <time>2019-12-30T11:30:07Z</time>
      </trkpt>
      <trkpt lat="43.13026" lon="3.03069">
        <ele>2.62</ele>
        <time>2019-12-30T11:30:08Z</time>
      </trkpt>
      <trkpt lat="43.13027" lon="3.03062">
        <ele>2.47</ele>
        <time>2019-12-30T11:30:09Z</time>
      </trkpt>
      <trkpt lat="43.13028" lon="3.03046">
        <ele>2.15</ele>
        <time>2019-12-30T11:30:11Z</time>
      </trkpt>
      <trkpt lat="43.13028" lon="3.03039">
        <ele>2.3</ele>
        <time>2019-12-30T11:30:12Z</time>
      </trkpt>
      <trkpt lat="43.13026" lon="3.02991">
        <ele>3.24</ele>
        <time>2019-12-30T11:30:19Z</time>
      </trkpt>
      <trkpt lat="43.13026" lon="3.02983">
        <ele>2.82</ele>
        <time>2019-12-30T11:30:20Z</time>
      </trkpt>
      <trkpt lat="43.13028" lon="3.02944">
        <ele>2.57</ele>
        <time>2019-12-30T11:30:25Z</time>
      </trkpt>
      <trkpt lat="43.13029" lon="3.02936">
        <ele>2.64</ele>
        <time>2019-12-30T11:30:26Z</time>
      </trkpt>
      <trkpt lat="43.13032" lon="3.02896">
        <ele>1.96</ele>
        <time>2019-12-30T11:30:31Z</time>
      </trkpt>
      <trkpt lat="43.13032" lon="3.02888">
        <ele>2.64</ele>
        <time>2019-12-30T11:30:32Z</time>
      </trkpt>
      <trkpt lat="43.13033" lon="3.02864">
        <ele>2.58</ele>
        <time>2019-12-30T11:30:35Z</time>
      </trkpt>
      <trkpt lat="43.13037" lon="3.02745">
        <ele>1.93</ele>
        <time>2019-12-30T11:30:49Z</time>
      </trkpt>
      <trkpt lat="43.13037" lon="3.02736">
        <ele>2.33</ele>
        <time>2019-12-30T11:30:50Z</time>
      </trkpt>
      <trkpt lat="43.13038" lon="3.02718">
        <ele>2.2</ele>
        <time>2019-12-30T11:30:52Z</time>
      </trkpt>
      <trkpt lat="43.13037" lon="3.02709">
        <ele>2.58</ele>
        <time>2019-12-30T11:30:53Z</time>
      </trkpt>
      <trkpt lat="43.13042" lon="3.02564">
        <ele>1.77</ele>
        <time>2019-12-30T11:31:09Z</time>
      </trkpt>
      <trkpt lat="43.13047" lon="3.02421">
        <ele>1.72</ele>
        <time>2019-12-30T11:31:25Z</time>
      </trkpt>
      <trkpt lat="43.13053" lon="3.02232">
        <ele>1.73</ele>
        <time>2019-12-30T11:31:46Z</time>
      </trkpt>
      <trkpt lat="43.1306" lon="3.02062">
        <ele>1.65</ele>
        <time>2019-12-30T11:32:05Z</time>
      </trkpt>
      <trkpt lat="43.13068" lon="3.01883">
        <ele>1.25</ele>
        <time>2019-12-30T11:32:25Z</time>
      </trkpt>
      <trkpt lat="43.13074" lon="3.01698">
        <ele>1.15</ele>
        <time>2019-12-30T11:32:46Z</time>
      </trkpt>
      <trkpt lat="43.13074" lon="3.01691">
        <ele>1.02</ele>
        <time>2019-12-30T11:32:47Z</time>
      </trkpt>
      <trkpt lat="43.13073" lon="3.01683">
        <ele>-0.01</ele>
        <time>2019-12-30T11:32:48Z</time>
      </trkpt>
      <trkpt lat="43.13073" lon="3.01676">
        <ele>0.66</ele>
        <time>2019-12-30T11:32:49Z</time>
      </trkpt>
      <trkpt lat="43.13075" lon="3.01669">
        <ele>0.78</ele>
        <time>2019-12-30T11:32:50Z</time>
      </trkpt>
      <trkpt lat="43.13078" lon="3.01664">
        <ele>-0.08</ele>
        <time>2019-12-30T11:32:51Z</time>
      </trkpt>
      <trkpt lat="43.13083" lon="3.01664">
        <ele>0.72</ele>
        <time>2019-12-30T11:32:52Z</time>
      </trkpt>
      <trkpt lat="43.13088" lon="3.01667">
        <ele>0.95</ele>
        <time>2019-12-30T11:32:53Z</time>
      </trkpt>
      <trkpt lat="43.13093" lon="3.0167">
        <ele>0.41</ele>
        <time>2019-12-30T11:32:54Z</time>
      </trkpt>
      <trkpt lat="43.13098" lon="3.01673">
        <ele>1.18</ele>
        <time>2019-12-30T11:32:55Z</time>
      </trkpt>
      <trkpt lat="43.1319" lon="3.01741">
        <ele>1.27</ele>
        <time>2019-12-30T11:33:12Z</time>
      </trkpt>
      <trkpt lat="43.13279" lon="3.01804">
        <ele>1.29</ele>
        <time>2019-12-30T11:33:28Z</time>
      </trkpt>
      <trkpt lat="43.13366" lon="3.01874">
        <ele>0.98</ele>
        <time>2019-12-30T11:33:44Z</time>
      </trkpt>
      <trkpt lat="43.13454" lon="3.01954">
        <ele>0.83</ele>
        <time>2019-12-30T11:34:02Z</time>
      </trkpt>
      <trkpt lat="43.13459" lon="3.0196">
        <ele>1</ele>
        <time>2019-12-30T11:34:38Z</time>
      </trkpt>
      <trkpt lat="43.13464" lon="3.01956">
        <ele>0.32</ele>
        <time>2019-12-30T11:34:39Z</time>
      </trkpt>
      <trkpt lat="43.13464" lon="3.01953">
        <ele>0.31</ele>
        <time>2019-12-30T11:34:40Z</time>
      </trkpt>
      <trkpt lat="43.13465" lon="3.01951">
        <ele>0.37</ele>
        <time>2019-12-30T11:34:41Z</time>
      </trkpt>
      <trkpt lat="43.13466" lon="3.01949">
        <ele>-0.14</ele>
        <time>2019-12-30T11:34:42Z</time>
      </trkpt>
      <trkpt lat="43.13468" lon="3.01946">
        <ele>0.41</ele>
        <time>2019-12-30T11:34:43Z</time>
      </trkpt>
      <trkpt lat="43.13469" lon="3.01944">
        <ele>-0.18</ele>
        <time>2019-12-30T11:34:44Z</time>
      </trkpt>
      <trkpt lat="43.1347" lon="3.01942">
        <ele>1</ele>
        <time>2019-12-30T11:34:45Z</time>
      </trkpt>
      <trkpt lat="43.13471" lon="3.01939">
        <ele>0.17</ele>
        <time>2019-12-30T11:34:46Z</time>
      </trkpt>
      <trkpt lat="43.13472" lon="3.01936">
        <ele>-0.09</ele>
        <time>2019-12-30T11:34:47Z</time>
      </trkpt>
      <trkpt lat="43.13472" lon="3.01933">
        <ele>0.48</ele>
        <time>2019-12-30T11:34:48Z</time>
      </trkpt>
      <trkpt lat="43.13473" lon="3.01931">
        <ele>0.41</ele>
        <time>2019-12-30T11:34:49Z</time>
      </trkpt>
      <trkpt lat="43.13475" lon="3.0193">
        <ele>1</ele>
        <time>2019-12-30T11:34:50Z</time>
      </trkpt>
      <trkpt lat="43.13477" lon="3.0193">
        <ele>0.37</ele>
        <time>2019-12-30T11:34:51Z</time>
      </trkpt>
      <trkpt lat="43.13479" lon="3.0193">
        <ele>0.26</ele>
        <time>2019-12-30T11:34:52Z</time>
      </trkpt>
      <trkpt lat="43.1348" lon="3.0193">
        <ele>0.2</ele>
        <time>2019-12-30T11:34:53Z</time>
      </trkpt>
      <trkpt lat="43.13481" lon="3.01929">
        <ele>0.13</ele>
        <time>2019-12-30T11:34:54Z</time>
      </trkpt>
      <trkpt lat="43.13483" lon="3.01928">
        <ele>-0.03</ele>
        <time>2019-12-30T11:34:55Z</time>
      </trkpt>
      <trkpt lat="43.13504" lon="3.01907">
        <ele>0.7</ele>
        <time>2019-12-30T11:35:04Z</time>
      </trkpt>
      <trkpt lat="43.13508" lon="3.01904">
        <ele>0.95</ele>
        <time>2019-12-30T11:35:05Z</time>
      </trkpt>
      <trkpt lat="43.13513" lon="3.01901">
        <ele>0.92</ele>
        <time>2019-12-30T11:35:06Z</time>
      </trkpt>
      <trkpt lat="43.13517" lon="3.01897">
        <ele>0.75</ele>
        <time>2019-12-30T11:35:07Z</time>
      </trkpt>
      <trkpt lat="43.13521" lon="3.01892">
        <ele>1.09</ele>
        <time>2019-12-30T11:35:08Z</time>
      </trkpt>
      <trkpt lat="43.13524" lon="3.01886">
        <ele>0.54</ele>
        <time>2019-12-30T11:35:09Z</time>
      </trkpt>
      <trkpt lat="43.13578" lon="3.01802">
        <ele>0.6</ele>
        <time>2019-12-30T11:35:24Z</time>
      </trkpt>
      <trkpt lat="43.13581" lon="3.01796">
        <ele>0.86</ele>
        <time>2019-12-30T11:35:25Z</time>
      </trkpt>
      <trkpt lat="43.13582" lon="3.01789">
        <ele>0.8</ele>
        <time>2019-12-30T11:35:26Z</time>
      </trkpt>
      <trkpt lat="43.13581" lon="3.01783">
        <ele>0.78</ele>
        <time>2019-12-30T11:35:27Z</time>
      </trkpt>
      <trkpt lat="43.13578" lon="3.01778">
        <ele>0.54</ele>
        <time>2019-12-30T11:35:28Z</time>
      </trkpt>
      <trkpt lat="43.13577" lon="3.01772">
        <ele>0.69</ele>
        <time>2019-12-30T11:35:29Z</time>
      </trkpt>
      <trkpt lat="43.13576" lon="3.01765">
        <ele>0.77</ele>
        <time>2019-12-30T11:35:30Z</time>
      </trkpt>
      <trkpt lat="43.13577" lon="3.01759">
        <ele>0.97</ele>
        <time>2019-12-30T11:35:31Z</time>
      </trkpt>
      <trkpt lat="43.1358" lon="3.01754">
        <ele>0.88</ele>
        <time>2019-12-30T11:35:32Z</time>
      </trkpt>
      <trkpt lat="43.13583" lon="3.01749">
        <ele>0.95</ele>
        <time>2019-12-30T11:35:33Z</time>
      </trkpt>
      <trkpt lat="43.13601" lon="3.01724">
        <ele>0.46</ele>
        <time>2019-12-30T11:35:38Z</time>
      </trkpt>
      <trkpt lat="43.13604" lon="3.01722">
        <ele>0.81</ele>
        <time>2019-12-30T11:35:39Z</time>
      </trkpt>
      <trkpt lat="43.13608" lon="3.01722">
        <ele>-0.03</ele>
        <time>2019-12-30T11:35:40Z</time>
      </trkpt>
      <trkpt lat="43.13609" lon="3.01723">
        <ele>0.27</ele>
        <time>2019-12-30T11:35:41Z</time>
      </trkpt>
      <trkpt lat="43.1361" lon="3.01726">
        <ele>-0.29</ele>
        <time>2019-12-30T11:35:42Z</time>
      </trkpt>
      <trkpt lat="43.13611" lon="3.01729">
        <ele>0.17</ele>
        <time>2019-12-30T11:35:43Z</time>
      </trkpt>
      <trkpt lat="43.13612" lon="3.01732">
        <ele>0.59</ele>
        <time>2019-12-30T11:35:44Z</time>
      </trkpt>
      <trkpt lat="43.13615" lon="3.01734">
        <ele>-0.1</ele>
        <time>2019-12-30T11:35:45Z</time>
      </trkpt>
      <trkpt lat="43.13617" lon="3.01737">
        <ele>0.12</ele>
        <time>2019-12-30T11:35:46Z</time>
      </trkpt>
      <trkpt lat="43.13646" lon="3.01732">
        <ele>0.67</ele>
        <time>2019-12-30T11:35:56Z</time>
      </trkpt>
      <trkpt lat="43.13673" lon="3.01727">
        <ele>0.65</ele>
        <time>2019-12-30T11:36:05Z</time>
      </trkpt>
      <trkpt lat="43.13676" lon="3.0173">
        <ele>0.67</ele>
        <time>2019-12-30T11:36:06Z</time>
      </trkpt>
      <trkpt lat="43.13679" lon="3.01733">
        <ele>0.58</ele>
        <time>2019-12-30T11:36:07Z</time>
      </trkpt>
      <trkpt lat="43.13682" lon="3.01735">
        <ele>0.99</ele>
        <time>2019-12-30T11:36:08Z</time>
      </trkpt>
      <trkpt lat="43.13684" lon="3.01735">
        <ele>0.81</ele>
        <time>2019-12-30T11:36:09Z</time>
      </trkpt>
      <trkpt lat="43.13686" lon="3.01734">
        <ele>1.14</ele>
        <time>2019-12-30T11:36:10Z</time>
      </trkpt>
      <trkpt lat="43.13689" lon="3.01734">
        <ele>1.52</ele>
        <time>2019-12-30T11:36:14Z</time>
      </trkpt>
      <trkpt lat="43.13693" lon="3.01735">
        <ele>2</ele>
        <time>2019-12-30T11:36:17Z</time>
      </trkpt>
      <trkpt lat="43.13702" lon="3.01737">
        <ele>1.33</ele>
        <time>2019-12-30T11:36:25Z</time>
      </trkpt>
      <trkpt lat="43.13703" lon="3.01736">
        <ele>1.37</ele>
        <time>2019-12-30T11:36:26Z</time>
      </trkpt>
      <trkpt lat="43.13703" lon="3.01734">
        <ele>1.21</ele>
        <time>2019-12-30T11:36:27Z</time>
      </trkpt>
      <trkpt lat="43.13704" lon="3.01733">
        <ele>0.92</ele>
        <time>2019-12-30T11:36:28Z</time>
      </trkpt>
      <trkpt lat="43.13706" lon="3.0173">
        <ele>0.63</ele>
        <time>2019-12-30T11:36:29Z</time>
      </trkpt>
      <trkpt lat="43.13708" lon="3.01726">
        <ele>0.07</ele>
        <time>2019-12-30T11:36:30Z</time>
      </trkpt>
      <trkpt lat="43.1371" lon="3.01723">
        <ele>0.53</ele>
        <time>2019-12-30T11:36:31Z</time>
      </trkpt>
      <trkpt lat="43.13714" lon="3.01721">
        <ele>0.44</ele>
        <time>2019-12-30T11:36:32Z</time>
      </trkpt>
      <trkpt lat="43.13718" lon="3.0172">
        <ele>0.88</ele>
        <time>2019-12-30T11:36:33Z</time>
      </trkpt>
      <trkpt lat="43.13723" lon="3.0172">
        <ele>1.18</ele>
        <time>2019-12-30T11:36:34Z</time>
      </trkpt>
      <trkpt lat="43.13728" lon="3.01721">
        <ele>0.78</ele>
        <time>2019-12-30T11:36:35Z</time>
      </trkpt>
      <trkpt lat="43.13732" lon="3.01721">
        <ele>0.45</ele>
        <time>2019-12-30T11:36:36Z</time>
      </trkpt>
      <trkpt lat="43.13737" lon="3.01722">
        <ele>0.14</ele>
        <time>2019-12-30T11:36:37Z</time>
      </trkpt>
      <trkpt lat="43.13781" lon="3.01736">
        <ele>0.65</ele>
        <time>2019-12-30T11:36:46Z</time>
      </trkpt>
      <trkpt lat="43.13786" lon="3.01739">
        <ele>0.44</ele>
        <time>2019-12-30T11:36:47Z</time>
      </trkpt>
      <trkpt lat="43.13791" lon="3.01741">
        <ele>1.56</ele>
        <time>2019-12-30T11:36:48Z</time>
      </trkpt>
      <trkpt lat="43.13806" lon="3.01745">
        <ele>1.12</ele>
        <time>2019-12-30T11:36:51Z</time>
      </trkpt>
      <trkpt lat="43.13811" lon="3.01747">
        <ele>1.27</ele>
        <time>2019-12-30T11:36:52Z</time>
      </trkpt>
      <trkpt lat="43.13821" lon="3.01749">
        <ele>1.58</ele>
        <time>2019-12-30T11:36:54Z</time>
      </trkpt>
      <trkpt lat="43.13826" lon="3.0175">
        <ele>1.28</ele>
        <time>2019-12-30T11:36:55Z</time>
      </trkpt>
      <trkpt lat="43.1383" lon="3.01751">
        <ele>1.07</ele>
        <time>2019-12-30T11:36:56Z</time>
      </trkpt>
      <trkpt lat="43.13834" lon="3.01753">
        <ele>1.27</ele>
        <time>2019-12-30T11:36:57Z</time>
      </trkpt>
      <trkpt lat="43.13838" lon="3.01755">
        <ele>1.96</ele>
        <time>2019-12-30T11:37:04Z</time>
      </trkpt>
      <trkpt lat="43.13839" lon="3.01755">
        <ele>2.03</ele>
        <time>2019-12-30T11:37:05Z</time>
      </trkpt>
      <trkpt lat="43.1384" lon="3.01756">
        <ele>2.17</ele>
        <time>2019-12-30T11:37:06Z</time>
      </trkpt>
      <trkpt lat="43.13854" lon="3.01772">
        <ele>0.63</ele>
        <time>2019-12-30T11:37:21Z</time>
      </trkpt>
      <trkpt lat="43.13856" lon="3.01776">
        <ele>0.71</ele>
        <time>2019-12-30T11:37:22Z</time>
      </trkpt>
      <trkpt lat="43.13859" lon="3.01779">
        <ele>0.49</ele>
        <time>2019-12-30T11:37:23Z</time>
      </trkpt>
      <trkpt lat="43.13862" lon="3.01782">
        <ele>0.95</ele>
        <time>2019-12-30T11:37:24Z</time>
      </trkpt>
      <trkpt lat="43.13866" lon="3.01784">
        <ele>0.47</ele>
        <time>2019-12-30T11:37:25Z</time>
      </trkpt>
      <trkpt lat="43.1387" lon="3.01786">
        <ele>0.78</ele>
        <time>2019-12-30T11:37:26Z</time>
      </trkpt>
      <trkpt lat="43.13873" lon="3.01789">
        <ele>0.55</ele>
        <time>2019-12-30T11:37:27Z</time>
      </trkpt>
      <trkpt lat="43.13877" lon="3.01792">
        <ele>0.73</ele>
        <time>2019-12-30T11:37:28Z</time>
      </trkpt>
      <trkpt lat="43.13885" lon="3.01797">
        <ele>0.77</ele>
        <time>2019-12-30T11:37:30Z</time>
      </trkpt>
      <trkpt lat="43.13889" lon="3.01798">
        <ele>0.87</ele>
        <time>2019-12-30T11:37:31Z</time>
      </trkpt>
      <trkpt lat="43.13894" lon="3.01798">
        <ele>1.04</ele>
        <time>2019-12-30T11:37:32Z</time>
      </trkpt>
      <trkpt lat="43.13898" lon="3.01797">
        <ele>1.17</ele>
        <time>2019-12-30T11:37:33Z</time>
      </trkpt>
      <trkpt lat="43.13903" lon="3.01796">
        <ele>1.12</ele>
        <time>2019-12-30T11:37:34Z</time>
      </trkpt>
      <trkpt lat="43.13906" lon="3.01793">
        <ele>1.12</ele>
        <time>2019-12-30T11:37:35Z</time>
      </trkpt>
      <trkpt lat="43.13909" lon="3.0179">
        <ele>1.36</ele>
        <time>2019-12-30T11:37:36Z</time>
      </trkpt>
      <trkpt lat="43.13912" lon="3.01786">
        <ele>1.19</ele>
        <time>2019-12-30T11:37:37Z</time>
      </trkpt>
      <trkpt lat="43.13946" lon="3.01747">
        <ele>1.25</ele>
        <time>2019-12-30T11:37:49Z</time>
      </trkpt>
      <trkpt lat="43.13957" lon="3.01737">
        <ele>1.38</ele>
        <time>2019-12-30T11:37:52Z</time>
      </trkpt>
      <trkpt lat="43.1396" lon="3.01734">
        <ele>0.63</ele>
        <time>2019-12-30T11:37:53Z</time>
      </trkpt>
      <trkpt lat="43.13963" lon="3.01731">
        <ele>0.42</ele>
        <time>2019-12-30T11:37:54Z</time>
      </trkpt>
      <trkpt lat="43.13998" lon="3.01705">
        <ele>1.51</ele>
        <time>2019-12-30T11:38:04Z</time>
      </trkpt>
      <trkpt lat="43.14002" lon="3.01702">
        <ele>1.22</ele>
        <time>2019-12-30T11:38:05Z</time>
      </trkpt>
      <trkpt lat="43.14042" lon="3.01665">
        <ele>1.77</ele>
        <time>2019-12-30T11:38:16Z</time>
      </trkpt>
      <trkpt lat="43.14045" lon="3.01661">
        <ele>1.77</ele>
        <time>2019-12-30T11:38:17Z</time>
      </trkpt>
      <trkpt lat="43.14049" lon="3.01657">
        <ele>1.23</ele>
        <time>2019-12-30T11:38:18Z</time>
      </trkpt>
      <trkpt lat="43.14066" lon="3.01636">
        <ele>0.9</ele>
        <time>2019-12-30T11:38:23Z</time>
      </trkpt>
      <trkpt lat="43.141" lon="3.01591">
        <ele>2.53</ele>
        <time>2019-12-30T11:38:33Z</time>
      </trkpt>
      <trkpt lat="43.14106" lon="3.01581">
        <ele>1.51</ele>
        <time>2019-12-30T11:38:35Z</time>
      </trkpt>
      <trkpt lat="43.1411" lon="3.01577">
        <ele>2.22</ele>
        <time>2019-12-30T11:38:36Z</time>
      </trkpt>
      <trkpt lat="43.14114" lon="3.01574">
        <ele>2.17</ele>
        <time>2019-12-30T11:38:37Z</time>
      </trkpt>
      <trkpt lat="43.14118" lon="3.0157">
        <ele>2.21</ele>
        <time>2019-12-30T11:38:38Z</time>
      </trkpt>
      <trkpt lat="43.14121" lon="3.01565">
        <ele>2.45</ele>
        <time>2019-12-30T11:38:39Z</time>
      </trkpt>
      <trkpt lat="43.14124" lon="3.0156">
        <ele>2.09</ele>
        <time>2019-12-30T11:38:40Z</time>
      </trkpt>
      <trkpt lat="43.14127" lon="3.01555">
        <ele>1.64</ele>
        <time>2019-12-30T11:38:41Z</time>
      </trkpt>
      <trkpt lat="43.1413" lon="3.0155">
        <ele>1.94</ele>
        <time>2019-12-30T11:38:42Z</time>
      </trkpt>
      <trkpt lat="43.14134" lon="3.01546">
        <ele>2.2</ele>
        <time>2019-12-30T11:38:43Z</time>
      </trkpt>
      <trkpt lat="43.14145" lon="3.01533">
        <ele>2.9</ele>
        <time>2019-12-30T11:38:46Z</time>
      </trkpt>
      <trkpt lat="43.14148" lon="3.01527">
        <ele>1.81</ele>
        <time>2019-12-30T11:38:47Z</time>
      </trkpt>
      <trkpt lat="43.14152" lon="3.01521">
        <ele>1.89</ele>
        <time>2019-12-30T11:38:48Z</time>
      </trkpt>
      <trkpt lat="43.14155" lon="3.01516">
        <ele>1.65</ele>
        <time>2019-12-30T11:38:49Z</time>
      </trkpt>
      <trkpt lat="43.14159" lon="3.01511">
        <ele>1.83</ele>
        <time>2019-12-30T11:38:50Z</time>
      </trkpt>
      <trkpt lat="43.14163" lon="3.01506">
        <ele>1.91</ele>
        <time>2019-12-30T11:38:51Z</time>
      </trkpt>
      <trkpt lat="43.14167" lon="3.01502">
        <ele>1.91</ele>
        <time>2019-12-30T11:38:52Z</time>
      </trkpt>
      <trkpt lat="43.14171" lon="3.01497">
        <ele>2.39</ele>
        <time>2019-12-30T11:38:53Z</time>
      </trkpt>
      <trkpt lat="43.14175" lon="3.01491">
        <ele>1.72</ele>
        <time>2019-12-30T11:38:54Z</time>
      </trkpt>
      <trkpt lat="43.142" lon="3.01461">
        <ele>2.4</ele>
        <time>2019-12-30T11:39:00Z</time>
      </trkpt>
      <trkpt lat="43.14203" lon="3.01455">
        <ele>1.86</ele>
        <time>2019-12-30T11:39:01Z</time>
      </trkpt>
      <trkpt lat="43.14206" lon="3.01448">
        <ele>1.64</ele>
        <time>2019-12-30T11:39:02Z</time>
      </trkpt>
      <trkpt lat="43.14222" lon="3.01399">
        <ele>1.36</ele>
        <time>2019-12-30T11:39:09Z</time>
      </trkpt>
      <trkpt lat="43.14223" lon="3.01392">
        <ele>1.23</ele>
        <time>2019-12-30T11:39:10Z</time>
      </trkpt>
      <trkpt lat="43.14247" lon="3.01265">
        <ele>1.86</ele>
        <time>2019-12-30T11:39:26Z</time>
      </trkpt>
      <trkpt lat="43.14249" lon="3.01257">
        <ele>1.89</ele>
        <time>2019-12-30T11:39:27Z</time>
      </trkpt>
      <trkpt lat="43.14249" lon="3.01249">
        <ele>1.76</ele>
        <time>2019-12-30T11:39:28Z</time>
      </trkpt>
      <trkpt lat="43.14251" lon="3.0121">
        <ele>1.87</ele>
        <time>2019-12-30T11:39:33Z</time>
      </trkpt>
      <trkpt lat="43.14254" lon="3.01181">
        <ele>1.41</ele>
        <time>2019-12-30T11:39:37Z</time>
      </trkpt>
      <trkpt lat="43.14254" lon="3.01145">
        <ele>1.09</ele>
        <time>2019-12-30T11:39:42Z</time>
      </trkpt>
      <trkpt lat="43.14254" lon="3.01138">
        <ele>1.55</ele>
        <time>2019-12-30T11:39:43Z</time>
      </trkpt>
      <trkpt lat="43.14253" lon="3.01131">
        <ele>1.55</ele>
        <time>2019-12-30T11:39:44Z</time>
      </trkpt>
      <trkpt lat="43.14249" lon="3.01102">
        <ele>1.42</ele>
        <time>2019-12-30T11:39:48Z</time>
      </trkpt>
      <trkpt lat="43.14249" lon="3.01095">
        <ele>1.46</ele>
        <time>2019-12-30T11:39:49Z</time>
      </trkpt>
      <trkpt lat="43.14248" lon="3.01088">
        <ele>1.8</ele>
        <time>2019-12-30T11:39:50Z</time>
      </trkpt>
      <trkpt lat="43.14247" lon="3.01081">
        <ele>1.68</ele>
        <time>2019-12-30T11:39:51Z</time>
      </trkpt>
      <trkpt lat="43.14245" lon="3.01073">
        <ele>1.44</ele>
        <time>2019-12-30T11:39:52Z</time>
      </trkpt>
      <trkpt lat="43.14238" lon="3.01036">
        <ele>0.92</ele>
        <time>2019-12-30T11:39:58Z</time>
      </trkpt>
      <trkpt lat="43.14238" lon="3.0103">
        <ele>0.79</ele>
        <time>2019-12-30T11:39:59Z</time>
      </trkpt>
      <trkpt lat="43.1424" lon="3.01026">
        <ele>1.03</ele>
        <time>2019-12-30T11:40:00Z</time>
      </trkpt>
      <trkpt lat="43.14241" lon="3.01022">
        <ele>1.19</ele>
        <time>2019-12-30T11:40:01Z</time>
      </trkpt>
      <trkpt lat="43.14241" lon="3.01018">
        <ele>1.02</ele>
        <time>2019-12-30T11:40:02Z</time>
      </trkpt>
      <trkpt lat="43.14239" lon="3.01016">
        <ele>0.98</ele>
        <time>2019-12-30T11:40:03Z</time>
      </trkpt>
      <trkpt lat="43.14238" lon="3.01013">
        <ele>1.07</ele>
        <time>2019-12-30T11:40:04Z</time>
      </trkpt>
      <trkpt lat="43.14237" lon="3.0101">
        <ele>1.11</ele>
        <time>2019-12-30T11:40:05Z</time>
      </trkpt>
      <trkpt lat="43.14238" lon="3.0101">
        <ele>0.95</ele>
        <time>2019-12-30T11:40:17Z</time>
      </trkpt>
      <trkpt lat="43.14237" lon="3.01009">
        <ele>0.41</ele>
        <time>2019-12-30T11:40:36Z</time>
      </trkpt>
      <trkpt lat="43.14236" lon="3.01007">
        <ele>0.72</ele>
        <time>2019-12-30T11:41:02Z</time>
      </trkpt>
      <trkpt lat="43.14232" lon="3.01002">
        <ele>0.62</ele>
        <time>2019-12-30T11:41:15Z</time>
      </trkpt>
      <trkpt lat="43.14232" lon="3.01">
        <ele>1.11</ele>
        <time>2019-12-30T11:41:16Z</time>
      </trkpt>
      <trkpt lat="43.14233" lon="3.00998">
        <ele>0.48</ele>
        <time>2019-12-30T11:41:18Z</time>
      </trkpt>
      <trkpt lat="43.14239" lon="3.00998">
        <ele>1.01</ele>
        <time>2019-12-30T11:41:32Z</time>
      </trkpt>
      <trkpt lat="43.14242" lon="3.00996">
        <ele>1.2</ele>
        <time>2019-12-30T11:41:44Z</time>
      </trkpt>
      <trkpt lat="43.14245" lon="3.00978">
        <ele>1.27</ele>
        <time>2019-12-30T11:41:55Z</time>
      </trkpt>
      <trkpt lat="43.14245" lon="3.00972">
        <ele>1.33</ele>
        <time>2019-12-30T11:41:59Z</time>
      </trkpt>
      <trkpt lat="43.14243" lon="3.00941">
        <ele>0.7</ele>
        <time>2019-12-30T11:42:14Z</time>
      </trkpt>
      <trkpt lat="43.14243" lon="3.00933">
        <ele>1.25</ele>
        <time>2019-12-30T11:42:18Z</time>
      </trkpt>
      <trkpt lat="43.14242" lon="3.00892">
        <ele>1.31</ele>
        <time>2019-12-30T11:42:31Z</time>
      </trkpt>
      <trkpt lat="43.14244" lon="3.00871">
        <ele>1.22</ele>
        <time>2019-12-30T11:42:35Z</time>
      </trkpt>
      <trkpt lat="43.14246" lon="3.00866">
        <ele>1.61</ele>
        <time>2019-12-30T11:42:36Z</time>
      </trkpt>
      <trkpt lat="43.14261" lon="3.00819">
        <ele>1.31</ele>
        <time>2019-12-30T11:42:44Z</time>
      </trkpt>
      <trkpt lat="43.14264" lon="3.00807">
        <ele>1.54</ele>
        <time>2019-12-30T11:42:46Z</time>
      </trkpt>
      <trkpt lat="43.14266" lon="3.00802">
        <ele>1.79</ele>
        <time>2019-12-30T11:42:47Z</time>
      </trkpt>
      <trkpt lat="43.1427" lon="3.00796">
        <ele>1.59</ele>
        <time>2019-12-30T11:42:48Z</time>
      </trkpt>
      <trkpt lat="43.14273" lon="3.00791">
        <ele>1.73</ele>
        <time>2019-12-30T11:42:49Z</time>
      </trkpt>
      <trkpt lat="43.14277" lon="3.00786">
        <ele>1.6</ele>
        <time>2019-12-30T11:42:50Z</time>
      </trkpt>
      <trkpt lat="43.14282" lon="3.00782">
        <ele>1.34</ele>
        <time>2019-12-30T11:42:51Z</time>
      </trkpt>
      <trkpt lat="43.14302" lon="3.00759">
        <ele>1.63</ele>
        <time>2019-12-30T11:42:56Z</time>
      </trkpt>
      <trkpt lat="43.14306" lon="3.00754">
        <ele>1.32</ele>
        <time>2019-12-30T11:42:57Z</time>
      </trkpt>
      <trkpt lat="43.14308" lon="3.00747">
        <ele>1.17</ele>
        <time>2019-12-30T11:42:58Z</time>
      </trkpt>
      <trkpt lat="43.14317" lon="3.00722">
        <ele>1.54</ele>
        <time>2019-12-30T11:43:02Z</time>
      </trkpt>
      <trkpt lat="43.14318" lon="3.00716">
        <ele>1.49</ele>
        <time>2019-12-30T11:43:03Z</time>
      </trkpt>
      <trkpt lat="43.14321" lon="3.00702">
        <ele>1.69</ele>
        <time>2019-12-30T11:43:05Z</time>
      </trkpt>
      <trkpt lat="43.14322" lon="3.00695">
        <ele>1.74</ele>
        <time>2019-12-30T11:43:06Z</time>
      </trkpt>
      <trkpt lat="43.14324" lon="3.00688">
        <ele>1.62</ele>
        <time>2019-12-30T11:43:07Z</time>
      </trkpt>
      <trkpt lat="43.14327" lon="3.00682">
        <ele>1.49</ele>
        <time>2019-12-30T11:43:08Z</time>
      </trkpt>
      <trkpt lat="43.14327" lon="3.00674">
        <ele>1.68</ele>
        <time>2019-12-30T11:43:09Z</time>
      </trkpt>
      <trkpt lat="43.14327" lon="3.00667">
        <ele>1.77</ele>
        <time>2019-12-30T11:43:10Z</time>
      </trkpt>
      <trkpt lat="43.14327" lon="3.00651">
        <ele>1.46</ele>
        <time>2019-12-30T11:43:12Z</time>
      </trkpt>
      <trkpt lat="43.14321" lon="3.00596">
        <ele>1.12</ele>
        <time>2019-12-30T11:43:19Z</time>
      </trkpt>
      <trkpt lat="43.1432" lon="3.00588">
        <ele>1.29</ele>
        <time>2019-12-30T11:43:20Z</time>
      </trkpt>
      <trkpt lat="43.14318" lon="3.0058">
        <ele>1.06</ele>
        <time>2019-12-30T11:43:21Z</time>
      </trkpt>
      <trkpt lat="43.14317" lon="3.00572">
        <ele>1.04</ele>
        <time>2019-12-30T11:43:22Z</time>
      </trkpt>
      <trkpt lat="43.14316" lon="3.00563">
        <ele>1.25</ele>
        <time>2019-12-30T11:43:23Z</time>
      </trkpt>
      <trkpt lat="43.14315" lon="3.00555">
        <ele>1.34</ele>
        <time>2019-12-30T11:43:24Z</time>
      </trkpt>
      <trkpt lat="43.14314" lon="3.00547">
        <ele>1.4</ele>
        <time>2019-12-30T11:43:25Z</time>
      </trkpt>
      <trkpt lat="43.14315" lon="3.00539">
        <ele>1.4</ele>
        <time>2019-12-30T11:43:26Z</time>
      </trkpt>
      <trkpt lat="43.14317" lon="3.00524">
        <ele>1.49</ele>
        <time>2019-12-30T11:43:28Z</time>
      </trkpt>
      <trkpt lat="43.14318" lon="3.00517">
        <ele>1.5</ele>
        <time>2019-12-30T11:43:29Z</time>
      </trkpt>
      <trkpt lat="43.14319" lon="3.0051">
        <ele>1.54</ele>
        <time>2019-12-30T11:43:30Z</time>
      </trkpt>
      <trkpt lat="43.1432" lon="3.00503">
        <ele>1.81</ele>
        <time>2019-12-30T11:43:31Z</time>
      </trkpt>
      <trkpt lat="43.14322" lon="3.00495">
        <ele>2.36</ele>
        <time>2019-12-30T11:43:32Z</time>
      </trkpt>
      <trkpt lat="43.14325" lon="3.00489">
        <ele>1.78</ele>
        <time>2019-12-30T11:43:33Z</time>
      </trkpt>
      <trkpt lat="43.14342" lon="3.00446">
        <ele>3.29</ele>
        <time>2019-12-30T11:43:40Z</time>
      </trkpt>
      <trkpt lat="43.14344" lon="3.0044">
        <ele>3.54</ele>
        <time>2019-12-30T11:43:41Z</time>
      </trkpt>
      <trkpt lat="43.14352" lon="3.00423">
        <ele>4.27</ele>
        <time>2019-12-30T11:43:44Z</time>
      </trkpt>
      <trkpt lat="43.14368" lon="3.00392">
        <ele>5.34</ele>
        <time>2019-12-30T11:43:50Z</time>
      </trkpt>
      <trkpt lat="43.14371" lon="3.00386">
        <ele>5.07</ele>
        <time>2019-12-30T11:43:51Z</time>
      </trkpt>
      <trkpt lat="43.14373" lon="3.00381">
        <ele>5.28</ele>
        <time>2019-12-30T11:43:52Z</time>
      </trkpt>
      <trkpt lat="43.14377" lon="3.0037">
        <ele>6.06</ele>
        <time>2019-12-30T11:43:54Z</time>
      </trkpt>
      <trkpt lat="43.14383" lon="3.0036">
        <ele>6.41</ele>
        <time>2019-12-30T11:43:56Z</time>
      </trkpt>
      <trkpt lat="43.14385" lon="3.00356">
        <ele>6.81</ele>
        <time>2019-12-30T11:43:57Z</time>
      </trkpt>
      <trkpt lat="43.14388" lon="3.00351">
        <ele>6.37</ele>
        <time>2019-12-30T11:43:58Z</time>
      </trkpt>
      <trkpt lat="43.1439" lon="3.00347">
        <ele>7.05</ele>
        <time>2019-12-30T11:43:59Z</time>
      </trkpt>
      <trkpt lat="43.14392" lon="3.00343">
        <ele>7.33</ele>
        <time>2019-12-30T11:44:00Z</time>
      </trkpt>
      <trkpt lat="43.14392" lon="3.00323">
        <ele>8.27</ele>
        <time>2019-12-30T11:44:06Z</time>
      </trkpt>
      <trkpt lat="43.1439" lon="3.00322">
        <ele>7.75</ele>
        <time>2019-12-30T11:44:07Z</time>
      </trkpt>
      <trkpt lat="43.14388" lon="3.00321">
        <ele>7.89</ele>
        <time>2019-12-30T11:44:08Z</time>
      </trkpt>
      <trkpt lat="43.14385" lon="3.00319">
        <ele>7.85</ele>
        <time>2019-12-30T11:44:09Z</time>
      </trkpt>
      <trkpt lat="43.14383" lon="3.00318">
        <ele>7.82</ele>
        <time>2019-12-30T11:44:10Z</time>
      </trkpt>
      <trkpt lat="43.1438" lon="3.00315">
        <ele>7.47</ele>
        <time>2019-12-30T11:44:11Z</time>
      </trkpt>
      <trkpt lat="43.14373" lon="3.00311">
        <ele>7.02</ele>
        <time>2019-12-30T11:44:13Z</time>
      </trkpt>
      <trkpt lat="43.14349" lon="3.00303">
        <ele>5.74</ele>
        <time>2019-12-30T11:44:17Z</time>
      </trkpt>
      <trkpt lat="43.14335" lon="3.00299">
        <ele>4.58</ele>
        <time>2019-12-30T11:44:19Z</time>
      </trkpt>
      <trkpt lat="43.14327" lon="3.00295">
        <ele>4.43</ele>
        <time>2019-12-30T11:44:20Z</time>
      </trkpt>
      <trkpt lat="43.1432" lon="3.0029">
        <ele>3.37</ele>
        <time>2019-12-30T11:44:21Z</time>
      </trkpt>
      <trkpt lat="43.14314" lon="3.00282">
        <ele>2.63</ele>
        <time>2019-12-30T11:44:22Z</time>
      </trkpt>
      <trkpt lat="43.1431" lon="3.00273">
        <ele>1.78</ele>
        <time>2019-12-30T11:44:23Z</time>
      </trkpt>
      <trkpt lat="43.14307" lon="3.00262">
        <ele>1.79</ele>
        <time>2019-12-30T11:44:24Z</time>
      </trkpt>
      <trkpt lat="43.14307" lon="3.00252">
        <ele>1.92</ele>
        <time>2019-12-30T11:44:25Z</time>
      </trkpt>
      <trkpt lat="43.14309" lon="3.00241">
        <ele>2.11</ele>
        <time>2019-12-30T11:44:26Z</time>
      </trkpt>
      <trkpt lat="43.1431" lon="3.00231">
        <ele>2.16</ele>
        <time>2019-12-30T11:44:27Z</time>
      </trkpt>
      <trkpt lat="43.14316" lon="3.00191">
        <ele>1.9</ele>
        <time>2019-12-30T11:44:31Z</time>
      </trkpt>
      <trkpt lat="43.14316" lon="3.00135">
        <ele>1.86</ele>
        <time>2019-12-30T11:44:37Z</time>
      </trkpt>
      <trkpt lat="43.14316" lon="3.00058">
        <ele>1.82</ele>
        <time>2019-12-30T11:44:46Z</time>
      </trkpt>
      <trkpt lat="43.14317" lon="3.00051">
        <ele>1.71</ele>
        <time>2019-12-30T11:44:47Z</time>
      </trkpt>
      <trkpt lat="43.1432" lon="3.00043">
        <ele>1.89</ele>
        <time>2019-12-30T11:44:48Z</time>
      </trkpt>
      <trkpt lat="43.14322" lon="3.00036">
        <ele>1.77</ele>
        <time>2019-12-30T11:44:49Z</time>
      </trkpt>
      <trkpt lat="43.14325" lon="3.00029">
        <ele>1.76</ele>
        <time>2019-12-30T11:44:50Z</time>
      </trkpt>
      <trkpt lat="43.14329" lon="3.00017">
        <ele>2.38</ele>
        <time>2019-12-30T11:44:52Z</time>
      </trkpt>
      <trkpt lat="43.1433" lon="3.00011">
        <ele>2.57</ele>
        <time>2019-12-30T11:44:53Z</time>
      </trkpt>
      <trkpt lat="43.14331" lon="3.00005">
        <ele>2.98</ele>
        <time>2019-12-30T11:44:54Z</time>
      </trkpt>
      <trkpt lat="43.14332" lon="2.99992">
        <ele>2.58</ele>
        <time>2019-12-30T11:44:56Z</time>
      </trkpt>
      <trkpt lat="43.14335" lon="2.9994">
        <ele>2.19</ele>
        <time>2019-12-30T11:45:04Z</time>
      </trkpt>
      <trkpt lat="43.14337" lon="2.99904">
        <ele>2.61</ele>
        <time>2019-12-30T11:45:09Z</time>
      </trkpt>
      <trkpt lat="43.14339" lon="2.99898">
        <ele>2.3</ele>
        <time>2019-12-30T11:45:10Z</time>
      </trkpt>
      <trkpt lat="43.14343" lon="2.99887">
        <ele>1.99</ele>
        <time>2019-12-30T11:45:12Z</time>
      </trkpt>
      <trkpt lat="43.14362" lon="2.99842">
        <ele>1.27</ele>
        <time>2019-12-30T11:45:21Z</time>
      </trkpt>
      <trkpt lat="43.14365" lon="2.99838">
        <ele>1.44</ele>
        <time>2019-12-30T11:45:22Z</time>
      </trkpt>
      <trkpt lat="43.14376" lon="2.99828">
        <ele>1.42</ele>
        <time>2019-12-30T11:45:25Z</time>
      </trkpt>
      <trkpt lat="43.1438" lon="2.99825">
        <ele>1.61</ele>
        <time>2019-12-30T11:45:26Z</time>
      </trkpt>
      <trkpt lat="43.14384" lon="2.99824">
        <ele>1.61</ele>
        <time>2019-12-30T11:45:27Z</time>
      </trkpt>
      <trkpt lat="43.14388" lon="2.99824">
        <ele>1.99</ele>
        <time>2019-12-30T11:45:28Z</time>
      </trkpt>
      <trkpt lat="43.14392" lon="2.99825">
        <ele>1.76</ele>
        <time>2019-12-30T11:45:29Z</time>
      </trkpt>
      <trkpt lat="43.14397" lon="2.99827">
        <ele>1.34</ele>
        <time>2019-12-30T11:45:30Z</time>
      </trkpt>
      <trkpt lat="43.14401" lon="2.9983">
        <ele>1.54</ele>
        <time>2019-12-30T11:45:31Z</time>
      </trkpt>
      <trkpt lat="43.14409" lon="2.99835">
        <ele>1.74</ele>
        <time>2019-12-30T11:45:33Z</time>
      </trkpt>
      <trkpt lat="43.14414" lon="2.99836">
        <ele>1.94</ele>
        <time>2019-12-30T11:45:34Z</time>
      </trkpt>
      <trkpt lat="43.14417" lon="2.99838">
        <ele>1.67</ele>
        <time>2019-12-30T11:45:35Z</time>
      </trkpt>
      <trkpt lat="43.14435" lon="2.99833">
        <ele>1.91</ele>
        <time>2019-12-30T11:45:36Z</time>
      </trkpt>
      <trkpt lat="43.14439" lon="2.99841">
        <ele>0.97</ele>
        <time>2019-12-30T11:45:37Z</time>
      </trkpt>
      <trkpt lat="43.14452" lon="2.99852">
        <ele>0.42</ele>
        <time>2019-12-30T11:45:56Z</time>
      </trkpt>
      <trkpt lat="43.14476" lon="2.99841">
        <ele>0.86</ele>
        <time>2019-12-30T11:45:57Z</time>
      </trkpt>
      <trkpt lat="43.14516" lon="2.99826">
        <ele>1.18</ele>
        <time>2019-12-30T11:45:58Z</time>
      </trkpt>
      <trkpt lat="43.14558" lon="2.99819">
        <ele>1.31</ele>
        <time>2019-12-30T11:45:59Z</time>
      </trkpt>
      <trkpt lat="43.14574" lon="2.99816">
        <ele>13.82</ele>
        <time>2019-12-30T11:48:31Z</time>
      </trkpt>
      <trkpt lat="43.14586" lon="2.99813">
        <ele>13.75</ele>
        <time>2019-12-30T11:48:32Z</time>
      </trkpt>
      <trkpt lat="43.14595" lon="2.9981">
        <ele>14.01</ele>
        <time>2019-12-30T11:48:33Z</time>
      </trkpt>
      <trkpt lat="43.146" lon="2.99807">
        <ele>13.83</ele>
        <time>2019-12-30T11:48:34Z</time>
      </trkpt>
      <trkpt lat="43.14647" lon="2.99792">
        <ele>14.09</ele>
        <time>2019-12-30T11:48:48Z</time>
      </trkpt>
      <trkpt lat="43.14685" lon="2.99775">
        <ele>14.7</ele>
        <time>2019-12-30T11:49:00Z</time>
      </trkpt>
      <trkpt lat="43.14697" lon="2.99773">
        <ele>14.79</ele>
        <time>2019-12-30T11:49:15Z</time>
      </trkpt>
      <trkpt lat="43.14735" lon="2.99761">
        <ele>2.29</ele>
        <time>2019-12-30T11:51:26Z</time>
      </trkpt>
      <trkpt lat="43.14782" lon="2.99779">
        <ele>1.93</ele>
        <time>2019-12-30T11:51:40Z</time>
      </trkpt>
      <trkpt lat="43.14816" lon="2.99786">
        <ele>2.17</ele>
        <time>2019-12-30T11:51:49Z</time>
      </trkpt>
      <trkpt lat="43.14857" lon="2.99786">
        <ele>2.86</ele>
        <time>2019-12-30T11:52:00Z</time>
      </trkpt>
      <trkpt lat="43.14861" lon="2.99788">
        <ele>2.14</ele>
        <time>2019-12-30T11:52:01Z</time>
      </trkpt>
      <trkpt lat="43.14865" lon="2.99788">
        <ele>2.11</ele>
        <time>2019-12-30T11:52:02Z</time>
      </trkpt>
      <trkpt lat="43.14869" lon="2.99788">
        <ele>2.27</ele>
        <time>2019-12-30T11:52:03Z</time>
      </trkpt>
      <trkpt lat="43.14874" lon="2.99788">
        <ele>2.53</ele>
        <time>2019-12-30T11:52:04Z</time>
      </trkpt>
      <trkpt lat="43.14878" lon="2.99788">
        <ele>2.4</ele>
        <time>2019-12-30T11:52:05Z</time>
      </trkpt>
      <trkpt lat="43.14882" lon="2.9979">
        <ele>2.36</ele>
        <time>2019-12-30T11:52:06Z</time>
      </trkpt>
      <trkpt lat="43.14886" lon="2.99791">
        <ele>2.36</ele>
        <time>2019-12-30T11:52:07Z</time>
      </trkpt>
      <trkpt lat="43.14937" lon="2.99799">
        <ele>2.55</ele>
        <time>2019-12-30T11:52:20Z</time>
      </trkpt>
      <trkpt lat="43.14973" lon="2.99805">
        <ele>2.96</ele>
        <time>2019-12-30T11:52:29Z</time>
      </trkpt>
      <trkpt lat="43.15041" lon="2.99815">
        <ele>2.74</ele>
        <time>2019-12-30T11:52:46Z</time>
      </trkpt>
      <trkpt lat="43.15082" lon="2.9981">
        <ele>2.7</ele>
        <time>2019-12-30T11:52:57Z</time>
      </trkpt>
      <trkpt lat="43.15103" lon="2.99801">
        <ele>2.24</ele>
        <time>2019-12-30T11:53:03Z</time>
      </trkpt>
      <trkpt lat="43.15106" lon="2.99797">
        <ele>2.2</ele>
        <time>2019-12-30T11:53:04Z</time>
      </trkpt>
      <trkpt lat="43.15135" lon="2.99764">
        <ele>2.27</ele>
        <time>2019-12-30T11:53:15Z</time>
      </trkpt>
      <trkpt lat="43.15156" lon="2.99715">
        <ele>3.44</ele>
        <time>2019-12-30T11:53:27Z</time>
      </trkpt>
      <trkpt lat="43.15179" lon="2.99689">
        <ele>3.2</ele>
        <time>2019-12-30T11:53:37Z</time>
      </trkpt>
      <trkpt lat="43.15189" lon="2.99668">
        <ele>2.96</ele>
        <time>2019-12-30T11:53:47Z</time>
      </trkpt>
      <trkpt lat="43.1519" lon="2.99668">
        <ele>3.08</ele>
        <time>2019-12-30T11:53:48Z</time>
      </trkpt>
      <trkpt lat="43.15197" lon="2.99677">
        <ele>6.54</ele>
        <time>2019-12-30T11:53:56Z</time>
      </trkpt>
      <trkpt lat="43.15197" lon="2.99677">
        <ele>6.65</ele>
        <time>2019-12-30T11:53:57Z</time>
      </trkpt>
      <trkpt lat="43.15203" lon="2.99683">
        <ele>9.81</ele>
        <time>2019-12-30T11:54:04Z</time>
      </trkpt>
      <trkpt lat="43.15204" lon="2.99684">
        <ele>9.61</ele>
        <time>2019-12-30T11:54:05Z</time>
      </trkpt>
      <trkpt lat="43.15208" lon="2.99687">
        <ele>11.84</ele>
        <time>2019-12-30T11:54:19Z</time>
      </trkpt>
      <trkpt lat="43.15207" lon="2.99687">
        <ele>11.29</ele>
        <time>2019-12-30T11:54:40Z</time>
      </trkpt>
      <trkpt lat="43.1521" lon="2.99693">
        <ele>12.38</ele>
        <time>2019-12-30T11:54:58Z</time>
      </trkpt>
      <trkpt lat="43.15212" lon="2.99698">
        <ele>13.89</ele>
        <time>2019-12-30T11:55:02Z</time>
      </trkpt>
      <trkpt lat="43.15214" lon="2.99707">
        <ele>14.35</ele>
        <time>2019-12-30T11:55:09Z</time>
      </trkpt>
      <trkpt lat="43.15226" lon="2.99727">
        <ele>16</ele>
        <time>2019-12-30T11:55:17Z</time>
      </trkpt>
      <trkpt lat="43.15241" lon="2.99756">
        <ele>16.09</ele>
        <time>2019-12-30T11:55:25Z</time>
      </trkpt>
      <trkpt lat="43.15244" lon="2.99757">
        <ele>15.99</ele>
        <time>2019-12-30T11:55:26Z</time>
      </trkpt>
      <trkpt lat="43.15248" lon="2.99756">
        <ele>15.53</ele>
        <time>2019-12-30T11:55:27Z</time>
      </trkpt>
      <trkpt lat="43.15252" lon="2.99754">
        <ele>16.5</ele>
        <time>2019-12-30T11:55:28Z</time>
      </trkpt>
      <trkpt lat="43.15254" lon="2.99751">
        <ele>15.91</ele>
        <time>2019-12-30T11:55:29Z</time>
      </trkpt>
      <trkpt lat="43.15257" lon="2.99748">
        <ele>15.98</ele>
        <time>2019-12-30T11:55:30Z</time>
      </trkpt>
      <trkpt lat="43.1526" lon="2.99745">
        <ele>16.05</ele>
        <time>2019-12-30T11:55:31Z</time>
      </trkpt>
      <trkpt lat="43.15264" lon="2.99744">
        <ele>15.49</ele>
        <time>2019-12-30T11:55:32Z</time>
      </trkpt>
    </trkseg>
  </trk>
</gpx>